<?xml version='1.0' encoding='UTF-8'?><gpx version="1.1" creator="JPX - https://github.com/jenetics/jpx" xmlns="http://www.topografix.com/GPX/1/1"><trk><trkseg><trkpt lat="44.9973386" lon="9.7875707"><ele>67.0</ele><time>2026-05-01T06:30:07.994Z</time></trkpt><trkpt lat="44.9973295" lon="9.7876626"><ele>67.0</ele><time>2026-05-01T06:30:12.99Z</time></trkpt><trkpt lat="44.9972759" lon="9.7877367"><ele>67.0</ele><time>2026-05-01T06:30:15.991Z</time></trkpt><trkpt lat="44.9972053" lon="9.7878132"><ele>67.0</ele><time>2026-05-01T06:30:18.99Z</time></trkpt><trkpt lat="44.9971592" lon="9.7878788"><ele>67.0</ele><time>2026-05-01T06:30:20.992Z</time></trkpt><trkpt lat="44.9971173" lon="9.787946"><ele>67.0</ele><time>2026-05-01T06:30:22.996Z</time></trkpt><trkpt lat="44.9970487" lon="9.7879376"><ele>67.0</ele><time>2026-05-01T06:30:25.992Z</time></trkpt><trkpt lat="44.9969884" lon="9.7878622"><ele>67.0</ele><time>2026-05-01T06:30:27.998Z</time></trkpt><trkpt lat="44.9969183" lon="9.7877932"><ele>67.0</ele><time>2026-05-01T06:30:29.995Z</time></trkpt><trkpt lat="44.9968581" lon="9.7877173"><ele>67.0</ele><time>2026-05-01T06:30:31.992Z</time></trkpt><trkpt lat="44.9967919" lon="9.7876458"><ele>67.0</ele><time>2026-05-01T06:30:34.001Z</time></trkpt><trkpt lat="44.9967306" lon="9.7875735"><ele>67.0</ele><time>2026-05-01T06:30:35.994Z</time></trkpt><trkpt lat="44.996669" lon="9.7874948"><ele>67.0</ele><time>2026-05-01T06:30:37.994Z</time></trkpt><trkpt lat="44.9966104" lon="9.7874172"><ele>66.8</ele><time>2026-05-01T06:30:39.999Z</time></trkpt><trkpt lat="44.9965367" lon="9.787339"><ele>66.6</ele><time>2026-05-01T06:30:41.993Z</time></trkpt><trkpt lat="44.9964731" lon="9.7872513"><ele>66.39999999999999</ele><time>2026-05-01T06:30:43.991Z</time></trkpt><trkpt lat="44.9964106" lon="9.7871643"><ele>66.2</ele><time>2026-05-01T06:30:45.99Z</time></trkpt><trkpt lat="44.996341" lon="9.7870696"><ele>66.0</ele><time>2026-05-01T06:30:48.002Z</time></trkpt><trkpt lat="44.9962704" lon="9.7869923"><ele>66.0</ele><time>2026-05-01T06:30:49.992Z</time></trkpt><trkpt lat="44.9962051" lon="9.7869066"><ele>66.0</ele><time>2026-05-01T06:30:51.991Z</time></trkpt><trkpt lat="44.9961346" lon="9.786831"><ele>66.0</ele><time>2026-05-01T06:30:53.996Z</time></trkpt><trkpt lat="44.9960497" lon="9.7867741"><ele>66.0</ele><time>2026-05-01T06:30:55.991Z</time></trkpt><trkpt lat="44.9959699" lon="9.786706"><ele>66.0</ele><time>2026-05-01T06:30:58.01Z</time></trkpt><trkpt lat="44.9958951" lon="9.7866349"><ele>66.16666666666667</ele><time>2026-05-01T06:31:00.016Z</time></trkpt><trkpt lat="44.9958086" lon="9.7865841"><ele>66.33333333333333</ele><time>2026-05-01T06:31:02.024Z</time></trkpt><trkpt lat="44.9957334" lon="9.7865345"><ele>66.5</ele><time>2026-05-01T06:31:04.004Z</time></trkpt><trkpt lat="44.9956572" lon="9.7864909"><ele>66.66666666666666</ele><time>2026-05-01T06:31:06.032Z</time></trkpt><trkpt lat="44.9955812" lon="9.7864172"><ele>66.83333333333333</ele><time>2026-05-01T06:31:08.018Z</time></trkpt><trkpt lat="44.9954989" lon="9.7863569"><ele>67.0</ele><time>2026-05-01T06:31:10.029Z</time></trkpt><trkpt lat="44.9954156" lon="9.7862984"><ele>67.0</ele><time>2026-05-01T06:31:12.005Z</time></trkpt><trkpt lat="44.9953311" lon="9.7862408"><ele>67.0</ele><time>2026-05-01T06:31:14.013Z</time></trkpt><trkpt lat="44.9952444" lon="9.7862"><ele>67.0</ele><time>2026-05-01T06:31:16.018Z</time></trkpt><trkpt lat="44.9951627" lon="9.7861471"><ele>67.0</ele><time>2026-05-01T06:31:18.022Z</time></trkpt><trkpt lat="44.9950874" lon="9.7861009"><ele>67.0</ele><time>2026-05-01T06:31:20.023Z</time></trkpt><trkpt lat="44.9950023" lon="9.7860471"><ele>67.0</ele><time>2026-05-01T06:31:22.029Z</time></trkpt><trkpt lat="44.9949128" lon="9.7860053"><ele>67.0</ele><time>2026-05-01T06:31:24.027Z</time></trkpt><trkpt lat="44.9948241" lon="9.785959"><ele>67.0</ele><time>2026-05-01T06:31:26.017Z</time></trkpt><trkpt lat="44.9947374" lon="9.7859017"><ele>67.0</ele><time>2026-05-01T06:31:28.024Z</time></trkpt><trkpt lat="44.9946545" lon="9.7858481"><ele>67.0</ele><time>2026-05-01T06:31:30.026Z</time></trkpt><trkpt lat="44.9945618" lon="9.7857889"><ele>67.0</ele><time>2026-05-01T06:31:32.021Z</time></trkpt><trkpt lat="44.9944799" lon="9.785724"><ele>67.0</ele><time>2026-05-01T06:31:34.018Z</time></trkpt><trkpt lat="44.9943949" lon="9.785665"><ele>67.0</ele><time>2026-05-01T06:31:36.024Z</time></trkpt><trkpt lat="44.994308" lon="9.7856194"><ele>67.0</ele><time>2026-05-01T06:31:38.024Z</time></trkpt><trkpt lat="44.9942238" lon="9.7855645"><ele>67.0</ele><time>2026-05-01T06:31:40.023Z</time></trkpt><trkpt lat="44.9941427" lon="9.7855149"><ele>66.8</ele><time>2026-05-01T06:31:42.015Z</time></trkpt><trkpt lat="44.9940532" lon="9.7854664"><ele>66.6</ele><time>2026-05-01T06:31:44.025Z</time></trkpt><trkpt lat="44.9939676" lon="9.7854146"><ele>66.39999999999999</ele><time>2026-05-01T06:31:46.008Z</time></trkpt><trkpt lat="44.9938791" lon="9.7853604"><ele>66.2</ele><time>2026-05-01T06:31:48.023Z</time></trkpt><trkpt lat="44.9937918" lon="9.7853028"><ele>66.0</ele><time>2026-05-01T06:31:49.985Z</time></trkpt><trkpt lat="44.9936984" lon="9.7852618"><ele>66.0</ele><time>2026-05-01T06:31:51.992Z</time></trkpt><trkpt lat="44.9936088" lon="9.7852219"><ele>66.0</ele><time>2026-05-01T06:31:53.989Z</time></trkpt><trkpt lat="44.993518" lon="9.7851803"><ele>66.0</ele><time>2026-05-01T06:31:56.009Z</time></trkpt><trkpt lat="44.9934324" lon="9.7851291"><ele>66.0</ele><time>2026-05-01T06:31:58.011Z</time></trkpt><trkpt lat="44.9933436" lon="9.7851038"><ele>66.0</ele><time>2026-05-01T06:32:00.03Z</time></trkpt><trkpt lat="44.9932501" lon="9.7850644"><ele>66.0</ele><time>2026-05-01T06:32:02.011Z</time></trkpt><trkpt lat="44.9931597" lon="9.7850286"><ele>66.0</ele><time>2026-05-01T06:32:04.03Z</time></trkpt><trkpt lat="44.9930721" lon="9.7849919"><ele>66.0</ele><time>2026-05-01T06:32:06.021Z</time></trkpt><trkpt lat="44.9929768" lon="9.7849629"><ele>66.0</ele><time>2026-05-01T06:32:08.026Z</time></trkpt><trkpt lat="44.9928933" lon="9.7849249"><ele>66.0</ele><time>2026-05-01T06:32:10.025Z</time></trkpt><trkpt lat="44.9928033" lon="9.7848877"><ele>66.0</ele><time>2026-05-01T06:32:12.021Z</time></trkpt><trkpt lat="44.9927127" lon="9.7848494"><ele>66.0</ele><time>2026-05-01T06:32:14.026Z</time></trkpt><trkpt lat="44.9926234" lon="9.7848121"><ele>66.0</ele><time>2026-05-01T06:32:16.008Z</time></trkpt><trkpt lat="44.9925439" lon="9.7847803"><ele>66.0</ele><time>2026-05-01T06:32:18.023Z</time></trkpt><trkpt lat="44.9924734" lon="9.7847557"><ele>66.0</ele><time>2026-05-01T06:32:20.009Z</time></trkpt><trkpt lat="44.9924005" lon="9.7847598"><ele>66.0</ele><time>2026-05-01T06:32:22.001Z</time></trkpt><trkpt lat="44.9923073" lon="9.7847502"><ele>66.0</ele><time>2026-05-01T06:32:24.012Z</time></trkpt><trkpt lat="44.9922187" lon="9.784724"><ele>66.0</ele><time>2026-05-01T06:32:26.013Z</time></trkpt><trkpt lat="44.9921299" lon="9.784701"><ele>66.0</ele><time>2026-05-01T06:32:28.02Z</time></trkpt><trkpt lat="44.9920413" lon="9.7846746"><ele>66.0</ele><time>2026-05-01T06:32:30.017Z</time></trkpt><trkpt lat="44.9919521" lon="9.7846398"><ele>66.0</ele><time>2026-05-01T06:32:32.009Z</time></trkpt><trkpt lat="44.9918631" lon="9.7846084"><ele>66.0</ele><time>2026-05-01T06:32:34.026Z</time></trkpt><trkpt lat="44.9917785" lon="9.7845762"><ele>66.0</ele><time>2026-05-01T06:32:36.028Z</time></trkpt><trkpt lat="44.991687" lon="9.7845402"><ele>66.0</ele><time>2026-05-01T06:32:38.019Z</time></trkpt><trkpt lat="44.9915929" lon="9.7845044"><ele>66.0</ele><time>2026-05-01T06:32:40.022Z</time></trkpt><trkpt lat="44.9915091" lon="9.7844554"><ele>66.0</ele><time>2026-05-01T06:32:42.021Z</time></trkpt><trkpt lat="44.9914216" lon="9.7844112"><ele>66.0</ele><time>2026-05-01T06:32:44.02Z</time></trkpt><trkpt lat="44.9913301" lon="9.7843738"><ele>66.0</ele><time>2026-05-01T06:32:45.997Z</time></trkpt><trkpt lat="44.9912467" lon="9.7843313"><ele>66.0</ele><time>2026-05-01T06:32:48.021Z</time></trkpt><trkpt lat="44.9911579" lon="9.784283"><ele>66.0</ele><time>2026-05-01T06:32:50.014Z</time></trkpt><trkpt lat="44.9910686" lon="9.7842487"><ele>66.0</ele><time>2026-05-01T06:32:52.024Z</time></trkpt><trkpt lat="44.9909791" lon="9.7841975"><ele>65.6</ele><time>2026-05-01T06:32:54.019Z</time></trkpt><trkpt lat="44.9908851" lon="9.7841584"><ele>65.19999999999999</ele><time>2026-05-01T06:32:56.017Z</time></trkpt><trkpt lat="44.9907981" lon="9.7841154"><ele>64.80000000000001</ele><time>2026-05-01T06:32:58.021Z</time></trkpt><trkpt lat="44.990702" lon="9.7840729"><ele>64.4</ele><time>2026-05-01T06:33:00.022Z</time></trkpt><trkpt lat="44.9906086" lon="9.7840286"><ele>64.0</ele><time>2026-05-01T06:33:02.022Z</time></trkpt><trkpt lat="44.9905226" lon="9.7839958"><ele>64.0</ele><time>2026-05-01T06:33:04.024Z</time></trkpt><trkpt lat="44.9904323" lon="9.7839513"><ele>64.0</ele><time>2026-05-01T06:33:06.028Z</time></trkpt><trkpt lat="44.9903488" lon="9.7839085"><ele>64.0</ele><time>2026-05-01T06:33:08.022Z</time></trkpt><trkpt lat="44.990265" lon="9.7838686"><ele>64.0</ele><time>2026-05-01T06:33:10.03Z</time></trkpt><trkpt lat="44.9901792" lon="9.7838292"><ele>64.0</ele><time>2026-05-01T06:33:12.024Z</time></trkpt><trkpt lat="44.9900928" lon="9.7837777"><ele>64.2</ele><time>2026-05-01T06:33:14.026Z</time></trkpt><trkpt lat="44.9900016" lon="9.7837372"><ele>64.4</ele><time>2026-05-01T06:33:16.024Z</time></trkpt><trkpt lat="44.9899161" lon="9.7836837"><ele>64.6</ele><time>2026-05-01T06:33:18.025Z</time></trkpt><trkpt lat="44.9898268" lon="9.7836378"><ele>64.8</ele><time>2026-05-01T06:33:20.028Z</time></trkpt><trkpt lat="44.9897371" lon="9.783586"><ele>65.0</ele><time>2026-05-01T06:33:22.019Z</time></trkpt><trkpt lat="44.9896423" lon="9.7835313"><ele>65.2</ele><time>2026-05-01T06:33:24.03Z</time></trkpt><trkpt lat="44.9895523" lon="9.7834855"><ele>65.4</ele><time>2026-05-01T06:33:26.024Z</time></trkpt><trkpt lat="44.9894596" lon="9.7834351"><ele>65.6</ele><time>2026-05-01T06:33:28.029Z</time></trkpt><trkpt lat="44.9893697" lon="9.7833868"><ele>65.8</ele><time>2026-05-01T06:33:30.02Z</time></trkpt><trkpt lat="44.9892772" lon="9.7833457"><ele>66.0</ele><time>2026-05-01T06:33:32.034Z</time></trkpt><trkpt lat="44.9891941" lon="9.7832836"><ele>66.0</ele><time>2026-05-01T06:33:34.027Z</time></trkpt><trkpt lat="44.9891628" lon="9.7831677"><ele>66.0</ele><time>2026-05-01T06:33:36.024Z</time></trkpt><trkpt lat="44.9891891" lon="9.7830389"><ele>66.0</ele><time>2026-05-01T06:33:38.027Z</time></trkpt><trkpt lat="44.9892079" lon="9.7829069"><ele>66.0</ele><time>2026-05-01T06:33:40.024Z</time></trkpt><trkpt lat="44.9891918" lon="9.7827826"><ele>66.0</ele><time>2026-05-01T06:33:42.031Z</time></trkpt><trkpt lat="44.9891081" lon="9.782709"><ele>65.8</ele><time>2026-05-01T06:33:44.016Z</time></trkpt><trkpt lat="44.9890143" lon="9.78268"><ele>65.6</ele><time>2026-05-01T06:33:46.016Z</time></trkpt><trkpt lat="44.9889201" lon="9.7826466"><ele>65.4</ele><time>2026-05-01T06:33:48.023Z</time></trkpt><trkpt lat="44.9888287" lon="9.7826116"><ele>65.2</ele><time>2026-05-01T06:33:50.022Z</time></trkpt><trkpt lat="44.9887385" lon="9.7825831"><ele>65.0</ele><time>2026-05-01T06:33:52.019Z</time></trkpt><trkpt lat="44.9886495" lon="9.782557"><ele>65.0</ele><time>2026-05-01T06:33:54.022Z</time></trkpt><trkpt lat="44.9885642" lon="9.7825286"><ele>65.0</ele><time>2026-05-01T06:33:56.019Z</time></trkpt><trkpt lat="44.988472" lon="9.7825002"><ele>65.0</ele><time>2026-05-01T06:33:58.025Z</time></trkpt><trkpt lat="44.9883823" lon="9.7824806"><ele>65.0</ele><time>2026-05-01T06:34:00.024Z</time></trkpt><trkpt lat="44.9882932" lon="9.7824569"><ele>65.0</ele><time>2026-05-01T06:34:02.019Z</time></trkpt><trkpt lat="44.9882064" lon="9.7824313"><ele>64.8</ele><time>2026-05-01T06:34:04.029Z</time></trkpt><trkpt lat="44.9881142" lon="9.7824061"><ele>64.6</ele><time>2026-05-01T06:34:06.012Z</time></trkpt><trkpt lat="44.9880211" lon="9.7823764"><ele>64.4</ele><time>2026-05-01T06:34:08.027Z</time></trkpt><trkpt lat="44.9879288" lon="9.782349"><ele>64.2</ele><time>2026-05-01T06:34:10.025Z</time></trkpt><trkpt lat="44.987833" lon="9.7823212"><ele>64.0</ele><time>2026-05-01T06:34:12.034Z</time></trkpt><trkpt lat="44.9877424" lon="9.7822948"><ele>64.0</ele><time>2026-05-01T06:34:14.024Z</time></trkpt><trkpt lat="44.9876482" lon="9.7822717"><ele>64.0</ele><time>2026-05-01T06:34:16.023Z</time></trkpt><trkpt lat="44.9875611" lon="9.7822478"><ele>64.0</ele><time>2026-05-01T06:34:18.025Z</time></trkpt><trkpt lat="44.987474" lon="9.7822231"><ele>64.0</ele><time>2026-05-01T06:34:20.03Z</time></trkpt><trkpt lat="44.9873806" lon="9.7821972"><ele>64.0</ele><time>2026-05-01T06:34:22.02Z</time></trkpt><trkpt lat="44.9872869" lon="9.7821727"><ele>64.4</ele><time>2026-05-01T06:34:24.03Z</time></trkpt><trkpt lat="44.9872001" lon="9.7821475"><ele>64.80000000000001</ele><time>2026-05-01T06:34:25.999Z</time></trkpt><trkpt lat="44.987108" lon="9.7821178"><ele>65.19999999999999</ele><time>2026-05-01T06:34:28.02Z</time></trkpt><trkpt lat="44.9870176" lon="9.7820898"><ele>65.6</ele><time>2026-05-01T06:34:30.021Z</time></trkpt><trkpt lat="44.9869291" lon="9.7820701"><ele>66.0</ele><time>2026-05-01T06:34:32.024Z</time></trkpt><trkpt lat="44.9868316" lon="9.7820399"><ele>66.0</ele><time>2026-05-01T06:34:34.039Z</time></trkpt><trkpt lat="44.9867369" lon="9.7820203"><ele>66.0</ele><time>2026-05-01T06:34:36.027Z</time></trkpt><trkpt lat="44.9866465" lon="9.781991"><ele>66.0</ele><time>2026-05-01T06:34:38.024Z</time></trkpt><trkpt lat="44.9865655" lon="9.781939"><ele>66.0</ele><time>2026-05-01T06:34:40.021Z</time></trkpt><trkpt lat="44.9865046" lon="9.7818403"><ele>66.0</ele><time>2026-05-01T06:34:42.023Z</time></trkpt><trkpt lat="44.986504" lon="9.7816993"><ele>66.0</ele><time>2026-05-01T06:34:44.021Z</time></trkpt><trkpt lat="44.9865206" lon="9.7815673"><ele>66.0</ele><time>2026-05-01T06:34:46.019Z</time></trkpt><trkpt lat="44.9865446" lon="9.7814346"><ele>66.0</ele><time>2026-05-01T06:34:48.028Z</time></trkpt><trkpt lat="44.9865579" lon="9.7813046"><ele>66.0</ele><time>2026-05-01T06:34:50.017Z</time></trkpt><trkpt lat="44.9865763" lon="9.7811747"><ele>66.0</ele><time>2026-05-01T06:34:52.029Z</time></trkpt><trkpt lat="44.9865969" lon="9.7810507"><ele>65.83333333333333</ele><time>2026-05-01T06:34:54.021Z</time></trkpt><trkpt lat="44.9866131" lon="9.7809193"><ele>65.66666666666667</ele><time>2026-05-01T06:34:56.025Z</time></trkpt><trkpt lat="44.9866305" lon="9.7807906"><ele>65.5</ele><time>2026-05-01T06:34:58.029Z</time></trkpt><trkpt lat="44.986628" lon="9.7806749"><ele>65.33333333333334</ele><time>2026-05-01T06:35:00.018Z</time></trkpt><trkpt lat="44.9865984" lon="9.7805731"><ele>65.16666666666667</ele><time>2026-05-01T06:35:02.022Z</time></trkpt><trkpt lat="44.9865267" lon="9.7804943"><ele>65.0</ele><time>2026-05-01T06:35:04.008Z</time></trkpt><trkpt lat="44.9864373" lon="9.7804465"><ele>65.0</ele><time>2026-05-01T06:35:06.022Z</time></trkpt><trkpt lat="44.9863478" lon="9.7804072"><ele>65.0</ele><time>2026-05-01T06:35:08.034Z</time></trkpt><trkpt lat="44.9862657" lon="9.7803667"><ele>65.0</ele><time>2026-05-01T06:35:10.024Z</time></trkpt><trkpt lat="44.9861817" lon="9.7803189"><ele>65.0</ele><time>2026-05-01T06:35:12.026Z</time></trkpt><trkpt lat="44.9861" lon="9.7802873"><ele>65.0</ele><time>2026-05-01T06:35:14.022Z</time></trkpt><trkpt lat="44.9860195" lon="9.7802443"><ele>65.0</ele><time>2026-05-01T06:35:16.011Z</time></trkpt><trkpt lat="44.9859437" lon="9.7802006"><ele>65.00000000000001</ele><time>2026-05-01T06:35:18.028Z</time></trkpt><trkpt lat="44.9858823" lon="9.7801668"><ele>65.0</ele><time>2026-05-01T06:35:21.013Z</time></trkpt><trkpt lat="44.9858104" lon="9.7801356"><ele>65.0</ele><time>2026-05-01T06:36:08.026Z</time></trkpt><trkpt lat="44.9857412" lon="9.7800905"><ele>65.0</ele><time>2026-05-01T06:36:11.038Z</time></trkpt><trkpt lat="44.9856792" lon="9.7800579"><ele>65.0</ele><time>2026-05-01T06:36:13.024Z</time></trkpt><trkpt lat="44.9856054" lon="9.7800191"><ele>65.00000000000001</ele><time>2026-05-01T06:36:15.015Z</time></trkpt><trkpt lat="44.9855333" lon="9.7799834"><ele>65.0</ele><time>2026-05-01T06:36:17.028Z</time></trkpt><trkpt lat="44.9854553" lon="9.7799531"><ele>65.0</ele><time>2026-05-01T06:36:19.019Z</time></trkpt><trkpt lat="44.9853793" lon="9.7799068"><ele>65.0</ele><time>2026-05-01T06:36:21.023Z</time></trkpt><trkpt lat="44.9852919" lon="9.7798666"><ele>65.0</ele><time>2026-05-01T06:36:23.005Z</time></trkpt><trkpt lat="44.985212" lon="9.7798321"><ele>65.0</ele><time>2026-05-01T06:36:25.024Z</time></trkpt><trkpt lat="44.9851332" lon="9.7797873"><ele>65.0</ele><time>2026-05-01T06:36:27.027Z</time></trkpt><trkpt lat="44.9850557" lon="9.7797399"><ele>65.0</ele><time>2026-05-01T06:36:29.027Z</time></trkpt><trkpt lat="44.9849755" lon="9.7796997"><ele>65.0</ele><time>2026-05-01T06:36:31.024Z</time></trkpt><trkpt lat="44.9848969" lon="9.7796626"><ele>65.0</ele><time>2026-05-01T06:36:33.017Z</time></trkpt><trkpt lat="44.9848211" lon="9.7796284"><ele>65.0</ele><time>2026-05-01T06:36:35.019Z</time></trkpt><trkpt lat="44.9847484" lon="9.7795844"><ele>65.0</ele><time>2026-05-01T06:36:37.02Z</time></trkpt><trkpt lat="44.9846653" lon="9.7795474"><ele>65.0</ele><time>2026-05-01T06:36:39.028Z</time></trkpt><trkpt lat="44.9845804" lon="9.7795086"><ele>65.0</ele><time>2026-05-01T06:36:41.026Z</time></trkpt><trkpt lat="44.9844989" lon="9.779474"><ele>65.0</ele><time>2026-05-01T06:36:43.024Z</time></trkpt><trkpt lat="44.9844163" lon="9.7794345"><ele>65.0</ele><time>2026-05-01T06:36:45.036Z</time></trkpt><trkpt lat="44.984332" lon="9.7793878"><ele>65.0</ele><time>2026-05-01T06:36:47.036Z</time></trkpt><trkpt lat="44.9842442" lon="9.7793405"><ele>65.0</ele><time>2026-05-01T06:36:49.023Z</time></trkpt><trkpt lat="44.9841564" lon="9.7793028"><ele>65.0</ele><time>2026-05-01T06:36:51.026Z</time></trkpt><trkpt lat="44.9840744" lon="9.7792605"><ele>65.6</ele><time>2026-05-01T06:36:53.02Z</time></trkpt><trkpt lat="44.983987" lon="9.779214"><ele>66.2</ele><time>2026-05-01T06:36:55.024Z</time></trkpt><trkpt lat="44.9839031" lon="9.7791718"><ele>66.8</ele><time>2026-05-01T06:36:57.025Z</time></trkpt><trkpt lat="44.9838205" lon="9.7791291"><ele>67.4</ele><time>2026-05-01T06:36:59.028Z</time></trkpt><trkpt lat="44.9837369" lon="9.7790763"><ele>68.0</ele><time>2026-05-01T06:37:01.024Z</time></trkpt><trkpt lat="44.983651" lon="9.7790398"><ele>68.0</ele><time>2026-05-01T06:37:03.026Z</time></trkpt><trkpt lat="44.9835637" lon="9.778993"><ele>68.0</ele><time>2026-05-01T06:37:05.024Z</time></trkpt><trkpt lat="44.983478" lon="9.778941"><ele>68.0</ele><time>2026-05-01T06:37:07.041Z</time></trkpt><trkpt lat="44.983395" lon="9.7789033"><ele>68.0</ele><time>2026-05-01T06:37:09.026Z</time></trkpt><trkpt lat="44.9833031" lon="9.7788581"><ele>68.0</ele><time>2026-05-01T06:37:11.03Z</time></trkpt><trkpt lat="44.9832171" lon="9.7788172"><ele>68.33333333333334</ele><time>2026-05-01T06:37:13.033Z</time></trkpt><trkpt lat="44.983131" lon="9.7787715"><ele>68.66666666666667</ele><time>2026-05-01T06:37:15.025Z</time></trkpt><trkpt lat="44.9830424" lon="9.7787291"><ele>69.0</ele><time>2026-05-01T06:37:17.029Z</time></trkpt><trkpt lat="44.9829608" lon="9.7786887"><ele>69.33333333333333</ele><time>2026-05-01T06:37:19.033Z</time></trkpt><trkpt lat="44.982875" lon="9.7786478"><ele>69.66666666666666</ele><time>2026-05-01T06:37:21.03Z</time></trkpt><trkpt lat="44.9827981" lon="9.7786064"><ele>70.0</ele><time>2026-05-01T06:37:23.032Z</time></trkpt><trkpt lat="44.9827234" lon="9.7785665"><ele>70.0</ele><time>2026-05-01T06:37:25.025Z</time></trkpt><trkpt lat="44.9826419" lon="9.7785354"><ele>70.0</ele><time>2026-05-01T06:37:27.025Z</time></trkpt><trkpt lat="44.9825717" lon="9.7785065"><ele>70.0</ele><time>2026-05-01T06:37:29.013Z</time></trkpt><trkpt lat="44.9825509" lon="9.7784034"><ele>70.0</ele><time>2026-05-01T06:37:31.023Z</time></trkpt><trkpt lat="44.9825737" lon="9.7782885"><ele>70.0</ele><time>2026-05-01T06:37:33.037Z</time></trkpt><trkpt lat="44.9825979" lon="9.7781644"><ele>70.0</ele><time>2026-05-01T06:37:35.023Z</time></trkpt><trkpt lat="44.9826206" lon="9.7780344"><ele>70.0</ele><time>2026-05-01T06:37:37.034Z</time></trkpt><trkpt lat="44.982647" lon="9.7779069"><ele>70.0</ele><time>2026-05-01T06:37:39.026Z</time></trkpt><trkpt lat="44.9826626" lon="9.7777867"><ele>70.0</ele><time>2026-05-01T06:37:41.035Z</time></trkpt><trkpt lat="44.9826782" lon="9.7776566"><ele>70.0</ele><time>2026-05-01T06:37:42.995Z</time></trkpt><trkpt lat="44.9827031" lon="9.7775353"><ele>70.0</ele><time>2026-05-01T06:37:44.998Z</time></trkpt><trkpt lat="44.9827191" lon="9.7774092"><ele>70.0</ele><time>2026-05-01T06:37:47.028Z</time></trkpt><trkpt lat="44.9827394" lon="9.7772771"><ele>70.0</ele><time>2026-05-01T06:37:49.027Z</time></trkpt><trkpt lat="44.9827625" lon="9.7771507"><ele>70.0</ele><time>2026-05-01T06:37:51.019Z</time></trkpt><trkpt lat="44.9827921" lon="9.7770289"><ele>70.0</ele><time>2026-05-01T06:37:53.022Z</time></trkpt><trkpt lat="44.9828117" lon="9.7769079"><ele>70.0</ele><time>2026-05-01T06:37:55.015Z</time></trkpt><trkpt lat="44.9828308" lon="9.7767769"><ele>70.0</ele><time>2026-05-01T06:37:57.017Z</time></trkpt><trkpt lat="44.9828599" lon="9.7766515"><ele>70.0</ele><time>2026-05-01T06:37:59.025Z</time></trkpt><trkpt lat="44.9828911" lon="9.7765257"><ele>70.0</ele><time>2026-05-01T06:38:01.024Z</time></trkpt><trkpt lat="44.9829154" lon="9.7763898"><ele>70.0</ele><time>2026-05-01T06:38:03.033Z</time></trkpt><trkpt lat="44.9829365" lon="9.7762591"><ele>70.0</ele><time>2026-05-01T06:38:05.031Z</time></trkpt><trkpt lat="44.9829601" lon="9.7761364"><ele>70.2</ele><time>2026-05-01T06:38:07.031Z</time></trkpt><trkpt lat="44.9829851" lon="9.7759996"><ele>70.4</ele><time>2026-05-01T06:38:09.03Z</time></trkpt><trkpt lat="44.9830069" lon="9.7758746"><ele>70.6</ele><time>2026-05-01T06:38:11.016Z</time></trkpt><trkpt lat="44.9830304" lon="9.7757469"><ele>70.8</ele><time>2026-05-01T06:38:13.028Z</time></trkpt><trkpt lat="44.9830373" lon="9.7756131"><ele>71.0</ele><time>2026-05-01T06:38:15.031Z</time></trkpt><trkpt lat="44.9830642" lon="9.7754837"><ele>71.0</ele><time>2026-05-01T06:38:17.026Z</time></trkpt><trkpt lat="44.9830881" lon="9.775352"><ele>71.0</ele><time>2026-05-01T06:38:19.035Z</time></trkpt><trkpt lat="44.9831047" lon="9.7752336"><ele>71.0</ele><time>2026-05-01T06:38:21.026Z</time></trkpt><trkpt lat="44.9831278" lon="9.7751025"><ele>71.0</ele><time>2026-05-01T06:38:23.036Z</time></trkpt><trkpt lat="44.9831491" lon="9.7749723"><ele>71.0</ele><time>2026-05-01T06:38:25.03Z</time></trkpt><trkpt lat="44.983176" lon="9.7748435"><ele>71.0</ele><time>2026-05-01T06:38:27.023Z</time></trkpt><trkpt lat="44.9831985" lon="9.7747114"><ele>71.0</ele><time>2026-05-01T06:38:29.026Z</time></trkpt><trkpt lat="44.9832264" lon="9.7745868"><ele>71.0</ele><time>2026-05-01T06:38:31.025Z</time></trkpt><trkpt lat="44.9832468" lon="9.7744587"><ele>71.0</ele><time>2026-05-01T06:38:33.035Z</time></trkpt><trkpt lat="44.983271" lon="9.7743336"><ele>71.0</ele><time>2026-05-01T06:38:35.031Z</time></trkpt><trkpt lat="44.9832972" lon="9.7742239"><ele>71.0</ele><time>2026-05-01T06:38:37.022Z</time></trkpt><trkpt lat="44.9833166" lon="9.7741082"><ele>71.0</ele><time>2026-05-01T06:38:39.032Z</time></trkpt><trkpt lat="44.9833392" lon="9.7739787"><ele>71.0</ele><time>2026-05-01T06:38:41.038Z</time></trkpt><trkpt lat="44.9833614" lon="9.7738527"><ele>71.0</ele><time>2026-05-01T06:38:43.024Z</time></trkpt><trkpt lat="44.9833855" lon="9.7737241"><ele>71.0</ele><time>2026-05-01T06:38:45.033Z</time></trkpt><trkpt lat="44.9834071" lon="9.7735971"><ele>71.0</ele><time>2026-05-01T06:38:47.028Z</time></trkpt><trkpt lat="44.9834284" lon="9.7734647"><ele>71.0</ele><time>2026-05-01T06:38:49.024Z</time></trkpt><trkpt lat="44.9834499" lon="9.7733394"><ele>71.0</ele><time>2026-05-01T06:38:51.027Z</time></trkpt><trkpt lat="44.9834602" lon="9.773227"><ele>71.0</ele><time>2026-05-01T06:38:53.025Z</time></trkpt><trkpt lat="44.9834025" lon="9.7731519"><ele>71.0</ele><time>2026-05-01T06:38:55.03Z</time></trkpt><trkpt lat="44.983322" lon="9.7731098"><ele>71.0</ele><time>2026-05-01T06:38:57.025Z</time></trkpt><trkpt lat="44.9832365" lon="9.7730643"><ele>71.0</ele><time>2026-05-01T06:38:59.015Z</time></trkpt><trkpt lat="44.9831517" lon="9.773019"><ele>71.0</ele><time>2026-05-01T06:39:01.032Z</time></trkpt><trkpt lat="44.9830611" lon="9.7729746"><ele>71.0</ele><time>2026-05-01T06:39:03.029Z</time></trkpt><trkpt lat="44.9829746" lon="9.772931"><ele>71.0</ele><time>2026-05-01T06:39:05.028Z</time></trkpt><trkpt lat="44.9828925" lon="9.772888"><ele>71.0</ele><time>2026-05-01T06:39:07.018Z</time></trkpt><trkpt lat="44.9828007" lon="9.7728364"><ele>71.0</ele><time>2026-05-01T06:39:09.031Z</time></trkpt><trkpt lat="44.9827176" lon="9.7727865"><ele>71.0</ele><time>2026-05-01T06:39:11.02Z</time></trkpt><trkpt lat="44.9826274" lon="9.772738"><ele>71.0</ele><time>2026-05-01T06:39:13.033Z</time></trkpt><trkpt lat="44.9825405" lon="9.7726862"><ele>71.0</ele><time>2026-05-01T06:39:15.037Z</time></trkpt><trkpt lat="44.9824537" lon="9.7726407"><ele>71.0</ele><time>2026-05-01T06:39:17.024Z</time></trkpt><trkpt lat="44.9823569" lon="9.7725932"><ele>71.0</ele><time>2026-05-01T06:39:19.025Z</time></trkpt><trkpt lat="44.9822757" lon="9.7725499"><ele>71.0</ele><time>2026-05-01T06:39:21.026Z</time></trkpt><trkpt lat="44.9821889" lon="9.7725067"><ele>71.0</ele><time>2026-05-01T06:39:23.024Z</time></trkpt><trkpt lat="44.9821011" lon="9.7724519"><ele>71.0</ele><time>2026-05-01T06:39:25.033Z</time></trkpt><trkpt lat="44.982016" lon="9.7724011"><ele>71.0</ele><time>2026-05-01T06:39:27.03Z</time></trkpt><trkpt lat="44.9819308" lon="9.7723565"><ele>71.0</ele><time>2026-05-01T06:39:29.031Z</time></trkpt><trkpt lat="44.9818469" lon="9.7723168"><ele>71.0</ele><time>2026-05-01T06:39:31.022Z</time></trkpt><trkpt lat="44.9817648" lon="9.7722691"><ele>71.0</ele><time>2026-05-01T06:39:33.034Z</time></trkpt><trkpt lat="44.9816765" lon="9.7722305"><ele>71.0</ele><time>2026-05-01T06:39:35.022Z</time></trkpt><trkpt lat="44.9815914" lon="9.7721824"><ele>71.0</ele><time>2026-05-01T06:39:37.031Z</time></trkpt><trkpt lat="44.9815001" lon="9.7721364"><ele>71.0</ele><time>2026-05-01T06:39:39.033Z</time></trkpt><trkpt lat="44.981416" lon="9.77208"><ele>71.0</ele><time>2026-05-01T06:39:41.03Z</time></trkpt><trkpt lat="44.981327" lon="9.7720361"><ele>71.0</ele><time>2026-05-01T06:39:43.03Z</time></trkpt><trkpt lat="44.9812358" lon="9.7719899"><ele>71.0</ele><time>2026-05-01T06:39:45.025Z</time></trkpt><trkpt lat="44.9811553" lon="9.7719442"><ele>71.0</ele><time>2026-05-01T06:39:47.033Z</time></trkpt><trkpt lat="44.9810755" lon="9.7718988"><ele>71.0</ele><time>2026-05-01T06:39:49.026Z</time></trkpt><trkpt lat="44.9809888" lon="9.7718489"><ele>71.0</ele><time>2026-05-01T06:39:51.026Z</time></trkpt><trkpt lat="44.9809039" lon="9.7718035"><ele>71.0</ele><time>2026-05-01T06:39:53.038Z</time></trkpt><trkpt lat="44.9808163" lon="9.7717557"><ele>71.0</ele><time>2026-05-01T06:39:55.035Z</time></trkpt><trkpt lat="44.980728" lon="9.771706"><ele>71.0</ele><time>2026-05-01T06:39:57.025Z</time></trkpt><trkpt lat="44.9806429" lon="9.7716665"><ele>71.0</ele><time>2026-05-01T06:39:59.027Z</time></trkpt><trkpt lat="44.9805582" lon="9.771619"><ele>71.0</ele><time>2026-05-01T06:40:01.031Z</time></trkpt><trkpt lat="44.9804727" lon="9.7715796"><ele>71.0</ele><time>2026-05-01T06:40:03.041Z</time></trkpt><trkpt lat="44.9803871" lon="9.7715278"><ele>71.0</ele><time>2026-05-01T06:40:05.023Z</time></trkpt><trkpt lat="44.9803011" lon="9.771477"><ele>71.0</ele><time>2026-05-01T06:40:07.03Z</time></trkpt><trkpt lat="44.9802179" lon="9.771436"><ele>71.0</ele><time>2026-05-01T06:40:09.027Z</time></trkpt><trkpt lat="44.9801317" lon="9.7713809"><ele>71.0</ele><time>2026-05-01T06:40:11.026Z</time></trkpt><trkpt lat="44.980044" lon="9.771335"><ele>71.0</ele><time>2026-05-01T06:40:13.025Z</time></trkpt><trkpt lat="44.9799594" lon="9.7712905"><ele>71.0</ele><time>2026-05-01T06:40:15.031Z</time></trkpt><trkpt lat="44.9798743" lon="9.7712438"><ele>71.0</ele><time>2026-05-01T06:40:17.029Z</time></trkpt><trkpt lat="44.9797942" lon="9.771205"><ele>71.16666666666667</ele><time>2026-05-01T06:40:19.026Z</time></trkpt><trkpt lat="44.9797266" lon="9.7711899"><ele>71.33333333333334</ele><time>2026-05-01T06:40:21.017Z</time></trkpt><trkpt lat="44.9796777" lon="9.7712788"><ele>71.5</ele><time>2026-05-01T06:40:23Z</time></trkpt><trkpt lat="44.9796538" lon="9.7713892"><ele>71.66666666666667</ele><time>2026-05-01T06:40:25.01Z</time></trkpt><trkpt lat="44.9796204" lon="9.7715196"><ele>71.83333333333333</ele><time>2026-05-01T06:40:27.027Z</time></trkpt><trkpt lat="44.9795857" lon="9.7716353"><ele>72.0</ele><time>2026-05-01T06:40:29.028Z</time></trkpt><trkpt lat="44.9795577" lon="9.7717649"><ele>72.2</ele><time>2026-05-01T06:40:31.016Z</time></trkpt><trkpt lat="44.9795317" lon="9.7718952"><ele>72.4</ele><time>2026-05-01T06:40:33.035Z</time></trkpt><trkpt lat="44.9795002" lon="9.7720223"><ele>72.6</ele><time>2026-05-01T06:40:35.028Z</time></trkpt><trkpt lat="44.9794751" lon="9.7721478"><ele>72.8</ele><time>2026-05-01T06:40:37.036Z</time></trkpt><trkpt lat="44.9794301" lon="9.7722628"><ele>73.0</ele><time>2026-05-01T06:40:39.024Z</time></trkpt><trkpt lat="44.9793392" lon="9.772297"><ele>73.0</ele><time>2026-05-01T06:40:41.028Z</time></trkpt><trkpt lat="44.9792396" lon="9.7722752"><ele>73.0</ele><time>2026-05-01T06:40:43.034Z</time></trkpt><trkpt lat="44.9791571" lon="9.7722122"><ele>73.0</ele><time>2026-05-01T06:40:45.028Z</time></trkpt><trkpt lat="44.9790692" lon="9.7721577"><ele>73.0</ele><time>2026-05-01T06:40:47.032Z</time></trkpt><trkpt lat="44.9789823" lon="9.7721031"><ele>73.0</ele><time>2026-05-01T06:40:49.032Z</time></trkpt><trkpt lat="44.9788937" lon="9.7720461"><ele>73.2</ele><time>2026-05-01T06:40:51.028Z</time></trkpt><trkpt lat="44.9788098" lon="9.7719797"><ele>73.4</ele><time>2026-05-01T06:40:53.028Z</time></trkpt><trkpt lat="44.9787201" lon="9.7719261"><ele>73.60000000000001</ele><time>2026-05-01T06:40:55.027Z</time></trkpt><trkpt lat="44.9786386" lon="9.7718735"><ele>73.8</ele><time>2026-05-01T06:40:57.018Z</time></trkpt><trkpt lat="44.9785497" lon="9.7718242"><ele>74.0</ele><time>2026-05-01T06:40:59.032Z</time></trkpt><trkpt lat="44.9784607" lon="9.7717847"><ele>74.0</ele><time>2026-05-01T06:41:01.036Z</time></trkpt><trkpt lat="44.9783702" lon="9.7717386"><ele>74.0</ele><time>2026-05-01T06:41:03.02Z</time></trkpt><trkpt lat="44.9782812" lon="9.7716866"><ele>74.0</ele><time>2026-05-01T06:41:05.028Z</time></trkpt><trkpt lat="44.9781919" lon="9.7716511"><ele>74.0</ele><time>2026-05-01T06:41:07.007Z</time></trkpt><trkpt lat="44.978105" lon="9.7716123"><ele>74.0</ele><time>2026-05-01T06:41:09.03Z</time></trkpt><trkpt lat="44.9780132" lon="9.7715589"><ele>74.2</ele><time>2026-05-01T06:41:11.021Z</time></trkpt><trkpt lat="44.9779265" lon="9.771511"><ele>74.4</ele><time>2026-05-01T06:41:13.031Z</time></trkpt><trkpt lat="44.9778258" lon="9.7714861"><ele>74.6</ele><time>2026-05-01T06:41:15.023Z</time></trkpt><trkpt lat="44.9777406" lon="9.7714435"><ele>74.8</ele><time>2026-05-01T06:41:17.03Z</time></trkpt><trkpt lat="44.9776483" lon="9.7714075"><ele>75.0</ele><time>2026-05-01T06:41:19.029Z</time></trkpt><trkpt lat="44.9775584" lon="9.7713622"><ele>75.0</ele><time>2026-05-01T06:41:21.029Z</time></trkpt><trkpt lat="44.9774686" lon="9.7713249"><ele>75.0</ele><time>2026-05-01T06:41:23.027Z</time></trkpt><trkpt lat="44.9773766" lon="9.7712871"><ele>75.0</ele><time>2026-05-01T06:41:25.024Z</time></trkpt><trkpt lat="44.9772881" lon="9.7712459"><ele>75.0</ele><time>2026-05-01T06:41:27.02Z</time></trkpt><trkpt lat="44.9772032" lon="9.7712048"><ele>75.0</ele><time>2026-05-01T06:41:28.992Z</time></trkpt><trkpt lat="44.977119" lon="9.7711579"><ele>75.0</ele><time>2026-05-01T06:41:31.018Z</time></trkpt><trkpt lat="44.9770282" lon="9.7711233"><ele>75.0</ele><time>2026-05-01T06:41:33.025Z</time></trkpt><trkpt lat="44.9769434" lon="9.7710784"><ele>75.0</ele><time>2026-05-01T06:41:35.029Z</time></trkpt><trkpt lat="44.9768579" lon="9.7710389"><ele>75.0</ele><time>2026-05-01T06:41:37.028Z</time></trkpt><trkpt lat="44.976774" lon="9.771"><ele>75.0</ele><time>2026-05-01T06:41:39.037Z</time></trkpt><trkpt lat="44.9766886" lon="9.7709618"><ele>74.8</ele><time>2026-05-01T06:41:41.032Z</time></trkpt><trkpt lat="44.9766024" lon="9.7709173"><ele>74.6</ele><time>2026-05-01T06:41:43.019Z</time></trkpt><trkpt lat="44.9765111" lon="9.7708703"><ele>74.4</ele><time>2026-05-01T06:41:45.035Z</time></trkpt><trkpt lat="44.9764244" lon="9.7708315"><ele>74.2</ele><time>2026-05-01T06:41:47.022Z</time></trkpt><trkpt lat="44.9763419" lon="9.7707928"><ele>74.0</ele><time>2026-05-01T06:41:49.029Z</time></trkpt><trkpt lat="44.9762506" lon="9.7707613"><ele>74.0</ele><time>2026-05-01T06:41:51.033Z</time></trkpt><trkpt lat="44.9761684" lon="9.7707134"><ele>74.0</ele><time>2026-05-01T06:41:53.025Z</time></trkpt><trkpt lat="44.9760774" lon="9.7706741"><ele>74.0</ele><time>2026-05-01T06:41:55.034Z</time></trkpt><trkpt lat="44.9759962" lon="9.7706337"><ele>74.0</ele><time>2026-05-01T06:41:57.023Z</time></trkpt><trkpt lat="44.9759122" lon="9.7705933"><ele>74.0</ele><time>2026-05-01T06:41:59.035Z</time></trkpt><trkpt lat="44.9758269" lon="9.77055"><ele>74.0</ele><time>2026-05-01T06:42:01.037Z</time></trkpt><trkpt lat="44.9757452" lon="9.7705063"><ele>73.83333333333334</ele><time>2026-05-01T06:42:03.026Z</time></trkpt><trkpt lat="44.9756576" lon="9.7704706"><ele>73.66666666666667</ele><time>2026-05-01T06:42:05.031Z</time></trkpt><trkpt lat="44.975573" lon="9.7704314"><ele>73.5</ele><time>2026-05-01T06:42:07.03Z</time></trkpt><trkpt lat="44.9754955" lon="9.7703964"><ele>73.33333333333333</ele><time>2026-05-01T06:42:09.028Z</time></trkpt><trkpt lat="44.9754245" lon="9.7703388"><ele>73.16666666666666</ele><time>2026-05-01T06:42:11.025Z</time></trkpt><trkpt lat="44.9753836" lon="9.77024"><ele>73.0</ele><time>2026-05-01T06:42:13.024Z</time></trkpt><trkpt lat="44.9753834" lon="9.7701147"><ele>73.0</ele><time>2026-05-01T06:42:15.017Z</time></trkpt><trkpt lat="44.9753939" lon="9.769999"><ele>73.0</ele><time>2026-05-01T06:42:17.028Z</time></trkpt><trkpt lat="44.9753655" lon="9.769896"><ele>73.0</ele><time>2026-05-01T06:42:19.035Z</time></trkpt><trkpt lat="44.9752894" lon="9.769828"><ele>73.0</ele><time>2026-05-01T06:42:21.03Z</time></trkpt><trkpt lat="44.975205" lon="9.7697857"><ele>73.0</ele><time>2026-05-01T06:42:23.035Z</time></trkpt><trkpt lat="44.975117" lon="9.7697598"><ele>73.0</ele><time>2026-05-01T06:42:25.02Z</time></trkpt><trkpt lat="44.9750334" lon="9.7697246"><ele>73.16666666666666</ele><time>2026-05-01T06:42:27.023Z</time></trkpt><trkpt lat="44.9749515" lon="9.7696914"><ele>73.33333333333333</ele><time>2026-05-01T06:42:29.033Z</time></trkpt><trkpt lat="44.9748617" lon="9.7696554"><ele>73.5</ele><time>2026-05-01T06:42:30.997Z</time></trkpt><trkpt lat="44.9747777" lon="9.7696256"><ele>73.66666666666667</ele><time>2026-05-01T06:42:33.03Z</time></trkpt><trkpt lat="44.9747058" lon="9.7695904"><ele>73.83333333333334</ele><time>2026-05-01T06:42:35.001Z</time></trkpt><trkpt lat="44.9746385" lon="9.769565"><ele>74.0</ele><time>2026-05-01T06:42:37.022Z</time></trkpt><trkpt lat="44.9745728" lon="9.7695401"><ele>74.0</ele><time>2026-05-01T06:42:39.028Z</time></trkpt><trkpt lat="44.9744848" lon="9.7695744"><ele>74.0</ele><time>2026-05-01T06:42:42.013Z</time></trkpt><trkpt lat="44.9744474" lon="9.7696828"><ele>74.0</ele><time>2026-05-01T06:42:44.029Z</time></trkpt><trkpt lat="44.9744223" lon="9.7698038"><ele>74.0</ele><time>2026-05-01T06:42:46.024Z</time></trkpt><trkpt lat="44.9743911" lon="9.7699142"><ele>74.0</ele><time>2026-05-01T06:42:48.043Z</time></trkpt><trkpt lat="44.9743585" lon="9.7700421"><ele>74.0</ele><time>2026-05-01T06:42:50.022Z</time></trkpt><trkpt lat="44.9743305" lon="9.7701623"><ele>74.0</ele><time>2026-05-01T06:42:52.029Z</time></trkpt><trkpt lat="44.9742995" lon="9.7702908"><ele>74.0</ele><time>2026-05-01T06:42:54.029Z</time></trkpt><trkpt lat="44.9742665" lon="9.7704208"><ele>74.0</ele><time>2026-05-01T06:42:56.033Z</time></trkpt><trkpt lat="44.9742423" lon="9.7705462"><ele>74.0</ele><time>2026-05-01T06:42:58.03Z</time></trkpt><trkpt lat="44.9742131" lon="9.7706684"><ele>74.0</ele><time>2026-05-01T06:43:00.026Z</time></trkpt><trkpt lat="44.9741819" lon="9.7707982"><ele>74.2</ele><time>2026-05-01T06:43:02.029Z</time></trkpt><trkpt lat="44.9741622" lon="9.7709253"><ele>74.4</ele><time>2026-05-01T06:43:04.029Z</time></trkpt><trkpt lat="44.9741323" lon="9.7710574"><ele>74.6</ele><time>2026-05-01T06:43:06.035Z</time></trkpt><trkpt lat="44.9741116" lon="9.7711833"><ele>74.8</ele><time>2026-05-01T06:43:08.036Z</time></trkpt><trkpt lat="44.9740834" lon="9.7713164"><ele>75.0</ele><time>2026-05-01T06:43:10.033Z</time></trkpt><trkpt lat="44.974067" lon="9.7714457"><ele>75.0</ele><time>2026-05-01T06:43:12.042Z</time></trkpt><trkpt lat="44.9740477" lon="9.7715763"><ele>75.0</ele><time>2026-05-01T06:43:14.03Z</time></trkpt><trkpt lat="44.974026" lon="9.7717098"><ele>75.0</ele><time>2026-05-01T06:43:16.032Z</time></trkpt><trkpt lat="44.9739985" lon="9.7718427"><ele>75.0</ele><time>2026-05-01T06:43:18.028Z</time></trkpt><trkpt lat="44.973985" lon="9.7719646"><ele>75.0</ele><time>2026-05-01T06:43:20.028Z</time></trkpt><trkpt lat="44.9739642" lon="9.7720925"><ele>74.8</ele><time>2026-05-01T06:43:22.02Z</time></trkpt><trkpt lat="44.9739392" lon="9.7722235"><ele>74.6</ele><time>2026-05-01T06:43:24.039Z</time></trkpt><trkpt lat="44.973917" lon="9.7723576"><ele>74.4</ele><time>2026-05-01T06:43:26.027Z</time></trkpt><trkpt lat="44.9738986" lon="9.7724851"><ele>74.2</ele><time>2026-05-01T06:43:28.03Z</time></trkpt><trkpt lat="44.9738715" lon="9.7726176"><ele>74.0</ele><time>2026-05-01T06:43:30.035Z</time></trkpt><trkpt lat="44.9738493" lon="9.7727537"><ele>74.0</ele><time>2026-05-01T06:43:32.022Z</time></trkpt><trkpt lat="44.9738253" lon="9.7728793"><ele>74.0</ele><time>2026-05-01T06:43:34.042Z</time></trkpt><trkpt lat="44.9738015" lon="9.7730077"><ele>74.0</ele><time>2026-05-01T06:43:36.028Z</time></trkpt><trkpt lat="44.973782" lon="9.7731333"><ele>74.0</ele><time>2026-05-01T06:43:38.039Z</time></trkpt><trkpt lat="44.9737589" lon="9.7732545"><ele>74.0</ele><time>2026-05-01T06:43:40.03Z</time></trkpt><trkpt lat="44.9737362" lon="9.7733767"><ele>74.0</ele><time>2026-05-01T06:43:42.031Z</time></trkpt><trkpt lat="44.9737096" lon="9.7735103"><ele>74.0</ele><time>2026-05-01T06:43:44.031Z</time></trkpt><trkpt lat="44.9736878" lon="9.7736368"><ele>74.0</ele><time>2026-05-01T06:43:46.029Z</time></trkpt><trkpt lat="44.9736667" lon="9.7737582"><ele>74.0</ele><time>2026-05-01T06:43:48.027Z</time></trkpt><trkpt lat="44.9736465" lon="9.7738866"><ele>74.0</ele><time>2026-05-01T06:43:50.025Z</time></trkpt><trkpt lat="44.9736255" lon="9.7740118"><ele>73.60000000000001</ele><time>2026-05-01T06:43:52.039Z</time></trkpt><trkpt lat="44.9735978" lon="9.7741434"><ele>73.2</ele><time>2026-05-01T06:43:54.03Z</time></trkpt><trkpt lat="44.9735792" lon="9.7742645"><ele>72.80000000000001</ele><time>2026-05-01T06:43:56.021Z</time></trkpt><trkpt lat="44.9735592" lon="9.7743938"><ele>72.4</ele><time>2026-05-01T06:43:58.013Z</time></trkpt><trkpt lat="44.9735369" lon="9.774527"><ele>72.0</ele><time>2026-05-01T06:44:00.031Z</time></trkpt><trkpt lat="44.9735147" lon="9.7746564"><ele>72.0</ele><time>2026-05-01T06:44:02.028Z</time></trkpt><trkpt lat="44.9734979" lon="9.7747764"><ele>72.0</ele><time>2026-05-01T06:44:04.031Z</time></trkpt><trkpt lat="44.9734787" lon="9.7749084"><ele>72.0</ele><time>2026-05-01T06:44:06.03Z</time></trkpt><trkpt lat="44.9734606" lon="9.7750325"><ele>72.0</ele><time>2026-05-01T06:44:08.024Z</time></trkpt><trkpt lat="44.973445" lon="9.7751523"><ele>72.0</ele><time>2026-05-01T06:44:10.037Z</time></trkpt><trkpt lat="44.973422" lon="9.7752896"><ele>72.0</ele><time>2026-05-01T06:44:12.041Z</time></trkpt><trkpt lat="44.9734046" lon="9.7754153"><ele>72.0</ele><time>2026-05-01T06:44:14.02Z</time></trkpt><trkpt lat="44.9733836" lon="9.7755453"><ele>72.0</ele><time>2026-05-01T06:44:16.02Z</time></trkpt><trkpt lat="44.9733651" lon="9.7756732"><ele>72.0</ele><time>2026-05-01T06:44:18.017Z</time></trkpt><trkpt lat="44.9733465" lon="9.7757956"><ele>72.0</ele><time>2026-05-01T06:44:20.025Z</time></trkpt><trkpt lat="44.973331" lon="9.7759218"><ele>72.0</ele><time>2026-05-01T06:44:22.028Z</time></trkpt><trkpt lat="44.9733107" lon="9.7760461"><ele>72.0</ele><time>2026-05-01T06:44:24.028Z</time></trkpt><trkpt lat="44.9732898" lon="9.7761687"><ele>72.0</ele><time>2026-05-01T06:44:26.043Z</time></trkpt><trkpt lat="44.9732765" lon="9.7762924"><ele>72.0</ele><time>2026-05-01T06:44:28.03Z</time></trkpt><trkpt lat="44.9732549" lon="9.7764034"><ele>72.0</ele><time>2026-05-01T06:44:30.034Z</time></trkpt><trkpt lat="44.9732233" lon="9.7764833"><ele>72.0</ele><time>2026-05-01T06:44:32.027Z</time></trkpt><trkpt lat="44.9731452" lon="9.7764939"><ele>72.0</ele><time>2026-05-01T06:44:34.011Z</time></trkpt><trkpt lat="44.9730671" lon="9.7764397"><ele>72.0</ele><time>2026-05-01T06:44:36.033Z</time></trkpt><trkpt lat="44.9729785" lon="9.7763981"><ele>72.0</ele><time>2026-05-01T06:44:38.021Z</time></trkpt><trkpt lat="44.972891" lon="9.7763642"><ele>72.0</ele><time>2026-05-01T06:44:40.022Z</time></trkpt><trkpt lat="44.9728042" lon="9.7763431"><ele>72.0</ele><time>2026-05-01T06:44:42.02Z</time></trkpt><trkpt lat="44.9727153" lon="9.776321"><ele>72.0</ele><time>2026-05-01T06:44:44.032Z</time></trkpt><trkpt lat="44.9726239" lon="9.7762955"><ele>72.0</ele><time>2026-05-01T06:44:46.027Z</time></trkpt><trkpt lat="44.9725367" lon="9.7762748"><ele>72.0</ele><time>2026-05-01T06:44:48.029Z</time></trkpt><trkpt lat="44.9724526" lon="9.7762481"><ele>72.0</ele><time>2026-05-01T06:44:50.034Z</time></trkpt><trkpt lat="44.9723764" lon="9.7762328"><ele>72.0</ele><time>2026-05-01T06:44:52.026Z</time></trkpt><trkpt lat="44.9723044" lon="9.7762106"><ele>72.0</ele><time>2026-05-01T06:44:54.03Z</time></trkpt><trkpt lat="44.9722232" lon="9.7761883"><ele>72.0</ele><time>2026-05-01T06:44:56.025Z</time></trkpt><trkpt lat="44.9721402" lon="9.7761675"><ele>72.16666666666667</ele><time>2026-05-01T06:44:58.045Z</time></trkpt><trkpt lat="44.9720588" lon="9.7761443"><ele>72.33333333333333</ele><time>2026-05-01T06:45:00.023Z</time></trkpt><trkpt lat="44.9719699" lon="9.7761329"><ele>72.5</ele><time>2026-05-01T06:45:02.03Z</time></trkpt><trkpt lat="44.9718792" lon="9.7761298"><ele>72.66666666666666</ele><time>2026-05-01T06:45:04.032Z</time></trkpt><trkpt lat="44.9717974" lon="9.7761401"><ele>72.83333333333333</ele><time>2026-05-01T06:45:06.025Z</time></trkpt><trkpt lat="44.9717112" lon="9.776151"><ele>73.0</ele><time>2026-05-01T06:45:08.03Z</time></trkpt><trkpt lat="44.9716322" lon="9.7761639"><ele>73.0</ele><time>2026-05-01T06:45:10.04Z</time></trkpt><trkpt lat="44.9715462" lon="9.7761653"><ele>73.0</ele><time>2026-05-01T06:45:12.017Z</time></trkpt><trkpt lat="44.9714608" lon="9.7761723"><ele>73.0</ele><time>2026-05-01T06:45:14.026Z</time></trkpt><trkpt lat="44.9713678" lon="9.7761836"><ele>73.0</ele><time>2026-05-01T06:45:16.028Z</time></trkpt><trkpt lat="44.9712747" lon="9.7761983"><ele>73.0</ele><time>2026-05-01T06:45:18.025Z</time></trkpt><trkpt lat="44.97118" lon="9.7762202"><ele>73.0</ele><time>2026-05-01T06:45:20.046Z</time></trkpt><trkpt lat="44.9710896" lon="9.7762387"><ele>73.0</ele><time>2026-05-01T06:45:22.039Z</time></trkpt><trkpt lat="44.9709995" lon="9.776252"><ele>73.0</ele><time>2026-05-01T06:45:24.034Z</time></trkpt><trkpt lat="44.9709106" lon="9.7762795"><ele>73.0</ele><time>2026-05-01T06:45:26.034Z</time></trkpt><trkpt lat="44.9708208" lon="9.7763007"><ele>73.0</ele><time>2026-05-01T06:45:28.036Z</time></trkpt><trkpt lat="44.9707329" lon="9.7763204"><ele>72.8</ele><time>2026-05-01T06:45:30.035Z</time></trkpt><trkpt lat="44.9706426" lon="9.7763492"><ele>72.6</ele><time>2026-05-01T06:45:32.03Z</time></trkpt><trkpt lat="44.9705519" lon="9.7763779"><ele>72.4</ele><time>2026-05-01T06:45:34.03Z</time></trkpt><trkpt lat="44.9704632" lon="9.7763887"><ele>72.2</ele><time>2026-05-01T06:45:36.032Z</time></trkpt><trkpt lat="44.9703754" lon="9.7764051"><ele>72.0</ele><time>2026-05-01T06:45:38.018Z</time></trkpt><trkpt lat="44.9702789" lon="9.7764122"><ele>72.0</ele><time>2026-05-01T06:45:40.036Z</time></trkpt><trkpt lat="44.970191" lon="9.7764274"><ele>72.0</ele><time>2026-05-01T06:45:42.036Z</time></trkpt><trkpt lat="44.9700962" lon="9.7764473"><ele>72.0</ele><time>2026-05-01T06:45:44.034Z</time></trkpt><trkpt lat="44.9700015" lon="9.776455"><ele>72.0</ele><time>2026-05-01T06:45:46.036Z</time></trkpt><trkpt lat="44.9699105" lon="9.7764703"><ele>72.0</ele><time>2026-05-01T06:45:48.023Z</time></trkpt><trkpt lat="44.9698187" lon="9.7764803"><ele>72.0</ele><time>2026-05-01T06:45:50.033Z</time></trkpt><trkpt lat="44.9697183" lon="9.7764926"><ele>72.0</ele><time>2026-05-01T06:45:52.044Z</time></trkpt><trkpt lat="44.9696231" lon="9.7765045"><ele>72.0</ele><time>2026-05-01T06:45:54.037Z</time></trkpt><trkpt lat="44.969529" lon="9.776513"><ele>72.0</ele><time>2026-05-01T06:45:56.031Z</time></trkpt><trkpt lat="44.9694339" lon="9.7765302"><ele>72.0</ele><time>2026-05-01T06:45:58.037Z</time></trkpt><trkpt lat="44.9693437" lon="9.7765395"><ele>72.0</ele><time>2026-05-01T06:46:00.032Z</time></trkpt><trkpt lat="44.9692608" lon="9.7765521"><ele>72.0</ele><time>2026-05-01T06:46:02.033Z</time></trkpt><trkpt lat="44.9691691" lon="9.7765711"><ele>72.0</ele><time>2026-05-01T06:46:04.034Z</time></trkpt><trkpt lat="44.9690745" lon="9.7765916"><ele>72.0</ele><time>2026-05-01T06:46:06.035Z</time></trkpt><trkpt lat="44.9689841" lon="9.7766014"><ele>72.0</ele><time>2026-05-01T06:46:08.024Z</time></trkpt><trkpt lat="44.9688894" lon="9.7766097"><ele>72.6</ele><time>2026-05-01T06:46:10.028Z</time></trkpt><trkpt lat="44.9687901" lon="9.7766194"><ele>73.2</ele><time>2026-05-01T06:46:12.035Z</time></trkpt><trkpt lat="44.9686946" lon="9.7766345"><ele>73.8</ele><time>2026-05-01T06:46:14.042Z</time></trkpt><trkpt lat="44.9686026" lon="9.7766561"><ele>74.4</ele><time>2026-05-01T06:46:16.03Z</time></trkpt><trkpt lat="44.96851" lon="9.7766687"><ele>75.0</ele><time>2026-05-01T06:46:18.039Z</time></trkpt><trkpt lat="44.9684176" lon="9.7766782"><ele>75.2</ele><time>2026-05-01T06:46:20.022Z</time></trkpt><trkpt lat="44.9683233" lon="9.7766927"><ele>75.4</ele><time>2026-05-01T06:46:22.032Z</time></trkpt><trkpt lat="44.968227" lon="9.7767112"><ele>75.6</ele><time>2026-05-01T06:46:24.03Z</time></trkpt><trkpt lat="44.9681301" lon="9.7767206"><ele>75.8</ele><time>2026-05-01T06:46:26.04Z</time></trkpt><trkpt lat="44.9680393" lon="9.7767346"><ele>76.0</ele><time>2026-05-01T06:46:28.034Z</time></trkpt><trkpt lat="44.96795" lon="9.7767517"><ele>76.0</ele><time>2026-05-01T06:46:30.042Z</time></trkpt><trkpt lat="44.9678523" lon="9.7767613"><ele>76.0</ele><time>2026-05-01T06:46:32.032Z</time></trkpt><trkpt lat="44.9677587" lon="9.7767696"><ele>76.0</ele><time>2026-05-01T06:46:34.033Z</time></trkpt><trkpt lat="44.9676679" lon="9.7767832"><ele>76.0</ele><time>2026-05-01T06:46:36.025Z</time></trkpt><trkpt lat="44.9675732" lon="9.7767919"><ele>76.0</ele><time>2026-05-01T06:46:38.038Z</time></trkpt><trkpt lat="44.9674758" lon="9.7767997"><ele>76.2</ele><time>2026-05-01T06:46:40.031Z</time></trkpt><trkpt lat="44.9673778" lon="9.7768111"><ele>76.39999999999999</ele><time>2026-05-01T06:46:42.038Z</time></trkpt><trkpt lat="44.9672779" lon="9.7768308"><ele>76.6</ele><time>2026-05-01T06:46:44.035Z</time></trkpt><trkpt lat="44.9671782" lon="9.7768532"><ele>76.8</ele><time>2026-05-01T06:46:46.037Z</time></trkpt><trkpt lat="44.967073" lon="9.7768729"><ele>77.0</ele><time>2026-05-01T06:46:48.033Z</time></trkpt><trkpt lat="44.9669709" lon="9.7768917"><ele>77.0</ele><time>2026-05-01T06:46:50.028Z</time></trkpt><trkpt lat="44.9668792" lon="9.7768996"><ele>77.0</ele><time>2026-05-01T06:46:52.027Z</time></trkpt><trkpt lat="44.9667803" lon="9.7769151"><ele>77.0</ele><time>2026-05-01T06:46:54.034Z</time></trkpt><trkpt lat="44.9666866" lon="9.776924"><ele>77.0</ele><time>2026-05-01T06:46:56.029Z</time></trkpt><trkpt lat="44.9665901" lon="9.7769353"><ele>77.0</ele><time>2026-05-01T06:46:58.032Z</time></trkpt><trkpt lat="44.9664917" lon="9.7769556"><ele>77.4</ele><time>2026-05-01T06:47:00.039Z</time></trkpt><trkpt lat="44.9663962" lon="9.7769666"><ele>77.80000000000001</ele><time>2026-05-01T06:47:02.031Z</time></trkpt><trkpt lat="44.9663016" lon="9.7769773"><ele>78.2</ele><time>2026-05-01T06:47:04.028Z</time></trkpt><trkpt lat="44.9662019" lon="9.7769852"><ele>78.60000000000001</ele><time>2026-05-01T06:47:06.033Z</time></trkpt><trkpt lat="44.9661012" lon="9.7769891"><ele>79.0</ele><time>2026-05-01T06:47:08.031Z</time></trkpt><trkpt lat="44.9660031" lon="9.777008"><ele>79.0</ele><time>2026-05-01T06:47:10.028Z</time></trkpt><trkpt lat="44.965906" lon="9.7770181"><ele>79.0</ele><time>2026-05-01T06:47:12.027Z</time></trkpt><trkpt lat="44.9658138" lon="9.777023"><ele>79.0</ele><time>2026-05-01T06:47:14.026Z</time></trkpt><trkpt lat="44.9657171" lon="9.7770311"><ele>79.0</ele><time>2026-05-01T06:47:16.032Z</time></trkpt><trkpt lat="44.9656202" lon="9.7770295"><ele>79.0</ele><time>2026-05-01T06:47:18.044Z</time></trkpt><trkpt lat="44.965524" lon="9.7770042"><ele>78.8</ele><time>2026-05-01T06:47:20.042Z</time></trkpt><trkpt lat="44.965428" lon="9.7769676"><ele>78.60000000000001</ele><time>2026-05-01T06:47:22.029Z</time></trkpt><trkpt lat="44.965331" lon="9.7769396"><ele>78.4</ele><time>2026-05-01T06:47:24.028Z</time></trkpt><trkpt lat="44.9652366" lon="9.7769124"><ele>78.2</ele><time>2026-05-01T06:47:26.029Z</time></trkpt><trkpt lat="44.9651428" lon="9.776896"><ele>78.0</ele><time>2026-05-01T06:47:28.037Z</time></trkpt><trkpt lat="44.9650437" lon="9.776878"><ele>78.2</ele><time>2026-05-01T06:47:30.035Z</time></trkpt><trkpt lat="44.9649468" lon="9.7768638"><ele>78.4</ele><time>2026-05-01T06:47:32.036Z</time></trkpt><trkpt lat="44.9648501" lon="9.776853"><ele>78.60000000000001</ele><time>2026-05-01T06:47:34.024Z</time></trkpt><trkpt lat="44.9647525" lon="9.7768467"><ele>78.8</ele><time>2026-05-01T06:47:36.036Z</time></trkpt><trkpt lat="44.9646529" lon="9.7768353"><ele>79.0</ele><time>2026-05-01T06:47:38.037Z</time></trkpt><trkpt lat="44.9645573" lon="9.7768144"><ele>79.0</ele><time>2026-05-01T06:47:40.024Z</time></trkpt><trkpt lat="44.9644668" lon="9.7768036"><ele>79.0</ele><time>2026-05-01T06:47:42.03Z</time></trkpt><trkpt lat="44.9643765" lon="9.7767902"><ele>79.0</ele><time>2026-05-01T06:47:44.034Z</time></trkpt><trkpt lat="44.9642827" lon="9.7767724"><ele>79.0</ele><time>2026-05-01T06:47:46.038Z</time></trkpt><trkpt lat="44.964191" lon="9.7767532"><ele>79.0</ele><time>2026-05-01T06:47:48.036Z</time></trkpt><trkpt lat="44.9641058" lon="9.77667"><ele>78.8</ele><time>2026-05-01T06:47:50.037Z</time></trkpt><trkpt lat="44.9640653" lon="9.7765257"><ele>78.60000000000001</ele><time>2026-05-01T06:47:52.035Z</time></trkpt><trkpt lat="44.9640571" lon="9.7763816"><ele>78.4</ele><time>2026-05-01T06:47:54.027Z</time></trkpt><trkpt lat="44.9640544" lon="9.776235"><ele>78.2</ele><time>2026-05-01T06:47:56.038Z</time></trkpt><trkpt lat="44.9640563" lon="9.7760857"><ele>78.0</ele><time>2026-05-01T06:47:58.009Z</time></trkpt><trkpt lat="44.9640454" lon="9.7759314"><ele>77.8</ele><time>2026-05-01T06:48:00.035Z</time></trkpt><trkpt lat="44.9640388" lon="9.7757802"><ele>77.6</ele><time>2026-05-01T06:48:02.037Z</time></trkpt><trkpt lat="44.9640312" lon="9.7756344"><ele>77.4</ele><time>2026-05-01T06:48:04.029Z</time></trkpt><trkpt lat="44.9640342" lon="9.77549"><ele>77.2</ele><time>2026-05-01T06:48:06.036Z</time></trkpt><trkpt lat="44.9640346" lon="9.7753377"><ele>77.0</ele><time>2026-05-01T06:48:08.022Z</time></trkpt><trkpt lat="44.9640326" lon="9.7751896"><ele>77.0</ele><time>2026-05-01T06:48:10.032Z</time></trkpt><trkpt lat="44.964036" lon="9.7750509"><ele>77.0</ele><time>2026-05-01T06:48:12.028Z</time></trkpt><trkpt lat="44.9640321" lon="9.774899"><ele>77.0</ele><time>2026-05-01T06:48:14.033Z</time></trkpt><trkpt lat="44.9640351" lon="9.7747487"><ele>77.0</ele><time>2026-05-01T06:48:16.021Z</time></trkpt><trkpt lat="44.9640429" lon="9.7745984"><ele>77.0</ele><time>2026-05-01T06:48:18.025Z</time></trkpt><trkpt lat="44.9640426" lon="9.7744438"><ele>77.4</ele><time>2026-05-01T06:48:20.03Z</time></trkpt><trkpt lat="44.9640508" lon="9.7742953"><ele>77.80000000000001</ele><time>2026-05-01T06:48:22.027Z</time></trkpt><trkpt lat="44.9640552" lon="9.7741449"><ele>78.2</ele><time>2026-05-01T06:48:24.056Z</time></trkpt><trkpt lat="44.9640567" lon="9.774001"><ele>78.60000000000001</ele><time>2026-05-01T06:48:26.031Z</time></trkpt><trkpt lat="44.9640666" lon="9.7738629"><ele>79.0</ele><time>2026-05-01T06:48:28.022Z</time></trkpt><trkpt lat="44.9640672" lon="9.7737252"><ele>79.0</ele><time>2026-05-01T06:48:30Z</time></trkpt><trkpt lat="44.9640669" lon="9.773582"><ele>79.0</ele><time>2026-05-01T06:48:32.01Z</time></trkpt><trkpt lat="44.9640583" lon="9.7734251"><ele>79.0</ele><time>2026-05-01T06:48:34.031Z</time></trkpt><trkpt lat="44.9640539" lon="9.7732781"><ele>79.0</ele><time>2026-05-01T06:48:36.022Z</time></trkpt><trkpt lat="44.9640536" lon="9.7731281"><ele>79.0</ele><time>2026-05-01T06:48:38.033Z</time></trkpt><trkpt lat="44.9640395" lon="9.7729834"><ele>79.2</ele><time>2026-05-01T06:48:40.013Z</time></trkpt><trkpt lat="44.9640227" lon="9.7728325"><ele>79.4</ele><time>2026-05-01T06:48:42.028Z</time></trkpt><trkpt lat="44.9639954" lon="9.7726904"><ele>79.6</ele><time>2026-05-01T06:48:44.041Z</time></trkpt><trkpt lat="44.9639617" lon="9.7725524"><ele>79.8</ele><time>2026-05-01T06:48:46.034Z</time></trkpt><trkpt lat="44.9639177" lon="9.7724215"><ele>80.0</ele><time>2026-05-01T06:48:48.032Z</time></trkpt><trkpt lat="44.9638809" lon="9.7722913"><ele>80.0</ele><time>2026-05-01T06:48:50.034Z</time></trkpt><trkpt lat="44.9638361" lon="9.7721608"><ele>80.0</ele><time>2026-05-01T06:48:52.03Z</time></trkpt><trkpt lat="44.9637992" lon="9.7720334"><ele>80.0</ele><time>2026-05-01T06:48:54.041Z</time></trkpt><trkpt lat="44.963755" lon="9.7719015"><ele>80.0</ele><time>2026-05-01T06:48:56.032Z</time></trkpt><trkpt lat="44.9637126" lon="9.7717724"><ele>80.0</ele><time>2026-05-01T06:48:58.03Z</time></trkpt><trkpt lat="44.9636717" lon="9.7716352"><ele>80.0</ele><time>2026-05-01T06:49:00.015Z</time></trkpt><trkpt lat="44.9636243" lon="9.7715019"><ele>80.0</ele><time>2026-05-01T06:49:02.037Z</time></trkpt><trkpt lat="44.9635835" lon="9.771365"><ele>80.0</ele><time>2026-05-01T06:49:04.029Z</time></trkpt><trkpt lat="44.9635393" lon="9.7712278"><ele>80.0</ele><time>2026-05-01T06:49:06.037Z</time></trkpt><trkpt lat="44.9634935" lon="9.7710916"><ele>80.0</ele><time>2026-05-01T06:49:08.036Z</time></trkpt><trkpt lat="44.9634522" lon="9.7709583"><ele>79.8</ele><time>2026-05-01T06:49:10.036Z</time></trkpt><trkpt lat="44.9634106" lon="9.7708276"><ele>79.6</ele><time>2026-05-01T06:49:12.028Z</time></trkpt><trkpt lat="44.9633684" lon="9.7706989"><ele>79.4</ele><time>2026-05-01T06:49:14.029Z</time></trkpt><trkpt lat="44.9633283" lon="9.7705678"><ele>79.2</ele><time>2026-05-01T06:49:16.02Z</time></trkpt><trkpt lat="44.9632827" lon="9.7704296"><ele>79.0</ele><time>2026-05-01T06:49:18.037Z</time></trkpt><trkpt lat="44.9632343" lon="9.7703006"><ele>79.4</ele><time>2026-05-01T06:49:20.029Z</time></trkpt><trkpt lat="44.9631897" lon="9.7701669"><ele>79.80000000000001</ele><time>2026-05-01T06:49:22.027Z</time></trkpt><trkpt lat="44.963145" lon="9.7700275"><ele>80.19999999999999</ele><time>2026-05-01T06:49:24.029Z</time></trkpt><trkpt lat="44.9630975" lon="9.7698965"><ele>80.6</ele><time>2026-05-01T06:49:26.031Z</time></trkpt><trkpt lat="44.9630492" lon="9.7697665"><ele>81.0</ele><time>2026-05-01T06:49:28.033Z</time></trkpt><trkpt lat="44.9630015" lon="9.7696295"><ele>81.0</ele><time>2026-05-01T06:49:30.031Z</time></trkpt><trkpt lat="44.9629596" lon="9.7694893"><ele>81.0</ele><time>2026-05-01T06:49:32.03Z</time></trkpt><trkpt lat="44.9629216" lon="9.769353"><ele>81.0</ele><time>2026-05-01T06:49:34.03Z</time></trkpt><trkpt lat="44.9628831" lon="9.7692198"><ele>81.0</ele><time>2026-05-01T06:49:36.028Z</time></trkpt><trkpt lat="44.962843" lon="9.7690878"><ele>81.0</ele><time>2026-05-01T06:49:38.034Z</time></trkpt><trkpt lat="44.9627997" lon="9.768949"><ele>81.0</ele><time>2026-05-01T06:49:40.041Z</time></trkpt><trkpt lat="44.9627566" lon="9.7688206"><ele>81.0</ele><time>2026-05-01T06:49:42.02Z</time></trkpt><trkpt lat="44.9627113" lon="9.7686853"><ele>81.0</ele><time>2026-05-01T06:49:44.022Z</time></trkpt><trkpt lat="44.9626637" lon="9.7685561"><ele>81.0</ele><time>2026-05-01T06:49:46.028Z</time></trkpt><trkpt lat="44.962618" lon="9.7684218"><ele>81.0</ele><time>2026-05-01T06:49:48.014Z</time></trkpt><trkpt lat="44.9625814" lon="9.7682875"><ele>81.0</ele><time>2026-05-01T06:49:50.027Z</time></trkpt><trkpt lat="44.962534" lon="9.7681508"><ele>81.0</ele><time>2026-05-01T06:49:52.033Z</time></trkpt><trkpt lat="44.9624906" lon="9.7680118"><ele>81.0</ele><time>2026-05-01T06:49:54.037Z</time></trkpt><trkpt lat="44.9624505" lon="9.7678784"><ele>81.0</ele><time>2026-05-01T06:49:56.029Z</time></trkpt><trkpt lat="44.9624184" lon="9.7677432"><ele>81.0</ele><time>2026-05-01T06:49:58.036Z</time></trkpt><trkpt lat="44.9623954" lon="9.7676071"><ele>81.4</ele><time>2026-05-01T06:50:00.029Z</time></trkpt><trkpt lat="44.9623758" lon="9.7674591"><ele>81.8</ele><time>2026-05-01T06:50:02.033Z</time></trkpt><trkpt lat="44.9623569" lon="9.7673106"><ele>82.2</ele><time>2026-05-01T06:50:04.029Z</time></trkpt><trkpt lat="44.9623432" lon="9.7671606"><ele>82.60000000000001</ele><time>2026-05-01T06:50:06.032Z</time></trkpt><trkpt lat="44.9623227" lon="9.7670205"><ele>83.0</ele><time>2026-05-01T06:50:08.023Z</time></trkpt><trkpt lat="44.9623061" lon="9.766883"><ele>83.2</ele><time>2026-05-01T06:50:10.047Z</time></trkpt><trkpt lat="44.9622935" lon="9.7667479"><ele>83.4</ele><time>2026-05-01T06:50:12.023Z</time></trkpt><trkpt lat="44.9622715" lon="9.7665968"><ele>83.60000000000001</ele><time>2026-05-01T06:50:14.024Z</time></trkpt><trkpt lat="44.9622534" lon="9.7664505"><ele>83.80000000000001</ele><time>2026-05-01T06:50:16.033Z</time></trkpt><trkpt lat="44.9622251" lon="9.7663062"><ele>84.0</ele><time>2026-05-01T06:50:18.037Z</time></trkpt><trkpt lat="44.962206" lon="9.7661621"><ele>84.2</ele><time>2026-05-01T06:50:20.034Z</time></trkpt><trkpt lat="44.9621858" lon="9.7660249"><ele>84.4</ele><time>2026-05-01T06:50:22.037Z</time></trkpt><trkpt lat="44.9621591" lon="9.7658763"><ele>84.6</ele><time>2026-05-01T06:50:24.035Z</time></trkpt><trkpt lat="44.9621303" lon="9.7657349"><ele>84.8</ele><time>2026-05-01T06:50:26.035Z</time></trkpt><trkpt lat="44.9620927" lon="9.7655939"><ele>85.0</ele><time>2026-05-01T06:50:28.016Z</time></trkpt><trkpt lat="44.9620519" lon="9.7654599"><ele>85.0</ele><time>2026-05-01T06:50:30.032Z</time></trkpt><trkpt lat="44.9620033" lon="9.7653277"><ele>85.0</ele><time>2026-05-01T06:50:32.037Z</time></trkpt><trkpt lat="44.9619547" lon="9.7651956"><ele>85.0</ele><time>2026-05-01T06:50:34.037Z</time></trkpt><trkpt lat="44.9618947" lon="9.7650633"><ele>85.0</ele><time>2026-05-01T06:50:36.032Z</time></trkpt><trkpt lat="44.9618439" lon="9.7649344"><ele>85.0</ele><time>2026-05-01T06:50:38.031Z</time></trkpt><trkpt lat="44.9617936" lon="9.7648115"><ele>85.0</ele><time>2026-05-01T06:50:40.021Z</time></trkpt><trkpt lat="44.9617452" lon="9.7646794"><ele>85.0</ele><time>2026-05-01T06:50:42.03Z</time></trkpt><trkpt lat="44.9617005" lon="9.7645434"><ele>85.0</ele><time>2026-05-01T06:50:44.023Z</time></trkpt><trkpt lat="44.961653" lon="9.7644113"><ele>85.0</ele><time>2026-05-01T06:50:46.036Z</time></trkpt><trkpt lat="44.9616127" lon="9.7642777"><ele>85.0</ele><time>2026-05-01T06:50:48.036Z</time></trkpt><trkpt lat="44.9615673" lon="9.7641533"><ele>85.0</ele><time>2026-05-01T06:50:50.038Z</time></trkpt><trkpt lat="44.9615248" lon="9.7640243"><ele>85.0</ele><time>2026-05-01T06:50:52.045Z</time></trkpt><trkpt lat="44.96147" lon="9.7638846"><ele>85.0</ele><time>2026-05-01T06:50:54.041Z</time></trkpt><trkpt lat="44.9614262" lon="9.7637554"><ele>85.0</ele><time>2026-05-01T06:50:56.031Z</time></trkpt><trkpt lat="44.9613841" lon="9.7636144"><ele>85.0</ele><time>2026-05-01T06:50:58.032Z</time></trkpt><trkpt lat="44.9613446" lon="9.7634753"><ele>85.0</ele><time>2026-05-01T06:51:00.044Z</time></trkpt><trkpt lat="44.9613049" lon="9.7633303"><ele>85.0</ele><time>2026-05-01T06:51:02.03Z</time></trkpt><trkpt lat="44.9612728" lon="9.7631853"><ele>85.0</ele><time>2026-05-01T06:51:04.046Z</time></trkpt><trkpt lat="44.9612388" lon="9.7630308"><ele>85.0</ele><time>2026-05-01T06:51:06.043Z</time></trkpt><trkpt lat="44.9611979" lon="9.7628792"><ele>85.0</ele><time>2026-05-01T06:51:08.031Z</time></trkpt><trkpt lat="44.9611596" lon="9.7627211"><ele>85.25</ele><time>2026-05-01T06:51:10.025Z</time></trkpt><trkpt lat="44.9611112" lon="9.7625665"><ele>85.5</ele><time>2026-05-01T06:51:12.03Z</time></trkpt><trkpt lat="44.9610558" lon="9.7624277"><ele>85.75</ele><time>2026-05-01T06:51:14.03Z</time></trkpt><trkpt lat="44.960997" lon="9.7622893"><ele>86.0</ele><time>2026-05-01T06:51:16.037Z</time></trkpt><trkpt lat="44.9609383" lon="9.7621524"><ele>86.0</ele><time>2026-05-01T06:51:18.027Z</time></trkpt><trkpt lat="44.9608736" lon="9.7620139"><ele>86.0</ele><time>2026-05-01T06:51:20.03Z</time></trkpt><trkpt lat="44.9608136" lon="9.7618757"><ele>86.0</ele><time>2026-05-01T06:51:22.023Z</time></trkpt><trkpt lat="44.9607577" lon="9.7617247"><ele>86.0</ele><time>2026-05-01T06:51:24.035Z</time></trkpt><trkpt lat="44.9606979" lon="9.7615827"><ele>86.0</ele><time>2026-05-01T06:51:26.033Z</time></trkpt><trkpt lat="44.9606373" lon="9.7614475"><ele>86.0</ele><time>2026-05-01T06:51:28.046Z</time></trkpt><trkpt lat="44.9605781" lon="9.7613072"><ele>86.0</ele><time>2026-05-01T06:51:30.033Z</time></trkpt><trkpt lat="44.9605249" lon="9.7611628"><ele>86.0</ele><time>2026-05-01T06:51:32.033Z</time></trkpt><trkpt lat="44.960469" lon="9.7610277"><ele>86.25</ele><time>2026-05-01T06:51:34.042Z</time></trkpt><trkpt lat="44.9604171" lon="9.7608886"><ele>86.5</ele><time>2026-05-01T06:51:36.047Z</time></trkpt><trkpt lat="44.9603611" lon="9.7607448"><ele>86.75</ele><time>2026-05-01T06:51:38.03Z</time></trkpt><trkpt lat="44.9603033" lon="9.7606052"><ele>87.0</ele><time>2026-05-01T06:51:40.034Z</time></trkpt><trkpt lat="44.9602519" lon="9.7604567"><ele>87.0</ele><time>2026-05-01T06:51:42.033Z</time></trkpt><trkpt lat="44.9601926" lon="9.7603175"><ele>87.0</ele><time>2026-05-01T06:51:44.032Z</time></trkpt><trkpt lat="44.960139" lon="9.7601761"><ele>87.0</ele><time>2026-05-01T06:51:46.031Z</time></trkpt><trkpt lat="44.9600991" lon="9.760024"><ele>87.0</ele><time>2026-05-01T06:51:48.033Z</time></trkpt><trkpt lat="44.9600744" lon="9.7598672"><ele>86.75</ele><time>2026-05-01T06:51:50.03Z</time></trkpt><trkpt lat="44.9600513" lon="9.7597047"><ele>86.5</ele><time>2026-05-01T06:51:52.043Z</time></trkpt><trkpt lat="44.9600327" lon="9.7595446"><ele>86.25</ele><time>2026-05-01T06:51:54.027Z</time></trkpt><trkpt lat="44.9600286" lon="9.7593855"><ele>86.0</ele><time>2026-05-01T06:51:56.027Z</time></trkpt><trkpt lat="44.9600151" lon="9.7592218"><ele>86.5</ele><time>2026-05-01T06:51:58.033Z</time></trkpt><trkpt lat="44.9600025" lon="9.7590564"><ele>87.0</ele><time>2026-05-01T06:52:00.033Z</time></trkpt><trkpt lat="44.9599933" lon="9.7588894"><ele>87.5</ele><time>2026-05-01T06:52:02.035Z</time></trkpt><trkpt lat="44.9599871" lon="9.7587285"><ele>88.0</ele><time>2026-05-01T06:52:04.018Z</time></trkpt><trkpt lat="44.9599727" lon="9.7585672"><ele>88.25</ele><time>2026-05-01T06:52:06.035Z</time></trkpt><trkpt lat="44.9599468" lon="9.7584068"><ele>88.5</ele><time>2026-05-01T06:52:08.033Z</time></trkpt><trkpt lat="44.9599242" lon="9.7582475"><ele>88.75</ele><time>2026-05-01T06:52:10.035Z</time></trkpt><trkpt lat="44.959913" lon="9.7580925"><ele>89.0</ele><time>2026-05-01T06:52:12.034Z</time></trkpt><trkpt lat="44.9598982" lon="9.7579293"><ele>89.0</ele><time>2026-05-01T06:52:14.03Z</time></trkpt><trkpt lat="44.9598837" lon="9.7577715"><ele>89.0</ele><time>2026-05-01T06:52:16.032Z</time></trkpt><trkpt lat="44.9598714" lon="9.7576156"><ele>89.0</ele><time>2026-05-01T06:52:18.042Z</time></trkpt><trkpt lat="44.9598576" lon="9.757457"><ele>89.0</ele><time>2026-05-01T06:52:20.037Z</time></trkpt><trkpt lat="44.9598453" lon="9.7572914"><ele>89.0</ele><time>2026-05-01T06:52:22.037Z</time></trkpt><trkpt lat="44.9598319" lon="9.7571282"><ele>89.0</ele><time>2026-05-01T06:52:24.029Z</time></trkpt><trkpt lat="44.9598157" lon="9.7569677"><ele>89.0</ele><time>2026-05-01T06:52:26.032Z</time></trkpt><trkpt lat="44.9597945" lon="9.7568076"><ele>89.0</ele><time>2026-05-01T06:52:28.036Z</time></trkpt><trkpt lat="44.9597732" lon="9.7566459"><ele>89.0</ele><time>2026-05-01T06:52:30.036Z</time></trkpt><trkpt lat="44.959755" lon="9.7564785"><ele>89.0</ele><time>2026-05-01T06:52:32.035Z</time></trkpt><trkpt lat="44.9597399" lon="9.7563172"><ele>89.0</ele><time>2026-05-01T06:52:34.034Z</time></trkpt><trkpt lat="44.9597219" lon="9.7561557"><ele>89.0</ele><time>2026-05-01T06:52:36.037Z</time></trkpt><trkpt lat="44.9597123" lon="9.755998"><ele>89.25</ele><time>2026-05-01T06:52:38.019Z</time></trkpt><trkpt lat="44.9596885" lon="9.7558422"><ele>89.5</ele><time>2026-05-01T06:52:40.034Z</time></trkpt><trkpt lat="44.9596679" lon="9.7556773"><ele>89.75</ele><time>2026-05-01T06:52:42.025Z</time></trkpt><trkpt lat="44.9596478" lon="9.7555186"><ele>90.0</ele><time>2026-05-01T06:52:44.041Z</time></trkpt><trkpt lat="44.9596266" lon="9.7553589"><ele>90.5</ele><time>2026-05-01T06:52:46.032Z</time></trkpt><trkpt lat="44.959609" lon="9.7552039"><ele>91.0</ele><time>2026-05-01T06:52:48.038Z</time></trkpt><trkpt lat="44.9595878" lon="9.7550464"><ele>91.5</ele><time>2026-05-01T06:52:50.028Z</time></trkpt><trkpt lat="44.9595685" lon="9.7548831"><ele>92.0</ele><time>2026-05-01T06:52:52.041Z</time></trkpt><trkpt lat="44.9595484" lon="9.7547233"><ele>92.0</ele><time>2026-05-01T06:52:54.04Z</time></trkpt><trkpt lat="44.959518" lon="9.7545606"><ele>92.0</ele><time>2026-05-01T06:52:56.041Z</time></trkpt><trkpt lat="44.9594733" lon="9.7544142"><ele>92.0</ele><time>2026-05-01T06:52:58.028Z</time></trkpt><trkpt lat="44.9594208" lon="9.7542763"><ele>92.0</ele><time>2026-05-01T06:53:00.032Z</time></trkpt><trkpt lat="44.9593619" lon="9.7541311"><ele>91.6</ele><time>2026-05-01T06:53:02.031Z</time></trkpt><trkpt lat="44.9593047" lon="9.7539808"><ele>91.19999999999999</ele><time>2026-05-01T06:53:04.029Z</time></trkpt><trkpt lat="44.9592526" lon="9.7538277"><ele>90.8</ele><time>2026-05-01T06:53:06.032Z</time></trkpt><trkpt lat="44.9592294" lon="9.7537436"><ele>90.4</ele><time>2026-05-01T06:53:07.033Z</time></trkpt><trkpt lat="44.9591817" lon="9.7535903"><ele>90.0</ele><time>2026-05-01T06:53:09.022Z</time></trkpt><trkpt lat="44.9591601" lon="9.7535065"><ele>90.0</ele><time>2026-05-01T06:53:10.029Z</time></trkpt><trkpt lat="44.9591313" lon="9.7533444"><ele>90.0</ele><time>2026-05-01T06:53:12.039Z</time></trkpt><trkpt lat="44.9590948" lon="9.7531756"><ele>90.0</ele><time>2026-05-01T06:53:14.037Z</time></trkpt><trkpt lat="44.9590879" lon="9.7530871"><ele>90.0</ele><time>2026-05-01T06:53:14.996Z</time></trkpt><trkpt lat="44.9590653" lon="9.7529178"><ele>90.0</ele><time>2026-05-01T06:53:17.024Z</time></trkpt><trkpt lat="44.9590645" lon="9.7527494"><ele>90.0</ele><time>2026-05-01T06:53:19.027Z</time></trkpt><trkpt lat="44.9590613" lon="9.7525914"><ele>90.0</ele><time>2026-05-01T06:53:21.015Z</time></trkpt><trkpt lat="44.9590741" lon="9.752431"><ele>90.0</ele><time>2026-05-01T06:53:23.032Z</time></trkpt><trkpt lat="44.9590863" lon="9.752286"><ele>90.0</ele><time>2026-05-01T06:53:25.038Z</time></trkpt><trkpt lat="44.9591119" lon="9.7521283"><ele>90.0</ele><time>2026-05-01T06:53:27.024Z</time></trkpt><trkpt lat="44.9591311" lon="9.7519773"><ele>90.0</ele><time>2026-05-01T06:53:29.013Z</time></trkpt><trkpt lat="44.9591591" lon="9.7518258"><ele>90.0</ele><time>2026-05-01T06:53:31.026Z</time></trkpt><trkpt lat="44.9591997" lon="9.7516814"><ele>90.0</ele><time>2026-05-01T06:53:33.035Z</time></trkpt><trkpt lat="44.9592313" lon="9.7515351"><ele>90.0</ele><time>2026-05-01T06:53:35.032Z</time></trkpt><trkpt lat="44.9592458" lon="9.7513791"><ele>90.0</ele><time>2026-05-01T06:53:37.034Z</time></trkpt><trkpt lat="44.959264" lon="9.7512275"><ele>90.25</ele><time>2026-05-01T06:53:39.03Z</time></trkpt><trkpt lat="44.9592882" lon="9.7510736"><ele>90.5</ele><time>2026-05-01T06:53:41.031Z</time></trkpt><trkpt lat="44.9593085" lon="9.7509068"><ele>90.75</ele><time>2026-05-01T06:53:43.033Z</time></trkpt><trkpt lat="44.9593246" lon="9.7507506"><ele>91.0</ele><time>2026-05-01T06:53:45.035Z</time></trkpt><trkpt lat="44.9593398" lon="9.7505891"><ele>91.0</ele><time>2026-05-01T06:53:47.024Z</time></trkpt><trkpt lat="44.9593566" lon="9.7504342"><ele>91.0</ele><time>2026-05-01T06:53:49.039Z</time></trkpt><trkpt lat="44.9593708" lon="9.7502661"><ele>91.0</ele><time>2026-05-01T06:53:51.031Z</time></trkpt><trkpt lat="44.9593925" lon="9.7501095"><ele>91.0</ele><time>2026-05-01T06:53:53.026Z</time></trkpt><trkpt lat="44.959404" lon="9.7499449"><ele>90.75</ele><time>2026-05-01T06:53:55.033Z</time></trkpt><trkpt lat="44.9594233" lon="9.7497876"><ele>90.5</ele><time>2026-05-01T06:53:57.024Z</time></trkpt><trkpt lat="44.9594336" lon="9.7496245"><ele>90.25</ele><time>2026-05-01T06:53:59.043Z</time></trkpt><trkpt lat="44.959446" lon="9.7494699"><ele>90.0</ele><time>2026-05-01T06:54:01.03Z</time></trkpt><trkpt lat="44.9594532" lon="9.7493101"><ele>90.0</ele><time>2026-05-01T06:54:03.036Z</time></trkpt><trkpt lat="44.9594476" lon="9.7491386"><ele>90.0</ele><time>2026-05-01T06:54:05.019Z</time></trkpt><trkpt lat="44.9594452" lon="9.7489764"><ele>90.0</ele><time>2026-05-01T06:54:07.023Z</time></trkpt><trkpt lat="44.9594471" lon="9.7488135"><ele>90.0</ele><time>2026-05-01T06:54:09.035Z</time></trkpt><trkpt lat="44.9594437" lon="9.7486537"><ele>90.5</ele><time>2026-05-01T06:54:11.032Z</time></trkpt><trkpt lat="44.9594469" lon="9.7484865"><ele>91.0</ele><time>2026-05-01T06:54:13.036Z</time></trkpt><trkpt lat="44.9594531" lon="9.7483297"><ele>91.5</ele><time>2026-05-01T06:54:15.013Z</time></trkpt><trkpt lat="44.959451" lon="9.7481682"><ele>92.0</ele><time>2026-05-01T06:54:17.042Z</time></trkpt><trkpt lat="44.9594474" lon="9.7480055"><ele>92.0</ele><time>2026-05-01T06:54:19.037Z</time></trkpt><trkpt lat="44.9594469" lon="9.7478486"><ele>92.0</ele><time>2026-05-01T06:54:21.036Z</time></trkpt><trkpt lat="44.9594476" lon="9.7476872"><ele>92.0</ele><time>2026-05-01T06:54:23.024Z</time></trkpt><trkpt lat="44.959448" lon="9.7475237"><ele>92.0</ele><time>2026-05-01T06:54:25.029Z</time></trkpt><trkpt lat="44.9594427" lon="9.7473695"><ele>92.5</ele><time>2026-05-01T06:54:27.041Z</time></trkpt><trkpt lat="44.9594407" lon="9.7472098"><ele>93.0</ele><time>2026-05-01T06:54:29.031Z</time></trkpt><trkpt lat="44.9594374" lon="9.7470548"><ele>93.5</ele><time>2026-05-01T06:54:31.02Z</time></trkpt><trkpt lat="44.9594386" lon="9.7468923"><ele>94.0</ele><time>2026-05-01T06:54:33.04Z</time></trkpt><trkpt lat="44.9594349" lon="9.7467325"><ele>94.0</ele><time>2026-05-01T06:54:35.033Z</time></trkpt><trkpt lat="44.9594236" lon="9.7465662"><ele>94.0</ele><time>2026-05-01T06:54:37.035Z</time></trkpt><trkpt lat="44.9594128" lon="9.7464051"><ele>94.0</ele><time>2026-05-01T06:54:39.035Z</time></trkpt><trkpt lat="44.959402" lon="9.7462435"><ele>94.0</ele><time>2026-05-01T06:54:41.037Z</time></trkpt><trkpt lat="44.9593826" lon="9.7460815"><ele>94.5</ele><time>2026-05-01T06:54:43.029Z</time></trkpt><trkpt lat="44.9593523" lon="9.7459127"><ele>95.0</ele><time>2026-05-01T06:54:45.03Z</time></trkpt><trkpt lat="44.9593165" lon="9.7457542"><ele>95.5</ele><time>2026-05-01T06:54:47.026Z</time></trkpt><trkpt lat="44.9592736" lon="9.7456044"><ele>96.0</ele><time>2026-05-01T06:54:49.032Z</time></trkpt><trkpt lat="44.9592236" lon="9.7454639"><ele>96.0</ele><time>2026-05-01T06:54:51.038Z</time></trkpt><trkpt lat="44.9591619" lon="9.7453233"><ele>96.0</ele><time>2026-05-01T06:54:53.019Z</time></trkpt><trkpt lat="44.9591058" lon="9.7451932"><ele>96.0</ele><time>2026-05-01T06:54:55.031Z</time></trkpt><trkpt lat="44.9590508" lon="9.7450573"><ele>96.0</ele><time>2026-05-01T06:54:57.033Z</time></trkpt><trkpt lat="44.9589933" lon="9.7449224"><ele>96.0</ele><time>2026-05-01T06:54:59.067Z</time></trkpt><trkpt lat="44.9589419" lon="9.7447801"><ele>96.0</ele><time>2026-05-01T06:55:01.036Z</time></trkpt><trkpt lat="44.9588948" lon="9.7446365"><ele>96.0</ele><time>2026-05-01T06:55:03.04Z</time></trkpt><trkpt lat="44.9588463" lon="9.7445001"><ele>96.0</ele><time>2026-05-01T06:55:05.036Z</time></trkpt><trkpt lat="44.9587917" lon="9.7443571"><ele>96.0</ele><time>2026-05-01T06:55:07.032Z</time></trkpt><trkpt lat="44.9587355" lon="9.7442202"><ele>96.0</ele><time>2026-05-01T06:55:09.031Z</time></trkpt><trkpt lat="44.9586781" lon="9.7440878"><ele>96.0</ele><time>2026-05-01T06:55:11.027Z</time></trkpt><trkpt lat="44.9586204" lon="9.7439524"><ele>96.0</ele><time>2026-05-01T06:55:13.027Z</time></trkpt><trkpt lat="44.9585644" lon="9.7438274"><ele>96.0</ele><time>2026-05-01T06:55:15.021Z</time></trkpt><trkpt lat="44.958508" lon="9.7436946"><ele>96.0</ele><time>2026-05-01T06:55:17.033Z</time></trkpt><trkpt lat="44.9584511" lon="9.743559"><ele>96.0</ele><time>2026-05-01T06:55:19.037Z</time></trkpt><trkpt lat="44.9583932" lon="9.7434228"><ele>95.75</ele><time>2026-05-01T06:55:21.035Z</time></trkpt><trkpt lat="44.9583333" lon="9.74329"><ele>95.5</ele><time>2026-05-01T06:55:23.031Z</time></trkpt><trkpt lat="44.9582772" lon="9.7431533"><ele>95.25</ele><time>2026-05-01T06:55:25.016Z</time></trkpt><trkpt lat="44.9582155" lon="9.7430202"><ele>95.0</ele><time>2026-05-01T06:55:27.035Z</time></trkpt><trkpt lat="44.9581461" lon="9.7428895"><ele>95.0</ele><time>2026-05-01T06:55:29.031Z</time></trkpt><trkpt lat="44.9580816" lon="9.742758"><ele>95.0</ele><time>2026-05-01T06:55:31.021Z</time></trkpt><trkpt lat="44.9580065" lon="9.7426427"><ele>95.0</ele><time>2026-05-01T06:55:33.029Z</time></trkpt><trkpt lat="44.9579308" lon="9.7425193"><ele>95.0</ele><time>2026-05-01T06:55:35.034Z</time></trkpt><trkpt lat="44.9578571" lon="9.7424109"><ele>95.0</ele><time>2026-05-01T06:55:37.038Z</time></trkpt><trkpt lat="44.9577858" lon="9.7422861"><ele>95.6</ele><time>2026-05-01T06:55:39.037Z</time></trkpt><trkpt lat="44.957719" lon="9.7421697"><ele>96.2</ele><time>2026-05-01T06:55:41.037Z</time></trkpt><trkpt lat="44.957649" lon="9.7420464"><ele>96.80000000000001</ele><time>2026-05-01T06:55:43.034Z</time></trkpt><trkpt lat="44.957574" lon="9.7419178"><ele>97.4</ele><time>2026-05-01T06:55:45.041Z</time></trkpt><trkpt lat="44.9575044" lon="9.7418007"><ele>98.0</ele><time>2026-05-01T06:55:47.031Z</time></trkpt><trkpt lat="44.9574318" lon="9.7416798"><ele>98.0</ele><time>2026-05-01T06:55:49.044Z</time></trkpt><trkpt lat="44.9573586" lon="9.7415568"><ele>98.0</ele><time>2026-05-01T06:55:51.032Z</time></trkpt><trkpt lat="44.9572817" lon="9.7414396"><ele>98.0</ele><time>2026-05-01T06:55:53.043Z</time></trkpt><trkpt lat="44.9572038" lon="9.7413226"><ele>98.0</ele><time>2026-05-01T06:55:55.039Z</time></trkpt><trkpt lat="44.9571251" lon="9.7412067"><ele>98.0</ele><time>2026-05-01T06:55:57.036Z</time></trkpt><trkpt lat="44.9570467" lon="9.74109"><ele>98.0</ele><time>2026-05-01T06:55:59.038Z</time></trkpt><trkpt lat="44.9569615" lon="9.7409683"><ele>98.0</ele><time>2026-05-01T06:56:01.044Z</time></trkpt><trkpt lat="44.9568895" lon="9.7408492"><ele>98.0</ele><time>2026-05-01T06:56:03.031Z</time></trkpt><trkpt lat="44.9568259" lon="9.7407087"><ele>98.2</ele><time>2026-05-01T06:56:05.037Z</time></trkpt><trkpt lat="44.9567925" lon="9.7405868"><ele>98.4</ele><time>2026-05-01T06:56:07.033Z</time></trkpt><trkpt lat="44.9567616" lon="9.7404536"><ele>98.60000000000001</ele><time>2026-05-01T06:56:09.038Z</time></trkpt><trkpt lat="44.9567616" lon="9.7402993"><ele>98.80000000000001</ele><time>2026-05-01T06:56:11.02Z</time></trkpt><trkpt lat="44.9567678" lon="9.7401517"><ele>99.0</ele><time>2026-05-01T06:56:13.035Z</time></trkpt><trkpt lat="44.9567708" lon="9.7400155"><ele>99.0</ele><time>2026-05-01T06:56:15.037Z</time></trkpt><trkpt lat="44.9567741" lon="9.7398537"><ele>99.0</ele><time>2026-05-01T06:56:17.037Z</time></trkpt><trkpt lat="44.9567735" lon="9.7396997"><ele>99.0</ele><time>2026-05-01T06:56:19.029Z</time></trkpt><trkpt lat="44.9567594" lon="9.7395395"><ele>99.0</ele><time>2026-05-01T06:56:21.031Z</time></trkpt><trkpt lat="44.9567521" lon="9.739376"><ele>99.25</ele><time>2026-05-01T06:56:23.034Z</time></trkpt><trkpt lat="44.9567557" lon="9.739207"><ele>99.5</ele><time>2026-05-01T06:56:25.036Z</time></trkpt><trkpt lat="44.9567631" lon="9.7390455"><ele>99.75</ele><time>2026-05-01T06:56:27.01Z</time></trkpt><trkpt lat="44.9567629" lon="9.738892"><ele>100.0</ele><time>2026-05-01T06:56:29.033Z</time></trkpt><trkpt lat="44.9567771" lon="9.7387331"><ele>100.0</ele><time>2026-05-01T06:56:31.022Z</time></trkpt><trkpt lat="44.9567736" lon="9.7385828"><ele>100.0</ele><time>2026-05-01T06:56:33.037Z</time></trkpt><trkpt lat="44.9567739" lon="9.7384343"><ele>100.0</ele><time>2026-05-01T06:56:35.035Z</time></trkpt><trkpt lat="44.9567751" lon="9.7382911"><ele>100.0</ele><time>2026-05-01T06:56:37.029Z</time></trkpt><trkpt lat="44.9567835" lon="9.7381474"><ele>100.0</ele><time>2026-05-01T06:56:39.045Z</time></trkpt><trkpt lat="44.9567872" lon="9.7379983"><ele>100.4</ele><time>2026-05-01T06:56:41.019Z</time></trkpt><trkpt lat="44.9567935" lon="9.7378519"><ele>100.8</ele><time>2026-05-01T06:56:43.034Z</time></trkpt><trkpt lat="44.9567981" lon="9.7377159"><ele>101.19999999999999</ele><time>2026-05-01T06:56:45.034Z</time></trkpt><trkpt lat="44.9568032" lon="9.7375837"><ele>101.6</ele><time>2026-05-01T06:56:47.032Z</time></trkpt><trkpt lat="44.9568187" lon="9.7374483"><ele>102.0</ele><time>2026-05-01T06:56:49.032Z</time></trkpt><trkpt lat="44.9568447" lon="9.7373306"><ele>102.0</ele><time>2026-05-01T06:56:51.026Z</time></trkpt><trkpt lat="44.9568646" lon="9.7372215"><ele>102.0</ele><time>2026-05-01T06:56:53.028Z</time></trkpt><trkpt lat="44.9568811" lon="9.7371329"><ele>102.0</ele><time>2026-05-01T06:56:55.034Z</time></trkpt><trkpt lat="44.9569236" lon="9.7370326"><ele>102.0</ele><time>2026-05-01T06:56:59.026Z</time></trkpt><trkpt lat="44.9569597" lon="9.736945"><ele>102.0</ele><time>2026-05-01T06:57:01.037Z</time></trkpt><trkpt lat="44.9569901" lon="9.7368367"><ele>102.0</ele><time>2026-05-01T06:57:03.036Z</time></trkpt><trkpt lat="44.9570173" lon="9.7366957"><ele>102.0</ele><time>2026-05-01T06:57:05.032Z</time></trkpt><trkpt lat="44.9570512" lon="9.7365497"><ele>102.0</ele><time>2026-05-01T06:57:07.039Z</time></trkpt><trkpt lat="44.9570888" lon="9.7364194"><ele>102.0</ele><time>2026-05-01T06:57:09.031Z</time></trkpt><trkpt lat="44.9571377" lon="9.7362937"><ele>102.0</ele><time>2026-05-01T06:57:11.043Z</time></trkpt><trkpt lat="44.9571778" lon="9.7361655"><ele>102.0</ele><time>2026-05-01T06:57:13.032Z</time></trkpt><trkpt lat="44.9572129" lon="9.7360392"><ele>102.19999999999999</ele><time>2026-05-01T06:57:15.025Z</time></trkpt><trkpt lat="44.9572432" lon="9.7359038"><ele>102.4</ele><time>2026-05-01T06:57:17.029Z</time></trkpt><trkpt lat="44.9572701" lon="9.7357732"><ele>102.6</ele><time>2026-05-01T06:57:19.036Z</time></trkpt><trkpt lat="44.9573054" lon="9.7356438"><ele>102.80000000000001</ele><time>2026-05-01T06:57:21.027Z</time></trkpt><trkpt lat="44.9573448" lon="9.7355127"><ele>103.0</ele><time>2026-05-01T06:57:23.026Z</time></trkpt><trkpt lat="44.9573845" lon="9.7353932"><ele>103.00000000000001</ele><time>2026-05-01T06:57:25.04Z</time></trkpt><trkpt lat="44.9574188" lon="9.7352733"><ele>103.0</ele><time>2026-05-01T06:57:26.997Z</time></trkpt><trkpt lat="44.9574511" lon="9.7351685"><ele>103.0</ele><time>2026-05-01T06:57:29.027Z</time></trkpt><trkpt lat="44.9574975" lon="9.7350602"><ele>103.0</ele><time>2026-05-01T06:57:31.015Z</time></trkpt><trkpt lat="44.9575367" lon="9.7349486"><ele>103.00000000000001</ele><time>2026-05-01T06:57:33.036Z</time></trkpt><trkpt lat="44.9575631" lon="9.7348233"><ele>103.0</ele><time>2026-05-01T06:57:35.029Z</time></trkpt><trkpt lat="44.9575774" lon="9.7347003"><ele>102.16666666666667</ele><time>2026-05-01T06:57:37.029Z</time></trkpt><trkpt lat="44.9576042" lon="9.7345862"><ele>101.33333333333334</ele><time>2026-05-01T06:57:39.027Z</time></trkpt><trkpt lat="44.9576316" lon="9.7344847"><ele>100.5</ele><time>2026-05-01T06:57:41.025Z</time></trkpt><trkpt lat="44.9576593" lon="9.7343785"><ele>99.66666666666666</ele><time>2026-05-01T06:57:43.03Z</time></trkpt><trkpt lat="44.9576971" lon="9.7342481"><ele>98.83333333333333</ele><time>2026-05-01T06:57:45.03Z</time></trkpt><trkpt lat="44.9577353" lon="9.7341342"><ele>98.0</ele><time>2026-05-01T06:57:47.029Z</time></trkpt><trkpt lat="44.9577704" lon="9.733998"><ele>98.0</ele><time>2026-05-01T06:57:49.03Z</time></trkpt><trkpt lat="44.9578101" lon="9.7338742"><ele>98.0</ele><time>2026-05-01T06:57:51.035Z</time></trkpt><trkpt lat="44.9578429" lon="9.7337527"><ele>98.0</ele><time>2026-05-01T06:57:53.039Z</time></trkpt><trkpt lat="44.9578693" lon="9.7336338"><ele>98.0</ele><time>2026-05-01T06:57:55.032Z</time></trkpt><trkpt lat="44.9579015" lon="9.733506"><ele>98.0</ele><time>2026-05-01T06:57:57.038Z</time></trkpt><trkpt lat="44.9579355" lon="9.7333836"><ele>98.16666666666666</ele><time>2026-05-01T06:57:59.027Z</time></trkpt><trkpt lat="44.9579682" lon="9.7332652"><ele>98.33333333333333</ele><time>2026-05-01T06:58:01.034Z</time></trkpt><trkpt lat="44.9580021" lon="9.7331445"><ele>98.5</ele><time>2026-05-01T06:58:03.036Z</time></trkpt><trkpt lat="44.9580313" lon="9.7330368"><ele>98.66666666666666</ele><time>2026-05-01T06:58:05.028Z</time></trkpt><trkpt lat="44.9580614" lon="9.7329209"><ele>98.83333333333333</ele><time>2026-05-01T06:58:07.038Z</time></trkpt><trkpt lat="44.9581021" lon="9.7328049"><ele>99.0</ele><time>2026-05-01T06:58:09.034Z</time></trkpt><trkpt lat="44.9581345" lon="9.7326806"><ele>99.0</ele><time>2026-05-01T06:58:11.021Z</time></trkpt><trkpt lat="44.9581613" lon="9.7325708"><ele>99.0</ele><time>2026-05-01T06:58:13.041Z</time></trkpt><trkpt lat="44.9581893" lon="9.7324886"><ele>99.0</ele><time>2026-05-01T06:58:15.033Z</time></trkpt><trkpt lat="44.9581827" lon="9.7323882"><ele>99.0</ele><time>2026-05-01T06:58:17.032Z</time></trkpt><trkpt lat="44.9581289" lon="9.7323035"><ele>99.0</ele><time>2026-05-01T06:58:19.026Z</time></trkpt><trkpt lat="44.9580921" lon="9.7322139"><ele>99.0</ele><time>2026-05-01T06:58:21.035Z</time></trkpt><trkpt lat="44.9580507" lon="9.7321209"><ele>99.0</ele><time>2026-05-01T06:58:23.03Z</time></trkpt><trkpt lat="44.9579592" lon="9.7320565"><ele>99.0</ele><time>2026-05-01T06:58:25.036Z</time></trkpt><trkpt lat="44.9578758" lon="9.7320036"><ele>99.0</ele><time>2026-05-01T06:58:27.027Z</time></trkpt><trkpt lat="44.9577991" lon="9.7319419"><ele>99.0</ele><time>2026-05-01T06:58:29.035Z</time></trkpt><trkpt lat="44.9577281" lon="9.7318796"><ele>99.0</ele><time>2026-05-01T06:58:31.029Z</time></trkpt><trkpt lat="44.9576436" lon="9.7318407"><ele>99.0</ele><time>2026-05-01T06:58:33.013Z</time></trkpt><trkpt lat="44.9575576" lon="9.731842"><ele>99.0</ele><time>2026-05-01T06:58:35.013Z</time></trkpt><trkpt lat="44.9574818" lon="9.731889"><ele>99.0</ele><time>2026-05-01T06:58:37.027Z</time></trkpt><trkpt lat="44.9574033" lon="9.7319029"><ele>99.0</ele><time>2026-05-01T06:58:39.03Z</time></trkpt><trkpt lat="44.9573337" lon="9.7319114"><ele>99.0</ele><time>2026-05-01T06:58:41.032Z</time></trkpt><trkpt lat="44.9572697" lon="9.7319057"><ele>99.0</ele><time>2026-05-01T06:58:43.03Z</time></trkpt><trkpt lat="44.9572079" lon="9.7318814"><ele>99.0</ele><time>2026-05-01T06:58:45.024Z</time></trkpt><trkpt lat="44.957138" lon="9.7318612"><ele>99.0</ele><time>2026-05-01T06:58:48.044Z</time></trkpt><trkpt lat="44.9570767" lon="9.7318409"><ele>99.0</ele><time>2026-05-01T06:58:50.016Z</time></trkpt><trkpt lat="44.9569794" lon="9.7318385"><ele>99.0</ele><time>2026-05-01T06:58:53.006Z</time></trkpt><trkpt lat="44.9569112" lon="9.7318523"><ele>99.0</ele><time>2026-05-01T06:58:56.019Z</time></trkpt><trkpt lat="44.9568263" lon="9.7318177"><ele>99.0</ele><time>2026-05-01T06:59:00.024Z</time></trkpt><trkpt lat="44.9567412" lon="9.7317986"><ele>99.0</ele><time>2026-05-01T06:59:03.029Z</time></trkpt><trkpt lat="44.956662" lon="9.7317838"><ele>99.33333333333333</ele><time>2026-05-01T06:59:07.025Z</time></trkpt><trkpt lat="44.956578" lon="9.7317762"><ele>99.66666666666666</ele><time>2026-05-01T06:59:10.022Z</time></trkpt><trkpt lat="44.9565083" lon="9.7317717"><ele>100.0</ele><time>2026-05-01T06:59:13.024Z</time></trkpt><trkpt lat="44.956441" lon="9.731745"><ele>100.33333333333333</ele><time>2026-05-01T06:59:16.03Z</time></trkpt><trkpt lat="44.9563719" lon="9.7317218"><ele>100.66666666666666</ele><time>2026-05-01T06:59:19.032Z</time></trkpt><trkpt lat="44.9563067" lon="9.7316626"><ele>101.0</ele><time>2026-05-01T06:59:24.007Z</time></trkpt><trkpt lat="44.9562186" lon="9.7316297"><ele>100.99999999999999</ele><time>2026-05-01T06:59:27.035Z</time></trkpt><trkpt lat="44.9561567" lon="9.7316492"><ele>101.0</ele><time>2026-05-01T06:59:29.03Z</time></trkpt><trkpt lat="44.956058" lon="9.7316527"><ele>101.0</ele><time>2026-05-01T06:59:32.034Z</time></trkpt><trkpt lat="44.9559948" lon="9.7316363"><ele>101.0</ele><time>2026-05-01T06:59:34.027Z</time></trkpt><trkpt lat="44.9559119" lon="9.731611"><ele>100.99999999999999</ele><time>2026-05-01T06:59:37.025Z</time></trkpt><trkpt lat="44.9558367" lon="9.7316052"><ele>101.0</ele><time>2026-05-01T06:59:40.019Z</time></trkpt><trkpt lat="44.955744" lon="9.7316224"><ele>101.16666666666666</ele><time>2026-05-01T06:59:44.027Z</time></trkpt><trkpt lat="44.9556774" lon="9.7316365"><ele>101.33333333333333</ele><time>2026-05-01T06:59:46.021Z</time></trkpt><trkpt lat="44.955598" lon="9.7315883"><ele>101.5</ele><time>2026-05-01T06:59:49.029Z</time></trkpt><trkpt lat="44.9555615" lon="9.7315136"><ele>101.66666666666666</ele><time>2026-05-01T06:59:51.03Z</time></trkpt><trkpt lat="44.9555216" lon="9.7314151"><ele>101.83333333333333</ele><time>2026-05-01T06:59:53.022Z</time></trkpt><trkpt lat="44.955476" lon="9.7313433"><ele>102.0</ele><time>2026-05-01T06:59:55.029Z</time></trkpt><trkpt lat="44.9554121" lon="9.7312556"><ele>102.0</ele><time>2026-05-01T06:59:57.033Z</time></trkpt><trkpt lat="44.9553589" lon="9.731166"><ele>102.0</ele><time>2026-05-01T06:59:59.027Z</time></trkpt><trkpt lat="44.9552962" lon="9.7310753"><ele>102.0</ele><time>2026-05-01T07:00:01.03Z</time></trkpt><trkpt lat="44.955238" lon="9.7309862"><ele>102.0</ele><time>2026-05-01T07:00:03.026Z</time></trkpt><trkpt lat="44.9551724" lon="9.7308881"><ele>102.0</ele><time>2026-05-01T07:00:05.025Z</time></trkpt><trkpt lat="44.9551173" lon="9.730791"><ele>102.0</ele><time>2026-05-01T07:00:07.015Z</time></trkpt><trkpt lat="44.9550651" lon="9.7306998"><ele>102.33333333333333</ele><time>2026-05-01T07:00:09.033Z</time></trkpt><trkpt lat="44.9550137" lon="9.7306044"><ele>102.66666666666666</ele><time>2026-05-01T07:00:11.03Z</time></trkpt><trkpt lat="44.9549667" lon="9.7305116"><ele>103.0</ele><time>2026-05-01T07:00:13.031Z</time></trkpt><trkpt lat="44.9549093" lon="9.7304134"><ele>103.33333333333333</ele><time>2026-05-01T07:00:15.012Z</time></trkpt><trkpt lat="44.9548317" lon="9.7303354"><ele>103.66666666666666</ele><time>2026-05-01T07:00:17.025Z</time></trkpt><trkpt lat="44.9547597" lon="9.7303149"><ele>104.0</ele><time>2026-05-01T07:00:19.017Z</time></trkpt><trkpt lat="44.9546842" lon="9.7302964"><ele>103.99999999999999</ele><time>2026-05-01T07:00:21.039Z</time></trkpt><trkpt lat="44.9546018" lon="9.7302608"><ele>104.0</ele><time>2026-05-01T07:00:23.024Z</time></trkpt><trkpt lat="44.9545205" lon="9.7302317"><ele>104.0</ele><time>2026-05-01T07:00:25.023Z</time></trkpt><trkpt lat="44.9544476" lon="9.7301878"><ele>104.0</ele><time>2026-05-01T07:00:27.011Z</time></trkpt><trkpt lat="44.9543612" lon="9.7301543"><ele>103.99999999999999</ele><time>2026-05-01T07:00:29.033Z</time></trkpt><trkpt lat="44.9542819" lon="9.7301166"><ele>104.0</ele><time>2026-05-01T07:00:31.026Z</time></trkpt><trkpt lat="44.9542052" lon="9.7300901"><ele>103.83333333333333</ele><time>2026-05-01T07:00:33.032Z</time></trkpt><trkpt lat="44.9541252" lon="9.7300544"><ele>103.66666666666666</ele><time>2026-05-01T07:00:35.013Z</time></trkpt><trkpt lat="44.9540471" lon="9.7299947"><ele>103.5</ele><time>2026-05-01T07:00:37.031Z</time></trkpt><trkpt lat="44.9539736" lon="9.7299107"><ele>103.33333333333334</ele><time>2026-05-01T07:00:39.027Z</time></trkpt><trkpt lat="44.9539087" lon="9.7298354"><ele>103.16666666666667</ele><time>2026-05-01T07:00:41.028Z</time></trkpt><trkpt lat="44.9538217" lon="9.7297759"><ele>103.0</ele><time>2026-05-01T07:00:43.028Z</time></trkpt><trkpt lat="44.9537385" lon="9.729716"><ele>103.00000000000001</ele><time>2026-05-01T07:00:45.038Z</time></trkpt><trkpt lat="44.9536721" lon="9.7296572"><ele>103.0</ele><time>2026-05-01T07:00:47.023Z</time></trkpt><trkpt lat="44.9535988" lon="9.7296069"><ele>103.0</ele><time>2026-05-01T07:00:49.029Z</time></trkpt><trkpt lat="44.953515" lon="9.7295694"><ele>103.0</ele><time>2026-05-01T07:00:51.024Z</time></trkpt><trkpt lat="44.9534343" lon="9.7295488"><ele>103.00000000000001</ele><time>2026-05-01T07:00:53.031Z</time></trkpt><trkpt lat="44.9533606" lon="9.7295369"><ele>103.0</ele><time>2026-05-01T07:00:55.039Z</time></trkpt><trkpt lat="44.9532851" lon="9.7295209"><ele>103.00000000000001</ele><time>2026-05-01T07:00:57.03Z</time></trkpt><trkpt lat="44.9532193" lon="9.729475"><ele>103.0</ele><time>2026-05-01T07:00:59.034Z</time></trkpt><trkpt lat="44.9531605" lon="9.7293919"><ele>103.0</ele><time>2026-05-01T07:01:01.042Z</time></trkpt><trkpt lat="44.9530944" lon="9.729325"><ele>103.0</ele><time>2026-05-01T07:01:03.026Z</time></trkpt><trkpt lat="44.9530313" lon="9.7292528"><ele>103.00000000000001</ele><time>2026-05-01T07:01:05.034Z</time></trkpt><trkpt lat="44.9529662" lon="9.729184"><ele>103.0</ele><time>2026-05-01T07:01:07.039Z</time></trkpt><trkpt lat="44.9528955" lon="9.7291194"><ele>103.00000000000001</ele><time>2026-05-01T07:01:09.03Z</time></trkpt><trkpt lat="44.9528369" lon="9.7290432"><ele>103.0</ele><time>2026-05-01T07:01:11.03Z</time></trkpt><trkpt lat="44.952782" lon="9.7289411"><ele>103.0</ele><time>2026-05-01T07:01:13.032Z</time></trkpt><trkpt lat="44.952727" lon="9.7288331"><ele>103.0</ele><time>2026-05-01T07:01:15.022Z</time></trkpt><trkpt lat="44.95268" lon="9.7287125"><ele>103.00000000000001</ele><time>2026-05-01T07:01:17.031Z</time></trkpt><trkpt lat="44.9526246" lon="9.728622"><ele>103.0</ele><time>2026-05-01T07:01:19.035Z</time></trkpt><trkpt lat="44.9525697" lon="9.7285344"><ele>103.33333333333334</ele><time>2026-05-01T07:01:21.033Z</time></trkpt><trkpt lat="44.9525272" lon="9.7284528"><ele>103.66666666666667</ele><time>2026-05-01T07:01:23.033Z</time></trkpt><trkpt lat="44.9524723" lon="9.7283772"><ele>104.0</ele><time>2026-05-01T07:01:25.025Z</time></trkpt><trkpt lat="44.9524143" lon="9.728315"><ele>104.33333333333334</ele><time>2026-05-01T07:01:27.025Z</time></trkpt><trkpt lat="44.9523557" lon="9.7282442"><ele>104.66666666666667</ele><time>2026-05-01T07:01:29.034Z</time></trkpt><trkpt lat="44.9522854" lon="9.7281807"><ele>105.0</ele><time>2026-05-01T07:01:31.018Z</time></trkpt><trkpt lat="44.9522212" lon="9.7281123"><ele>105.0</ele><time>2026-05-01T07:01:33.025Z</time></trkpt><trkpt lat="44.9521495" lon="9.7280403"><ele>105.0</ele><time>2026-05-01T07:01:35.028Z</time></trkpt><trkpt lat="44.9520634" lon="9.72799"><ele>105.0</ele><time>2026-05-01T07:01:37.033Z</time></trkpt><trkpt lat="44.9519733" lon="9.7279346"><ele>105.0</ele><time>2026-05-01T07:01:39.015Z</time></trkpt><trkpt lat="44.951892" lon="9.7278705"><ele>105.0</ele><time>2026-05-01T07:01:41.009Z</time></trkpt><trkpt lat="44.9518045" lon="9.7278098"><ele>105.0</ele><time>2026-05-01T07:01:43.03Z</time></trkpt><trkpt lat="44.9517318" lon="9.7277587"><ele>105.0</ele><time>2026-05-01T07:01:45.023Z</time></trkpt><trkpt lat="44.9516589" lon="9.7277"><ele>105.0</ele><time>2026-05-01T07:01:47.017Z</time></trkpt><trkpt lat="44.9515779" lon="9.7276761"><ele>105.0</ele><time>2026-05-01T07:01:49.032Z</time></trkpt><trkpt lat="44.9515018" lon="9.7276175"><ele>105.0</ele><time>2026-05-01T07:01:51.03Z</time></trkpt><trkpt lat="44.9514203" lon="9.7275595"><ele>105.0</ele><time>2026-05-01T07:01:53.029Z</time></trkpt><trkpt lat="44.951352" lon="9.7274928"><ele>105.0</ele><time>2026-05-01T07:01:55.017Z</time></trkpt><trkpt lat="44.9513005" lon="9.7273897"><ele>105.0</ele><time>2026-05-01T07:01:57.047Z</time></trkpt><trkpt lat="44.9512415" lon="9.7273082"><ele>105.0</ele><time>2026-05-01T07:01:59.004Z</time></trkpt><trkpt lat="44.9511791" lon="9.7272317"><ele>105.0</ele><time>2026-05-01T07:02:01.03Z</time></trkpt><trkpt lat="44.9511102" lon="9.7271655"><ele>105.0</ele><time>2026-05-01T07:02:03.025Z</time></trkpt><trkpt lat="44.9510322" lon="9.7271182"><ele>105.0</ele><time>2026-05-01T07:02:05.024Z</time></trkpt><trkpt lat="44.9509715" lon="9.72707"><ele>105.0</ele><time>2026-05-01T07:02:07.01Z</time></trkpt><trkpt lat="44.9509009" lon="9.7270139"><ele>105.0</ele><time>2026-05-01T07:02:09.019Z</time></trkpt><trkpt lat="44.9508258" lon="9.7269651"><ele>105.0</ele><time>2026-05-01T07:02:11.036Z</time></trkpt><trkpt lat="44.9507655" lon="9.7269069"><ele>105.0</ele><time>2026-05-01T07:02:13.02Z</time></trkpt><trkpt lat="44.9507247" lon="9.7268128"><ele>105.0</ele><time>2026-05-01T07:02:17.023Z</time></trkpt><trkpt lat="44.9506478" lon="9.7267529"><ele>105.0</ele><time>2026-05-01T07:02:21.016Z</time></trkpt><trkpt lat="44.9505896" lon="9.726681"><ele>105.16666666666667</ele><time>2026-05-01T07:02:23.025Z</time></trkpt><trkpt lat="44.9505282" lon="9.7266474"><ele>105.33333333333334</ele><time>2026-05-01T07:02:25.03Z</time></trkpt><trkpt lat="44.9504421" lon="9.7265857"><ele>105.5</ele><time>2026-05-01T07:02:28.024Z</time></trkpt><trkpt lat="44.950375" lon="9.7264971"><ele>105.66666666666667</ele><time>2026-05-01T07:02:31.006Z</time></trkpt><trkpt lat="44.9503101" lon="9.7264458"><ele>105.83333333333334</ele><time>2026-05-01T07:02:33.03Z</time></trkpt><trkpt lat="44.9502491" lon="9.7264053"><ele>106.0</ele><time>2026-05-01T07:02:35.045Z</time></trkpt><trkpt lat="44.9501813" lon="9.7263128"><ele>106.00000000000001</ele><time>2026-05-01T07:02:38.04Z</time></trkpt><trkpt lat="44.9501374" lon="9.726204"><ele>106.0</ele><time>2026-05-01T07:02:40.03Z</time></trkpt><trkpt lat="44.950071" lon="9.7261329"><ele>106.0</ele><time>2026-05-01T07:02:42.024Z</time></trkpt><trkpt lat="44.9500206" lon="9.7260716"><ele>106.0</ele><time>2026-05-01T07:02:44.027Z</time></trkpt><trkpt lat="44.9499553" lon="9.7260327"><ele>106.00000000000001</ele><time>2026-05-01T07:02:46.024Z</time></trkpt><trkpt lat="44.9498703" lon="9.7260069"><ele>106.0</ele><time>2026-05-01T07:02:48.032Z</time></trkpt><trkpt lat="44.9497906" lon="9.725997"><ele>105.66666666666667</ele><time>2026-05-01T07:02:50.028Z</time></trkpt><trkpt lat="44.9497055" lon="9.7259909"><ele>105.33333333333334</ele><time>2026-05-01T07:02:52.036Z</time></trkpt><trkpt lat="44.9496198" lon="9.725996"><ele>105.0</ele><time>2026-05-01T07:02:54.024Z</time></trkpt><trkpt lat="44.9495384" lon="9.7259975"><ele>104.66666666666666</ele><time>2026-05-01T07:02:56.035Z</time></trkpt><trkpt lat="44.9494571" lon="9.7259751"><ele>104.33333333333333</ele><time>2026-05-01T07:02:58.023Z</time></trkpt><trkpt lat="44.9493612" lon="9.7259651"><ele>104.0</ele><time>2026-05-01T07:03:00.029Z</time></trkpt><trkpt lat="44.949279" lon="9.7259651"><ele>104.33333333333333</ele><time>2026-05-01T07:03:02.024Z</time></trkpt><trkpt lat="44.949188" lon="9.7259532"><ele>104.66666666666666</ele><time>2026-05-01T07:03:04.04Z</time></trkpt><trkpt lat="44.9490939" lon="9.7259402"><ele>105.0</ele><time>2026-05-01T07:03:06.027Z</time></trkpt><trkpt lat="44.9490058" lon="9.7259345"><ele>105.33333333333334</ele><time>2026-05-01T07:03:08.033Z</time></trkpt><trkpt lat="44.9489231" lon="9.7259276"><ele>105.66666666666667</ele><time>2026-05-01T07:03:10.033Z</time></trkpt><trkpt lat="44.9488419" lon="9.7259263"><ele>106.0</ele><time>2026-05-01T07:03:12.024Z</time></trkpt><trkpt lat="44.9487707" lon="9.7259251"><ele>106.00000000000001</ele><time>2026-05-01T07:03:14.029Z</time></trkpt><trkpt lat="44.9486983" lon="9.7259169"><ele>106.0</ele><time>2026-05-01T07:03:16.024Z</time></trkpt><trkpt lat="44.9486191" lon="9.7258897"><ele>106.0</ele><time>2026-05-01T07:03:18.037Z</time></trkpt><trkpt lat="44.9485293" lon="9.7258685"><ele>106.0</ele><time>2026-05-01T07:03:20.021Z</time></trkpt><trkpt lat="44.9484562" lon="9.7258506"><ele>106.00000000000001</ele><time>2026-05-01T07:03:22.024Z</time></trkpt><trkpt lat="44.9483937" lon="9.7258293"><ele>106.0</ele><time>2026-05-01T07:03:24.024Z</time></trkpt><trkpt lat="44.9483246" lon="9.7258129"><ele>106.16666666666667</ele><time>2026-05-01T07:03:27.03Z</time></trkpt><trkpt lat="44.9482584" lon="9.7257889"><ele>106.33333333333334</ele><time>2026-05-01T07:03:29.031Z</time></trkpt><trkpt lat="44.9481611" lon="9.7257712"><ele>106.5</ele><time>2026-05-01T07:03:31.022Z</time></trkpt><trkpt lat="44.9480686" lon="9.7257474"><ele>106.66666666666666</ele><time>2026-05-01T07:03:33.02Z</time></trkpt><trkpt lat="44.9479829" lon="9.7257242"><ele>106.83333333333333</ele><time>2026-05-01T07:03:35.024Z</time></trkpt><trkpt lat="44.9478969" lon="9.7257043"><ele>107.0</ele><time>2026-05-01T07:03:37.032Z</time></trkpt><trkpt lat="44.947812" lon="9.7256772"><ele>107.0</ele><time>2026-05-01T07:03:39.022Z</time></trkpt><trkpt lat="44.9477242" lon="9.725675"><ele>106.99999999999999</ele><time>2026-05-01T07:03:41.043Z</time></trkpt><trkpt lat="44.9476311" lon="9.7256523"><ele>106.99999999999999</ele><time>2026-05-01T07:03:43.025Z</time></trkpt><trkpt lat="44.9475443" lon="9.7256348"><ele>107.0</ele><time>2026-05-01T07:03:45.021Z</time></trkpt><trkpt lat="44.9474565" lon="9.7256129"><ele>107.0</ele><time>2026-05-01T07:03:47.031Z</time></trkpt><trkpt lat="44.9473671" lon="9.7255839"><ele>107.33333333333333</ele><time>2026-05-01T07:03:49Z</time></trkpt><trkpt lat="44.9472861" lon="9.7255713"><ele>107.66666666666666</ele><time>2026-05-01T07:03:51.037Z</time></trkpt><trkpt lat="44.9472" lon="9.7255678"><ele>108.0</ele><time>2026-05-01T07:03:53.025Z</time></trkpt><trkpt lat="44.9471086" lon="9.7255702"><ele>108.33333333333334</ele><time>2026-05-01T07:03:54.996Z</time></trkpt><trkpt lat="44.9470306" lon="9.7255618"><ele>108.66666666666667</ele><time>2026-05-01T07:03:57.016Z</time></trkpt><trkpt lat="44.9469433" lon="9.7255582"><ele>109.0</ele><time>2026-05-01T07:03:58.992Z</time></trkpt><trkpt lat="44.9468613" lon="9.7255627"><ele>109.00000000000001</ele><time>2026-05-01T07:04:00.998Z</time></trkpt><trkpt lat="44.9467765" lon="9.7255637"><ele>109.0</ele><time>2026-05-01T07:04:03.001Z</time></trkpt><trkpt lat="44.9466938" lon="9.7255724"><ele>109.0</ele><time>2026-05-01T07:04:05.005Z</time></trkpt><trkpt lat="44.946613" lon="9.7255854"><ele>109.0</ele><time>2026-05-01T07:04:07.009Z</time></trkpt><trkpt lat="44.9465321" lon="9.7255855"><ele>109.00000000000001</ele><time>2026-05-01T07:04:09.005Z</time></trkpt><trkpt lat="44.9464549" lon="9.7255848"><ele>109.0</ele><time>2026-05-01T07:04:11.027Z</time></trkpt><trkpt lat="44.946368" lon="9.7255701"><ele>109.2</ele><time>2026-05-01T07:04:13.025Z</time></trkpt><trkpt lat="44.9462728" lon="9.7255368"><ele>109.4</ele><time>2026-05-01T07:04:15.002Z</time></trkpt><trkpt lat="44.9461803" lon="9.7254986"><ele>109.6</ele><time>2026-05-01T07:04:17.033Z</time></trkpt><trkpt lat="44.9460872" lon="9.7254502"><ele>109.8</ele><time>2026-05-01T07:04:19.036Z</time></trkpt><trkpt lat="44.9459991" lon="9.725387"><ele>110.0</ele><time>2026-05-01T07:04:21.019Z</time></trkpt><trkpt lat="44.9459168" lon="9.7253354"><ele>109.99999999999999</ele><time>2026-05-01T07:04:23.033Z</time></trkpt><trkpt lat="44.9458432" lon="9.7252739"><ele>110.0</ele><time>2026-05-01T07:04:25.026Z</time></trkpt><trkpt lat="44.945768" lon="9.725214"><ele>110.0</ele><time>2026-05-01T07:04:27.03Z</time></trkpt><trkpt lat="44.9456997" lon="9.7251378"><ele>110.0</ele><time>2026-05-01T07:04:29.027Z</time></trkpt><trkpt lat="44.9456273" lon="9.7250747"><ele>109.99999999999999</ele><time>2026-05-01T07:04:31.007Z</time></trkpt><trkpt lat="44.9455559" lon="9.7249922"><ele>110.0</ele><time>2026-05-01T07:04:33.036Z</time></trkpt><trkpt lat="44.9454847" lon="9.7248976"><ele>109.8</ele><time>2026-05-01T07:04:35.03Z</time></trkpt><trkpt lat="44.9454174" lon="9.72481"><ele>109.6</ele><time>2026-05-01T07:04:37.01Z</time></trkpt><trkpt lat="44.9453388" lon="9.724745"><ele>109.4</ele><time>2026-05-01T07:04:39.005Z</time></trkpt><trkpt lat="44.9452441" lon="9.7246879"><ele>109.2</ele><time>2026-05-01T07:04:41.027Z</time></trkpt><trkpt lat="44.9451608" lon="9.7246302"><ele>109.0</ele><time>2026-05-01T07:04:43.029Z</time></trkpt><trkpt lat="44.945081" lon="9.7245748"><ele>109.00000000000001</ele><time>2026-05-01T07:04:45.032Z</time></trkpt><trkpt lat="44.9449969" lon="9.7245249"><ele>109.0</ele><time>2026-05-01T07:04:47.027Z</time></trkpt><trkpt lat="44.9449074" lon="9.7244894"><ele>109.0</ele><time>2026-05-01T07:04:49.009Z</time></trkpt><trkpt lat="44.9448325" lon="9.7244397"><ele>109.0</ele><time>2026-05-01T07:04:51.025Z</time></trkpt><trkpt lat="44.9447554" lon="9.7243766"><ele>109.00000000000001</ele><time>2026-05-01T07:04:53.012Z</time></trkpt><trkpt lat="44.9446872" lon="9.7243153"><ele>109.0</ele><time>2026-05-01T07:04:55.029Z</time></trkpt><trkpt lat="44.9446128" lon="9.7242493"><ele>109.00000000000001</ele><time>2026-05-01T07:04:57.016Z</time></trkpt><trkpt lat="44.944538" lon="9.7241925"><ele>109.0</ele><time>2026-05-01T07:04:59.002Z</time></trkpt><trkpt lat="44.9444585" lon="9.7241385"><ele>109.0</ele><time>2026-05-01T07:05:01.029Z</time></trkpt><trkpt lat="44.9443746" lon="9.7241077"><ele>109.0</ele><time>2026-05-01T07:05:03.027Z</time></trkpt><trkpt lat="44.9442828" lon="9.7240753"><ele>109.00000000000001</ele><time>2026-05-01T07:05:05.008Z</time></trkpt><trkpt lat="44.9442055" lon="9.7240288"><ele>109.0</ele><time>2026-05-01T07:05:07.025Z</time></trkpt><trkpt lat="44.9441303" lon="9.7240053"><ele>109.28571428571429</ele><time>2026-05-01T07:05:09.021Z</time></trkpt><trkpt lat="44.9440509" lon="9.7240008"><ele>109.57142857142858</ele><time>2026-05-01T07:05:11.022Z</time></trkpt><trkpt lat="44.9439867" lon="9.7240291"><ele>109.85714285714286</ele><time>2026-05-01T07:05:13.015Z</time></trkpt><trkpt lat="44.9439239" lon="9.7240606"><ele>110.14285714285714</ele><time>2026-05-01T07:05:15.029Z</time></trkpt><trkpt lat="44.94386" lon="9.724074"><ele>110.42857142857143</ele><time>2026-05-01T07:05:17.027Z</time></trkpt><trkpt lat="44.9437962" lon="9.7240739"><ele>110.71428571428571</ele><time>2026-05-01T07:05:19.026Z</time></trkpt><trkpt lat="44.9437195" lon="9.7240573"><ele>111.0</ele><time>2026-05-01T07:05:21.033Z</time></trkpt><trkpt lat="44.9436573" lon="9.7240015"><ele>111.0</ele><time>2026-05-01T07:05:23.031Z</time></trkpt><trkpt lat="44.9435991" lon="9.7239501"><ele>111.0</ele><time>2026-05-01T07:05:25.022Z</time></trkpt><trkpt lat="44.9435439" lon="9.7238945"><ele>111.0</ele><time>2026-05-01T07:05:27.021Z</time></trkpt><trkpt lat="44.9434808" lon="9.7238482"><ele>111.0</ele><time>2026-05-01T07:05:29.022Z</time></trkpt><trkpt lat="44.9434175" lon="9.7237892"><ele>111.0</ele><time>2026-05-01T07:05:31.008Z</time></trkpt><trkpt lat="44.9433349" lon="9.7237478"><ele>111.0</ele><time>2026-05-01T07:05:33.027Z</time></trkpt><trkpt lat="44.9432522" lon="9.7236697"><ele>111.16666666666667</ele><time>2026-05-01T07:05:35.029Z</time></trkpt><trkpt lat="44.9431701" lon="9.7236279"><ele>111.33333333333334</ele><time>2026-05-01T07:05:37.038Z</time></trkpt><trkpt lat="44.943102" lon="9.7235935"><ele>111.5</ele><time>2026-05-01T07:05:39.023Z</time></trkpt><trkpt lat="44.9430305" lon="9.7235455"><ele>111.66666666666667</ele><time>2026-05-01T07:05:41.033Z</time></trkpt><trkpt lat="44.9429553" lon="9.7235123"><ele>111.83333333333334</ele><time>2026-05-01T07:05:43.03Z</time></trkpt><trkpt lat="44.9428903" lon="9.7234659"><ele>112.0</ele><time>2026-05-01T07:05:45.023Z</time></trkpt><trkpt lat="44.9428126" lon="9.7234304"><ele>112.00000000000001</ele><time>2026-05-01T07:05:47.025Z</time></trkpt><trkpt lat="44.9427349" lon="9.7233995"><ele>112.0</ele><time>2026-05-01T07:05:49.023Z</time></trkpt><trkpt lat="44.9426504" lon="9.7233532"><ele>112.0</ele><time>2026-05-01T07:05:52.031Z</time></trkpt><trkpt lat="44.9425811" lon="9.7233195"><ele>112.0</ele><time>2026-05-01T07:05:54.027Z</time></trkpt><trkpt lat="44.9425105" lon="9.7232862"><ele>112.00000000000001</ele><time>2026-05-01T07:05:56.025Z</time></trkpt><trkpt lat="44.9424305" lon="9.7232566"><ele>112.0</ele><time>2026-05-01T07:05:58.019Z</time></trkpt><trkpt lat="44.9423502" lon="9.7232264"><ele>112.00000000000001</ele><time>2026-05-01T07:06:00.032Z</time></trkpt><trkpt lat="44.9422776" lon="9.7231758"><ele>112.0</ele><time>2026-05-01T07:06:02.021Z</time></trkpt><trkpt lat="44.9422111" lon="9.7231173"><ele>112.0</ele><time>2026-05-01T07:06:04.026Z</time></trkpt><trkpt lat="44.9421488" lon="9.7230601"><ele>112.0</ele><time>2026-05-01T07:06:06.026Z</time></trkpt><trkpt lat="44.942097" lon="9.7230017"><ele>112.00000000000001</ele><time>2026-05-01T07:06:08.022Z</time></trkpt><trkpt lat="44.9420426" lon="9.7229443"><ele>112.0</ele><time>2026-05-01T07:06:10.015Z</time></trkpt><trkpt lat="44.9419596" lon="9.7228976"><ele>112.00000000000001</ele><time>2026-05-01T07:06:12.024Z</time></trkpt><trkpt lat="44.941882" lon="9.7228581"><ele>112.0</ele><time>2026-05-01T07:06:14.036Z</time></trkpt><trkpt lat="44.9418168" lon="9.722786"><ele>112.0</ele><time>2026-05-01T07:06:16.025Z</time></trkpt><trkpt lat="44.9417386" lon="9.7227153"><ele>112.0</ele><time>2026-05-01T07:06:18.025Z</time></trkpt><trkpt lat="44.9416616" lon="9.7226448"><ele>112.00000000000001</ele><time>2026-05-01T07:06:20.019Z</time></trkpt><trkpt lat="44.9415895" lon="9.7225837"><ele>112.0</ele><time>2026-05-01T07:06:22.017Z</time></trkpt><trkpt lat="44.941528" lon="9.7225603"><ele>112.0</ele><time>2026-05-01T07:06:24.022Z</time></trkpt><trkpt lat="44.9414635" lon="9.7226013"><ele>112.0</ele><time>2026-05-01T07:06:26.023Z</time></trkpt><trkpt lat="44.9413833" lon="9.7226383"><ele>112.0</ele><time>2026-05-01T07:06:29.031Z</time></trkpt><trkpt lat="44.9413126" lon="9.7226283"><ele>112.0</ele><time>2026-05-01T07:06:31.031Z</time></trkpt><trkpt lat="44.9412342" lon="9.7226245"><ele>112.0</ele><time>2026-05-01T07:06:33.02Z</time></trkpt><trkpt lat="44.9411674" lon="9.7226181"><ele>112.0</ele><time>2026-05-01T07:06:35.023Z</time></trkpt><trkpt lat="44.9410993" lon="9.722604"><ele>112.0</ele><time>2026-05-01T07:06:37.031Z</time></trkpt><trkpt lat="44.9410348" lon="9.7225803"><ele>112.0</ele><time>2026-05-01T07:06:39.025Z</time></trkpt><trkpt lat="44.9409486" lon="9.722544"><ele>112.0</ele><time>2026-05-01T07:06:42.022Z</time></trkpt><trkpt lat="44.9408891" lon="9.7225148"><ele>112.0</ele><time>2026-05-01T07:06:44.023Z</time></trkpt><trkpt lat="44.9408207" lon="9.7224883"><ele>112.0</ele><time>2026-05-01T07:06:46.031Z</time></trkpt><trkpt lat="44.9407566" lon="9.7224557"><ele>112.0</ele><time>2026-05-01T07:06:48.025Z</time></trkpt><trkpt lat="44.940685" lon="9.7224184"><ele>112.0</ele><time>2026-05-01T07:06:50.023Z</time></trkpt><trkpt lat="44.9406243" lon="9.722392"><ele>112.0</ele><time>2026-05-01T07:06:52.034Z</time></trkpt><trkpt lat="44.9405547" lon="9.7223924"><ele>112.14285714285714</ele><time>2026-05-01T07:06:55.024Z</time></trkpt><trkpt lat="44.9405106" lon="9.7224686"><ele>112.28571428571428</ele><time>2026-05-01T07:06:58.024Z</time></trkpt><trkpt lat="44.9404713" lon="9.7225452"><ele>112.42857142857143</ele><time>2026-05-01T07:07:12.027Z</time></trkpt><trkpt lat="44.9403978" lon="9.7225288"><ele>112.57142857142857</ele><time>2026-05-01T07:07:26.019Z</time></trkpt><trkpt lat="44.9403258" lon="9.7224898"><ele>112.71428571428571</ele><time>2026-05-01T07:07:29.012Z</time></trkpt><trkpt lat="44.9402754" lon="9.7224359"><ele>112.85714285714286</ele><time>2026-05-01T07:07:31.004Z</time></trkpt><trkpt lat="44.9402131" lon="9.7224064"><ele>113.0</ele><time>2026-05-01T07:07:33.029Z</time></trkpt><trkpt lat="44.9401459" lon="9.7223808"><ele>112.99999999999999</ele><time>2026-05-01T07:07:36.024Z</time></trkpt><trkpt lat="44.9400846" lon="9.7223524"><ele>113.0</ele><time>2026-05-01T07:07:38.026Z</time></trkpt><trkpt lat="44.940022" lon="9.7223328"><ele>113.0</ele><time>2026-05-01T07:07:40.028Z</time></trkpt><trkpt lat="44.9399406" lon="9.7223287"><ele>113.0</ele><time>2026-05-01T07:07:43.022Z</time></trkpt><trkpt lat="44.9398612" lon="9.7222924"><ele>112.99999999999999</ele><time>2026-05-01T07:07:45.022Z</time></trkpt><trkpt lat="44.939779" lon="9.7222293"><ele>113.0</ele><time>2026-05-01T07:07:47.032Z</time></trkpt><trkpt lat="44.9396963" lon="9.7221941"><ele>113.33333333333333</ele><time>2026-05-01T07:07:49.017Z</time></trkpt><trkpt lat="44.9396107" lon="9.7221355"><ele>113.66666666666666</ele><time>2026-05-01T07:07:51.025Z</time></trkpt><trkpt lat="44.9395311" lon="9.7220864"><ele>114.0</ele><time>2026-05-01T07:07:53.036Z</time></trkpt><trkpt lat="44.9394441" lon="9.7220653"><ele>114.33333333333334</ele><time>2026-05-01T07:07:55.02Z</time></trkpt><trkpt lat="44.9393589" lon="9.7220674"><ele>114.66666666666667</ele><time>2026-05-01T07:07:57.038Z</time></trkpt><trkpt lat="44.9392884" lon="9.7220848"><ele>115.0</ele><time>2026-05-01T07:07:59.028Z</time></trkpt><trkpt lat="44.9392146" lon="9.7220898"><ele>115.00000000000001</ele><time>2026-05-01T07:08:01.001Z</time></trkpt><trkpt lat="44.939124" lon="9.7220864"><ele>115.0</ele><time>2026-05-01T07:08:02.998Z</time></trkpt><trkpt lat="44.9390416" lon="9.7220863"><ele>115.0</ele><time>2026-05-01T07:08:05.028Z</time></trkpt><trkpt lat="44.9389478" lon="9.7220897"><ele>115.0</ele><time>2026-05-01T07:08:07.026Z</time></trkpt><trkpt lat="44.9388541" lon="9.7221104"><ele>115.00000000000001</ele><time>2026-05-01T07:08:09.018Z</time></trkpt><trkpt lat="44.9387663" lon="9.7221086"><ele>115.0</ele><time>2026-05-01T07:08:11.017Z</time></trkpt><trkpt lat="44.9386811" lon="9.72211"><ele>115.0</ele><time>2026-05-01T07:08:13.027Z</time></trkpt><trkpt lat="44.9385946" lon="9.7221234"><ele>115.0</ele><time>2026-05-01T07:08:15.008Z</time></trkpt><trkpt lat="44.938509" lon="9.7221339"><ele>115.0</ele><time>2026-05-01T07:08:17.002Z</time></trkpt><trkpt lat="44.9384156" lon="9.7221351"><ele>115.0</ele><time>2026-05-01T07:08:19.025Z</time></trkpt><trkpt lat="44.938313" lon="9.7221448"><ele>115.0</ele><time>2026-05-01T07:08:21.021Z</time></trkpt><trkpt lat="44.9382143" lon="9.7221577"><ele>114.8</ele><time>2026-05-01T07:08:23.029Z</time></trkpt><trkpt lat="44.9381153" lon="9.7221691"><ele>114.6</ele><time>2026-05-01T07:08:25.029Z</time></trkpt><trkpt lat="44.9380218" lon="9.7221511"><ele>114.4</ele><time>2026-05-01T07:08:27.019Z</time></trkpt><trkpt lat="44.9379409" lon="9.7221299"><ele>114.2</ele><time>2026-05-01T07:08:29.03Z</time></trkpt><trkpt lat="44.9378545" lon="9.7220815"><ele>114.0</ele><time>2026-05-01T07:08:31.009Z</time></trkpt><trkpt lat="44.9377675" lon="9.7220329"><ele>114.0</ele><time>2026-05-01T07:08:33.032Z</time></trkpt><trkpt lat="44.9376761" lon="9.7219868"><ele>114.0</ele><time>2026-05-01T07:08:35.035Z</time></trkpt><trkpt lat="44.9375806" lon="9.7219498"><ele>114.0</ele><time>2026-05-01T07:08:37.035Z</time></trkpt><trkpt lat="44.9375026" lon="9.7219098"><ele>114.0</ele><time>2026-05-01T07:08:39.023Z</time></trkpt><trkpt lat="44.9374215" lon="9.7218795"><ele>114.0</ele><time>2026-05-01T07:08:41.026Z</time></trkpt><trkpt lat="44.93733" lon="9.7218576"><ele>114.16666666666667</ele><time>2026-05-01T07:08:43.026Z</time></trkpt><trkpt lat="44.9372356" lon="9.7218267"><ele>114.33333333333334</ele><time>2026-05-01T07:08:45.034Z</time></trkpt><trkpt lat="44.9371483" lon="9.7217764"><ele>114.5</ele><time>2026-05-01T07:08:47.032Z</time></trkpt><trkpt lat="44.937079" lon="9.7217465"><ele>114.66666666666667</ele><time>2026-05-01T07:08:49.027Z</time></trkpt><trkpt lat="44.937001" lon="9.7216967"><ele>114.83333333333334</ele><time>2026-05-01T07:08:52.011Z</time></trkpt><trkpt lat="44.9369357" lon="9.721667"><ele>115.0</ele><time>2026-05-01T07:08:54.037Z</time></trkpt><trkpt lat="44.9368683" lon="9.7216326"><ele>115.0</ele><time>2026-05-01T07:08:56.019Z</time></trkpt><trkpt lat="44.9367976" lon="9.7215944"><ele>115.0</ele><time>2026-05-01T07:08:58.03Z</time></trkpt><trkpt lat="44.9367296" lon="9.7215523"><ele>115.0</ele><time>2026-05-01T07:09:00.032Z</time></trkpt><trkpt lat="44.9366458" lon="9.7214854"><ele>115.0</ele><time>2026-05-01T07:09:02.035Z</time></trkpt><trkpt lat="44.9365527" lon="9.7214032"><ele>115.0</ele><time>2026-05-01T07:09:04.034Z</time></trkpt><trkpt lat="44.9364731" lon="9.7213147"><ele>115.00000000000001</ele><time>2026-05-01T07:09:06.028Z</time></trkpt><trkpt lat="44.9364013" lon="9.7212224"><ele>115.0</ele><time>2026-05-01T07:09:08.01Z</time></trkpt><trkpt lat="44.9363302" lon="9.7211576"><ele>115.0</ele><time>2026-05-01T07:09:10.032Z</time></trkpt><trkpt lat="44.9362531" lon="9.7211115"><ele>115.0</ele><time>2026-05-01T07:09:12.029Z</time></trkpt><trkpt lat="44.9361683" lon="9.7210675"><ele>115.00000000000001</ele><time>2026-05-01T07:09:14.034Z</time></trkpt><trkpt lat="44.9360897" lon="9.7210282"><ele>115.0</ele><time>2026-05-01T07:09:16.038Z</time></trkpt><trkpt lat="44.9360157" lon="9.7209578"><ele>115.00000000000001</ele><time>2026-05-01T07:09:18.026Z</time></trkpt><trkpt lat="44.9359365" lon="9.7209042"><ele>115.0</ele><time>2026-05-01T07:09:20.025Z</time></trkpt><trkpt lat="44.9358483" lon="9.7208792"><ele>115.0</ele><time>2026-05-01T07:09:22.025Z</time></trkpt><trkpt lat="44.9357665" lon="9.7208403"><ele>115.0</ele><time>2026-05-01T07:09:24.029Z</time></trkpt><trkpt lat="44.9356891" lon="9.7207956"><ele>115.00000000000001</ele><time>2026-05-01T07:09:26.031Z</time></trkpt><trkpt lat="44.9356061" lon="9.7207484"><ele>115.0</ele><time>2026-05-01T07:09:28.033Z</time></trkpt><trkpt lat="44.935531" lon="9.720701"><ele>115.33333333333334</ele><time>2026-05-01T07:09:30.038Z</time></trkpt><trkpt lat="44.9354493" lon="9.7206526"><ele>115.66666666666667</ele><time>2026-05-01T07:09:32.023Z</time></trkpt><trkpt lat="44.9353758" lon="9.7206061"><ele>116.0</ele><time>2026-05-01T07:09:34.02Z</time></trkpt><trkpt lat="44.9353049" lon="9.7205599"><ele>116.33333333333334</ele><time>2026-05-01T07:09:36.033Z</time></trkpt><trkpt lat="44.9352291" lon="9.7205164"><ele>116.66666666666667</ele><time>2026-05-01T07:09:38.022Z</time></trkpt><trkpt lat="44.9351571" lon="9.7204737"><ele>117.0</ele><time>2026-05-01T07:09:40.026Z</time></trkpt><trkpt lat="44.9350844" lon="9.7204367"><ele>117.0</ele><time>2026-05-01T07:09:42.017Z</time></trkpt><trkpt lat="44.9350094" lon="9.7203814"><ele>117.0</ele><time>2026-05-01T07:09:44.025Z</time></trkpt><trkpt lat="44.9349454" lon="9.7203225"><ele>117.0</ele><time>2026-05-01T07:09:46.032Z</time></trkpt><trkpt lat="44.9348848" lon="9.7202654"><ele>117.0</ele><time>2026-05-01T07:09:48.019Z</time></trkpt><trkpt lat="44.9348121" lon="9.7202044"><ele>117.0</ele><time>2026-05-01T07:09:50.027Z</time></trkpt><trkpt lat="44.9347494" lon="9.7201295"><ele>117.0</ele><time>2026-05-01T07:09:52.033Z</time></trkpt><trkpt lat="44.9346937" lon="9.7200576"><ele>117.0</ele><time>2026-05-01T07:09:54.027Z</time></trkpt><trkpt lat="44.9346396" lon="9.7199973"><ele>117.0</ele><time>2026-05-01T07:09:56.025Z</time></trkpt><trkpt lat="44.9345644" lon="9.7199443"><ele>117.0</ele><time>2026-05-01T07:09:58.027Z</time></trkpt><trkpt lat="44.934499" lon="9.7198625"><ele>117.0</ele><time>2026-05-01T07:10:00.034Z</time></trkpt><trkpt lat="44.9344397" lon="9.7197914"><ele>117.0</ele><time>2026-05-01T07:10:02.012Z</time></trkpt><trkpt lat="44.9343736" lon="9.71972"><ele>117.0</ele><time>2026-05-01T07:10:04.025Z</time></trkpt><trkpt lat="44.9343052" lon="9.7196538"><ele>117.0</ele><time>2026-05-01T07:10:06.03Z</time></trkpt><trkpt lat="44.9342343" lon="9.7195909"><ele>117.0</ele><time>2026-05-01T07:10:08.03Z</time></trkpt><trkpt lat="44.9341522" lon="9.7195351"><ele>117.0</ele><time>2026-05-01T07:10:10.025Z</time></trkpt><trkpt lat="44.9340788" lon="9.7194767"><ele>117.0</ele><time>2026-05-01T07:10:12.019Z</time></trkpt><trkpt lat="44.9340046" lon="9.7194397"><ele>117.0</ele><time>2026-05-01T07:10:14.008Z</time></trkpt><trkpt lat="44.9339221" lon="9.7194067"><ele>117.0</ele><time>2026-05-01T07:10:16.01Z</time></trkpt><trkpt lat="44.9338398" lon="9.7193651"><ele>117.33333333333333</ele><time>2026-05-01T07:10:18.017Z</time></trkpt><trkpt lat="44.9337644" lon="9.7193169"><ele>117.66666666666666</ele><time>2026-05-01T07:10:20.021Z</time></trkpt><trkpt lat="44.9336939" lon="9.7192599"><ele>118.0</ele><time>2026-05-01T07:10:22.025Z</time></trkpt><trkpt lat="44.9336277" lon="9.7191971"><ele>118.33333333333333</ele><time>2026-05-01T07:10:24.025Z</time></trkpt><trkpt lat="44.9335691" lon="9.7191271"><ele>118.66666666666666</ele><time>2026-05-01T07:10:26.003Z</time></trkpt><trkpt lat="44.9335154" lon="9.7190406"><ele>119.0</ele><time>2026-05-01T07:10:28.022Z</time></trkpt><trkpt lat="44.93346" lon="9.7189527"><ele>118.99999999999999</ele><time>2026-05-01T07:10:30.023Z</time></trkpt><trkpt lat="44.9334044" lon="9.7188579"><ele>119.0</ele><time>2026-05-01T07:10:32.017Z</time></trkpt><trkpt lat="44.9333457" lon="9.7187705"><ele>119.0</ele><time>2026-05-01T07:10:34.023Z</time></trkpt><trkpt lat="44.9333009" lon="9.7186676"><ele>119.0</ele><time>2026-05-01T07:10:36.032Z</time></trkpt><trkpt lat="44.933247" lon="9.7185687"><ele>118.99999999999999</ele><time>2026-05-01T07:10:38.026Z</time></trkpt><trkpt lat="44.9331907" lon="9.7184685"><ele>119.0</ele><time>2026-05-01T07:10:39.993Z</time></trkpt><trkpt lat="44.9331478" lon="9.7183626"><ele>119.16666666666666</ele><time>2026-05-01T07:10:42.023Z</time></trkpt><trkpt lat="44.9331065" lon="9.71825"><ele>119.33333333333333</ele><time>2026-05-01T07:10:44.018Z</time></trkpt><trkpt lat="44.9330682" lon="9.7181418"><ele>119.5</ele><time>2026-05-01T07:10:46.013Z</time></trkpt><trkpt lat="44.9330208" lon="9.7180393"><ele>119.66666666666666</ele><time>2026-05-01T07:10:48.007Z</time></trkpt><trkpt lat="44.9329802" lon="9.7179467"><ele>119.83333333333333</ele><time>2026-05-01T07:10:50.012Z</time></trkpt><trkpt lat="44.9329328" lon="9.7178501"><ele>120.0</ele><time>2026-05-01T07:10:52.015Z</time></trkpt><trkpt lat="44.9328865" lon="9.7177591"><ele>119.83333333333333</ele><time>2026-05-01T07:10:54.016Z</time></trkpt><trkpt lat="44.932836" lon="9.717673"><ele>119.66666666666666</ele><time>2026-05-01T07:10:56.038Z</time></trkpt><trkpt lat="44.932789" lon="9.7175762"><ele>119.5</ele><time>2026-05-01T07:10:58.009Z</time></trkpt><trkpt lat="44.9327436" lon="9.7174839"><ele>119.33333333333333</ele><time>2026-05-01T07:11:00.037Z</time></trkpt><trkpt lat="44.9326879" lon="9.7173891"><ele>119.16666666666666</ele><time>2026-05-01T07:11:02.032Z</time></trkpt><trkpt lat="44.9326346" lon="9.7173003"><ele>119.0</ele><time>2026-05-01T07:11:04.009Z</time></trkpt><trkpt lat="44.9325787" lon="9.7172196"><ele>119.16666666666666</ele><time>2026-05-01T07:11:06.025Z</time></trkpt><trkpt lat="44.9325346" lon="9.7171212"><ele>119.33333333333333</ele><time>2026-05-01T07:11:08.018Z</time></trkpt><trkpt lat="44.9324818" lon="9.7170214"><ele>119.5</ele><time>2026-05-01T07:11:10.028Z</time></trkpt><trkpt lat="44.9324238" lon="9.7169197"><ele>119.66666666666666</ele><time>2026-05-01T07:11:12.032Z</time></trkpt><trkpt lat="44.9323692" lon="9.7168264"><ele>119.83333333333333</ele><time>2026-05-01T07:11:14.022Z</time></trkpt><trkpt lat="44.9323124" lon="9.7167194"><ele>120.0</ele><time>2026-05-01T07:11:16.03Z</time></trkpt><trkpt lat="44.9322577" lon="9.7166177"><ele>120.0</ele><time>2026-05-01T07:11:18.024Z</time></trkpt><trkpt lat="44.9322017" lon="9.7165258"><ele>120.0</ele><time>2026-05-01T07:11:20.023Z</time></trkpt><trkpt lat="44.9321391" lon="9.7164423"><ele>120.0</ele><time>2026-05-01T07:11:22.03Z</time></trkpt><trkpt lat="44.9320785" lon="9.7163634"><ele>120.0</ele><time>2026-05-01T07:11:24.029Z</time></trkpt><trkpt lat="44.9320226" lon="9.7162784"><ele>120.0</ele><time>2026-05-01T07:11:26.029Z</time></trkpt><trkpt lat="44.9319638" lon="9.7161862"><ele>120.0</ele><time>2026-05-01T07:11:28.03Z</time></trkpt><trkpt lat="44.9319031" lon="9.7161057"><ele>120.0</ele><time>2026-05-01T07:11:30.026Z</time></trkpt><trkpt lat="44.9318473" lon="9.7160116"><ele>120.0</ele><time>2026-05-01T07:11:32.031Z</time></trkpt><trkpt lat="44.931787" lon="9.7159206"><ele>120.0</ele><time>2026-05-01T07:11:34.032Z</time></trkpt><trkpt lat="44.9317316" lon="9.71583"><ele>120.0</ele><time>2026-05-01T07:11:36.021Z</time></trkpt><trkpt lat="44.9316754" lon="9.71574"><ele>120.0</ele><time>2026-05-01T07:11:38.016Z</time></trkpt><trkpt lat="44.9316123" lon="9.7156675"><ele>120.0</ele><time>2026-05-01T07:11:40.029Z</time></trkpt><trkpt lat="44.9315516" lon="9.7156069"><ele>120.16666666666667</ele><time>2026-05-01T07:11:42.023Z</time></trkpt><trkpt lat="44.9314852" lon="9.7156107"><ele>120.33333333333334</ele><time>2026-05-01T07:11:44.028Z</time></trkpt><trkpt lat="44.9314157" lon="9.7156495"><ele>120.5</ele><time>2026-05-01T07:11:46.034Z</time></trkpt><trkpt lat="44.9313522" lon="9.7157305"><ele>120.66666666666667</ele><time>2026-05-01T07:11:48.019Z</time></trkpt><trkpt lat="44.9312932" lon="9.7158194"><ele>120.83333333333334</ele><time>2026-05-01T07:11:50.022Z</time></trkpt><trkpt lat="44.9312329" lon="9.7159126"><ele>121.0</ele><time>2026-05-01T07:11:52.034Z</time></trkpt><trkpt lat="44.9311668" lon="9.715994"><ele>121.0</ele><time>2026-05-01T07:11:54.034Z</time></trkpt><trkpt lat="44.9310946" lon="9.7160487"><ele>120.99999999999999</ele><time>2026-05-01T07:11:56.027Z</time></trkpt><trkpt lat="44.9310379" lon="9.7161162"><ele>121.0</ele><time>2026-05-01T07:11:58.003Z</time></trkpt><trkpt lat="44.9309898" lon="9.7161899"><ele>121.0</ele><time>2026-05-01T07:12:00.033Z</time></trkpt><trkpt lat="44.930954" lon="9.7162712"><ele>120.99999999999999</ele><time>2026-05-01T07:12:02.025Z</time></trkpt><trkpt lat="44.930929" lon="9.7163638"><ele>121.0</ele><time>2026-05-01T07:12:04.034Z</time></trkpt><trkpt lat="44.9308911" lon="9.7164421"><ele>121.0</ele><time>2026-05-01T07:12:06.038Z</time></trkpt><trkpt lat="44.9307965" lon="9.7164395"><ele>121.33333333333334</ele><time>2026-05-01T07:12:09.028Z</time></trkpt><trkpt lat="44.9307706" lon="9.7163369"><ele>121.66666666666667</ele><time>2026-05-01T07:12:11.028Z</time></trkpt><trkpt lat="44.9307377" lon="9.7162296"><ele>122.0</ele><time>2026-05-01T07:12:13.008Z</time></trkpt><trkpt lat="44.930712" lon="9.7161105"><ele>122.33333333333334</ele><time>2026-05-01T07:12:15.039Z</time></trkpt><trkpt lat="44.9306791" lon="9.7159954"><ele>122.66666666666667</ele><time>2026-05-01T07:12:17.027Z</time></trkpt><trkpt lat="44.9306289" lon="9.7158741"><ele>123.0</ele><time>2026-05-01T07:12:19.034Z</time></trkpt><trkpt lat="44.9305675" lon="9.7157674"><ele>123.2</ele><time>2026-05-01T07:12:21.032Z</time></trkpt><trkpt lat="44.9304998" lon="9.715661"><ele>123.4</ele><time>2026-05-01T07:12:23.04Z</time></trkpt><trkpt lat="44.9304207" lon="9.7155579"><ele>123.60000000000001</ele><time>2026-05-01T07:12:25.034Z</time></trkpt><trkpt lat="44.9303539" lon="9.7154504"><ele>123.80000000000001</ele><time>2026-05-01T07:12:27.036Z</time></trkpt><trkpt lat="44.930299" lon="9.7153374"><ele>124.0</ele><time>2026-05-01T07:12:29.034Z</time></trkpt><trkpt lat="44.930236" lon="9.715218"><ele>124.0</ele><time>2026-05-01T07:12:31.031Z</time></trkpt><trkpt lat="44.9301667" lon="9.7151039"><ele>124.0</ele><time>2026-05-01T07:12:33.031Z</time></trkpt><trkpt lat="44.9301032" lon="9.7149937"><ele>124.0</ele><time>2026-05-01T07:12:35.034Z</time></trkpt><trkpt lat="44.9300404" lon="9.714888"><ele>124.0</ele><time>2026-05-01T07:12:37.035Z</time></trkpt><trkpt lat="44.9299737" lon="9.714785"><ele>124.0</ele><time>2026-05-01T07:12:39.018Z</time></trkpt><trkpt lat="44.9299132" lon="9.7146797"><ele>124.2</ele><time>2026-05-01T07:12:41.038Z</time></trkpt><trkpt lat="44.9298437" lon="9.7145778"><ele>124.4</ele><time>2026-05-01T07:12:43.033Z</time></trkpt><trkpt lat="44.9297687" lon="9.714483"><ele>124.6</ele><time>2026-05-01T07:12:45.028Z</time></trkpt><trkpt lat="44.9296964" lon="9.7143929"><ele>124.8</ele><time>2026-05-01T07:12:47.039Z</time></trkpt><trkpt lat="44.9296176" lon="9.7143152"><ele>125.0</ele><time>2026-05-01T07:12:49.039Z</time></trkpt><trkpt lat="44.9295499" lon="9.7142146"><ele>125.0</ele><time>2026-05-01T07:12:51.032Z</time></trkpt><trkpt lat="44.9294849" lon="9.714121"><ele>125.0</ele><time>2026-05-01T07:12:53.035Z</time></trkpt><trkpt lat="44.9294103" lon="9.7140305"><ele>125.0</ele><time>2026-05-01T07:12:55.034Z</time></trkpt><trkpt lat="44.9293333" lon="9.7139474"><ele>125.0</ele><time>2026-05-01T07:12:57.015Z</time></trkpt><trkpt lat="44.9292537" lon="9.7138646"><ele>125.0</ele><time>2026-05-01T07:12:59.04Z</time></trkpt><trkpt lat="44.9291657" lon="9.713781"><ele>125.0</ele><time>2026-05-01T07:13:01.035Z</time></trkpt><trkpt lat="44.9290882" lon="9.7137147"><ele>125.0</ele><time>2026-05-01T07:13:03.037Z</time></trkpt><trkpt lat="44.9290016" lon="9.7136456"><ele>125.0</ele><time>2026-05-01T07:13:05.034Z</time></trkpt><trkpt lat="44.9289202" lon="9.713568"><ele>125.0</ele><time>2026-05-01T07:13:07.035Z</time></trkpt><trkpt lat="44.9288417" lon="9.7134862"><ele>125.0</ele><time>2026-05-01T07:13:09.044Z</time></trkpt><trkpt lat="44.9287641" lon="9.7134108"><ele>125.2</ele><time>2026-05-01T07:13:11.033Z</time></trkpt><trkpt lat="44.9286808" lon="9.713341"><ele>125.4</ele><time>2026-05-01T07:13:13.025Z</time></trkpt><trkpt lat="44.9285959" lon="9.7132574"><ele>125.6</ele><time>2026-05-01T07:13:15.017Z</time></trkpt><trkpt lat="44.9285146" lon="9.7131802"><ele>125.8</ele><time>2026-05-01T07:13:17.029Z</time></trkpt><trkpt lat="44.9284335" lon="9.7131006"><ele>126.0</ele><time>2026-05-01T07:13:19.024Z</time></trkpt><trkpt lat="44.9283478" lon="9.7130273"><ele>126.4</ele><time>2026-05-01T07:13:21.034Z</time></trkpt><trkpt lat="44.9282626" lon="9.7129551"><ele>126.8</ele><time>2026-05-01T07:13:23.029Z</time></trkpt><trkpt lat="44.9281739" lon="9.7128895"><ele>127.20000000000002</ele><time>2026-05-01T07:13:25.018Z</time></trkpt><trkpt lat="44.9280948" lon="9.7128187"><ele>127.60000000000001</ele><time>2026-05-01T07:13:27.035Z</time></trkpt><trkpt lat="44.9280144" lon="9.7127514"><ele>128.0</ele><time>2026-05-01T07:13:29.037Z</time></trkpt><trkpt lat="44.9279357" lon="9.712673"><ele>128.0</ele><time>2026-05-01T07:13:31.023Z</time></trkpt><trkpt lat="44.9278403" lon="9.7126035"><ele>128.0</ele><time>2026-05-01T07:13:33.012Z</time></trkpt><trkpt lat="44.9277504" lon="9.712565"><ele>128.0</ele><time>2026-05-01T07:13:35.032Z</time></trkpt><trkpt lat="44.9276593" lon="9.7125143"><ele>128.0</ele><time>2026-05-01T07:13:37.029Z</time></trkpt><trkpt lat="44.9275855" lon="9.71243"><ele>128.0</ele><time>2026-05-01T07:13:39.035Z</time></trkpt><trkpt lat="44.9275156" lon="9.7123459"><ele>128.20000000000002</ele><time>2026-05-01T07:13:41.033Z</time></trkpt><trkpt lat="44.9274351" lon="9.7122622"><ele>128.4</ele><time>2026-05-01T07:13:43.01Z</time></trkpt><trkpt lat="44.9273588" lon="9.7121782"><ele>128.60000000000002</ele><time>2026-05-01T07:13:45.033Z</time></trkpt><trkpt lat="44.9272821" lon="9.7120932"><ele>128.8</ele><time>2026-05-01T07:13:47.039Z</time></trkpt><trkpt lat="44.927202" lon="9.7120072"><ele>129.0</ele><time>2026-05-01T07:13:49.032Z</time></trkpt><trkpt lat="44.9271125" lon="9.7119374"><ele>129.0</ele><time>2026-05-01T07:13:51.036Z</time></trkpt><trkpt lat="44.9270271" lon="9.7118638"><ele>129.0</ele><time>2026-05-01T07:13:53.036Z</time></trkpt><trkpt lat="44.9269439" lon="9.7117939"><ele>129.0</ele><time>2026-05-01T07:13:55.027Z</time></trkpt><trkpt lat="44.9268546" lon="9.7117186"><ele>129.0</ele><time>2026-05-01T07:13:57.036Z</time></trkpt><trkpt lat="44.9267726" lon="9.7116428"><ele>129.0</ele><time>2026-05-01T07:13:59.038Z</time></trkpt><trkpt lat="44.9266899" lon="9.7115589"><ele>128.8</ele><time>2026-05-01T07:14:01.013Z</time></trkpt><trkpt lat="44.9266104" lon="9.7114821"><ele>128.60000000000002</ele><time>2026-05-01T07:14:03.032Z</time></trkpt><trkpt lat="44.9265285" lon="9.7114067"><ele>128.4</ele><time>2026-05-01T07:14:05.027Z</time></trkpt><trkpt lat="44.9264441" lon="9.7113332"><ele>128.20000000000002</ele><time>2026-05-01T07:14:07.032Z</time></trkpt><trkpt lat="44.9263658" lon="9.7112493"><ele>128.0</ele><time>2026-05-01T07:14:09.031Z</time></trkpt><trkpt lat="44.9262735" lon="9.7111674"><ele>128.0</ele><time>2026-05-01T07:14:11.028Z</time></trkpt><trkpt lat="44.9261846" lon="9.7111087"><ele>128.0</ele><time>2026-05-01T07:14:13.034Z</time></trkpt><trkpt lat="44.926102" lon="9.7110274"><ele>128.0</ele><time>2026-05-01T07:14:15.024Z</time></trkpt><trkpt lat="44.9260147" lon="9.7109501"><ele>128.0</ele><time>2026-05-01T07:14:17.032Z</time></trkpt><trkpt lat="44.9259394" lon="9.7108628"><ele>128.0</ele><time>2026-05-01T07:14:19.03Z</time></trkpt><trkpt lat="44.9258601" lon="9.7107745"><ele>128.4</ele><time>2026-05-01T07:14:21.04Z</time></trkpt><trkpt lat="44.9257783" lon="9.710704"><ele>128.8</ele><time>2026-05-01T07:14:23.033Z</time></trkpt><trkpt lat="44.9256936" lon="9.7106322"><ele>129.2</ele><time>2026-05-01T07:14:25.024Z</time></trkpt><trkpt lat="44.925607" lon="9.7105585"><ele>129.6</ele><time>2026-05-01T07:14:27.027Z</time></trkpt><trkpt lat="44.9255226" lon="9.7104889"><ele>130.0</ele><time>2026-05-01T07:14:29.036Z</time></trkpt><trkpt lat="44.9254392" lon="9.7104239"><ele>130.0</ele><time>2026-05-01T07:14:31.032Z</time></trkpt><trkpt lat="44.9253534" lon="9.7103602"><ele>130.0</ele><time>2026-05-01T07:14:33.032Z</time></trkpt><trkpt lat="44.9252751" lon="9.7102857"><ele>130.0</ele><time>2026-05-01T07:14:35.03Z</time></trkpt><trkpt lat="44.92521" lon="9.710203"><ele>130.0</ele><time>2026-05-01T07:14:37.036Z</time></trkpt><trkpt lat="44.9251393" lon="9.7101109"><ele>130.0</ele><time>2026-05-01T07:14:39.032Z</time></trkpt><trkpt lat="44.9250678" lon="9.7100137"><ele>130.2</ele><time>2026-05-01T07:14:41.034Z</time></trkpt><trkpt lat="44.9250135" lon="9.7098987"><ele>130.4</ele><time>2026-05-01T07:14:43.029Z</time></trkpt><trkpt lat="44.9249604" lon="9.7097842"><ele>130.6</ele><time>2026-05-01T07:14:45.033Z</time></trkpt><trkpt lat="44.9248953" lon="9.7096827"><ele>130.8</ele><time>2026-05-01T07:14:47.03Z</time></trkpt><trkpt lat="44.9248208" lon="9.7095851"><ele>131.0</ele><time>2026-05-01T07:14:49.031Z</time></trkpt><trkpt lat="44.9247468" lon="9.7094792"><ele>130.8</ele><time>2026-05-01T07:14:51.027Z</time></trkpt><trkpt lat="44.9246793" lon="9.7093841"><ele>130.6</ele><time>2026-05-01T07:14:53.03Z</time></trkpt><trkpt lat="44.9246135" lon="9.7092846"><ele>130.4</ele><time>2026-05-01T07:14:55.038Z</time></trkpt><trkpt lat="44.924554" lon="9.7091668"><ele>130.2</ele><time>2026-05-01T07:14:57.024Z</time></trkpt><trkpt lat="44.9245112" lon="9.7090467"><ele>130.0</ele><time>2026-05-01T07:14:59.036Z</time></trkpt><trkpt lat="44.9244661" lon="9.708921"><ele>130.0</ele><time>2026-05-01T07:15:01.043Z</time></trkpt><trkpt lat="44.924419" lon="9.7087973"><ele>130.0</ele><time>2026-05-01T07:15:03.034Z</time></trkpt><trkpt lat="44.9243675" lon="9.7086786"><ele>130.0</ele><time>2026-05-01T07:15:05.031Z</time></trkpt><trkpt lat="44.9243186" lon="9.7085513"><ele>130.0</ele><time>2026-05-01T07:15:07.035Z</time></trkpt><trkpt lat="44.9242817" lon="9.7084198"><ele>130.0</ele><time>2026-05-01T07:15:09.026Z</time></trkpt><trkpt lat="44.9242575" lon="9.7082928"><ele>130.2</ele><time>2026-05-01T07:15:11.034Z</time></trkpt><trkpt lat="44.9241979" lon="9.7081865"><ele>130.4</ele><time>2026-05-01T07:15:13.028Z</time></trkpt><trkpt lat="44.9241453" lon="9.7080645"><ele>130.6</ele><time>2026-05-01T07:15:15.039Z</time></trkpt><trkpt lat="44.9241117" lon="9.7079299"><ele>130.8</ele><time>2026-05-01T07:15:17.038Z</time></trkpt><trkpt lat="44.9240755" lon="9.7077816"><ele>131.0</ele><time>2026-05-01T07:15:19.032Z</time></trkpt><trkpt lat="44.9240312" lon="9.7076394"><ele>131.2</ele><time>2026-05-01T07:15:21.032Z</time></trkpt><trkpt lat="44.9239772" lon="9.7075069"><ele>131.39999999999998</ele><time>2026-05-01T07:15:23.031Z</time></trkpt><trkpt lat="44.9239216" lon="9.7073752"><ele>131.6</ele><time>2026-05-01T07:15:25.031Z</time></trkpt><trkpt lat="44.9238639" lon="9.7072446"><ele>131.79999999999998</ele><time>2026-05-01T07:15:27.024Z</time></trkpt><trkpt lat="44.9238044" lon="9.7071192"><ele>132.0</ele><time>2026-05-01T07:15:29.03Z</time></trkpt><trkpt lat="44.9237525" lon="9.7069831"><ele>132.0</ele><time>2026-05-01T07:15:31.02Z</time></trkpt><trkpt lat="44.92369" lon="9.7068482"><ele>132.0</ele><time>2026-05-01T07:15:33.037Z</time></trkpt><trkpt lat="44.9236352" lon="9.7067124"><ele>132.0</ele><time>2026-05-01T07:15:35.042Z</time></trkpt><trkpt lat="44.9235752" lon="9.7065888"><ele>132.0</ele><time>2026-05-01T07:15:37.036Z</time></trkpt><trkpt lat="44.9235154" lon="9.7064603"><ele>132.0</ele><time>2026-05-01T07:15:39.03Z</time></trkpt><trkpt lat="44.923462" lon="9.7063238"><ele>132.0</ele><time>2026-05-01T07:15:41.035Z</time></trkpt><trkpt lat="44.9234032" lon="9.7061927"><ele>132.0</ele><time>2026-05-01T07:15:43.036Z</time></trkpt><trkpt lat="44.9233547" lon="9.7060615"><ele>132.0</ele><time>2026-05-01T07:15:45.043Z</time></trkpt><trkpt lat="44.9233007" lon="9.7059306"><ele>132.0</ele><time>2026-05-01T07:15:47.031Z</time></trkpt><trkpt lat="44.9232451" lon="9.7058018"><ele>132.0</ele><time>2026-05-01T07:15:49.023Z</time></trkpt><trkpt lat="44.9231928" lon="9.705675"><ele>132.2</ele><time>2026-05-01T07:15:51.033Z</time></trkpt><trkpt lat="44.9231369" lon="9.7055474"><ele>132.39999999999998</ele><time>2026-05-01T07:15:53.034Z</time></trkpt><trkpt lat="44.9230793" lon="9.7054216"><ele>132.60000000000002</ele><time>2026-05-01T07:15:55.035Z</time></trkpt><trkpt lat="44.9230232" lon="9.7052848"><ele>132.8</ele><time>2026-05-01T07:15:57.037Z</time></trkpt><trkpt lat="44.9229661" lon="9.7051509"><ele>133.0</ele><time>2026-05-01T07:15:59.002Z</time></trkpt><trkpt lat="44.9229095" lon="9.7050172"><ele>133.0</ele><time>2026-05-01T07:16:01.019Z</time></trkpt><trkpt lat="44.9228514" lon="9.7048827"><ele>133.0</ele><time>2026-05-01T07:16:03.032Z</time></trkpt><trkpt lat="44.9227876" lon="9.7047494"><ele>133.0</ele><time>2026-05-01T07:16:05.026Z</time></trkpt><trkpt lat="44.9227316" lon="9.704614"><ele>133.0</ele><time>2026-05-01T07:16:07.034Z</time></trkpt><trkpt lat="44.9226768" lon="9.7044826"><ele>133.0</ele><time>2026-05-01T07:16:09.042Z</time></trkpt><trkpt lat="44.92262" lon="9.7043579"><ele>133.0</ele><time>2026-05-01T07:16:11.04Z</time></trkpt><trkpt lat="44.9225648" lon="9.7042347"><ele>133.0</ele><time>2026-05-01T07:16:13.033Z</time></trkpt><trkpt lat="44.9224956" lon="9.7041096"><ele>133.0</ele><time>2026-05-01T07:16:15.026Z</time></trkpt><trkpt lat="44.9224122" lon="9.7040078"><ele>133.0</ele><time>2026-05-01T07:16:17.031Z</time></trkpt><trkpt lat="44.9223232" lon="9.7039115"><ele>133.0</ele><time>2026-05-01T07:16:19.039Z</time></trkpt><trkpt lat="44.9222348" lon="9.7038289"><ele>132.8</ele><time>2026-05-01T07:16:21.031Z</time></trkpt><trkpt lat="44.9221414" lon="9.7037603"><ele>132.60000000000002</ele><time>2026-05-01T07:16:23.031Z</time></trkpt><trkpt lat="44.9220447" lon="9.7036844"><ele>132.39999999999998</ele><time>2026-05-01T07:16:25.034Z</time></trkpt><trkpt lat="44.9219546" lon="9.7036042"><ele>132.2</ele><time>2026-05-01T07:16:27.037Z</time></trkpt><trkpt lat="44.9218576" lon="9.7035239"><ele>132.0</ele><time>2026-05-01T07:16:29.036Z</time></trkpt><trkpt lat="44.9217621" lon="9.703454"><ele>132.79999999999998</ele><time>2026-05-01T07:16:31.028Z</time></trkpt><trkpt lat="44.9216645" lon="9.7033829"><ele>133.6</ele><time>2026-05-01T07:16:33.034Z</time></trkpt><trkpt lat="44.921568" lon="9.7033178"><ele>134.39999999999998</ele><time>2026-05-01T07:16:35.029Z</time></trkpt><trkpt lat="44.9214666" lon="9.7032409"><ele>135.2</ele><time>2026-05-01T07:16:37.02Z</time></trkpt><trkpt lat="44.9213682" lon="9.7031756"><ele>136.0</ele><time>2026-05-01T07:16:39.044Z</time></trkpt><trkpt lat="44.9212722" lon="9.7031033"><ele>136.0</ele><time>2026-05-01T07:16:41.026Z</time></trkpt><trkpt lat="44.9211713" lon="9.7030497"><ele>136.0</ele><time>2026-05-01T07:16:43.017Z</time></trkpt><trkpt lat="44.9210612" lon="9.7030372"><ele>136.0</ele><time>2026-05-01T07:16:45.032Z</time></trkpt><trkpt lat="44.920954" lon="9.7030568"><ele>136.0</ele><time>2026-05-01T07:16:47.037Z</time></trkpt><trkpt lat="44.9208499" lon="9.7030993"><ele>136.0</ele><time>2026-05-01T07:16:49.042Z</time></trkpt><trkpt lat="44.9207449" lon="9.7031511"><ele>136.4</ele><time>2026-05-01T07:16:51.03Z</time></trkpt><trkpt lat="44.9206445" lon="9.7032097"><ele>136.8</ele><time>2026-05-01T07:16:53.036Z</time></trkpt><trkpt lat="44.9205368" lon="9.7032696"><ele>137.20000000000002</ele><time>2026-05-01T07:16:55.036Z</time></trkpt><trkpt lat="44.9204381" lon="9.7033265"><ele>137.6</ele><time>2026-05-01T07:16:57.022Z</time></trkpt><trkpt lat="44.9203319" lon="9.7033869"><ele>138.0</ele><time>2026-05-01T07:16:59.04Z</time></trkpt><trkpt lat="44.9202319" lon="9.7034545"><ele>138.0</ele><time>2026-05-01T07:17:01.038Z</time></trkpt><trkpt lat="44.9201326" lon="9.7035191"><ele>138.0</ele><time>2026-05-01T07:17:03.034Z</time></trkpt><trkpt lat="44.9200334" lon="9.7035817"><ele>138.0</ele><time>2026-05-01T07:17:05.041Z</time></trkpt><trkpt lat="44.9199361" lon="9.7036397"><ele>138.0</ele><time>2026-05-01T07:17:07.024Z</time></trkpt><trkpt lat="44.9198408" lon="9.7037018"><ele>138.0</ele><time>2026-05-01T07:17:09.039Z</time></trkpt><trkpt lat="44.9197415" lon="9.7037656"><ele>137.8</ele><time>2026-05-01T07:17:11.034Z</time></trkpt><trkpt lat="44.9196468" lon="9.7038316"><ele>137.60000000000002</ele><time>2026-05-01T07:17:13.037Z</time></trkpt><trkpt lat="44.9195514" lon="9.7038566"><ele>137.39999999999998</ele><time>2026-05-01T07:17:15.006Z</time></trkpt><trkpt lat="44.9194637" lon="9.7037879"><ele>137.2</ele><time>2026-05-01T07:17:17.037Z</time></trkpt><trkpt lat="44.9193892" lon="9.7036991"><ele>137.0</ele><time>2026-05-01T07:17:19.026Z</time></trkpt><trkpt lat="44.9193036" lon="9.7036009"><ele>136.79999999999998</ele><time>2026-05-01T07:17:21.027Z</time></trkpt><trkpt lat="44.919219" lon="9.7034989"><ele>136.6</ele><time>2026-05-01T07:17:23.033Z</time></trkpt><trkpt lat="44.9191373" lon="9.7034022"><ele>136.39999999999998</ele><time>2026-05-01T07:17:25.035Z</time></trkpt><trkpt lat="44.9190516" lon="9.7032996"><ele>136.2</ele><time>2026-05-01T07:17:27.036Z</time></trkpt><trkpt lat="44.9189636" lon="9.7032038"><ele>136.0</ele><time>2026-05-01T07:17:29.02Z</time></trkpt><trkpt lat="44.9188731" lon="9.7031106"><ele>136.0</ele><time>2026-05-01T07:17:31.026Z</time></trkpt><trkpt lat="44.918783" lon="9.7030204"><ele>136.0</ele><time>2026-05-01T07:17:33.041Z</time></trkpt><trkpt lat="44.9186958" lon="9.7029283"><ele>136.0</ele><time>2026-05-01T07:17:35.048Z</time></trkpt><trkpt lat="44.9186098" lon="9.7028453"><ele>136.0</ele><time>2026-05-01T07:17:37.036Z</time></trkpt><trkpt lat="44.9185271" lon="9.7027526"><ele>136.0</ele><time>2026-05-01T07:17:39.034Z</time></trkpt><trkpt lat="44.9184396" lon="9.7026673"><ele>136.2</ele><time>2026-05-01T07:17:41.034Z</time></trkpt><trkpt lat="44.9183504" lon="9.7025846"><ele>136.39999999999998</ele><time>2026-05-01T07:17:43.034Z</time></trkpt><trkpt lat="44.9182578" lon="9.702506"><ele>136.6</ele><time>2026-05-01T07:17:45.034Z</time></trkpt><trkpt lat="44.9181625" lon="9.702424"><ele>136.79999999999998</ele><time>2026-05-01T07:17:47.032Z</time></trkpt><trkpt lat="44.9180705" lon="9.7023542"><ele>137.0</ele><time>2026-05-01T07:17:49.032Z</time></trkpt><trkpt lat="44.9179749" lon="9.7022924"><ele>137.0</ele><time>2026-05-01T07:17:51.018Z</time></trkpt><trkpt lat="44.9178794" lon="9.70223"><ele>137.0</ele><time>2026-05-01T07:17:53.037Z</time></trkpt><trkpt lat="44.9177853" lon="9.702171"><ele>137.0</ele><time>2026-05-01T07:17:55.038Z</time></trkpt><trkpt lat="44.9176914" lon="9.7021112"><ele>137.0</ele><time>2026-05-01T07:17:57.038Z</time></trkpt><trkpt lat="44.9175932" lon="9.7020448"><ele>137.0</ele><time>2026-05-01T07:17:59.046Z</time></trkpt><trkpt lat="44.9174927" lon="9.7019719"><ele>137.2</ele><time>2026-05-01T07:18:01.041Z</time></trkpt><trkpt lat="44.9173937" lon="9.701901"><ele>137.39999999999998</ele><time>2026-05-01T07:18:03.024Z</time></trkpt><trkpt lat="44.9172956" lon="9.7018197"><ele>137.60000000000002</ele><time>2026-05-01T07:18:05.033Z</time></trkpt><trkpt lat="44.9172014" lon="9.7017458"><ele>137.8</ele><time>2026-05-01T07:18:07.028Z</time></trkpt><trkpt lat="44.917103" lon="9.7016693"><ele>138.0</ele><time>2026-05-01T07:18:09.038Z</time></trkpt><trkpt lat="44.9170087" lon="9.7016013"><ele>138.0</ele><time>2026-05-01T07:18:11.032Z</time></trkpt><trkpt lat="44.9169187" lon="9.701534"><ele>138.0</ele><time>2026-05-01T07:18:13.035Z</time></trkpt><trkpt lat="44.9168259" lon="9.7014612"><ele>138.0</ele><time>2026-05-01T07:18:15.034Z</time></trkpt><trkpt lat="44.9167322" lon="9.7013866"><ele>138.0</ele><time>2026-05-01T07:18:17.033Z</time></trkpt><trkpt lat="44.916639" lon="9.7013122"><ele>138.0</ele><time>2026-05-01T07:18:19.042Z</time></trkpt><trkpt lat="44.9165461" lon="9.7012318"><ele>138.4</ele><time>2026-05-01T07:18:21.037Z</time></trkpt><trkpt lat="44.9164517" lon="9.7011569"><ele>138.8</ele><time>2026-05-01T07:18:23.038Z</time></trkpt><trkpt lat="44.9163663" lon="9.7010692"><ele>139.2</ele><time>2026-05-01T07:18:25.04Z</time></trkpt><trkpt lat="44.9162888" lon="9.7009601"><ele>139.6</ele><time>2026-05-01T07:18:27.036Z</time></trkpt><trkpt lat="44.9162445" lon="9.700846"><ele>140.0</ele><time>2026-05-01T07:18:29.049Z</time></trkpt><trkpt lat="44.9162127" lon="9.7007158"><ele>140.0</ele><time>2026-05-01T07:18:31.023Z</time></trkpt><trkpt lat="44.9162083" lon="9.7005759"><ele>140.0</ele><time>2026-05-01T07:18:33.039Z</time></trkpt><trkpt lat="44.9162047" lon="9.7004291"><ele>140.0</ele><time>2026-05-01T07:18:35.026Z</time></trkpt><trkpt lat="44.9162113" lon="9.7002885"><ele>140.0</ele><time>2026-05-01T07:18:37.044Z</time></trkpt><trkpt lat="44.9162108" lon="9.7001516"><ele>140.0</ele><time>2026-05-01T07:18:39.037Z</time></trkpt><trkpt lat="44.9162008" lon="9.7000051"><ele>140.0</ele><time>2026-05-01T07:18:41.014Z</time></trkpt><trkpt lat="44.9161963" lon="9.6998554"><ele>140.0</ele><time>2026-05-01T07:18:43.035Z</time></trkpt><trkpt lat="44.9162015" lon="9.6997024"><ele>140.0</ele><time>2026-05-01T07:18:45.043Z</time></trkpt><trkpt lat="44.9162222" lon="9.6995368"><ele>140.0</ele><time>2026-05-01T07:18:47.031Z</time></trkpt><trkpt lat="44.9162494" lon="9.6993757"><ele>140.0</ele><time>2026-05-01T07:18:49.039Z</time></trkpt><trkpt lat="44.9162628" lon="9.6992075"><ele>140.0</ele><time>2026-05-01T07:18:51.043Z</time></trkpt><trkpt lat="44.916247" lon="9.6990566"><ele>140.0</ele><time>2026-05-01T07:18:53.035Z</time></trkpt><trkpt lat="44.9162018" lon="9.6989213"><ele>140.0</ele><time>2026-05-01T07:18:55.041Z</time></trkpt><trkpt lat="44.9161478" lon="9.6988053"><ele>140.0</ele><time>2026-05-01T07:18:57.035Z</time></trkpt><trkpt lat="44.9160777" lon="9.6987034"><ele>140.0</ele><time>2026-05-01T07:18:59.027Z</time></trkpt><trkpt lat="44.9159998" lon="9.6985914"><ele>140.0</ele><time>2026-05-01T07:19:01.022Z</time></trkpt><trkpt lat="44.9159312" lon="9.6984841"><ele>140.0</ele><time>2026-05-01T07:19:03.033Z</time></trkpt><trkpt lat="44.9158599" lon="9.6983757"><ele>140.0</ele><time>2026-05-01T07:19:05.025Z</time></trkpt><trkpt lat="44.9157903" lon="9.6982631"><ele>140.0</ele><time>2026-05-01T07:19:07.026Z</time></trkpt><trkpt lat="44.9156953" lon="9.6981909"><ele>140.6</ele><time>2026-05-01T07:19:09.032Z</time></trkpt><trkpt lat="44.9155958" lon="9.6981203"><ele>141.2</ele><time>2026-05-01T07:19:11.035Z</time></trkpt><trkpt lat="44.9154905" lon="9.6980786"><ele>141.8</ele><time>2026-05-01T07:19:13.024Z</time></trkpt><trkpt lat="44.9153892" lon="9.6980517"><ele>142.4</ele><time>2026-05-01T07:19:15.009Z</time></trkpt><trkpt lat="44.9152934" lon="9.6980356"><ele>143.0</ele><time>2026-05-01T07:19:17.037Z</time></trkpt><trkpt lat="44.9151991" lon="9.6980301"><ele>143.0</ele><time>2026-05-01T07:19:19.027Z</time></trkpt><trkpt lat="44.9150948" lon="9.6980295"><ele>143.0</ele><time>2026-05-01T07:19:21.024Z</time></trkpt><trkpt lat="44.9149934" lon="9.6980361"><ele>143.0</ele><time>2026-05-01T07:19:23.029Z</time></trkpt><trkpt lat="44.9148905" lon="9.6980351"><ele>143.0</ele><time>2026-05-01T07:19:25.031Z</time></trkpt><trkpt lat="44.9147998" lon="9.6980334"><ele>143.0</ele><time>2026-05-01T07:19:27.031Z</time></trkpt><trkpt lat="44.9146991" lon="9.6980276"><ele>143.20000000000002</ele><time>2026-05-01T07:19:29.035Z</time></trkpt><trkpt lat="44.9145946" lon="9.6980251"><ele>143.4</ele><time>2026-05-01T07:19:31.033Z</time></trkpt><trkpt lat="44.9144936" lon="9.6980047"><ele>143.60000000000002</ele><time>2026-05-01T07:19:33.035Z</time></trkpt><trkpt lat="44.9143992" lon="9.6979882"><ele>143.8</ele><time>2026-05-01T07:19:35.035Z</time></trkpt><trkpt lat="44.9142994" lon="9.6979508"><ele>144.0</ele><time>2026-05-01T07:19:37.03Z</time></trkpt><trkpt lat="44.9141938" lon="9.6979086"><ele>144.2</ele><time>2026-05-01T07:19:39.029Z</time></trkpt><trkpt lat="44.914105" lon="9.6978729"><ele>144.4</ele><time>2026-05-01T07:19:41.032Z</time></trkpt><trkpt lat="44.9140093" lon="9.6978376"><ele>144.6</ele><time>2026-05-01T07:19:43.042Z</time></trkpt><trkpt lat="44.9139375" lon="9.6977746"><ele>144.8</ele><time>2026-05-01T07:19:45.018Z</time></trkpt><trkpt lat="44.9139113" lon="9.6976554"><ele>145.0</ele><time>2026-05-01T07:19:47.032Z</time></trkpt><trkpt lat="44.9139378" lon="9.6975394"><ele>145.0</ele><time>2026-05-01T07:19:49.026Z</time></trkpt><trkpt lat="44.9139863" lon="9.6974192"><ele>145.0</ele><time>2026-05-01T07:19:51.02Z</time></trkpt><trkpt lat="44.9140285" lon="9.6972938"><ele>145.0</ele><time>2026-05-01T07:19:53.033Z</time></trkpt><trkpt lat="44.9140817" lon="9.6971575"><ele>145.0</ele><time>2026-05-01T07:19:55.036Z</time></trkpt><trkpt lat="44.9141392" lon="9.6970334"><ele>145.0</ele><time>2026-05-01T07:19:57.03Z</time></trkpt><trkpt lat="44.9141984" lon="9.6969103"><ele>144.6</ele><time>2026-05-01T07:19:59.039Z</time></trkpt><trkpt lat="44.914254" lon="9.6967961"><ele>144.2</ele><time>2026-05-01T07:20:01.037Z</time></trkpt><trkpt lat="44.9143056" lon="9.6966703"><ele>143.8</ele><time>2026-05-01T07:20:03.032Z</time></trkpt><trkpt lat="44.9143566" lon="9.6965468"><ele>143.4</ele><time>2026-05-01T07:20:05.035Z</time></trkpt><trkpt lat="44.9143863" lon="9.6964073"><ele>143.0</ele><time>2026-05-01T07:20:07.013Z</time></trkpt><trkpt lat="44.9144212" lon="9.6962702"><ele>143.0</ele><time>2026-05-01T07:20:09.014Z</time></trkpt><trkpt lat="44.9144662" lon="9.6961257"><ele>143.0</ele><time>2026-05-01T07:20:11.038Z</time></trkpt><trkpt lat="44.914503" lon="9.6959921"><ele>143.0</ele><time>2026-05-01T07:20:13.035Z</time></trkpt><trkpt lat="44.9145449" lon="9.6958571"><ele>143.0</ele><time>2026-05-01T07:20:15.031Z</time></trkpt><trkpt lat="44.9145808" lon="9.6957124"><ele>143.0</ele><time>2026-05-01T07:20:17.025Z</time></trkpt><trkpt lat="44.9146254" lon="9.6955697"><ele>142.83333333333331</ele><time>2026-05-01T07:20:19.031Z</time></trkpt><trkpt lat="44.9146835" lon="9.6954489"><ele>142.66666666666666</ele><time>2026-05-01T07:20:21.037Z</time></trkpt><trkpt lat="44.9147298" lon="9.695333"><ele>142.5</ele><time>2026-05-01T07:20:23.029Z</time></trkpt><trkpt lat="44.9147675" lon="9.6952218"><ele>142.33333333333334</ele><time>2026-05-01T07:20:25.036Z</time></trkpt><trkpt lat="44.9147954" lon="9.6951415"><ele>142.16666666666669</ele><time>2026-05-01T07:20:27.028Z</time></trkpt><trkpt lat="44.9148332" lon="9.6950571"><ele>142.0</ele><time>2026-05-01T07:20:31.998Z</time></trkpt><trkpt lat="44.9147692" lon="9.6951393"><ele>142.0</ele><time>2026-05-01T07:20:37.993Z</time></trkpt><trkpt lat="44.914742" lon="9.6952215"><ele>142.0</ele><time>2026-05-01T07:20:40.031Z</time></trkpt><trkpt lat="44.9147009" lon="9.6953326"><ele>142.0</ele><time>2026-05-01T07:20:42.03Z</time></trkpt><trkpt lat="44.9146664" lon="9.6954565"><ele>142.0</ele><time>2026-05-01T07:20:44.038Z</time></trkpt><trkpt lat="44.9146171" lon="9.6955697"><ele>142.0</ele><time>2026-05-01T07:20:46.026Z</time></trkpt><trkpt lat="44.9145636" lon="9.6956869"><ele>142.0</ele><time>2026-05-01T07:20:48.019Z</time></trkpt><trkpt lat="44.9145212" lon="9.6958098"><ele>142.0</ele><time>2026-05-01T07:20:50.01Z</time></trkpt><trkpt lat="44.9144732" lon="9.6959377"><ele>142.0</ele><time>2026-05-01T07:20:52.01Z</time></trkpt><trkpt lat="44.9143937" lon="9.6959605"><ele>142.0</ele><time>2026-05-01T07:20:55.023Z</time></trkpt><trkpt lat="44.9143235" lon="9.6960122"><ele>142.0</ele><time>2026-05-01T07:20:57.034Z</time></trkpt><trkpt lat="44.9142876" lon="9.6961035"><ele>142.0</ele><time>2026-05-01T07:20:59.024Z</time></trkpt><trkpt lat="44.9143118" lon="9.6962067"><ele>142.0</ele><time>2026-05-01T07:21:01.025Z</time></trkpt><trkpt lat="44.9143507" lon="9.6963088"><ele>142.16666666666669</ele><time>2026-05-01T07:21:03.026Z</time></trkpt><trkpt lat="44.9143339" lon="9.6964292"><ele>142.33333333333334</ele><time>2026-05-01T07:21:05.025Z</time></trkpt><trkpt lat="44.9142927" lon="9.6965389"><ele>142.5</ele><time>2026-05-01T07:21:07.031Z</time></trkpt><trkpt lat="44.914249" lon="9.6966547"><ele>142.66666666666666</ele><time>2026-05-01T07:21:09.039Z</time></trkpt><trkpt lat="44.9142016" lon="9.6967778"><ele>142.83333333333331</ele><time>2026-05-01T07:21:11.037Z</time></trkpt><trkpt lat="44.9141572" lon="9.6968734"><ele>143.0</ele><time>2026-05-01T07:21:13.024Z</time></trkpt><trkpt lat="44.9141357" lon="9.6967841"><ele>143.16666666666666</ele><time>2026-05-01T07:21:20.029Z</time></trkpt><trkpt lat="44.9140563" lon="9.6967811"><ele>143.33333333333331</ele><time>2026-05-01T07:21:23.017Z</time></trkpt><trkpt lat="44.9139805" lon="9.696805"><ele>143.5</ele><time>2026-05-01T07:21:26.017Z</time></trkpt><trkpt lat="44.9139067" lon="9.6968286"><ele>143.66666666666666</ele><time>2026-05-01T07:21:28.027Z</time></trkpt><trkpt lat="44.9138264" lon="9.6967904"><ele>143.83333333333334</ele><time>2026-05-01T07:21:30.021Z</time></trkpt><trkpt lat="44.9137557" lon="9.6967294"><ele>144.0</ele><time>2026-05-01T07:21:32.02Z</time></trkpt><trkpt lat="44.9136795" lon="9.6966504"><ele>144.0</ele><time>2026-05-01T07:21:34.032Z</time></trkpt><trkpt lat="44.913617" lon="9.6965738"><ele>144.0</ele><time>2026-05-01T07:21:36.012Z</time></trkpt><trkpt lat="44.9135656" lon="9.6964912"><ele>144.0</ele><time>2026-05-01T07:21:38.033Z</time></trkpt><trkpt lat="44.9134912" lon="9.6964604"><ele>144.0</ele><time>2026-05-01T07:21:40.031Z</time></trkpt><trkpt lat="44.9134067" lon="9.6964499"><ele>144.0</ele><time>2026-05-01T07:21:42.017Z</time></trkpt><trkpt lat="44.9133165" lon="9.6964398"><ele>144.0</ele><time>2026-05-01T07:21:44.032Z</time></trkpt><trkpt lat="44.9132383" lon="9.6963906"><ele>144.16666666666666</ele><time>2026-05-01T07:21:46.036Z</time></trkpt><trkpt lat="44.9131958" lon="9.6962973"><ele>144.33333333333334</ele><time>2026-05-01T07:21:48.028Z</time></trkpt><trkpt lat="44.9131739" lon="9.6961843"><ele>144.5</ele><time>2026-05-01T07:21:50.03Z</time></trkpt><trkpt lat="44.9131688" lon="9.6960823"><ele>144.66666666666669</ele><time>2026-05-01T07:21:52.028Z</time></trkpt><trkpt lat="44.9131046" lon="9.6960003"><ele>144.83333333333334</ele><time>2026-05-01T07:21:54.032Z</time></trkpt><trkpt lat="44.9130176" lon="9.6959629"><ele>145.0</ele><time>2026-05-01T07:21:56.024Z</time></trkpt><trkpt lat="44.9129388" lon="9.6959129"><ele>145.0</ele><time>2026-05-01T07:21:58.039Z</time></trkpt><trkpt lat="44.9128555" lon="9.6958527"><ele>145.0</ele><time>2026-05-01T07:22:00.036Z</time></trkpt><trkpt lat="44.9127799" lon="9.6957859"><ele>145.0</ele><time>2026-05-01T07:22:02.03Z</time></trkpt><trkpt lat="44.912712" lon="9.6957168"><ele>145.0</ele><time>2026-05-01T07:22:04.01Z</time></trkpt><trkpt lat="44.9126338" lon="9.6956487"><ele>145.0</ele><time>2026-05-01T07:22:06.027Z</time></trkpt><trkpt lat="44.9125608" lon="9.6955902"><ele>145.0</ele><time>2026-05-01T07:22:08.027Z</time></trkpt><trkpt lat="44.912482" lon="9.6955299"><ele>145.16666666666669</ele><time>2026-05-01T07:22:10.03Z</time></trkpt><trkpt lat="44.9123978" lon="9.6954695"><ele>145.33333333333334</ele><time>2026-05-01T07:22:12.036Z</time></trkpt><trkpt lat="44.9123182" lon="9.6954129"><ele>145.5</ele><time>2026-05-01T07:22:14.044Z</time></trkpt><trkpt lat="44.9122444" lon="9.695349"><ele>145.66666666666666</ele><time>2026-05-01T07:22:16.029Z</time></trkpt><trkpt lat="44.9121786" lon="9.6952729"><ele>145.83333333333331</ele><time>2026-05-01T07:22:18.024Z</time></trkpt><trkpt lat="44.9121187" lon="9.6951894"><ele>146.0</ele><time>2026-05-01T07:22:20.038Z</time></trkpt><trkpt lat="44.9120473" lon="9.6951257"><ele>146.0</ele><time>2026-05-01T07:22:22.031Z</time></trkpt><trkpt lat="44.9119743" lon="9.6950638"><ele>146.0</ele><time>2026-05-01T07:22:24.034Z</time></trkpt><trkpt lat="44.9119114" lon="9.6949889"><ele>146.0</ele><time>2026-05-01T07:22:26.041Z</time></trkpt><trkpt lat="44.9118351" lon="9.6949371"><ele>146.0</ele><time>2026-05-01T07:22:28.029Z</time></trkpt><trkpt lat="44.9117642" lon="9.6948824"><ele>146.0</ele><time>2026-05-01T07:22:30.029Z</time></trkpt><trkpt lat="44.9116756" lon="9.6948192"><ele>146.0</ele><time>2026-05-01T07:22:32.036Z</time></trkpt><trkpt lat="44.9115919" lon="9.694755"><ele>146.0</ele><time>2026-05-01T07:22:34.041Z</time></trkpt><trkpt lat="44.9115177" lon="9.6946985"><ele>146.0</ele><time>2026-05-01T07:22:36.04Z</time></trkpt><trkpt lat="44.911449" lon="9.6946372"><ele>146.0</ele><time>2026-05-01T07:22:38.036Z</time></trkpt><trkpt lat="44.9113768" lon="9.6945865"><ele>146.0</ele><time>2026-05-01T07:22:40.031Z</time></trkpt><trkpt lat="44.9113081" lon="9.6945292"><ele>146.0</ele><time>2026-05-01T07:22:42.037Z</time></trkpt><trkpt lat="44.9112254" lon="9.6944865"><ele>146.0</ele><time>2026-05-01T07:22:44.016Z</time></trkpt><trkpt lat="44.9111429" lon="9.6944438"><ele>146.16666666666666</ele><time>2026-05-01T07:22:46.031Z</time></trkpt><trkpt lat="44.9110597" lon="9.6944177"><ele>146.33333333333331</ele><time>2026-05-01T07:22:48.041Z</time></trkpt><trkpt lat="44.9109736" lon="9.6943842"><ele>146.5</ele><time>2026-05-01T07:22:50.033Z</time></trkpt><trkpt lat="44.9108928" lon="9.6943277"><ele>146.66666666666666</ele><time>2026-05-01T07:22:52.028Z</time></trkpt><trkpt lat="44.9108153" lon="9.6942921"><ele>146.83333333333334</ele><time>2026-05-01T07:22:54.03Z</time></trkpt><trkpt lat="44.9107492" lon="9.6942692"><ele>147.0</ele><time>2026-05-01T07:22:56.025Z</time></trkpt><trkpt lat="44.9106774" lon="9.6942624"><ele>147.14285714285714</ele><time>2026-05-01T07:22:58.03Z</time></trkpt><trkpt lat="44.9106117" lon="9.694263"><ele>147.28571428571428</ele><time>2026-05-01T07:23:00.026Z</time></trkpt><trkpt lat="44.9105435" lon="9.6942558"><ele>147.42857142857144</ele><time>2026-05-01T07:23:02.032Z</time></trkpt><trkpt lat="44.910472" lon="9.6941735"><ele>147.57142857142856</ele><time>2026-05-01T07:23:05.028Z</time></trkpt><trkpt lat="44.910417" lon="9.6941101"><ele>147.71428571428572</ele><time>2026-05-01T07:23:07.025Z</time></trkpt><trkpt lat="44.9103527" lon="9.6940702"><ele>147.85714285714286</ele><time>2026-05-01T07:23:09.02Z</time></trkpt><trkpt lat="44.9102967" lon="9.6940003"><ele>148.0</ele><time>2026-05-01T07:23:11.04Z</time></trkpt><trkpt lat="44.9102198" lon="9.6940393"><ele>148.0</ele><time>2026-05-01T07:23:15.022Z</time></trkpt><trkpt lat="44.9101639" lon="9.6941368"><ele>148.0</ele><time>2026-05-01T07:23:18.043Z</time></trkpt><trkpt lat="44.9100679" lon="9.6941639"><ele>148.0</ele><time>2026-05-01T07:23:21.026Z</time></trkpt><trkpt lat="44.910002" lon="9.6941324"><ele>148.0</ele><time>2026-05-01T07:23:23.027Z</time></trkpt><trkpt lat="44.9099328" lon="9.694115"><ele>148.0</ele><time>2026-05-01T07:23:25.033Z</time></trkpt><trkpt lat="44.9098629" lon="9.6940699"><ele>148.0</ele><time>2026-05-01T07:23:27.032Z</time></trkpt><trkpt lat="44.909801" lon="9.6939998"><ele>148.16666666666669</ele><time>2026-05-01T07:23:29.031Z</time></trkpt><trkpt lat="44.9097614" lon="9.6939242"><ele>148.33333333333334</ele><time>2026-05-01T07:23:31.015Z</time></trkpt><trkpt lat="44.9097167" lon="9.6938332"><ele>148.5</ele><time>2026-05-01T07:23:33.011Z</time></trkpt><trkpt lat="44.9096639" lon="9.6937483"><ele>148.66666666666666</ele><time>2026-05-01T07:23:35.009Z</time></trkpt><trkpt lat="44.9095966" lon="9.693689"><ele>148.83333333333331</ele><time>2026-05-01T07:23:37.049Z</time></trkpt><trkpt lat="44.9095384" lon="9.693626"><ele>149.0</ele><time>2026-05-01T07:23:39.038Z</time></trkpt><trkpt lat="44.9094895" lon="9.6935489"><ele>149.0</ele><time>2026-05-01T07:23:41.028Z</time></trkpt><trkpt lat="44.9094495" lon="9.6934657"><ele>149.0</ele><time>2026-05-01T07:23:43.038Z</time></trkpt><trkpt lat="44.9094042" lon="9.693385"><ele>149.0</ele><time>2026-05-01T07:23:45.024Z</time></trkpt><trkpt lat="44.9093641" lon="9.693306"><ele>149.0</ele><time>2026-05-01T07:23:47.025Z</time></trkpt><trkpt lat="44.9093108" lon="9.6932269"><ele>149.0</ele><time>2026-05-01T07:23:49.031Z</time></trkpt><trkpt lat="44.9092634" lon="9.6931504"><ele>149.0</ele><time>2026-05-01T07:23:51.05Z</time></trkpt><trkpt lat="44.9092103" lon="9.6930592"><ele>149.0</ele><time>2026-05-01T07:23:53.02Z</time></trkpt><trkpt lat="44.9091583" lon="9.6929841"><ele>149.0</ele><time>2026-05-01T07:23:55.032Z</time></trkpt><trkpt lat="44.9090995" lon="9.6929083"><ele>149.0</ele><time>2026-05-01T07:23:57.026Z</time></trkpt><trkpt lat="44.9090437" lon="9.6928238"><ele>149.0</ele><time>2026-05-01T07:23:59.039Z</time></trkpt><trkpt lat="44.9089924" lon="9.6927517"><ele>149.0</ele><time>2026-05-01T07:24:01.037Z</time></trkpt><trkpt lat="44.9089482" lon="9.6926669"><ele>149.0</ele><time>2026-05-01T07:24:03.036Z</time></trkpt><trkpt lat="44.9089141" lon="9.6925742"><ele>149.0</ele><time>2026-05-01T07:24:05.033Z</time></trkpt><trkpt lat="44.9088807" lon="9.6924733"><ele>149.0</ele><time>2026-05-01T07:24:07.028Z</time></trkpt><trkpt lat="44.9088448" lon="9.6923725"><ele>149.0</ele><time>2026-05-01T07:24:09.032Z</time></trkpt><trkpt lat="44.9088048" lon="9.6922838"><ele>149.0</ele><time>2026-05-01T07:24:11.029Z</time></trkpt><trkpt lat="44.908755" lon="9.6921961"><ele>149.0</ele><time>2026-05-01T07:24:13.032Z</time></trkpt><trkpt lat="44.9087065" lon="9.6921172"><ele>149.0</ele><time>2026-05-01T07:24:15.029Z</time></trkpt><trkpt lat="44.9086523" lon="9.6920372"><ele>149.0</ele><time>2026-05-01T07:24:17.028Z</time></trkpt><trkpt lat="44.9085983" lon="9.6919747"><ele>149.0</ele><time>2026-05-01T07:24:19.029Z</time></trkpt><trkpt lat="44.9085484" lon="9.6918952"><ele>149.0</ele><time>2026-05-01T07:24:21.031Z</time></trkpt><trkpt lat="44.9084891" lon="9.6918235"><ele>149.0</ele><time>2026-05-01T07:24:23.016Z</time></trkpt><trkpt lat="44.9084285" lon="9.6917457"><ele>149.0</ele><time>2026-05-01T07:24:25.019Z</time></trkpt><trkpt lat="44.9083686" lon="9.6916795"><ele>149.0</ele><time>2026-05-01T07:24:27.034Z</time></trkpt><trkpt lat="44.9083028" lon="9.6916405"><ele>149.0</ele><time>2026-05-01T07:24:29.035Z</time></trkpt><trkpt lat="44.9082217" lon="9.6916124"><ele>149.42857142857142</ele><time>2026-05-01T07:24:31.025Z</time></trkpt><trkpt lat="44.9081497" lon="9.6916221"><ele>149.85714285714283</ele><time>2026-05-01T07:24:33.037Z</time></trkpt><trkpt lat="44.9080763" lon="9.6916451"><ele>150.28571428571428</ele><time>2026-05-01T07:24:35.001Z</time></trkpt><trkpt lat="44.9080015" lon="9.6916725"><ele>150.71428571428572</ele><time>2026-05-01T07:24:37.027Z</time></trkpt><trkpt lat="44.9079292" lon="9.6917081"><ele>151.14285714285717</ele><time>2026-05-01T07:24:39.025Z</time></trkpt><trkpt lat="44.9078686" lon="9.6917675"><ele>151.57142857142856</ele><time>2026-05-01T07:24:41.034Z</time></trkpt><trkpt lat="44.9077978" lon="9.6917905"><ele>152.0</ele><time>2026-05-01T07:24:43.038Z</time></trkpt><trkpt lat="44.907702" lon="9.6917884"><ele>152.0</ele><time>2026-05-01T07:24:46.032Z</time></trkpt><trkpt lat="44.9076406" lon="9.6918232"><ele>152.0</ele><time>2026-05-01T07:24:48.03Z</time></trkpt><trkpt lat="44.9075716" lon="9.6919041"><ele>152.0</ele><time>2026-05-01T07:24:50.025Z</time></trkpt><trkpt lat="44.9075083" lon="9.6919878"><ele>152.0</ele><time>2026-05-01T07:24:52.033Z</time></trkpt><trkpt lat="44.9074749" lon="9.6920924"><ele>152.0</ele><time>2026-05-01T07:24:54.026Z</time></trkpt><trkpt lat="44.9074505" lon="9.6921889"><ele>152.0</ele><time>2026-05-01T07:24:56.024Z</time></trkpt><trkpt lat="44.9074161" lon="9.6922708"><ele>152.0</ele><time>2026-05-01T07:24:58.033Z</time></trkpt><trkpt lat="44.9073501" lon="9.6923407"><ele>152.0</ele><time>2026-05-01T07:25:01.01Z</time></trkpt><trkpt lat="44.9072938" lon="9.6922814"><ele>152.0</ele><time>2026-05-01T07:25:04.021Z</time></trkpt><trkpt lat="44.9072432" lon="9.6921909"><ele>152.0</ele><time>2026-05-01T07:25:06.04Z</time></trkpt><trkpt lat="44.9071943" lon="9.6920792"><ele>152.0</ele><time>2026-05-01T07:25:08.043Z</time></trkpt><trkpt lat="44.9071459" lon="9.6919825"><ele>152.0</ele><time>2026-05-01T07:25:10.034Z</time></trkpt><trkpt lat="44.9070918" lon="9.6918825"><ele>152.2</ele><time>2026-05-01T07:25:12.025Z</time></trkpt><trkpt lat="44.9070313" lon="9.691784"><ele>152.39999999999998</ele><time>2026-05-01T07:25:14.025Z</time></trkpt><trkpt lat="44.9069662" lon="9.691683"><ele>152.60000000000002</ele><time>2026-05-01T07:25:16.04Z</time></trkpt><trkpt lat="44.9069048" lon="9.6915931"><ele>152.8</ele><time>2026-05-01T07:25:18.023Z</time></trkpt><trkpt lat="44.9068246" lon="9.6915011"><ele>153.0</ele><time>2026-05-01T07:25:20.032Z</time></trkpt><trkpt lat="44.9067515" lon="9.6914082"><ele>153.4</ele><time>2026-05-01T07:25:22.032Z</time></trkpt><trkpt lat="44.9066875" lon="9.6913162"><ele>153.8</ele><time>2026-05-01T07:25:24.041Z</time></trkpt><trkpt lat="44.9066264" lon="9.6912341"><ele>154.2</ele><time>2026-05-01T07:25:26.033Z</time></trkpt><trkpt lat="44.9065551" lon="9.6911462"><ele>154.6</ele><time>2026-05-01T07:25:28.025Z</time></trkpt><trkpt lat="44.906481" lon="9.6910571"><ele>155.0</ele><time>2026-05-01T07:25:30.036Z</time></trkpt><trkpt lat="44.9064178" lon="9.6909617"><ele>155.0</ele><time>2026-05-01T07:25:32.024Z</time></trkpt><trkpt lat="44.9063489" lon="9.6908812"><ele>155.0</ele><time>2026-05-01T07:25:34.038Z</time></trkpt><trkpt lat="44.9062654" lon="9.6908076"><ele>155.0</ele><time>2026-05-01T07:25:36.034Z</time></trkpt><trkpt lat="44.9061705" lon="9.6907627"><ele>155.0</ele><time>2026-05-01T07:25:38.044Z</time></trkpt><trkpt lat="44.9060738" lon="9.690738"><ele>155.0</ele><time>2026-05-01T07:25:40.055Z</time></trkpt><trkpt lat="44.9059709" lon="9.6907221"><ele>155.4</ele><time>2026-05-01T07:25:42.039Z</time></trkpt><trkpt lat="44.9058744" lon="9.6907058"><ele>155.8</ele><time>2026-05-01T07:25:44.026Z</time></trkpt><trkpt lat="44.9057789" lon="9.6906906"><ele>156.2</ele><time>2026-05-01T07:25:46.032Z</time></trkpt><trkpt lat="44.9056847" lon="9.6906708"><ele>156.6</ele><time>2026-05-01T07:25:48.041Z</time></trkpt><trkpt lat="44.9055881" lon="9.6906525"><ele>157.0</ele><time>2026-05-01T07:25:50.023Z</time></trkpt><trkpt lat="44.9054983" lon="9.6906229"><ele>157.0</ele><time>2026-05-01T07:25:52.028Z</time></trkpt><trkpt lat="44.9053988" lon="9.6906071"><ele>157.0</ele><time>2026-05-01T07:25:54.029Z</time></trkpt><trkpt lat="44.9053021" lon="9.6905898"><ele>157.0</ele><time>2026-05-01T07:25:56.04Z</time></trkpt><trkpt lat="44.9052079" lon="9.6905634"><ele>157.0</ele><time>2026-05-01T07:25:58.035Z</time></trkpt><trkpt lat="44.9051141" lon="9.6905464"><ele>157.0</ele><time>2026-05-01T07:26:00.039Z</time></trkpt><trkpt lat="44.9050214" lon="9.690525"><ele>156.79999999999998</ele><time>2026-05-01T07:26:02.041Z</time></trkpt><trkpt lat="44.9049294" lon="9.6904994"><ele>156.6</ele><time>2026-05-01T07:26:04.045Z</time></trkpt><trkpt lat="44.9048364" lon="9.6904807"><ele>156.39999999999998</ele><time>2026-05-01T07:26:06.045Z</time></trkpt><trkpt lat="44.9047408" lon="9.6904638"><ele>156.2</ele><time>2026-05-01T07:26:08.032Z</time></trkpt><trkpt lat="44.9046453" lon="9.6904416"><ele>156.0</ele><time>2026-05-01T07:26:10.011Z</time></trkpt><trkpt lat="44.9045519" lon="9.6904225"><ele>156.0</ele><time>2026-05-01T07:26:12.027Z</time></trkpt><trkpt lat="44.9044653" lon="9.6903924"><ele>156.0</ele><time>2026-05-01T07:26:14.036Z</time></trkpt><trkpt lat="44.9043691" lon="9.6903861"><ele>156.0</ele><time>2026-05-01T07:26:16.03Z</time></trkpt><trkpt lat="44.9042769" lon="9.690366"><ele>156.0</ele><time>2026-05-01T07:26:18.046Z</time></trkpt><trkpt lat="44.9041818" lon="9.6903575"><ele>156.0</ele><time>2026-05-01T07:26:20.04Z</time></trkpt><trkpt lat="44.9040874" lon="9.6903608"><ele>156.6</ele><time>2026-05-01T07:26:22.041Z</time></trkpt><trkpt lat="44.903986" lon="9.6903841"><ele>157.2</ele><time>2026-05-01T07:26:24.04Z</time></trkpt><trkpt lat="44.9038884" lon="9.6904116"><ele>157.8</ele><time>2026-05-01T07:26:26.054Z</time></trkpt><trkpt lat="44.9037928" lon="9.6904286"><ele>158.4</ele><time>2026-05-01T07:26:28.025Z</time></trkpt><trkpt lat="44.9037001" lon="9.6904219"><ele>159.0</ele><time>2026-05-01T07:26:30.017Z</time></trkpt><trkpt lat="44.9036107" lon="9.6903996"><ele>159.0</ele><time>2026-05-01T07:26:32.028Z</time></trkpt><trkpt lat="44.903538" lon="9.6903084"><ele>159.0</ele><time>2026-05-01T07:26:34.029Z</time></trkpt><trkpt lat="44.9034765" lon="9.6902064"><ele>159.0</ele><time>2026-05-01T07:26:36.036Z</time></trkpt><trkpt lat="44.9033867" lon="9.6901528"><ele>159.0</ele><time>2026-05-01T07:26:38.035Z</time></trkpt><trkpt lat="44.903297" lon="9.6901132"><ele>159.0</ele><time>2026-05-01T07:26:40.028Z</time></trkpt><trkpt lat="44.9032039" lon="9.6900802"><ele>159.0</ele><time>2026-05-01T07:26:42.037Z</time></trkpt><trkpt lat="44.9031105" lon="9.690045"><ele>159.0</ele><time>2026-05-01T07:26:44.027Z</time></trkpt><trkpt lat="44.9030162" lon="9.6900109"><ele>159.0</ele><time>2026-05-01T07:26:46.034Z</time></trkpt><trkpt lat="44.9029214" lon="9.6899806"><ele>159.0</ele><time>2026-05-01T07:26:48.047Z</time></trkpt><trkpt lat="44.9028354" lon="9.6899367"><ele>159.0</ele><time>2026-05-01T07:26:50.04Z</time></trkpt><trkpt lat="44.9027411" lon="9.6899081"><ele>159.0</ele><time>2026-05-01T07:26:52.037Z</time></trkpt><trkpt lat="44.9026546" lon="9.6898782"><ele>159.0</ele><time>2026-05-01T07:26:54.04Z</time></trkpt><trkpt lat="44.9025614" lon="9.689849"><ele>159.0</ele><time>2026-05-01T07:26:56.023Z</time></trkpt><trkpt lat="44.9024651" lon="9.6898167"><ele>159.0</ele><time>2026-05-01T07:26:58.038Z</time></trkpt><trkpt lat="44.9023764" lon="9.6897872"><ele>159.0</ele><time>2026-05-01T07:27:00.037Z</time></trkpt><trkpt lat="44.9022826" lon="9.6897511"><ele>159.0</ele><time>2026-05-01T07:27:02.026Z</time></trkpt><trkpt lat="44.9021871" lon="9.6897267"><ele>159.0</ele><time>2026-05-01T07:27:04.027Z</time></trkpt><trkpt lat="44.9020841" lon="9.6896998"><ele>159.0</ele><time>2026-05-01T07:27:06.031Z</time></trkpt><trkpt lat="44.9019852" lon="9.6896659"><ele>159.0</ele><time>2026-05-01T07:27:08.026Z</time></trkpt><trkpt lat="44.9018831" lon="9.6896381"><ele>159.0</ele><time>2026-05-01T07:27:10.033Z</time></trkpt><trkpt lat="44.9017869" lon="9.6896212"><ele>159.2</ele><time>2026-05-01T07:27:12.018Z</time></trkpt><trkpt lat="44.9016934" lon="9.6896004"><ele>159.4</ele><time>2026-05-01T07:27:14.005Z</time></trkpt><trkpt lat="44.9015975" lon="9.6895703"><ele>159.6</ele><time>2026-05-01T07:27:16.03Z</time></trkpt><trkpt lat="44.9015033" lon="9.6895447"><ele>159.8</ele><time>2026-05-01T07:27:18.037Z</time></trkpt><trkpt lat="44.9014034" lon="9.6895164"><ele>160.0</ele><time>2026-05-01T07:27:20.038Z</time></trkpt><trkpt lat="44.9013009" lon="9.6894884"><ele>160.0</ele><time>2026-05-01T07:27:22.031Z</time></trkpt><trkpt lat="44.9012071" lon="9.6894522"><ele>160.0</ele><time>2026-05-01T07:27:24.035Z</time></trkpt><trkpt lat="44.9011166" lon="9.6894304"><ele>160.0</ele><time>2026-05-01T07:27:26.03Z</time></trkpt><trkpt lat="44.9010239" lon="9.6893927"><ele>160.0</ele><time>2026-05-01T07:27:28.017Z</time></trkpt><trkpt lat="44.900927" lon="9.6893669"><ele>160.0</ele><time>2026-05-01T07:27:30.031Z</time></trkpt><trkpt lat="44.9008298" lon="9.6893555"><ele>160.0</ele><time>2026-05-01T07:27:32.035Z</time></trkpt><trkpt lat="44.9007333" lon="9.6893276"><ele>160.0</ele><time>2026-05-01T07:27:34.032Z</time></trkpt><trkpt lat="44.9006393" lon="9.6892973"><ele>160.0</ele><time>2026-05-01T07:27:36.038Z</time></trkpt><trkpt lat="44.9005412" lon="9.6892702"><ele>160.0</ele><time>2026-05-01T07:27:38.029Z</time></trkpt><trkpt lat="44.9004446" lon="9.6892362"><ele>160.0</ele><time>2026-05-01T07:27:40.031Z</time></trkpt><trkpt lat="44.9003514" lon="9.6891993"><ele>160.0</ele><time>2026-05-01T07:27:42.036Z</time></trkpt><trkpt lat="44.9002536" lon="9.689168"><ele>160.0</ele><time>2026-05-01T07:27:44.029Z</time></trkpt><trkpt lat="44.9001546" lon="9.6891387"><ele>160.0</ele><time>2026-05-01T07:27:46.022Z</time></trkpt><trkpt lat="44.9000646" lon="9.6890932"><ele>160.0</ele><time>2026-05-01T07:27:48.033Z</time></trkpt><trkpt lat="44.8999779" lon="9.6890405"><ele>160.0</ele><time>2026-05-01T07:27:50.04Z</time></trkpt><trkpt lat="44.8998864" lon="9.6889773"><ele>160.4</ele><time>2026-05-01T07:27:52.038Z</time></trkpt><trkpt lat="44.8998016" lon="9.6889165"><ele>160.8</ele><time>2026-05-01T07:27:54.039Z</time></trkpt><trkpt lat="44.8997058" lon="9.6888642"><ele>161.2</ele><time>2026-05-01T07:27:56.034Z</time></trkpt><trkpt lat="44.8996176" lon="9.6888139"><ele>161.6</ele><time>2026-05-01T07:27:58.017Z</time></trkpt><trkpt lat="44.8995245" lon="9.6887803"><ele>162.0</ele><time>2026-05-01T07:28:00.03Z</time></trkpt><trkpt lat="44.8994243" lon="9.6887745"><ele>162.0</ele><time>2026-05-01T07:28:02.031Z</time></trkpt><trkpt lat="44.8993211" lon="9.6887887"><ele>162.0</ele><time>2026-05-01T07:28:04.035Z</time></trkpt><trkpt lat="44.8992205" lon="9.6888"><ele>162.0</ele><time>2026-05-01T07:28:06.036Z</time></trkpt><trkpt lat="44.8991204" lon="9.6888018"><ele>162.0</ele><time>2026-05-01T07:28:08.033Z</time></trkpt><trkpt lat="44.8990245" lon="9.688804"><ele>162.0</ele><time>2026-05-01T07:28:10.029Z</time></trkpt><trkpt lat="44.8989331" lon="9.6888008"><ele>162.39999999999998</ele><time>2026-05-01T07:28:12.031Z</time></trkpt><trkpt lat="44.8988398" lon="9.6888037"><ele>162.79999999999998</ele><time>2026-05-01T07:28:14.037Z</time></trkpt><trkpt lat="44.89874" lon="9.6888152"><ele>163.2</ele><time>2026-05-01T07:28:16.035Z</time></trkpt><trkpt lat="44.8986447" lon="9.6888255"><ele>163.6</ele><time>2026-05-01T07:28:18.024Z</time></trkpt><trkpt lat="44.8985477" lon="9.6888249"><ele>164.0</ele><time>2026-05-01T07:28:20.033Z</time></trkpt><trkpt lat="44.8984489" lon="9.6888106"><ele>163.79999999999998</ele><time>2026-05-01T07:28:22.036Z</time></trkpt><trkpt lat="44.8983578" lon="9.6888052"><ele>163.6</ele><time>2026-05-01T07:28:24.033Z</time></trkpt><trkpt lat="44.8982542" lon="9.6887836"><ele>163.4</ele><time>2026-05-01T07:28:26.034Z</time></trkpt><trkpt lat="44.8981642" lon="9.6887548"><ele>163.2</ele><time>2026-05-01T07:28:28.02Z</time></trkpt><trkpt lat="44.8980693" lon="9.6887273"><ele>163.0</ele><time>2026-05-01T07:28:30.038Z</time></trkpt><trkpt lat="44.8979711" lon="9.6887035"><ele>163.0</ele><time>2026-05-01T07:28:32.032Z</time></trkpt><trkpt lat="44.8978724" lon="9.6886838"><ele>163.0</ele><time>2026-05-01T07:28:34.028Z</time></trkpt><trkpt lat="44.8977785" lon="9.6886557"><ele>163.0</ele><time>2026-05-01T07:28:36.04Z</time></trkpt><trkpt lat="44.8976868" lon="9.688629"><ele>163.0</ele><time>2026-05-01T07:28:38.03Z</time></trkpt><trkpt lat="44.8975932" lon="9.6886114"><ele>163.0</ele><time>2026-05-01T07:28:40.041Z</time></trkpt><trkpt lat="44.8974958" lon="9.6885855"><ele>163.2</ele><time>2026-05-01T07:28:42.055Z</time></trkpt><trkpt lat="44.8974023" lon="9.6885604"><ele>163.4</ele><time>2026-05-01T07:28:44.034Z</time></trkpt><trkpt lat="44.8973096" lon="9.6885364"><ele>163.6</ele><time>2026-05-01T07:28:46.029Z</time></trkpt><trkpt lat="44.8972197" lon="9.6885149"><ele>163.79999999999998</ele><time>2026-05-01T07:28:48.04Z</time></trkpt><trkpt lat="44.8971318" lon="9.6884911"><ele>164.0</ele><time>2026-05-01T07:28:50.031Z</time></trkpt><trkpt lat="44.8970374" lon="9.6884694"><ele>164.0</ele><time>2026-05-01T07:28:52.033Z</time></trkpt><trkpt lat="44.8969455" lon="9.6884472"><ele>164.0</ele><time>2026-05-01T07:28:54.032Z</time></trkpt><trkpt lat="44.8968569" lon="9.6884403"><ele>164.0</ele><time>2026-05-01T07:28:56.038Z</time></trkpt><trkpt lat="44.8967651" lon="9.6884179"><ele>164.0</ele><time>2026-05-01T07:28:58.032Z</time></trkpt><trkpt lat="44.8966772" lon="9.6883886"><ele>164.0</ele><time>2026-05-01T07:29:00.031Z</time></trkpt><trkpt lat="44.896581" lon="9.6883651"><ele>164.2</ele><time>2026-05-01T07:29:02.034Z</time></trkpt><trkpt lat="44.8964907" lon="9.6883402"><ele>164.39999999999998</ele><time>2026-05-01T07:29:04.016Z</time></trkpt><trkpt lat="44.896401" lon="9.6883247"><ele>164.6</ele><time>2026-05-01T07:29:06.025Z</time></trkpt><trkpt lat="44.8963057" lon="9.6883035"><ele>164.8</ele><time>2026-05-01T07:29:08.028Z</time></trkpt><trkpt lat="44.8962126" lon="9.6882768"><ele>165.0</ele><time>2026-05-01T07:29:10.023Z</time></trkpt><trkpt lat="44.8961203" lon="9.6882499"><ele>165.0</ele><time>2026-05-01T07:29:12.031Z</time></trkpt><trkpt lat="44.8960288" lon="9.6882317"><ele>165.0</ele><time>2026-05-01T07:29:14.015Z</time></trkpt><trkpt lat="44.8959394" lon="9.6882132"><ele>165.0</ele><time>2026-05-01T07:29:16.034Z</time></trkpt><trkpt lat="44.8958456" lon="9.6881899"><ele>165.0</ele><time>2026-05-01T07:29:18.033Z</time></trkpt><trkpt lat="44.8957567" lon="9.6881603"><ele>165.0</ele><time>2026-05-01T07:29:20.004Z</time></trkpt><trkpt lat="44.8956645" lon="9.6881302"><ele>165.0</ele><time>2026-05-01T07:29:22.036Z</time></trkpt><trkpt lat="44.8955698" lon="9.6881132"><ele>165.0</ele><time>2026-05-01T07:29:24.035Z</time></trkpt><trkpt lat="44.8954801" lon="9.6880875"><ele>165.0</ele><time>2026-05-01T07:29:26.03Z</time></trkpt><trkpt lat="44.8953972" lon="9.6880663"><ele>165.0</ele><time>2026-05-01T07:29:28.033Z</time></trkpt><trkpt lat="44.8953235" lon="9.6880371"><ele>165.0</ele><time>2026-05-01T07:29:30.032Z</time></trkpt><trkpt lat="44.8952541" lon="9.688016"><ele>165.0</ele><time>2026-05-01T07:29:32.025Z</time></trkpt><trkpt lat="44.8951869" lon="9.6880001"><ele>165.00000000000003</ele><time>2026-05-01T07:29:34.034Z</time></trkpt><trkpt lat="44.8951156" lon="9.6879846"><ele>165.0</ele><time>2026-05-01T07:29:36.032Z</time></trkpt><trkpt lat="44.8950448" lon="9.6879731"><ele>165.0</ele><time>2026-05-01T07:29:38.025Z</time></trkpt><trkpt lat="44.8949749" lon="9.6879744"><ele>165.0</ele><time>2026-05-01T07:29:40.033Z</time></trkpt><trkpt lat="44.8948968" lon="9.6880028"><ele>165.0</ele><time>2026-05-01T07:29:42.026Z</time></trkpt><trkpt lat="44.8948281" lon="9.688025"><ele>165.00000000000003</ele><time>2026-05-01T07:29:44.033Z</time></trkpt><trkpt lat="44.8947568" lon="9.6880566"><ele>165.0</ele><time>2026-05-01T07:29:46.032Z</time></trkpt><trkpt lat="44.8946828" lon="9.6880851"><ele>165.2857142857143</ele><time>2026-05-01T07:29:48.032Z</time></trkpt><trkpt lat="44.8946049" lon="9.6881191"><ele>165.57142857142858</ele><time>2026-05-01T07:29:50.034Z</time></trkpt><trkpt lat="44.8945345" lon="9.688138"><ele>165.85714285714286</ele><time>2026-05-01T07:29:52.033Z</time></trkpt><trkpt lat="44.8944596" lon="9.6881798"><ele>166.14285714285717</ele><time>2026-05-01T07:29:54.029Z</time></trkpt><trkpt lat="44.8943898" lon="9.688213"><ele>166.42857142857144</ele><time>2026-05-01T07:29:56.017Z</time></trkpt><trkpt lat="44.8943189" lon="9.688248"><ele>166.71428571428572</ele><time>2026-05-01T07:29:58.017Z</time></trkpt><trkpt lat="44.894258" lon="9.6882834"><ele>167.0</ele><time>2026-05-01T07:30:00.033Z</time></trkpt><trkpt lat="44.894184" lon="9.6883346"><ele>167.66666666666666</ele><time>2026-05-01T07:30:02.031Z</time></trkpt><trkpt lat="44.8941133" lon="9.6883797"><ele>168.33333333333331</ele><time>2026-05-01T07:30:04.025Z</time></trkpt><trkpt lat="44.8940402" lon="9.6884358"><ele>169.0</ele><time>2026-05-01T07:30:06.029Z</time></trkpt><trkpt lat="44.8939696" lon="9.6885063"><ele>169.66666666666666</ele><time>2026-05-01T07:30:08.029Z</time></trkpt><trkpt lat="44.8938913" lon="9.6885622"><ele>170.33333333333334</ele><time>2026-05-01T07:30:10.035Z</time></trkpt><trkpt lat="44.8938162" lon="9.6885998"><ele>171.0</ele><time>2026-05-01T07:30:12.029Z</time></trkpt><trkpt lat="44.893747" lon="9.6886037"><ele>171.0</ele><time>2026-05-01T07:30:14.031Z</time></trkpt><trkpt lat="44.893634" lon="9.6885633"><ele>171.0</ele><time>2026-05-01T07:30:17.035Z</time></trkpt><trkpt lat="44.8935575" lon="9.6885445"><ele>171.0</ele><time>2026-05-01T07:30:19.037Z</time></trkpt><trkpt lat="44.8934777" lon="9.688524"><ele>171.0</ele><time>2026-05-01T07:30:21.018Z</time></trkpt><trkpt lat="44.8934042" lon="9.6884954"><ele>171.0</ele><time>2026-05-01T07:30:23.034Z</time></trkpt><trkpt lat="44.8933311" lon="9.6884676"><ele>171.0</ele><time>2026-05-01T07:30:25.031Z</time></trkpt><trkpt lat="44.8932553" lon="9.688444"><ele>171.42857142857142</ele><time>2026-05-01T07:30:27.017Z</time></trkpt><trkpt lat="44.893177" lon="9.6884187"><ele>171.85714285714286</ele><time>2026-05-01T07:30:29.031Z</time></trkpt><trkpt lat="44.8931075" lon="9.6884006"><ele>172.28571428571428</ele><time>2026-05-01T07:30:31.037Z</time></trkpt><trkpt lat="44.8930312" lon="9.6883695"><ele>172.71428571428572</ele><time>2026-05-01T07:30:33.034Z</time></trkpt><trkpt lat="44.8929653" lon="9.6883483"><ele>173.14285714285714</ele><time>2026-05-01T07:30:35.039Z</time></trkpt><trkpt lat="44.8929105" lon="9.6882965"><ele>173.57142857142856</ele><time>2026-05-01T07:30:37.013Z</time></trkpt><trkpt lat="44.892852" lon="9.6882496"><ele>174.0</ele><time>2026-05-01T07:30:39.032Z</time></trkpt><trkpt lat="44.8927903" lon="9.6882067"><ele>174.0</ele><time>2026-05-01T07:30:41.041Z</time></trkpt><trkpt lat="44.8927224" lon="9.6881626"><ele>174.0</ele><time>2026-05-01T07:30:43.023Z</time></trkpt><trkpt lat="44.8926528" lon="9.6881245"><ele>174.0</ele><time>2026-05-01T07:30:45.028Z</time></trkpt><trkpt lat="44.892581" lon="9.688096"><ele>174.0</ele><time>2026-05-01T07:30:47.024Z</time></trkpt><trkpt lat="44.8925171" lon="9.6880619"><ele>174.0</ele><time>2026-05-01T07:30:49.026Z</time></trkpt><trkpt lat="44.892446" lon="9.688039"><ele>174.0</ele><time>2026-05-01T07:30:51.032Z</time></trkpt><trkpt lat="44.8923734" lon="9.6880683"><ele>174.0</ele><time>2026-05-01T07:30:53.024Z</time></trkpt><trkpt lat="44.8923165" lon="9.6881333"><ele>174.83333333333334</ele><time>2026-05-01T07:30:55.024Z</time></trkpt><trkpt lat="44.8922689" lon="9.6882325"><ele>175.66666666666666</ele><time>2026-05-01T07:30:58.026Z</time></trkpt><trkpt lat="44.8922091" lon="9.6883171"><ele>176.5</ele><time>2026-05-01T07:31:01.035Z</time></trkpt><trkpt lat="44.8921566" lon="9.6884023"><ele>177.33333333333331</ele><time>2026-05-01T07:31:04.021Z</time></trkpt><trkpt lat="44.892117" lon="9.6885166"><ele>178.16666666666666</ele><time>2026-05-01T07:31:07.019Z</time></trkpt><trkpt lat="44.8920695" lon="9.6886099"><ele>179.0</ele><time>2026-05-01T07:31:10.021Z</time></trkpt><trkpt lat="44.8920289" lon="9.6887125"><ele>179.83333333333331</ele><time>2026-05-01T07:31:13.036Z</time></trkpt><trkpt lat="44.8919884" lon="9.6888098"><ele>180.66666666666666</ele><time>2026-05-01T07:31:16.024Z</time></trkpt><trkpt lat="44.8919745" lon="9.6889145"><ele>181.5</ele><time>2026-05-01T07:31:19.033Z</time></trkpt><trkpt lat="44.8919978" lon="9.6890209"><ele>182.33333333333334</ele><time>2026-05-01T07:31:22.028Z</time></trkpt><trkpt lat="44.8920328" lon="9.6891099"><ele>183.16666666666669</ele><time>2026-05-01T07:31:25.04Z</time></trkpt><trkpt lat="44.8920838" lon="9.6891908"><ele>184.0</ele><time>2026-05-01T07:31:28.016Z</time></trkpt><trkpt lat="44.892139" lon="9.6892531"><ele>184.0</ele><time>2026-05-01T07:31:31.018Z</time></trkpt><trkpt lat="44.8921916" lon="9.6893046"><ele>184.0</ele><time>2026-05-01T07:31:34.034Z</time></trkpt><trkpt lat="44.8922474" lon="9.6893718"><ele>184.0</ele><time>2026-05-01T07:31:37.03Z</time></trkpt><trkpt lat="44.8923052" lon="9.6894296"><ele>184.0</ele><time>2026-05-01T07:31:40.034Z</time></trkpt><trkpt lat="44.8923638" lon="9.6894833"><ele>184.0</ele><time>2026-05-01T07:31:43.031Z</time></trkpt><trkpt lat="44.8924184" lon="9.6895439"><ele>184.0</ele><time>2026-05-01T07:31:46.029Z</time></trkpt><trkpt lat="44.8924739" lon="9.6895984"><ele>184.0</ele><time>2026-05-01T07:31:49.026Z</time></trkpt><trkpt lat="44.8925395" lon="9.6896452"><ele>183.66666666666669</ele><time>2026-05-01T07:31:52.036Z</time></trkpt><trkpt lat="44.8925958" lon="9.6897019"><ele>183.33333333333334</ele><time>2026-05-01T07:31:55.037Z</time></trkpt><trkpt lat="44.8926726" lon="9.6897713"><ele>183.0</ele><time>2026-05-01T07:31:58.034Z</time></trkpt><trkpt lat="44.8927402" lon="9.6898434"><ele>182.66666666666666</ele><time>2026-05-01T07:32:01.024Z</time></trkpt><trkpt lat="44.8928057" lon="9.689906"><ele>182.33333333333331</ele><time>2026-05-01T07:32:05.039Z</time></trkpt><trkpt lat="44.8928575" lon="9.6899938"><ele>182.0</ele><time>2026-05-01T07:32:09.026Z</time></trkpt><trkpt lat="44.8928897" lon="9.690074"><ele>182.0</ele><time>2026-05-01T07:32:12.03Z</time></trkpt><trkpt lat="44.8929152" lon="9.6901587"><ele>182.0</ele><time>2026-05-01T07:32:15.028Z</time></trkpt><trkpt lat="44.8929123" lon="9.6902589"><ele>182.0</ele><time>2026-05-01T07:32:19.028Z</time></trkpt><trkpt lat="44.8928843" lon="9.6903632"><ele>182.0</ele><time>2026-05-01T07:32:23.031Z</time></trkpt><trkpt lat="44.8928564" lon="9.6904644"><ele>182.0</ele><time>2026-05-01T07:32:27.046Z</time></trkpt><trkpt lat="44.8928387" lon="9.690556"><ele>182.0</ele><time>2026-05-01T07:32:31.033Z</time></trkpt><trkpt lat="44.8928141" lon="9.6906565"><ele>182.0</ele><time>2026-05-01T07:32:35.032Z</time></trkpt><trkpt lat="44.892801" lon="9.6907601"><ele>183.28571428571428</ele><time>2026-05-01T07:32:39.027Z</time></trkpt><trkpt lat="44.8927906" lon="9.6908693"><ele>184.57142857142856</ele><time>2026-05-01T07:32:43.037Z</time></trkpt><trkpt lat="44.8927771" lon="9.6909731"><ele>185.85714285714286</ele><time>2026-05-01T07:32:47.028Z</time></trkpt><trkpt lat="44.8927706" lon="9.6910676"><ele>187.14285714285714</ele><time>2026-05-01T07:32:51.012Z</time></trkpt><trkpt lat="44.8927492" lon="9.6911537"><ele>188.42857142857142</ele><time>2026-05-01T07:32:54.011Z</time></trkpt><trkpt lat="44.8927268" lon="9.6912598"><ele>189.71428571428572</ele><time>2026-05-01T07:32:58.028Z</time></trkpt><trkpt lat="44.8927126" lon="9.6913656"><ele>191.0</ele><time>2026-05-01T07:33:02.043Z</time></trkpt><trkpt lat="44.8926957" lon="9.6914718"><ele>192.14285714285714</ele><time>2026-05-01T07:33:06.032Z</time></trkpt><trkpt lat="44.8926731" lon="9.6915548"><ele>193.28571428571428</ele><time>2026-05-01T07:33:09.034Z</time></trkpt><trkpt lat="44.8926333" lon="9.6916453"><ele>194.42857142857142</ele><time>2026-05-01T07:33:13.028Z</time></trkpt><trkpt lat="44.8925731" lon="9.6917134"><ele>195.57142857142856</ele><time>2026-05-01T07:33:17.029Z</time></trkpt><trkpt lat="44.892505" lon="9.6917298"><ele>196.71428571428572</ele><time>2026-05-01T07:33:21.021Z</time></trkpt><trkpt lat="44.8924279" lon="9.6917045"><ele>197.85714285714283</ele><time>2026-05-01T07:33:25.025Z</time></trkpt><trkpt lat="44.892356" lon="9.6916687"><ele>199.0</ele><time>2026-05-01T07:33:29.041Z</time></trkpt><trkpt lat="44.8922847" lon="9.6916149"><ele>199.7142857142857</ele><time>2026-05-01T07:33:33.017Z</time></trkpt><trkpt lat="44.8922273" lon="9.6915757"><ele>200.42857142857142</ele><time>2026-05-01T07:33:36.029Z</time></trkpt><trkpt lat="44.8921644" lon="9.6915317"><ele>201.14285714285714</ele><time>2026-05-01T07:33:39.024Z</time></trkpt><trkpt lat="44.8920932" lon="9.6914916"><ele>201.85714285714283</ele><time>2026-05-01T07:33:42.029Z</time></trkpt><trkpt lat="44.8920216" lon="9.6914446"><ele>202.57142857142858</ele><time>2026-05-01T07:33:45.035Z</time></trkpt><trkpt lat="44.8919491" lon="9.6914002"><ele>203.28571428571428</ele><time>2026-05-01T07:33:48.034Z</time></trkpt><trkpt lat="44.8918824" lon="9.6913579"><ele>204.0</ele><time>2026-05-01T07:33:51.023Z</time></trkpt><trkpt lat="44.8918147" lon="9.6913061"><ele>204.57142857142858</ele><time>2026-05-01T07:33:54.038Z</time></trkpt><trkpt lat="44.8917417" lon="9.6912399"><ele>205.14285714285717</ele><time>2026-05-01T07:33:57.024Z</time></trkpt><trkpt lat="44.8916846" lon="9.6911957"><ele>205.71428571428572</ele><time>2026-05-01T07:33:59.019Z</time></trkpt><trkpt lat="44.8916327" lon="9.6911444"><ele>206.28571428571428</ele><time>2026-05-01T07:34:01.039Z</time></trkpt><trkpt lat="44.89158" lon="9.6910953"><ele>206.85714285714286</ele><time>2026-05-01T07:34:03.031Z</time></trkpt><trkpt lat="44.8915192" lon="9.6910504"><ele>207.42857142857142</ele><time>2026-05-01T07:34:05.033Z</time></trkpt><trkpt lat="44.8914582" lon="9.6909998"><ele>208.0</ele><time>2026-05-01T07:34:07.03Z</time></trkpt><trkpt lat="44.8913983" lon="9.6909472"><ele>208.0</ele><time>2026-05-01T07:34:09.033Z</time></trkpt><trkpt lat="44.8913376" lon="9.6909013"><ele>208.0</ele><time>2026-05-01T07:34:11.026Z</time></trkpt><trkpt lat="44.8912793" lon="9.6908555"><ele>208.0</ele><time>2026-05-01T07:34:13.027Z</time></trkpt><trkpt lat="44.8912205" lon="9.6908115"><ele>208.0</ele><time>2026-05-01T07:34:15.028Z</time></trkpt><trkpt lat="44.8911615" lon="9.6907755"><ele>208.0</ele><time>2026-05-01T07:34:17.039Z</time></trkpt><trkpt lat="44.8911106" lon="9.6907208"><ele>208.0</ele><time>2026-05-01T07:34:19.029Z</time></trkpt><trkpt lat="44.8910493" lon="9.6906693"><ele>208.0</ele><time>2026-05-01T07:34:21.026Z</time></trkpt><trkpt lat="44.8909893" lon="9.690615"><ele>208.0</ele><time>2026-05-01T07:34:23.015Z</time></trkpt><trkpt lat="44.8909339" lon="9.6905677"><ele>208.0</ele><time>2026-05-01T07:34:25.029Z</time></trkpt><trkpt lat="44.8908694" lon="9.6905124"><ele>208.0</ele><time>2026-05-01T07:34:27.032Z</time></trkpt><trkpt lat="44.8908131" lon="9.6904587"><ele>208.0</ele><time>2026-05-01T07:34:29.028Z</time></trkpt><trkpt lat="44.8907535" lon="9.6904026"><ele>208.0</ele><time>2026-05-01T07:34:31.023Z</time></trkpt><trkpt lat="44.8906866" lon="9.6903595"><ele>208.0</ele><time>2026-05-01T07:34:33.036Z</time></trkpt><trkpt lat="44.8906158" lon="9.6903245"><ele>208.0</ele><time>2026-05-01T07:34:35.028Z</time></trkpt><trkpt lat="44.8905387" lon="9.6903022"><ele>208.66666666666666</ele><time>2026-05-01T07:34:37.019Z</time></trkpt><trkpt lat="44.8904599" lon="9.6903108"><ele>209.33333333333331</ele><time>2026-05-01T07:34:39.035Z</time></trkpt><trkpt lat="44.8903834" lon="9.6903424"><ele>210.0</ele><time>2026-05-01T07:34:41.024Z</time></trkpt><trkpt lat="44.8903001" lon="9.6903648"><ele>210.66666666666669</ele><time>2026-05-01T07:34:43.021Z</time></trkpt><trkpt lat="44.8902267" lon="9.6903514"><ele>211.33333333333334</ele><time>2026-05-01T07:34:45.033Z</time></trkpt><trkpt lat="44.8901515" lon="9.6902904"><ele>212.0</ele><time>2026-05-01T07:34:47.029Z</time></trkpt><trkpt lat="44.8900902" lon="9.6902286"><ele>212.42857142857144</ele><time>2026-05-01T07:34:49.037Z</time></trkpt><trkpt lat="44.8900296" lon="9.6901696"><ele>212.85714285714283</ele><time>2026-05-01T07:34:51.024Z</time></trkpt><trkpt lat="44.8899726" lon="9.6901029"><ele>213.28571428571428</ele><time>2026-05-01T07:34:53.013Z</time></trkpt><trkpt lat="44.8899136" lon="9.6900394"><ele>213.71428571428572</ele><time>2026-05-01T07:34:55.04Z</time></trkpt><trkpt lat="44.8898568" lon="9.6899794"><ele>214.14285714285717</ele><time>2026-05-01T07:34:57.029Z</time></trkpt><trkpt lat="44.8897982" lon="9.6899189"><ele>214.57142857142856</ele><time>2026-05-01T07:34:59.035Z</time></trkpt><trkpt lat="44.8897384" lon="9.6898694"><ele>215.0</ele><time>2026-05-01T07:35:01.022Z</time></trkpt><trkpt lat="44.889681" lon="9.6898138"><ele>215.0</ele><time>2026-05-01T07:35:03.029Z</time></trkpt><trkpt lat="44.8896184" lon="9.6897583"><ele>215.0</ele><time>2026-05-01T07:35:05.025Z</time></trkpt><trkpt lat="44.8895621" lon="9.6897008"><ele>215.0</ele><time>2026-05-01T07:35:07.03Z</time></trkpt><trkpt lat="44.8895029" lon="9.689649"><ele>215.0</ele><time>2026-05-01T07:35:09.038Z</time></trkpt><trkpt lat="44.8894398" lon="9.6895998"><ele>215.0</ele><time>2026-05-01T07:35:11.03Z</time></trkpt><trkpt lat="44.889374" lon="9.6895427"><ele>215.0</ele><time>2026-05-01T07:35:13.006Z</time></trkpt><trkpt lat="44.8893136" lon="9.6894812"><ele>215.0</ele><time>2026-05-01T07:35:15.009Z</time></trkpt><trkpt lat="44.8892507" lon="9.6894144"><ele>215.0</ele><time>2026-05-01T07:35:17.04Z</time></trkpt><trkpt lat="44.889191" lon="9.6893523"><ele>215.0</ele><time>2026-05-01T07:35:19.035Z</time></trkpt><trkpt lat="44.8891314" lon="9.6892889"><ele>215.0</ele><time>2026-05-01T07:35:21.026Z</time></trkpt><trkpt lat="44.8890767" lon="9.6892316"><ele>215.0</ele><time>2026-05-01T07:35:23.027Z</time></trkpt><trkpt lat="44.8890175" lon="9.6891728"><ele>215.0</ele><time>2026-05-01T07:35:25.03Z</time></trkpt><trkpt lat="44.8889579" lon="9.6891136"><ele>215.0</ele><time>2026-05-01T07:35:27.03Z</time></trkpt><trkpt lat="44.8888936" lon="9.6890465"><ele>215.0</ele><time>2026-05-01T07:35:29.028Z</time></trkpt><trkpt lat="44.888835" lon="9.6889886"><ele>215.00000000000003</ele><time>2026-05-01T07:35:31.026Z</time></trkpt><trkpt lat="44.8887777" lon="9.6889241"><ele>215.0</ele><time>2026-05-01T07:35:33.025Z</time></trkpt><trkpt lat="44.8887071" lon="9.6888767"><ele>215.0</ele><time>2026-05-01T07:35:35.033Z</time></trkpt><trkpt lat="44.8886395" lon="9.688829"><ele>215.0</ele><time>2026-05-01T07:35:37.03Z</time></trkpt><trkpt lat="44.888566" lon="9.6887929"><ele>215.00000000000003</ele><time>2026-05-01T07:35:39.035Z</time></trkpt><trkpt lat="44.888498" lon="9.6887369"><ele>215.0</ele><time>2026-05-01T07:35:41.027Z</time></trkpt><trkpt lat="44.888437" lon="9.6886706"><ele>215.57142857142856</ele><time>2026-05-01T07:35:43.028Z</time></trkpt><trkpt lat="44.8883691" lon="9.6886178"><ele>216.14285714285717</ele><time>2026-05-01T07:35:45.023Z</time></trkpt><trkpt lat="44.8883074" lon="9.6885576"><ele>216.71428571428572</ele><time>2026-05-01T07:35:47.034Z</time></trkpt><trkpt lat="44.8882472" lon="9.6884961"><ele>217.28571428571428</ele><time>2026-05-01T07:35:49.024Z</time></trkpt><trkpt lat="44.8881857" lon="9.6884255"><ele>217.85714285714283</ele><time>2026-05-01T07:35:51.03Z</time></trkpt><trkpt lat="44.888122" lon="9.6883669"><ele>218.42857142857144</ele><time>2026-05-01T07:35:53.028Z</time></trkpt><trkpt lat="44.8880662" lon="9.6883152"><ele>219.0</ele><time>2026-05-01T07:35:55.021Z</time></trkpt><trkpt lat="44.8880094" lon="9.6882587"><ele>219.0</ele><time>2026-05-01T07:35:57.032Z</time></trkpt><trkpt lat="44.8879496" lon="9.6881893"><ele>219.0</ele><time>2026-05-01T07:35:59.032Z</time></trkpt><trkpt lat="44.8878906" lon="9.688126"><ele>219.0</ele><time>2026-05-01T07:36:01.005Z</time></trkpt><trkpt lat="44.8878289" lon="9.6880794"><ele>219.0</ele><time>2026-05-01T07:36:03.037Z</time></trkpt><trkpt lat="44.8877667" lon="9.6880163"><ele>219.0</ele><time>2026-05-01T07:36:05.027Z</time></trkpt><trkpt lat="44.8877046" lon="9.6879597"><ele>219.0</ele><time>2026-05-01T07:36:07.005Z</time></trkpt><trkpt lat="44.887639" lon="9.6879117"><ele>219.0</ele><time>2026-05-01T07:36:09.009Z</time></trkpt><trkpt lat="44.8875721" lon="9.6878869"><ele>219.5</ele><time>2026-05-01T07:36:11.001Z</time></trkpt><trkpt lat="44.8875035" lon="9.6878628"><ele>220.0</ele><time>2026-05-01T07:36:13.03Z</time></trkpt><trkpt lat="44.8874254" lon="9.6878316"><ele>220.5</ele><time>2026-05-01T07:36:15.026Z</time></trkpt><trkpt lat="44.8873513" lon="9.6878368"><ele>221.0</ele><time>2026-05-01T07:36:17.008Z</time></trkpt><trkpt lat="44.8872738" lon="9.6878365"><ele>221.5</ele><time>2026-05-01T07:36:19.015Z</time></trkpt><trkpt lat="44.887197" lon="9.6878438"><ele>222.0</ele><time>2026-05-01T07:36:21.04Z</time></trkpt><trkpt lat="44.8871208" lon="9.6878392"><ele>222.0</ele><time>2026-05-01T07:36:23.036Z</time></trkpt><trkpt lat="44.8870534" lon="9.6878224"><ele>222.0</ele><time>2026-05-01T07:36:25.013Z</time></trkpt><trkpt lat="44.8869851" lon="9.6877938"><ele>222.0</ele><time>2026-05-01T07:36:27.032Z</time></trkpt><trkpt lat="44.8869218" lon="9.6877468"><ele>222.0</ele><time>2026-05-01T07:36:29.01Z</time></trkpt><trkpt lat="44.8868501" lon="9.6876982"><ele>222.0</ele><time>2026-05-01T07:36:31.015Z</time></trkpt><trkpt lat="44.8867782" lon="9.6876455"><ele>222.0</ele><time>2026-05-01T07:36:33.029Z</time></trkpt><trkpt lat="44.8867129" lon="9.6875887"><ele>222.0</ele><time>2026-05-01T07:36:35.031Z</time></trkpt><trkpt lat="44.8866527" lon="9.6875381"><ele>222.42857142857142</ele><time>2026-05-01T07:36:37.019Z</time></trkpt><trkpt lat="44.8865858" lon="9.6874885"><ele>222.8571428571429</ele><time>2026-05-01T07:36:39.042Z</time></trkpt><trkpt lat="44.8865203" lon="9.68744"><ele>223.2857142857143</ele><time>2026-05-01T07:36:41.025Z</time></trkpt><trkpt lat="44.88646" lon="9.6873961"><ele>223.71428571428572</ele><time>2026-05-01T07:36:43.048Z</time></trkpt><trkpt lat="44.8863921" lon="9.6873397"><ele>224.14285714285717</ele><time>2026-05-01T07:36:45.016Z</time></trkpt><trkpt lat="44.8863261" lon="9.6872959"><ele>224.5714285714286</ele><time>2026-05-01T07:36:47.034Z</time></trkpt><trkpt lat="44.8862614" lon="9.6872452"><ele>225.00000000000003</ele><time>2026-05-01T07:36:49.025Z</time></trkpt><trkpt lat="44.886196" lon="9.6872007"><ele>225.00000000000003</ele><time>2026-05-01T07:36:51.034Z</time></trkpt><trkpt lat="44.8861328" lon="9.6871572"><ele>225.0</ele><time>2026-05-01T07:36:53.026Z</time></trkpt><trkpt lat="44.8860727" lon="9.6871033"><ele>225.00000000000003</ele><time>2026-05-01T07:36:55.028Z</time></trkpt><trkpt lat="44.8860081" lon="9.6870506"><ele>225.00000000000003</ele><time>2026-05-01T07:36:57.033Z</time></trkpt><trkpt lat="44.8859431" lon="9.6870095"><ele>225.0</ele><time>2026-05-01T07:36:59.021Z</time></trkpt><trkpt lat="44.8858788" lon="9.6869585"><ele>225.00000000000003</ele><time>2026-05-01T07:37:01.016Z</time></trkpt><trkpt lat="44.8858114" lon="9.6869225"><ele>225.00000000000003</ele><time>2026-05-01T07:37:03.033Z</time></trkpt><trkpt lat="44.8857409" lon="9.686896"><ele>225.5714285714286</ele><time>2026-05-01T07:37:05.032Z</time></trkpt><trkpt lat="44.8856686" lon="9.6868789"><ele>226.14285714285717</ele><time>2026-05-01T07:37:07.039Z</time></trkpt><trkpt lat="44.8855931" lon="9.6868756"><ele>226.71428571428572</ele><time>2026-05-01T07:37:09.034Z</time></trkpt><trkpt lat="44.8855234" lon="9.686876"><ele>227.2857142857143</ele><time>2026-05-01T07:37:11.036Z</time></trkpt><trkpt lat="44.8854549" lon="9.6868818"><ele>227.8571428571429</ele><time>2026-05-01T07:37:13.032Z</time></trkpt><trkpt lat="44.8853809" lon="9.6869009"><ele>228.42857142857142</ele><time>2026-05-01T07:37:15.026Z</time></trkpt><trkpt lat="44.8853092" lon="9.6869224"><ele>229.0</ele><time>2026-05-01T07:37:17.029Z</time></trkpt><trkpt lat="44.8852415" lon="9.6869417"><ele>229.0</ele><time>2026-05-01T07:37:19.019Z</time></trkpt><trkpt lat="44.8851711" lon="9.6869606"><ele>229.0</ele><time>2026-05-01T07:37:21.035Z</time></trkpt><trkpt lat="44.8850958" lon="9.6869736"><ele>229.0</ele><time>2026-05-01T07:37:23.039Z</time></trkpt><trkpt lat="44.8850265" lon="9.686981"><ele>229.0</ele><time>2026-05-01T07:37:25.049Z</time></trkpt><trkpt lat="44.884962" lon="9.6869867"><ele>229.0</ele><time>2026-05-01T07:37:27.039Z</time></trkpt><trkpt lat="44.8848699" lon="9.6869921"><ele>229.0</ele><time>2026-05-01T07:37:30.033Z</time></trkpt><trkpt lat="44.8848024" lon="9.6869738"><ele>229.0</ele><time>2026-05-01T07:37:32.049Z</time></trkpt><trkpt lat="44.8847374" lon="9.6869339"><ele>229.99999999999997</ele><time>2026-05-01T07:37:34.031Z</time></trkpt><trkpt lat="44.8846718" lon="9.686887"><ele>231.0</ele><time>2026-05-01T07:37:36.041Z</time></trkpt><trkpt lat="44.8846211" lon="9.68682"><ele>232.0</ele><time>2026-05-01T07:37:38.032Z</time></trkpt><trkpt lat="44.8845825" lon="9.6867388"><ele>233.0</ele><time>2026-05-01T07:37:40.026Z</time></trkpt><trkpt lat="44.8845488" lon="9.6866518"><ele>233.99999999999997</ele><time>2026-05-01T07:37:42.05Z</time></trkpt><trkpt lat="44.8845174" lon="9.6865475"><ele>235.0</ele><time>2026-05-01T07:37:45.037Z</time></trkpt><trkpt lat="44.8845016" lon="9.6864177"><ele>235.0</ele><time>2026-05-01T07:37:48.028Z</time></trkpt><trkpt lat="44.8845185" lon="9.6863202"><ele>234.99999999999997</ele><time>2026-05-01T07:37:50.029Z</time></trkpt><trkpt lat="44.8845374" lon="9.6862234"><ele>235.0</ele><time>2026-05-01T07:37:52.032Z</time></trkpt><trkpt lat="44.8845616" lon="9.6861289"><ele>235.0</ele><time>2026-05-01T07:37:54.045Z</time></trkpt><trkpt lat="44.8845759" lon="9.6860364"><ele>234.99999999999997</ele><time>2026-05-01T07:37:56.031Z</time></trkpt><trkpt lat="44.8845719" lon="9.6859341"><ele>235.0</ele><time>2026-05-01T07:37:58.034Z</time></trkpt><trkpt lat="44.8845426" lon="9.6858433"><ele>235.0</ele><time>2026-05-01T07:38:00.007Z</time></trkpt><trkpt lat="44.8844886" lon="9.6857746"><ele>234.66666666666666</ele><time>2026-05-01T07:38:02.038Z</time></trkpt><trkpt lat="44.8844134" lon="9.6856946"><ele>234.33333333333331</ele><time>2026-05-01T07:38:05.029Z</time></trkpt><trkpt lat="44.8843537" lon="9.68565"><ele>234.0</ele><time>2026-05-01T07:38:07.023Z</time></trkpt><trkpt lat="44.8842964" lon="9.6856031"><ele>233.66666666666669</ele><time>2026-05-01T07:38:09.024Z</time></trkpt><trkpt lat="44.8842308" lon="9.6855443"><ele>233.33333333333334</ele><time>2026-05-01T07:38:11.035Z</time></trkpt><trkpt lat="44.8841706" lon="9.6854858"><ele>233.0</ele><time>2026-05-01T07:38:13.031Z</time></trkpt><trkpt lat="44.8841118" lon="9.6854254"><ele>233.57142857142858</ele><time>2026-05-01T07:38:15.024Z</time></trkpt><trkpt lat="44.8840537" lon="9.6853804"><ele>234.1428571428571</ele><time>2026-05-01T07:38:17.029Z</time></trkpt><trkpt lat="44.8839947" lon="9.6853216"><ele>234.7142857142857</ele><time>2026-05-01T07:38:19.028Z</time></trkpt><trkpt lat="44.8839337" lon="9.6852547"><ele>235.28571428571428</ele><time>2026-05-01T07:38:21.025Z</time></trkpt><trkpt lat="44.8838699" lon="9.6851968"><ele>235.85714285714283</ele><time>2026-05-01T07:38:23.022Z</time></trkpt><trkpt lat="44.8838076" lon="9.6851452"><ele>236.4285714285714</ele><time>2026-05-01T07:38:25.043Z</time></trkpt><trkpt lat="44.8837452" lon="9.6850952"><ele>236.99999999999997</ele><time>2026-05-01T07:38:27.023Z</time></trkpt><trkpt lat="44.8836872" lon="9.6850487"><ele>237.1428571428571</ele><time>2026-05-01T07:38:29.033Z</time></trkpt><trkpt lat="44.8836243" lon="9.6849989"><ele>237.28571428571428</ele><time>2026-05-01T07:38:31.034Z</time></trkpt><trkpt lat="44.8835628" lon="9.6849545"><ele>237.42857142857142</ele><time>2026-05-01T07:38:33.03Z</time></trkpt><trkpt lat="44.8834931" lon="9.6849209"><ele>237.57142857142856</ele><time>2026-05-01T07:38:35.036Z</time></trkpt><trkpt lat="44.8834231" lon="9.6849018"><ele>237.71428571428572</ele><time>2026-05-01T07:38:37.026Z</time></trkpt><trkpt lat="44.8833547" lon="9.6848709"><ele>237.85714285714286</ele><time>2026-05-01T07:38:39.02Z</time></trkpt><trkpt lat="44.8832822" lon="9.6848507"><ele>238.0</ele><time>2026-05-01T07:38:41.028Z</time></trkpt><trkpt lat="44.8832169" lon="9.6848328"><ele>238.42857142857144</ele><time>2026-05-01T07:38:43.038Z</time></trkpt><trkpt lat="44.8831569" lon="9.6848015"><ele>238.85714285714286</ele><time>2026-05-01T07:38:45.026Z</time></trkpt><trkpt lat="44.8830923" lon="9.6847787"><ele>239.28571428571428</ele><time>2026-05-01T07:38:47.011Z</time></trkpt><trkpt lat="44.8830139" lon="9.6847436"><ele>239.71428571428572</ele><time>2026-05-01T07:38:49.026Z</time></trkpt><trkpt lat="44.8829419" lon="9.6847153"><ele>240.14285714285717</ele><time>2026-05-01T07:38:51.028Z</time></trkpt><trkpt lat="44.8828796" lon="9.684672"><ele>240.57142857142858</ele><time>2026-05-01T07:38:53.035Z</time></trkpt><trkpt lat="44.8828127" lon="9.6846289"><ele>241.0</ele><time>2026-05-01T07:38:55.039Z</time></trkpt><trkpt lat="44.8827414" lon="9.6845865"><ele>241.0</ele><time>2026-05-01T07:38:57.033Z</time></trkpt><trkpt lat="44.8826755" lon="9.6845475"><ele>241.00000000000003</ele><time>2026-05-01T07:38:59.018Z</time></trkpt><trkpt lat="44.8826138" lon="9.6844964"><ele>241.0</ele><time>2026-05-01T07:39:01.032Z</time></trkpt><trkpt lat="44.8825458" lon="9.6844513"><ele>241.0</ele><time>2026-05-01T07:39:03.033Z</time></trkpt><trkpt lat="44.8824859" lon="9.6844046"><ele>241.00000000000003</ele><time>2026-05-01T07:39:05.029Z</time></trkpt><trkpt lat="44.8824217" lon="9.6843487"><ele>241.0</ele><time>2026-05-01T07:39:07.034Z</time></trkpt><trkpt lat="44.8823633" lon="9.6843029"><ele>241.0</ele><time>2026-05-01T07:39:09.029Z</time></trkpt><trkpt lat="44.8823066" lon="9.68425"><ele>241.42857142857144</ele><time>2026-05-01T07:39:11.017Z</time></trkpt><trkpt lat="44.8822411" lon="9.684183"><ele>241.8571428571429</ele><time>2026-05-01T07:39:13.027Z</time></trkpt><trkpt lat="44.8821772" lon="9.6841306"><ele>242.28571428571428</ele><time>2026-05-01T07:39:15.027Z</time></trkpt><trkpt lat="44.8821149" lon="9.6840748"><ele>242.71428571428572</ele><time>2026-05-01T07:39:17.031Z</time></trkpt><trkpt lat="44.8820531" lon="9.6840198"><ele>243.14285714285714</ele><time>2026-05-01T07:39:19.029Z</time></trkpt><trkpt lat="44.8819928" lon="9.6839685"><ele>243.57142857142856</ele><time>2026-05-01T07:39:21.03Z</time></trkpt><trkpt lat="44.8819323" lon="9.6839089"><ele>243.99999999999997</ele><time>2026-05-01T07:39:23.029Z</time></trkpt><trkpt lat="44.8818683" lon="9.6838592"><ele>243.99999999999997</ele><time>2026-05-01T07:39:25.026Z</time></trkpt><trkpt lat="44.881805" lon="9.6838125"><ele>244.0</ele><time>2026-05-01T07:39:27.032Z</time></trkpt><trkpt lat="44.881749" lon="9.6837655"><ele>243.99999999999997</ele><time>2026-05-01T07:39:29.025Z</time></trkpt><trkpt lat="44.8816849" lon="9.683717"><ele>243.99999999999997</ele><time>2026-05-01T07:39:31.01Z</time></trkpt><trkpt lat="44.8816233" lon="9.6836605"><ele>244.0</ele><time>2026-05-01T07:39:33.031Z</time></trkpt><trkpt lat="44.8815674" lon="9.6836054"><ele>243.99999999999997</ele><time>2026-05-01T07:39:35.022Z</time></trkpt><trkpt lat="44.8815131" lon="9.6835479"><ele>243.99999999999997</ele><time>2026-05-01T07:39:37.037Z</time></trkpt><trkpt lat="44.8814248" lon="9.6834851"><ele>244.1428571428571</ele><time>2026-05-01T07:39:40.032Z</time></trkpt><trkpt lat="44.8813597" lon="9.6834616"><ele>244.28571428571428</ele><time>2026-05-01T07:39:42.011Z</time></trkpt><trkpt lat="44.8812903" lon="9.6835262"><ele>244.42857142857142</ele><time>2026-05-01T07:39:44.024Z</time></trkpt><trkpt lat="44.8812424" lon="9.6835888"><ele>244.57142857142856</ele><time>2026-05-01T07:39:46.025Z</time></trkpt><trkpt lat="44.8812103" lon="9.6836685"><ele>244.71428571428572</ele><time>2026-05-01T07:39:48.029Z</time></trkpt><trkpt lat="44.8811658" lon="9.6837499"><ele>244.85714285714286</ele><time>2026-05-01T07:39:50.021Z</time></trkpt><trkpt lat="44.8811065" lon="9.6838096"><ele>245.0</ele><time>2026-05-01T07:39:52.019Z</time></trkpt><trkpt lat="44.8810366" lon="9.6837905"><ele>245.0</ele><time>2026-05-01T07:39:54.026Z</time></trkpt><trkpt lat="44.8809687" lon="9.6837497"><ele>245.0</ele><time>2026-05-01T07:39:56.029Z</time></trkpt><trkpt lat="44.8809087" lon="9.6837131"><ele>245.0</ele><time>2026-05-01T07:39:58.032Z</time></trkpt><trkpt lat="44.8808398" lon="9.6836844"><ele>245.0</ele><time>2026-05-01T07:40:00.029Z</time></trkpt><trkpt lat="44.8807606" lon="9.6836607"><ele>245.0</ele><time>2026-05-01T07:40:02.019Z</time></trkpt><trkpt lat="44.8806912" lon="9.6836312"><ele>245.0</ele><time>2026-05-01T07:40:04.026Z</time></trkpt><trkpt lat="44.8806245" lon="9.6835982"><ele>245.0</ele><time>2026-05-01T07:40:06.016Z</time></trkpt><trkpt lat="44.8805536" lon="9.6835717"><ele>245.42857142857144</ele><time>2026-05-01T07:40:08.033Z</time></trkpt><trkpt lat="44.8804794" lon="9.683538"><ele>245.85714285714286</ele><time>2026-05-01T07:40:10.034Z</time></trkpt><trkpt lat="44.88041" lon="9.6835172"><ele>246.28571428571428</ele><time>2026-05-01T07:40:12.026Z</time></trkpt><trkpt lat="44.8803407" lon="9.6834871"><ele>246.71428571428572</ele><time>2026-05-01T07:40:14.027Z</time></trkpt><trkpt lat="44.8802751" lon="9.6834616"><ele>247.14285714285717</ele><time>2026-05-01T07:40:16.027Z</time></trkpt><trkpt lat="44.8802091" lon="9.6834324"><ele>247.57142857142858</ele><time>2026-05-01T07:40:18.023Z</time></trkpt><trkpt lat="44.8801448" lon="9.6834008"><ele>248.0</ele><time>2026-05-01T07:40:20.021Z</time></trkpt><trkpt lat="44.8800755" lon="9.6833679"><ele>248.57142857142858</ele><time>2026-05-01T07:40:22.01Z</time></trkpt><trkpt lat="44.8800123" lon="9.6833384"><ele>249.14285714285717</ele><time>2026-05-01T07:40:24.009Z</time></trkpt><trkpt lat="44.8799463" lon="9.6833048"><ele>249.71428571428572</ele><time>2026-05-01T07:40:26.028Z</time></trkpt><trkpt lat="44.8798807" lon="9.6832718"><ele>250.28571428571428</ele><time>2026-05-01T07:40:28.026Z</time></trkpt><trkpt lat="44.8798203" lon="9.6832396"><ele>250.85714285714286</ele><time>2026-05-01T07:40:30.031Z</time></trkpt><trkpt lat="44.8797529" lon="9.6832122"><ele>251.42857142857144</ele><time>2026-05-01T07:40:32.032Z</time></trkpt><trkpt lat="44.8796891" lon="9.6831822"><ele>252.0</ele><time>2026-05-01T07:40:34.028Z</time></trkpt><trkpt lat="44.8796235" lon="9.6831564"><ele>252.0</ele><time>2026-05-01T07:40:36.028Z</time></trkpt><trkpt lat="44.8795578" lon="9.6831283"><ele>252.0</ele><time>2026-05-01T07:40:38.031Z</time></trkpt><trkpt lat="44.8794875" lon="9.6830909"><ele>252.0</ele><time>2026-05-01T07:40:40.032Z</time></trkpt><trkpt lat="44.8794235" lon="9.6830599"><ele>252.0</ele><time>2026-05-01T07:40:42.025Z</time></trkpt><trkpt lat="44.8793548" lon="9.683029"><ele>252.0</ele><time>2026-05-01T07:40:44.031Z</time></trkpt><trkpt lat="44.8792923" lon="9.6829912"><ele>252.0</ele><time>2026-05-01T07:40:46.03Z</time></trkpt><trkpt lat="44.8792048" lon="9.6829623"><ele>252.0</ele><time>2026-05-01T07:40:49.024Z</time></trkpt><trkpt lat="44.8791409" lon="9.6829349"><ele>252.16666666666666</ele><time>2026-05-01T07:40:51.021Z</time></trkpt><trkpt lat="44.8790551" lon="9.6828993"><ele>252.33333333333331</ele><time>2026-05-01T07:40:54.03Z</time></trkpt><trkpt lat="44.8789864" lon="9.6828865"><ele>252.5</ele><time>2026-05-01T07:40:56.029Z</time></trkpt><trkpt lat="44.8788963" lon="9.6828799"><ele>252.66666666666666</ele><time>2026-05-01T07:40:59.033Z</time></trkpt><trkpt lat="44.8788271" lon="9.6829195"><ele>252.83333333333331</ele><time>2026-05-01T07:41:01.03Z</time></trkpt><trkpt lat="44.878761" lon="9.68296"><ele>253.0</ele><time>2026-05-01T07:41:03.032Z</time></trkpt><trkpt lat="44.8786989" lon="9.6829751"><ele>253.00000000000003</ele><time>2026-05-01T07:41:05.022Z</time></trkpt><trkpt lat="44.878627" lon="9.682991"><ele>253.0</ele><time>2026-05-01T07:41:07.03Z</time></trkpt><trkpt lat="44.8785333" lon="9.6830235"><ele>253.00000000000003</ele><time>2026-05-01T07:41:10.023Z</time></trkpt><trkpt lat="44.8784676" lon="9.6830239"><ele>253.00000000000003</ele><time>2026-05-01T07:41:12.024Z</time></trkpt><trkpt lat="44.8784013" lon="9.6830208"><ele>253.0</ele><time>2026-05-01T07:41:14.009Z</time></trkpt><trkpt lat="44.8783311" lon="9.6830075"><ele>253.00000000000003</ele><time>2026-05-01T07:41:16.04Z</time></trkpt><trkpt lat="44.878262" lon="9.6829945"><ele>253.00000000000003</ele><time>2026-05-01T07:41:18.04Z</time></trkpt><trkpt lat="44.8781735" lon="9.6830008"><ele>253.83333333333331</ele><time>2026-05-01T07:41:21.019Z</time></trkpt><trkpt lat="44.8780799" lon="9.6829928"><ele>254.66666666666666</ele><time>2026-05-01T07:41:24.007Z</time></trkpt><trkpt lat="44.8779827" lon="9.6829688"><ele>255.5</ele><time>2026-05-01T07:41:27.029Z</time></trkpt><trkpt lat="44.8779151" lon="9.6829763"><ele>256.3333333333333</ele><time>2026-05-01T07:41:29.029Z</time></trkpt><trkpt lat="44.8778501" lon="9.683033"><ele>257.1666666666667</ele><time>2026-05-01T07:41:31.029Z</time></trkpt><trkpt lat="44.877871" lon="9.6831752"><ele>258.0</ele><time>2026-05-01T07:41:33.023Z</time></trkpt><trkpt lat="44.87792" lon="9.6832554"><ele>257.99999999999994</ele><time>2026-05-01T07:41:35.024Z</time></trkpt><trkpt lat="44.8779822" lon="9.6832944"><ele>258.0</ele><time>2026-05-01T07:41:37.031Z</time></trkpt><trkpt lat="44.8780423" lon="9.6833454"><ele>258.0</ele><time>2026-05-01T07:41:39.028Z</time></trkpt><trkpt lat="44.8780853" lon="9.683421"><ele>258.0</ele><time>2026-05-01T07:41:41.026Z</time></trkpt><trkpt lat="44.8781096" lon="9.6835099"><ele>258.0</ele><time>2026-05-01T07:41:43.028Z</time></trkpt><trkpt lat="44.8780936" lon="9.683611"><ele>257.99999999999994</ele><time>2026-05-01T07:41:45.013Z</time></trkpt><trkpt lat="44.8780503" lon="9.6836988"><ele>258.0</ele><time>2026-05-01T07:41:47.021Z</time></trkpt><trkpt lat="44.8779945" lon="9.6837682"><ele>258.0</ele><time>2026-05-01T07:41:49.023Z</time></trkpt><trkpt lat="44.8779103" lon="9.6837979"><ele>258.0</ele><time>2026-05-01T07:41:52.026Z</time></trkpt><trkpt lat="44.877842" lon="9.6837804"><ele>258.0</ele><time>2026-05-01T07:41:54.035Z</time></trkpt><trkpt lat="44.8777635" lon="9.6837567"><ele>258.0</ele><time>2026-05-01T07:41:57.028Z</time></trkpt><trkpt lat="44.8776974" lon="9.6837069"><ele>258.0</ele><time>2026-05-01T07:42:00.031Z</time></trkpt><trkpt lat="44.8776192" lon="9.6836617"><ele>258.0</ele><time>2026-05-01T07:42:03.026Z</time></trkpt><trkpt lat="44.8775411" lon="9.6836385"><ele>258.99999999999994</ele><time>2026-05-01T07:42:06.002Z</time></trkpt><trkpt lat="44.8774696" lon="9.6836324"><ele>260.0</ele><time>2026-05-01T07:42:09.025Z</time></trkpt><trkpt lat="44.8773995" lon="9.68364"><ele>261.0</ele><time>2026-05-01T07:42:12.035Z</time></trkpt><trkpt lat="44.8773387" lon="9.6836712"><ele>262.0</ele><time>2026-05-01T07:42:15.024Z</time></trkpt><trkpt lat="44.8772798" lon="9.6837092"><ele>263.0</ele><time>2026-05-01T07:42:18.018Z</time></trkpt><trkpt lat="44.8772331" lon="9.6837711"><ele>263.99999999999994</ele><time>2026-05-01T07:42:21.028Z</time></trkpt><trkpt lat="44.8771773" lon="9.6838293"><ele>265.0</ele><time>2026-05-01T07:42:25Z</time></trkpt><trkpt lat="44.8771195" lon="9.6838964"><ele>264.99999999999994</ele><time>2026-05-01T07:42:29.019Z</time></trkpt><trkpt lat="44.8770581" lon="9.6839533"><ele>265.0</ele><time>2026-05-01T07:42:33.023Z</time></trkpt><trkpt lat="44.8770003" lon="9.6840027"><ele>265.0</ele><time>2026-05-01T07:42:37.031Z</time></trkpt><trkpt lat="44.8769366" lon="9.684047"><ele>265.0</ele><time>2026-05-01T07:42:41.021Z</time></trkpt><trkpt lat="44.8768699" lon="9.6840687"><ele>265.0</ele><time>2026-05-01T07:42:45.023Z</time></trkpt><trkpt lat="44.8768102" lon="9.6841115"><ele>264.99999999999994</ele><time>2026-05-01T07:42:49.025Z</time></trkpt><trkpt lat="44.8767559" lon="9.6841617"><ele>265.0</ele><time>2026-05-01T07:42:53.031Z</time></trkpt><trkpt lat="44.8766947" lon="9.6842211"><ele>266.57142857142856</ele><time>2026-05-01T07:42:58.011Z</time></trkpt><trkpt lat="44.876648" lon="9.6842892"><ele>268.1428571428571</ele><time>2026-05-01T07:43:03.038Z</time></trkpt><trkpt lat="44.8765923" lon="9.6843477"><ele>269.7142857142857</ele><time>2026-05-01T07:43:07.02Z</time></trkpt><trkpt lat="44.8765274" lon="9.6844066"><ele>271.2857142857143</ele><time>2026-05-01T07:43:11.028Z</time></trkpt><trkpt lat="44.8764623" lon="9.6844705"><ele>272.8571428571429</ele><time>2026-05-01T07:43:16.025Z</time></trkpt><trkpt lat="44.8763991" lon="9.6845375"><ele>274.42857142857144</ele><time>2026-05-01T07:43:21.024Z</time></trkpt><trkpt lat="44.8763435" lon="9.6845852"><ele>276.0</ele><time>2026-05-01T07:43:25.031Z</time></trkpt><trkpt lat="44.8762747" lon="9.684546"><ele>276.0</ele><time>2026-05-01T07:43:30.024Z</time></trkpt><trkpt lat="44.8762518" lon="9.6844374"><ele>276.0</ele><time>2026-05-01T07:43:35.025Z</time></trkpt><trkpt lat="44.8762266" lon="9.6843451"><ele>276.0</ele><time>2026-05-01T07:43:38.996Z</time></trkpt><trkpt lat="44.8761976" lon="9.6842476"><ele>276.0</ele><time>2026-05-01T07:43:43.022Z</time></trkpt><trkpt lat="44.8761415" lon="9.6841935"><ele>276.0</ele><time>2026-05-01T07:43:46.02Z</time></trkpt><trkpt lat="44.8760835" lon="9.6841391"><ele>276.0</ele><time>2026-05-01T07:43:49.002Z</time></trkpt><trkpt lat="44.876014" lon="9.6840769"><ele>276.0</ele><time>2026-05-01T07:43:53.026Z</time></trkpt><trkpt lat="44.87595" lon="9.6840198"><ele>277.2857142857143</ele><time>2026-05-01T07:43:57.028Z</time></trkpt><trkpt lat="44.8758921" lon="9.6839767"><ele>278.5714285714286</ele><time>2026-05-01T07:44:00.024Z</time></trkpt><trkpt lat="44.875823" lon="9.6839165"><ele>279.8571428571429</ele><time>2026-05-01T07:44:04.018Z</time></trkpt><trkpt lat="44.8757664" lon="9.6838755"><ele>281.14285714285717</ele><time>2026-05-01T07:44:07.025Z</time></trkpt><trkpt lat="44.8757038" lon="9.6838218"><ele>282.42857142857144</ele><time>2026-05-01T07:44:10.016Z</time></trkpt><trkpt lat="44.8756351" lon="9.6837541"><ele>283.7142857142857</ele><time>2026-05-01T07:44:14.029Z</time></trkpt><trkpt lat="44.8755773" lon="9.6836992"><ele>285.0</ele><time>2026-05-01T07:44:17.032Z</time></trkpt><trkpt lat="44.8755168" lon="9.6836394"><ele>285.0</ele><time>2026-05-01T07:44:20.027Z</time></trkpt><trkpt lat="44.8754576" lon="9.6835772"><ele>285.0</ele><time>2026-05-01T07:44:23.033Z</time></trkpt><trkpt lat="44.8753959" lon="9.6835007"><ele>285.0</ele><time>2026-05-01T07:44:26.036Z</time></trkpt><trkpt lat="44.8753341" lon="9.6834412"><ele>285.0</ele><time>2026-05-01T07:44:29.032Z</time></trkpt><trkpt lat="44.8752648" lon="9.6833644"><ele>285.0</ele><time>2026-05-01T07:44:32.026Z</time></trkpt><trkpt lat="44.8751957" lon="9.6832849"><ele>285.0</ele><time>2026-05-01T07:44:35.028Z</time></trkpt><trkpt lat="44.8751274" lon="9.6832138"><ele>286.1428571428571</ele><time>2026-05-01T07:44:38.031Z</time></trkpt><trkpt lat="44.8750717" lon="9.683168"><ele>287.2857142857143</ele><time>2026-05-01T07:44:40.038Z</time></trkpt><trkpt lat="44.8749998" lon="9.6830967"><ele>288.42857142857144</ele><time>2026-05-01T07:44:43.019Z</time></trkpt><trkpt lat="44.874924" lon="9.6830326"><ele>289.57142857142856</ele><time>2026-05-01T07:44:46.033Z</time></trkpt><trkpt lat="44.8748698" lon="9.6829844"><ele>290.7142857142857</ele><time>2026-05-01T07:44:48.018Z</time></trkpt><trkpt lat="44.8748038" lon="9.6829468"><ele>291.85714285714283</ele><time>2026-05-01T07:44:50.027Z</time></trkpt><trkpt lat="44.8747469" lon="9.6829065"><ele>293.0</ele><time>2026-05-01T07:44:52.023Z</time></trkpt><trkpt lat="44.8746886" lon="9.6828721"><ele>293.0</ele><time>2026-05-01T07:44:54.025Z</time></trkpt><trkpt lat="44.8746282" lon="9.6828465"><ele>293.0</ele><time>2026-05-01T07:44:56.022Z</time></trkpt><trkpt lat="44.8745397" lon="9.6828092"><ele>293.0</ele><time>2026-05-01T07:44:59.025Z</time></trkpt><trkpt lat="44.8744486" lon="9.6827642"><ele>293.0</ele><time>2026-05-01T07:45:02.021Z</time></trkpt><trkpt lat="44.8743849" lon="9.6827401"><ele>293.0</ele><time>2026-05-01T07:45:04.029Z</time></trkpt><trkpt lat="44.8742957" lon="9.6827133"><ele>293.0</ele><time>2026-05-01T07:45:07.032Z</time></trkpt><trkpt lat="44.8742353" lon="9.6826808"><ele>293.5</ele><time>2026-05-01T07:45:09.023Z</time></trkpt><trkpt lat="44.8741559" lon="9.6826213"><ele>294.0</ele><time>2026-05-01T07:45:12.019Z</time></trkpt><trkpt lat="44.8740828" lon="9.6825452"><ele>294.5</ele><time>2026-05-01T07:45:15.019Z</time></trkpt><trkpt lat="44.8740063" lon="9.6824788"><ele>295.0</ele><time>2026-05-01T07:45:18.028Z</time></trkpt><trkpt lat="44.8739474" lon="9.6823932"><ele>295.5</ele><time>2026-05-01T07:45:21.011Z</time></trkpt><trkpt lat="44.8738989" lon="9.6823357"><ele>296.0</ele><time>2026-05-01T07:45:23.038Z</time></trkpt><trkpt lat="44.8738649" lon="9.6822175"><ele>296.0</ele><time>2026-05-01T07:45:26.02Z</time></trkpt><trkpt lat="44.8738617" lon="9.6821043"><ele>296.0</ele><time>2026-05-01T07:45:29.034Z</time></trkpt><trkpt lat="44.8738759" lon="9.6819857"><ele>296.0</ele><time>2026-05-01T07:45:32.025Z</time></trkpt><trkpt lat="44.8739061" lon="9.6818607"><ele>296.0</ele><time>2026-05-01T07:45:35.026Z</time></trkpt><trkpt lat="44.8739392" lon="9.681753"><ele>296.0</ele><time>2026-05-01T07:45:38.033Z</time></trkpt><trkpt lat="44.8739843" lon="9.6816405"><ele>296.0</ele><time>2026-05-01T07:45:41.021Z</time></trkpt><trkpt lat="44.8740194" lon="9.6815318"><ele>296.42857142857144</ele><time>2026-05-01T07:45:44.026Z</time></trkpt><trkpt lat="44.8740271" lon="9.6814411"><ele>296.85714285714283</ele><time>2026-05-01T07:45:46.029Z</time></trkpt><trkpt lat="44.8740393" lon="9.6813537"><ele>297.2857142857143</ele><time>2026-05-01T07:45:48.029Z</time></trkpt><trkpt lat="44.8740377" lon="9.6812588"><ele>297.7142857142857</ele><time>2026-05-01T07:45:50.026Z</time></trkpt><trkpt lat="44.8740288" lon="9.6811685"><ele>298.14285714285717</ele><time>2026-05-01T07:45:52.029Z</time></trkpt><trkpt lat="44.8740011" lon="9.6810417"><ele>298.57142857142856</ele><time>2026-05-01T07:45:55.029Z</time></trkpt><trkpt lat="44.8739796" lon="9.6809532"><ele>299.0</ele><time>2026-05-01T07:45:57.025Z</time></trkpt><trkpt lat="44.8739592" lon="9.680848"><ele>299.1666666666667</ele><time>2026-05-01T07:45:59.009Z</time></trkpt><trkpt lat="44.8739482" lon="9.680745"><ele>299.33333333333337</ele><time>2026-05-01T07:46:01.031Z</time></trkpt><trkpt lat="44.8739552" lon="9.6806468"><ele>299.5</ele><time>2026-05-01T07:46:03.033Z</time></trkpt><trkpt lat="44.8739811" lon="9.6805474"><ele>299.6666666666667</ele><time>2026-05-01T07:46:05.025Z</time></trkpt><trkpt lat="44.8740003" lon="9.68043"><ele>299.8333333333333</ele><time>2026-05-01T07:46:07.008Z</time></trkpt><trkpt lat="44.8740182" lon="9.6803064"><ele>300.0</ele><time>2026-05-01T07:46:09.031Z</time></trkpt><trkpt lat="44.8740241" lon="9.6801749"><ele>300.0</ele><time>2026-05-01T07:46:11.024Z</time></trkpt><trkpt lat="44.8740241" lon="9.6800316"><ele>300.0</ele><time>2026-05-01T07:46:13.037Z</time></trkpt><trkpt lat="44.874016" lon="9.6798828"><ele>300.0</ele><time>2026-05-01T07:46:15.024Z</time></trkpt><trkpt lat="44.8739781" lon="9.6797561"><ele>300.0</ele><time>2026-05-01T07:46:17.019Z</time></trkpt><trkpt lat="44.8739036" lon="9.6796804"><ele>300.0</ele><time>2026-05-01T07:46:19.029Z</time></trkpt><trkpt lat="44.8738266" lon="9.6796449"><ele>300.0</ele><time>2026-05-01T07:46:21.032Z</time></trkpt><trkpt lat="44.8737592" lon="9.6796133"><ele>300.0</ele><time>2026-05-01T07:46:23.024Z</time></trkpt><trkpt lat="44.8736995" lon="9.6795841"><ele>300.0</ele><time>2026-05-01T07:46:25.036Z</time></trkpt><trkpt lat="44.8736157" lon="9.6795619"><ele>300.0</ele><time>2026-05-01T07:46:28.027Z</time></trkpt><trkpt lat="44.8735329" lon="9.6795121"><ele>300.0</ele><time>2026-05-01T07:46:31.029Z</time></trkpt><trkpt lat="44.8734583" lon="9.6794521"><ele>300.0</ele><time>2026-05-01T07:46:34.022Z</time></trkpt><trkpt lat="44.8733882" lon="9.6794071"><ele>300.5</ele><time>2026-05-01T07:46:37.029Z</time></trkpt><trkpt lat="44.8733149" lon="9.6793815"><ele>301.0</ele><time>2026-05-01T07:46:40.028Z</time></trkpt><trkpt lat="44.8732358" lon="9.6793665"><ele>301.5</ele><time>2026-05-01T07:46:43.025Z</time></trkpt><trkpt lat="44.8731485" lon="9.6793462"><ele>302.0</ele><time>2026-05-01T07:46:46.036Z</time></trkpt><trkpt lat="44.873078" lon="9.6793183"><ele>302.5</ele><time>2026-05-01T07:46:49.032Z</time></trkpt><trkpt lat="44.8729962" lon="9.6792862"><ele>303.0</ele><time>2026-05-01T07:46:52.028Z</time></trkpt><trkpt lat="44.8729094" lon="9.6792817"><ele>303.0</ele><time>2026-05-01T07:46:55.026Z</time></trkpt><trkpt lat="44.8728371" lon="9.679324"><ele>303.0</ele><time>2026-05-01T07:46:58.026Z</time></trkpt><trkpt lat="44.8727638" lon="9.6793564"><ele>303.0</ele><time>2026-05-01T07:47:01.027Z</time></trkpt><trkpt lat="44.8726802" lon="9.679355"><ele>303.0</ele><time>2026-05-01T07:47:04.024Z</time></trkpt><trkpt lat="44.8726053" lon="9.6793168"><ele>303.0</ele><time>2026-05-01T07:47:07.024Z</time></trkpt><trkpt lat="44.872532" lon="9.6792756"><ele>303.0</ele><time>2026-05-01T07:47:10.024Z</time></trkpt><trkpt lat="44.8724514" lon="9.6792381"><ele>304.3333333333333</ele><time>2026-05-01T07:47:13.02Z</time></trkpt><trkpt lat="44.8723778" lon="9.6792064"><ele>305.6666666666667</ele><time>2026-05-01T07:47:16.024Z</time></trkpt><trkpt lat="44.8723029" lon="9.6791837"><ele>307.0</ele><time>2026-05-01T07:47:19.013Z</time></trkpt><trkpt lat="44.8722217" lon="9.6791562"><ele>308.33333333333337</ele><time>2026-05-01T07:47:22.022Z</time></trkpt><trkpt lat="44.8721469" lon="9.6791474"><ele>309.6666666666667</ele><time>2026-05-01T07:47:25.019Z</time></trkpt><trkpt lat="44.8720723" lon="9.6791361"><ele>311.0</ele><time>2026-05-01T07:47:28.025Z</time></trkpt><trkpt lat="44.8720011" lon="9.6791225"><ele>311.0</ele><time>2026-05-01T07:47:31.014Z</time></trkpt><trkpt lat="44.8719293" lon="9.6790986"><ele>311.0</ele><time>2026-05-01T07:47:34.017Z</time></trkpt><trkpt lat="44.8718586" lon="9.6790771"><ele>311.0</ele><time>2026-05-01T07:47:37.034Z</time></trkpt><trkpt lat="44.8717834" lon="9.6790542"><ele>311.0</ele><time>2026-05-01T07:47:40.02Z</time></trkpt><trkpt lat="44.8717083" lon="9.6790283"><ele>311.0</ele><time>2026-05-01T07:47:43.026Z</time></trkpt><trkpt lat="44.8716413" lon="9.6790024"><ele>311.0</ele><time>2026-05-01T07:47:46.02Z</time></trkpt><trkpt lat="44.8715753" lon="9.6789657"><ele>311.0</ele><time>2026-05-01T07:47:49.029Z</time></trkpt><trkpt lat="44.8715235" lon="9.6788844"><ele>311.33333333333337</ele><time>2026-05-01T07:47:52.024Z</time></trkpt><trkpt lat="44.8715026" lon="9.6787813"><ele>311.6666666666667</ele><time>2026-05-01T07:47:55.028Z</time></trkpt><trkpt lat="44.871494" lon="9.6786756"><ele>312.0</ele><time>2026-05-01T07:47:58.026Z</time></trkpt><trkpt lat="44.8714758" lon="9.6785747"><ele>312.3333333333333</ele><time>2026-05-01T07:48:01.026Z</time></trkpt><trkpt lat="44.871448" lon="9.6784695"><ele>312.66666666666663</ele><time>2026-05-01T07:48:04.029Z</time></trkpt><trkpt lat="44.8713889" lon="9.6783795"><ele>313.0</ele><time>2026-05-01T07:48:07.021Z</time></trkpt><trkpt lat="44.8713167" lon="9.678312"><ele>313.3333333333333</ele><time>2026-05-01T07:48:10.02Z</time></trkpt><trkpt lat="44.8712438" lon="9.6782614"><ele>313.66666666666663</ele><time>2026-05-01T07:48:13.031Z</time></trkpt><trkpt lat="44.8711606" lon="9.6782367"><ele>314.0</ele><time>2026-05-01T07:48:16.028Z</time></trkpt><trkpt lat="44.8710805" lon="9.6782318"><ele>314.3333333333333</ele><time>2026-05-01T07:48:19.013Z</time></trkpt><trkpt lat="44.8710006" lon="9.6782336"><ele>314.6666666666667</ele><time>2026-05-01T07:48:22.009Z</time></trkpt><trkpt lat="44.8709266" lon="9.6782308"><ele>315.0</ele><time>2026-05-01T07:48:25.033Z</time></trkpt><trkpt lat="44.8708454" lon="9.6782224"><ele>315.6666666666667</ele><time>2026-05-01T07:48:28.021Z</time></trkpt><trkpt lat="44.8707622" lon="9.678223"><ele>316.3333333333333</ele><time>2026-05-01T07:48:31.018Z</time></trkpt><trkpt lat="44.8706788" lon="9.6782142"><ele>317.0</ele><time>2026-05-01T07:48:34.028Z</time></trkpt><trkpt lat="44.8706028" lon="9.6781997"><ele>317.66666666666663</ele><time>2026-05-01T07:48:37.028Z</time></trkpt><trkpt lat="44.8705252" lon="9.6781915"><ele>318.3333333333333</ele><time>2026-05-01T07:48:40.029Z</time></trkpt><trkpt lat="44.8704443" lon="9.678176"><ele>319.0</ele><time>2026-05-01T07:48:43.024Z</time></trkpt><trkpt lat="44.8703673" lon="9.6781588"><ele>319.0</ele><time>2026-05-01T07:48:46.028Z</time></trkpt><trkpt lat="44.8702911" lon="9.6780996"><ele>319.0</ele><time>2026-05-01T07:48:49.021Z</time></trkpt><trkpt lat="44.8702407" lon="9.6780356"><ele>319.0</ele><time>2026-05-01T07:48:51.017Z</time></trkpt><trkpt lat="44.8701801" lon="9.6779535"><ele>319.0</ele><time>2026-05-01T07:48:54.012Z</time></trkpt><trkpt lat="44.8701188" lon="9.6778739"><ele>319.0</ele><time>2026-05-01T07:48:57.03Z</time></trkpt><trkpt lat="44.8700513" lon="9.6778131"><ele>319.0</ele><time>2026-05-01T07:49:00.027Z</time></trkpt><trkpt lat="44.8699719" lon="9.6777587"><ele>319.16666666666663</ele><time>2026-05-01T07:49:03.035Z</time></trkpt><trkpt lat="44.8698994" lon="9.6777057"><ele>319.3333333333333</ele><time>2026-05-01T07:49:06.015Z</time></trkpt><trkpt lat="44.8698205" lon="9.6776599"><ele>319.5</ele><time>2026-05-01T07:49:09.027Z</time></trkpt><trkpt lat="44.8697488" lon="9.6776046"><ele>319.6666666666667</ele><time>2026-05-01T07:49:12.024Z</time></trkpt><trkpt lat="44.8696721" lon="9.6775542"><ele>319.83333333333337</ele><time>2026-05-01T07:49:15.027Z</time></trkpt><trkpt lat="44.8695943" lon="9.677513"><ele>320.0</ele><time>2026-05-01T07:49:18.013Z</time></trkpt><trkpt lat="44.8695115" lon="9.6774635"><ele>320.0</ele><time>2026-05-01T07:49:21.027Z</time></trkpt><trkpt lat="44.8694277" lon="9.6774043"><ele>320.0</ele><time>2026-05-01T07:49:24.032Z</time></trkpt><trkpt lat="44.8693553" lon="9.6773313"><ele>320.0</ele><time>2026-05-01T07:49:27.038Z</time></trkpt><trkpt lat="44.8692787" lon="9.6772662"><ele>320.0</ele><time>2026-05-01T07:49:30.026Z</time></trkpt><trkpt lat="44.8691991" lon="9.6772354"><ele>320.0</ele><time>2026-05-01T07:49:33.02Z</time></trkpt><trkpt lat="44.8691441" lon="9.6773347"><ele>320.0</ele><time>2026-05-01T07:49:37.015Z</time></trkpt><trkpt lat="44.8691009" lon="9.6774185"><ele>320.85714285714283</ele><time>2026-05-01T07:49:40.022Z</time></trkpt><trkpt lat="44.8690419" lon="9.6774627"><ele>321.7142857142857</ele><time>2026-05-01T07:49:43.021Z</time></trkpt><trkpt lat="44.8689776" lon="9.6775006"><ele>322.57142857142856</ele><time>2026-05-01T07:50:34.028Z</time></trkpt><trkpt lat="44.8689128" lon="9.6775238"><ele>323.42857142857144</ele><time>2026-05-01T07:50:37.022Z</time></trkpt><trkpt lat="44.8688238" lon="9.6775395"><ele>324.2857142857143</ele><time>2026-05-01T07:50:40.031Z</time></trkpt><trkpt lat="44.8687485" lon="9.6775178"><ele>325.14285714285717</ele><time>2026-05-01T07:50:42.021Z</time></trkpt><trkpt lat="44.8686803" lon="9.6774911"><ele>326.0</ele><time>2026-05-01T07:50:44.023Z</time></trkpt><trkpt lat="44.8686172" lon="9.6774512"><ele>326.0</ele><time>2026-05-01T07:50:46.023Z</time></trkpt><trkpt lat="44.8685513" lon="9.6774073"><ele>326.0</ele><time>2026-05-01T07:50:48.043Z</time></trkpt><trkpt lat="44.8684805" lon="9.6773567"><ele>326.0</ele><time>2026-05-01T07:50:50.024Z</time></trkpt><trkpt lat="44.8684143" lon="9.6773175"><ele>326.0</ele><time>2026-05-01T07:50:52.015Z</time></trkpt><trkpt lat="44.8683351" lon="9.6772964"><ele>326.0</ele><time>2026-05-01T07:50:54.02Z</time></trkpt><trkpt lat="44.8682668" lon="9.6772857"><ele>326.0</ele><time>2026-05-01T07:50:56.038Z</time></trkpt><trkpt lat="44.8682039" lon="9.6772802"><ele>326.0</ele><time>2026-05-01T07:50:58.029Z</time></trkpt><trkpt lat="44.8681307" lon="9.6772809"><ele>325.6666666666667</ele><time>2026-05-01T07:51:00.025Z</time></trkpt><trkpt lat="44.8680534" lon="9.6773062"><ele>325.33333333333337</ele><time>2026-05-01T07:51:02.034Z</time></trkpt><trkpt lat="44.867973" lon="9.6773364"><ele>325.0</ele><time>2026-05-01T07:51:04.019Z</time></trkpt><trkpt lat="44.8679024" lon="9.6773834"><ele>324.6666666666667</ele><time>2026-05-01T07:51:06.036Z</time></trkpt><trkpt lat="44.8678403" lon="9.6774451"><ele>324.3333333333333</ele><time>2026-05-01T07:51:08.031Z</time></trkpt><trkpt lat="44.8677798" lon="9.677508"><ele>324.0</ele><time>2026-05-01T07:51:10.028Z</time></trkpt><trkpt lat="44.8677239" lon="9.6775685"><ele>324.0</ele><time>2026-05-01T07:51:12.025Z</time></trkpt><trkpt lat="44.867666" lon="9.6776288"><ele>324.0</ele><time>2026-05-01T07:51:14.038Z</time></trkpt><trkpt lat="44.8676043" lon="9.6776911"><ele>324.0</ele><time>2026-05-01T07:51:16.018Z</time></trkpt><trkpt lat="44.8675392" lon="9.6777648"><ele>324.0</ele><time>2026-05-01T07:51:18.026Z</time></trkpt><trkpt lat="44.8674688" lon="9.6778343"><ele>324.0</ele><time>2026-05-01T07:51:20.034Z</time></trkpt><trkpt lat="44.8674168" lon="9.6778888"><ele>324.0</ele><time>2026-05-01T07:51:22.037Z</time></trkpt><trkpt lat="44.8673402" lon="9.6779579"><ele>324.0</ele><time>2026-05-01T07:51:25.013Z</time></trkpt><trkpt lat="44.8672857" lon="9.678007"><ele>324.0</ele><time>2026-05-01T07:51:27.035Z</time></trkpt><trkpt lat="44.8672287" lon="9.6780615"><ele>324.0</ele><time>2026-05-01T07:51:29.021Z</time></trkpt><trkpt lat="44.8671531" lon="9.6781197"><ele>324.0</ele><time>2026-05-01T07:51:31.03Z</time></trkpt><trkpt lat="44.8670689" lon="9.6781762"><ele>324.0</ele><time>2026-05-01T07:51:32.997Z</time></trkpt><trkpt lat="44.8669785" lon="9.6782103"><ele>324.0</ele><time>2026-05-01T07:51:34.997Z</time></trkpt><trkpt lat="44.8668756" lon="9.6782332"><ele>323.6</ele><time>2026-05-01T07:51:37.001Z</time></trkpt><trkpt lat="44.8667622" lon="9.6782133"><ele>323.2</ele><time>2026-05-01T07:51:38.994Z</time></trkpt><trkpt lat="44.8666484" lon="9.6781753"><ele>322.8</ele><time>2026-05-01T07:51:41.006Z</time></trkpt><trkpt lat="44.8665495" lon="9.6781202"><ele>322.40000000000003</ele><time>2026-05-01T07:51:43.016Z</time></trkpt><trkpt lat="44.8664521" lon="9.6780725"><ele>322.0</ele><time>2026-05-01T07:51:45.018Z</time></trkpt><trkpt lat="44.8663653" lon="9.6780307"><ele>322.0</ele><time>2026-05-01T07:51:47.016Z</time></trkpt><trkpt lat="44.866294" lon="9.6780129"><ele>322.0</ele><time>2026-05-01T07:51:49.021Z</time></trkpt><trkpt lat="44.866227" lon="9.6780087"><ele>322.0</ele><time>2026-05-01T07:51:51.017Z</time></trkpt><trkpt lat="44.8661565" lon="9.6780025"><ele>322.0</ele><time>2026-05-01T07:51:53.028Z</time></trkpt><trkpt lat="44.8660714" lon="9.6780064"><ele>322.0</ele><time>2026-05-01T07:51:55.019Z</time></trkpt><trkpt lat="44.8659828" lon="9.6779948"><ele>322.0</ele><time>2026-05-01T07:51:57.016Z</time></trkpt><trkpt lat="44.8659015" lon="9.6779713"><ele>321.66666666666663</ele><time>2026-05-01T07:51:59.023Z</time></trkpt><trkpt lat="44.8658188" lon="9.6779415"><ele>321.3333333333333</ele><time>2026-05-01T07:52:01.027Z</time></trkpt><trkpt lat="44.8657485" lon="9.6779126"><ele>321.0</ele><time>2026-05-01T07:52:03.023Z</time></trkpt><trkpt lat="44.8656791" lon="9.6778885"><ele>320.6666666666667</ele><time>2026-05-01T07:52:05.028Z</time></trkpt><trkpt lat="44.865607" lon="9.677876"><ele>320.33333333333337</ele><time>2026-05-01T07:52:07.024Z</time></trkpt><trkpt lat="44.8655264" lon="9.6778643"><ele>320.0</ele><time>2026-05-01T07:52:09.023Z</time></trkpt><trkpt lat="44.8654621" lon="9.6778294"><ele>320.0</ele><time>2026-05-01T07:52:11.008Z</time></trkpt><trkpt lat="44.8653953" lon="9.6777866"><ele>320.0</ele><time>2026-05-01T07:52:13.032Z</time></trkpt><trkpt lat="44.865311" lon="9.6777482"><ele>320.0</ele><time>2026-05-01T07:52:15.023Z</time></trkpt><trkpt lat="44.8652273" lon="9.677699"><ele>320.0</ele><time>2026-05-01T07:52:17.024Z</time></trkpt><trkpt lat="44.8651374" lon="9.6776548"><ele>320.0</ele><time>2026-05-01T07:52:19.032Z</time></trkpt><trkpt lat="44.8650466" lon="9.6776315"><ele>320.0</ele><time>2026-05-01T07:52:21.011Z</time></trkpt><trkpt lat="44.8649601" lon="9.6776326"><ele>320.6666666666667</ele><time>2026-05-01T07:52:23.026Z</time></trkpt><trkpt lat="44.8648745" lon="9.6776021"><ele>321.33333333333337</ele><time>2026-05-01T07:52:25.029Z</time></trkpt><trkpt lat="44.8648095" lon="9.677547"><ele>322.0</ele><time>2026-05-01T07:52:27.017Z</time></trkpt><trkpt lat="44.8647416" lon="9.6775001"><ele>322.6666666666667</ele><time>2026-05-01T07:52:29.012Z</time></trkpt><trkpt lat="44.8646699" lon="9.6774582"><ele>323.3333333333333</ele><time>2026-05-01T07:52:32.024Z</time></trkpt><trkpt lat="44.8645902" lon="9.6774463"><ele>324.0</ele><time>2026-05-01T07:52:36.003Z</time></trkpt><trkpt lat="44.8645232" lon="9.677469"><ele>324.0</ele><time>2026-05-01T07:52:39.024Z</time></trkpt><trkpt lat="44.8644531" lon="9.6774881"><ele>324.0</ele><time>2026-05-01T07:52:42.008Z</time></trkpt><trkpt lat="44.8643918" lon="9.6775132"><ele>324.0</ele><time>2026-05-01T07:52:47.025Z</time></trkpt><trkpt lat="44.8643242" lon="9.6775369"><ele>324.0</ele><time>2026-05-01T07:53:05.019Z</time></trkpt><trkpt lat="44.8642337" lon="9.6775579"><ele>324.0</ele><time>2026-05-01T07:53:28.03Z</time></trkpt><trkpt lat="44.8641704" lon="9.6775701"><ele>324.0</ele><time>2026-05-01T07:53:33.021Z</time></trkpt><trkpt lat="44.8640907" lon="9.6775825"><ele>324.0</ele><time>2026-05-01T07:53:38.023Z</time></trkpt><trkpt lat="44.8640111" lon="9.6775727"><ele>324.14285714285717</ele><time>2026-05-01T07:53:42.022Z</time></trkpt><trkpt lat="44.863946" lon="9.6775586"><ele>324.2857142857143</ele><time>2026-05-01T07:53:45.015Z</time></trkpt><trkpt lat="44.8638675" lon="9.6775421"><ele>324.42857142857144</ele><time>2026-05-01T07:53:49.02Z</time></trkpt><trkpt lat="44.8638038" lon="9.6775186"><ele>324.57142857142856</ele><time>2026-05-01T07:53:52.031Z</time></trkpt><trkpt lat="44.863739" lon="9.6775147"><ele>324.7142857142857</ele><time>2026-05-01T07:53:56.016Z</time></trkpt><trkpt lat="44.8636572" lon="9.677543"><ele>324.85714285714283</ele><time>2026-05-01T07:54:00.023Z</time></trkpt><trkpt lat="44.8635984" lon="9.6775809"><ele>325.0</ele><time>2026-05-01T07:54:03.026Z</time></trkpt><trkpt lat="44.863544" lon="9.6776308"><ele>325.0</ele><time>2026-05-01T07:54:06.017Z</time></trkpt><trkpt lat="44.8634834" lon="9.6777083"><ele>325.0</ele><time>2026-05-01T07:54:10.023Z</time></trkpt><trkpt lat="44.863428" lon="9.6777638"><ele>325.0</ele><time>2026-05-01T07:54:14.006Z</time></trkpt><trkpt lat="44.8633671" lon="9.6777959"><ele>325.0</ele><time>2026-05-01T07:54:17.023Z</time></trkpt><trkpt lat="44.8632962" lon="9.6778286"><ele>325.0</ele><time>2026-05-01T07:54:21.029Z</time></trkpt><trkpt lat="44.8632192" lon="9.6778537"><ele>325.0</ele><time>2026-05-01T07:54:25.027Z</time></trkpt><trkpt lat="44.8631583" lon="9.6778793"><ele>325.0</ele><time>2026-05-01T07:54:28.035Z</time></trkpt><trkpt lat="44.8631032" lon="9.6779611"><ele>326.66666666666663</ele><time>2026-05-01T07:54:32.025Z</time></trkpt><trkpt lat="44.8631177" lon="9.6780713"><ele>328.3333333333333</ele><time>2026-05-01T07:54:36.012Z</time></trkpt><trkpt lat="44.8631569" lon="9.6781689"><ele>330.0</ele><time>2026-05-01T07:54:40.008Z</time></trkpt><trkpt lat="44.8631938" lon="9.6782754"><ele>331.6666666666667</ele><time>2026-05-01T07:54:44.025Z</time></trkpt><trkpt lat="44.8632172" lon="9.6783907"><ele>333.33333333333337</ele><time>2026-05-01T07:54:48.026Z</time></trkpt><trkpt lat="44.8632365" lon="9.6785039"><ele>335.0</ele><time>2026-05-01T07:54:52.023Z</time></trkpt><trkpt lat="44.8632573" lon="9.6786144"><ele>336.0</ele><time>2026-05-01T07:54:56.027Z</time></trkpt><trkpt lat="44.86327" lon="9.6787254"><ele>337.0</ele><time>2026-05-01T07:55:00.018Z</time></trkpt><trkpt lat="44.863285" lon="9.6788303"><ele>338.0</ele><time>2026-05-01T07:55:04.036Z</time></trkpt><trkpt lat="44.8632951" lon="9.6789245"><ele>339.0</ele><time>2026-05-01T07:55:07.017Z</time></trkpt><trkpt lat="44.8633114" lon="9.6790419"><ele>340.0</ele><time>2026-05-01T07:55:11.017Z</time></trkpt><trkpt lat="44.8633217" lon="9.67914"><ele>341.0</ele><time>2026-05-01T07:55:14.027Z</time></trkpt><trkpt lat="44.8633346" lon="9.6792458"><ele>341.0</ele><time>2026-05-01T07:55:18.019Z</time></trkpt><trkpt lat="44.863353" lon="9.679344"><ele>341.0</ele><time>2026-05-01T07:55:22.001Z</time></trkpt><trkpt lat="44.8633596" lon="9.6794463"><ele>341.0</ele><time>2026-05-01T07:55:25.017Z</time></trkpt><trkpt lat="44.8633707" lon="9.6795426"><ele>341.0</ele><time>2026-05-01T07:55:28.034Z</time></trkpt><trkpt lat="44.8633729" lon="9.6796606"><ele>341.0</ele><time>2026-05-01T07:55:32.032Z</time></trkpt><trkpt lat="44.8633604" lon="9.6797501"><ele>341.0</ele><time>2026-05-01T07:55:35.023Z</time></trkpt><trkpt lat="44.8633286" lon="9.6798486"><ele>341.0</ele><time>2026-05-01T07:55:39.023Z</time></trkpt><trkpt lat="44.8632972" lon="9.6799266"><ele>341.0</ele><time>2026-05-01T07:55:42.034Z</time></trkpt><trkpt lat="44.8632638" lon="9.6800074"><ele>341.0</ele><time>2026-05-01T07:55:45.027Z</time></trkpt><trkpt lat="44.8632296" lon="9.6800866"><ele>341.0</ele><time>2026-05-01T07:55:48.018Z</time></trkpt><trkpt lat="44.8631965" lon="9.6801696"><ele>341.0</ele><time>2026-05-01T07:55:51.028Z</time></trkpt><trkpt lat="44.863151" lon="9.6802627"><ele>341.0</ele><time>2026-05-01T07:55:55.025Z</time></trkpt><trkpt lat="44.8631085" lon="9.6803478"><ele>341.0</ele><time>2026-05-01T07:55:59.033Z</time></trkpt><trkpt lat="44.8630592" lon="9.6804492"><ele>341.0</ele><time>2026-05-01T07:56:03.002Z</time></trkpt><trkpt lat="44.8630133" lon="9.6805243"><ele>341.0</ele><time>2026-05-01T07:56:06.012Z</time></trkpt><trkpt lat="44.8629646" lon="9.6805912"><ele>341.0</ele><time>2026-05-01T07:56:09.035Z</time></trkpt><trkpt lat="44.8629189" lon="9.680661"><ele>341.0</ele><time>2026-05-01T07:56:12.022Z</time></trkpt><trkpt lat="44.8628753" lon="9.6807312"><ele>341.0</ele><time>2026-05-01T07:56:15.027Z</time></trkpt><trkpt lat="44.8628241" lon="9.6808185"><ele>341.0</ele><time>2026-05-01T07:56:19.021Z</time></trkpt><trkpt lat="44.862778" lon="9.6808908"><ele>341.0</ele><time>2026-05-01T07:56:22.031Z</time></trkpt><trkpt lat="44.8627263" lon="9.6809747"><ele>341.0</ele><time>2026-05-01T07:56:25.014Z</time></trkpt><trkpt lat="44.8626621" lon="9.6810637"><ele>341.0</ele><time>2026-05-01T07:56:28.028Z</time></trkpt><trkpt lat="44.8626178" lon="9.6811274"><ele>341.0</ele><time>2026-05-01T07:56:30.028Z</time></trkpt><trkpt lat="44.8625612" lon="9.6812006"><ele>341.0</ele><time>2026-05-01T07:56:33.011Z</time></trkpt><trkpt lat="44.8625023" lon="9.6812695"><ele>341.0</ele><time>2026-05-01T07:56:36.03Z</time></trkpt><trkpt lat="44.8624518" lon="9.6813625"><ele>341.0</ele><time>2026-05-01T07:56:39.023Z</time></trkpt><trkpt lat="44.8624468" lon="9.6814761"><ele>341.0</ele><time>2026-05-01T07:56:42.022Z</time></trkpt><trkpt lat="44.8625026" lon="9.6815481"><ele>341.0</ele><time>2026-05-01T07:56:44.025Z</time></trkpt><trkpt lat="44.8625789" lon="9.6816393"><ele>341.0</ele><time>2026-05-01T07:56:46.032Z</time></trkpt><trkpt lat="44.8626549" lon="9.6817448"><ele>341.0</ele><time>2026-05-01T07:56:48.03Z</time></trkpt><trkpt lat="44.8627337" lon="9.6818583"><ele>341.0</ele><time>2026-05-01T07:56:50.031Z</time></trkpt><trkpt lat="44.862818" lon="9.6819769"><ele>341.0</ele><time>2026-05-01T07:56:52.028Z</time></trkpt><trkpt lat="44.8628648" lon="9.6820433"><ele>339.5</ele><time>2026-05-01T07:56:53.032Z</time></trkpt><trkpt lat="44.8629148" lon="9.6821132"><ele>338.0</ele><time>2026-05-01T07:56:54.029Z</time></trkpt><trkpt lat="44.8629671" lon="9.6821879"><ele>336.5</ele><time>2026-05-01T07:56:55.039Z</time></trkpt><trkpt lat="44.8630217" lon="9.6822679"><ele>335.0</ele><time>2026-05-01T07:56:56.027Z</time></trkpt><trkpt lat="44.8630793" lon="9.6823499"><ele>333.5</ele><time>2026-05-01T07:56:57.024Z</time></trkpt><trkpt lat="44.8631418" lon="9.682429"><ele>332.0</ele><time>2026-05-01T07:56:58.032Z</time></trkpt><trkpt lat="44.8632016" lon="9.6825127"><ele>332.0</ele><time>2026-05-01T07:56:59.04Z</time></trkpt><trkpt lat="44.8632579" lon="9.6825975"><ele>332.0</ele><time>2026-05-01T07:57:00.014Z</time></trkpt><trkpt lat="44.8633225" lon="9.6826745"><ele>332.0</ele><time>2026-05-01T07:57:01.036Z</time></trkpt><trkpt lat="44.8633881" lon="9.6827563"><ele>332.0</ele><time>2026-05-01T07:57:02.026Z</time></trkpt><trkpt lat="44.8634526" lon="9.6828426"><ele>332.0</ele><time>2026-05-01T07:57:03.033Z</time></trkpt><trkpt lat="44.8635153" lon="9.682929"><ele>332.0</ele><time>2026-05-01T07:57:04.029Z</time></trkpt><trkpt lat="44.8635836" lon="9.6830209"><ele>331.0</ele><time>2026-05-01T07:57:05.01Z</time></trkpt><trkpt lat="44.8636547" lon="9.6831091"><ele>330.0</ele><time>2026-05-01T07:57:06.028Z</time></trkpt><trkpt lat="44.8637227" lon="9.6832041"><ele>329.0</ele><time>2026-05-01T07:57:07.033Z</time></trkpt><trkpt lat="44.8637916" lon="9.6833008"><ele>328.0</ele><time>2026-05-01T07:57:08.029Z</time></trkpt><trkpt lat="44.8638643" lon="9.6833939"><ele>327.0</ele><time>2026-05-01T07:57:09.036Z</time></trkpt><trkpt lat="44.8639272" lon="9.6834819"><ele>327.0</ele><time>2026-05-01T07:57:10.019Z</time></trkpt><trkpt lat="44.8639888" lon="9.6835634"><ele>327.0</ele><time>2026-05-01T07:57:11.034Z</time></trkpt><trkpt lat="44.8640513" lon="9.6836391"><ele>327.0</ele><time>2026-05-01T07:57:12.039Z</time></trkpt><trkpt lat="44.8641156" lon="9.6837149"><ele>327.0</ele><time>2026-05-01T07:57:13.04Z</time></trkpt><trkpt lat="44.8641786" lon="9.6837961"><ele>327.0</ele><time>2026-05-01T07:57:14.006Z</time></trkpt><trkpt lat="44.8642337" lon="9.683872"><ele>327.0</ele><time>2026-05-01T07:57:15.028Z</time></trkpt><trkpt lat="44.8642687" lon="9.6839607"><ele>326.5</ele><time>2026-05-01T07:57:16.033Z</time></trkpt><trkpt lat="44.8642838" lon="9.6840622"><ele>326.0</ele><time>2026-05-01T07:57:17.028Z</time></trkpt><trkpt lat="44.8642604" lon="9.684178"><ele>325.5</ele><time>2026-05-01T07:57:18.024Z</time></trkpt><trkpt lat="44.8642118" lon="9.6842657"><ele>325.0</ele><time>2026-05-01T07:57:19.035Z</time></trkpt><trkpt lat="44.8641442" lon="9.6843497"><ele>324.5</ele><time>2026-05-01T07:57:20.024Z</time></trkpt><trkpt lat="44.864086" lon="9.6844233"><ele>324.0</ele><time>2026-05-01T07:57:21.021Z</time></trkpt><trkpt lat="44.86403" lon="9.6845014"><ele>323.3333333333333</ele><time>2026-05-01T07:57:22.029Z</time></trkpt><trkpt lat="44.8639741" lon="9.6845698"><ele>322.6666666666667</ele><time>2026-05-01T07:57:23.037Z</time></trkpt><trkpt lat="44.8639268" lon="9.684659"><ele>322.0</ele><time>2026-05-01T07:57:24.033Z</time></trkpt><trkpt lat="44.8639021" lon="9.6847558"><ele>321.33333333333337</ele><time>2026-05-01T07:57:25.018Z</time></trkpt><trkpt lat="44.8639071" lon="9.6848605"><ele>320.6666666666667</ele><time>2026-05-01T07:57:26.037Z</time></trkpt><trkpt lat="44.8639827" lon="9.6850051"><ele>320.0</ele><time>2026-05-01T07:57:28.029Z</time></trkpt><trkpt lat="44.864072" lon="9.6851128"><ele>320.0</ele><time>2026-05-01T07:57:30.034Z</time></trkpt><trkpt lat="44.864148" lon="9.685222"><ele>320.0</ele><time>2026-05-01T07:57:32.032Z</time></trkpt><trkpt lat="44.8642365" lon="9.6853376"><ele>320.0</ele><time>2026-05-01T07:57:34.036Z</time></trkpt><trkpt lat="44.8643284" lon="9.6854531"><ele>320.0</ele><time>2026-05-01T07:57:36.016Z</time></trkpt><trkpt lat="44.8643782" lon="9.6855182"><ele>320.0</ele><time>2026-05-01T07:57:37.016Z</time></trkpt><trkpt lat="44.8644767" lon="9.6856287"><ele>318.83333333333337</ele><time>2026-05-01T07:57:39.023Z</time></trkpt><trkpt lat="44.864528" lon="9.6856849"><ele>317.6666666666667</ele><time>2026-05-01T07:57:40.011Z</time></trkpt><trkpt lat="44.8645843" lon="9.6857444"><ele>316.5</ele><time>2026-05-01T07:57:41.008Z</time></trkpt><trkpt lat="44.8646422" lon="9.6858073"><ele>315.3333333333333</ele><time>2026-05-01T07:57:42.004Z</time></trkpt><trkpt lat="44.8647031" lon="9.6858766"><ele>314.16666666666663</ele><time>2026-05-01T07:57:43.013Z</time></trkpt><trkpt lat="44.8647668" lon="9.6859473"><ele>313.0</ele><time>2026-05-01T07:57:44.036Z</time></trkpt><trkpt lat="44.8648307" lon="9.686025"><ele>312.2</ele><time>2026-05-01T07:57:45.034Z</time></trkpt><trkpt lat="44.8648839" lon="9.6861229"><ele>311.4</ele><time>2026-05-01T07:57:46.03Z</time></trkpt><trkpt lat="44.8649294" lon="9.6862395"><ele>310.59999999999997</ele><time>2026-05-01T07:57:47.018Z</time></trkpt><trkpt lat="44.8649677" lon="9.6863654"><ele>309.8</ele><time>2026-05-01T07:57:48.034Z</time></trkpt><trkpt lat="44.8650017" lon="9.6864966"><ele>309.0</ele><time>2026-05-01T07:57:49.028Z</time></trkpt><trkpt lat="44.865036" lon="9.6866226"><ele>309.0</ele><time>2026-05-01T07:57:50.009Z</time></trkpt><trkpt lat="44.8650796" lon="9.6867557"><ele>309.0</ele><time>2026-05-01T07:57:51.016Z</time></trkpt><trkpt lat="44.8651228" lon="9.6868775"><ele>309.0</ele><time>2026-05-01T07:57:52.021Z</time></trkpt><trkpt lat="44.8651674" lon="9.6870071"><ele>309.0</ele><time>2026-05-01T07:57:53.034Z</time></trkpt><trkpt lat="44.8652138" lon="9.6871306"><ele>309.0</ele><time>2026-05-01T07:57:54.034Z</time></trkpt><trkpt lat="44.8652729" lon="9.6872523"><ele>307.59999999999997</ele><time>2026-05-01T07:57:55.034Z</time></trkpt><trkpt lat="44.8653422" lon="9.6873682"><ele>306.2</ele><time>2026-05-01T07:57:56.038Z</time></trkpt><trkpt lat="44.865415" lon="9.6874818"><ele>304.79999999999995</ele><time>2026-05-01T07:57:57.023Z</time></trkpt><trkpt lat="44.8654871" lon="9.6876036"><ele>303.4</ele><time>2026-05-01T07:57:58.027Z</time></trkpt><trkpt lat="44.8655606" lon="9.687726"><ele>302.0</ele><time>2026-05-01T07:57:59.031Z</time></trkpt><trkpt lat="44.8656331" lon="9.6878485"><ele>301.6666666666667</ele><time>2026-05-01T07:58:00.048Z</time></trkpt><trkpt lat="44.8657102" lon="9.6879619"><ele>301.33333333333337</ele><time>2026-05-01T07:58:01.034Z</time></trkpt><trkpt lat="44.865788" lon="9.6880521"><ele>301.0</ele><time>2026-05-01T07:58:02.012Z</time></trkpt><trkpt lat="44.8658583" lon="9.6881295"><ele>300.6666666666667</ele><time>2026-05-01T07:58:03.04Z</time></trkpt><trkpt lat="44.8659199" lon="9.6881914"><ele>300.3333333333333</ele><time>2026-05-01T07:58:04.019Z</time></trkpt><trkpt lat="44.8659715" lon="9.6882532"><ele>300.0</ele><time>2026-05-01T07:58:05.031Z</time></trkpt><trkpt lat="44.8660471" lon="9.6883667"><ele>300.0</ele><time>2026-05-01T07:58:07.012Z</time></trkpt><trkpt lat="44.8661127" lon="9.6884574"><ele>300.0</ele><time>2026-05-01T07:58:09Z</time></trkpt><trkpt lat="44.8661749" lon="9.6885496"><ele>300.0</ele><time>2026-05-01T07:58:11.036Z</time></trkpt><trkpt lat="44.8662407" lon="9.6886347"><ele>300.0</ele><time>2026-05-01T07:58:13.018Z</time></trkpt><trkpt lat="44.866311" lon="9.688743"><ele>300.0</ele><time>2026-05-01T07:58:15.012Z</time></trkpt><trkpt lat="44.8663956" lon="9.6888368"><ele>299.4</ele><time>2026-05-01T07:58:17.021Z</time></trkpt><trkpt lat="44.8664848" lon="9.6889375"><ele>298.8</ele><time>2026-05-01T07:58:19.008Z</time></trkpt><trkpt lat="44.8665685" lon="9.6890414"><ele>298.2</ele><time>2026-05-01T07:58:21.031Z</time></trkpt><trkpt lat="44.8666464" lon="9.6891331"><ele>297.6</ele><time>2026-05-01T07:58:23.031Z</time></trkpt><trkpt lat="44.8667318" lon="9.6892335"><ele>297.0</ele><time>2026-05-01T07:58:25.035Z</time></trkpt><trkpt lat="44.8668187" lon="9.6893475"><ele>297.5</ele><time>2026-05-01T07:58:27.027Z</time></trkpt><trkpt lat="44.8668984" lon="9.6894667"><ele>298.0</ele><time>2026-05-01T07:58:29.019Z</time></trkpt><trkpt lat="44.86698" lon="9.6895739"><ele>298.5</ele><time>2026-05-01T07:58:31.028Z</time></trkpt><trkpt lat="44.8670576" lon="9.6896888"><ele>299.0</ele><time>2026-05-01T07:58:33.019Z</time></trkpt><trkpt lat="44.8671417" lon="9.6898034"><ele>299.0</ele><time>2026-05-01T07:58:35.043Z</time></trkpt><trkpt lat="44.8671857" lon="9.6898696"><ele>299.0</ele><time>2026-05-01T07:58:36.035Z</time></trkpt><trkpt lat="44.8672364" lon="9.6899312"><ele>299.0</ele><time>2026-05-01T07:58:37.034Z</time></trkpt><trkpt lat="44.8672848" lon="9.6900021"><ele>299.0</ele><time>2026-05-01T07:58:38.045Z</time></trkpt><trkpt lat="44.8673367" lon="9.6900728"><ele>299.0</ele><time>2026-05-01T07:58:39.035Z</time></trkpt><trkpt lat="44.8673902" lon="9.6901494"><ele>299.0</ele><time>2026-05-01T07:58:40.02Z</time></trkpt><trkpt lat="44.867446" lon="9.6902218"><ele>299.0</ele><time>2026-05-01T07:58:41.018Z</time></trkpt><trkpt lat="44.8675" lon="9.6902934"><ele>298.1666666666667</ele><time>2026-05-01T07:58:42.039Z</time></trkpt><trkpt lat="44.8675528" lon="9.6903741"><ele>297.33333333333337</ele><time>2026-05-01T07:58:43.02Z</time></trkpt><trkpt lat="44.8676169" lon="9.6904614"><ele>296.5</ele><time>2026-05-01T07:58:44.037Z</time></trkpt><trkpt lat="44.8676771" lon="9.6905529"><ele>295.6666666666667</ele><time>2026-05-01T07:58:45.046Z</time></trkpt><trkpt lat="44.8677368" lon="9.690644"><ele>294.8333333333333</ele><time>2026-05-01T07:58:46.021Z</time></trkpt><trkpt lat="44.8677971" lon="9.6907339"><ele>294.0</ele><time>2026-05-01T07:58:47.036Z</time></trkpt><trkpt lat="44.8678595" lon="9.6908223"><ele>293.8333333333333</ele><time>2026-05-01T07:58:48.036Z</time></trkpt><trkpt lat="44.8679202" lon="9.6909052"><ele>293.6666666666667</ele><time>2026-05-01T07:58:49.032Z</time></trkpt><trkpt lat="44.8679779" lon="9.6909857"><ele>293.5</ele><time>2026-05-01T07:58:50.032Z</time></trkpt><trkpt lat="44.8680319" lon="9.6910679"><ele>293.33333333333337</ele><time>2026-05-01T07:58:51.033Z</time></trkpt><trkpt lat="44.8680847" lon="9.6911373"><ele>293.1666666666667</ele><time>2026-05-01T07:58:52.029Z</time></trkpt><trkpt lat="44.8681427" lon="9.6912004"><ele>293.0</ele><time>2026-05-01T07:58:53.031Z</time></trkpt><trkpt lat="44.8682005" lon="9.6912652"><ele>293.6666666666667</ele><time>2026-05-01T07:58:54.033Z</time></trkpt><trkpt lat="44.8682558" lon="9.6913115"><ele>294.33333333333337</ele><time>2026-05-01T07:58:55.03Z</time></trkpt><trkpt lat="44.8683549" lon="9.6914104"><ele>295.0</ele><time>2026-05-01T07:58:57.035Z</time></trkpt><trkpt lat="44.8684603" lon="9.6914988"><ele>295.6666666666667</ele><time>2026-05-01T07:58:59.028Z</time></trkpt><trkpt lat="44.8685209" lon="9.6915383"><ele>296.3333333333333</ele><time>2026-05-01T07:59:00.029Z</time></trkpt><trkpt lat="44.868577" lon="9.6915876"><ele>297.0</ele><time>2026-05-01T07:59:01.029Z</time></trkpt><trkpt lat="44.8686358" lon="9.691648"><ele>296.0</ele><time>2026-05-01T07:59:02.032Z</time></trkpt><trkpt lat="44.8686918" lon="9.6917226"><ele>295.0</ele><time>2026-05-01T07:59:03.042Z</time></trkpt><trkpt lat="44.8687413" lon="9.69182"><ele>294.0</ele><time>2026-05-01T07:59:04.03Z</time></trkpt><trkpt lat="44.8687858" lon="9.6919193"><ele>293.0</ele><time>2026-05-01T07:59:05.029Z</time></trkpt><trkpt lat="44.8688279" lon="9.6920125"><ele>292.0</ele><time>2026-05-01T07:59:06.033Z</time></trkpt><trkpt lat="44.8688693" lon="9.692115"><ele>291.0</ele><time>2026-05-01T07:59:07.016Z</time></trkpt><trkpt lat="44.8689143" lon="9.6922204"><ele>291.0</ele><time>2026-05-01T07:59:08.024Z</time></trkpt><trkpt lat="44.8689572" lon="9.6923308"><ele>291.0</ele><time>2026-05-01T07:59:09.04Z</time></trkpt><trkpt lat="44.8690041" lon="9.6924405"><ele>291.0</ele><time>2026-05-01T07:59:10.03Z</time></trkpt><trkpt lat="44.8690475" lon="9.6925436"><ele>291.0</ele><time>2026-05-01T07:59:11.044Z</time></trkpt><trkpt lat="44.8690974" lon="9.6926425"><ele>291.0</ele><time>2026-05-01T07:59:12.027Z</time></trkpt><trkpt lat="44.8691486" lon="9.6927384"><ele>291.0</ele><time>2026-05-01T07:59:13.033Z</time></trkpt><trkpt lat="44.8691993" lon="9.6928291"><ele>290.6666666666667</ele><time>2026-05-01T07:59:14.016Z</time></trkpt><trkpt lat="44.8692574" lon="9.6929108"><ele>290.3333333333333</ele><time>2026-05-01T07:59:15.031Z</time></trkpt><trkpt lat="44.8693224" lon="9.6929895"><ele>290.0</ele><time>2026-05-01T07:59:16.022Z</time></trkpt><trkpt lat="44.8694022" lon="9.6930546"><ele>289.66666666666663</ele><time>2026-05-01T07:59:17.029Z</time></trkpt><trkpt lat="44.8694825" lon="9.6931228"><ele>289.3333333333333</ele><time>2026-05-01T07:59:18.022Z</time></trkpt><trkpt lat="44.8695555" lon="9.6931835"><ele>289.0</ele><time>2026-05-01T07:59:19.04Z</time></trkpt><trkpt lat="44.8696171" lon="9.6932383"><ele>288.59999999999997</ele><time>2026-05-01T07:59:20.03Z</time></trkpt><trkpt lat="44.8696814" lon="9.6932907"><ele>288.2</ele><time>2026-05-01T07:59:21.012Z</time></trkpt><trkpt lat="44.8697708" lon="9.6934045"><ele>287.79999999999995</ele><time>2026-05-01T07:59:23.028Z</time></trkpt><trkpt lat="44.8697756" lon="9.6935637"><ele>287.4</ele><time>2026-05-01T07:59:25.031Z</time></trkpt><trkpt lat="44.8697501" lon="9.6936909"><ele>287.0</ele><time>2026-05-01T07:59:27.024Z</time></trkpt><trkpt lat="44.8697354" lon="9.693826"><ele>286.75</ele><time>2026-05-01T07:59:29.026Z</time></trkpt><trkpt lat="44.869741" lon="9.6939628"><ele>286.5</ele><time>2026-05-01T07:59:31.026Z</time></trkpt><trkpt lat="44.869744" lon="9.6941119"><ele>286.25</ele><time>2026-05-01T07:59:33.034Z</time></trkpt><trkpt lat="44.8697663" lon="9.6942776"><ele>286.0</ele><time>2026-05-01T07:59:35.025Z</time></trkpt><trkpt lat="44.8698065" lon="9.694459"><ele>285.71428571428567</ele><time>2026-05-01T07:59:37.006Z</time></trkpt><trkpt lat="44.8698477" lon="9.694554"><ele>285.42857142857144</ele><time>2026-05-01T07:59:38.025Z</time></trkpt><trkpt lat="44.8698852" lon="9.6946428"><ele>285.1428571428571</ele><time>2026-05-01T07:59:39.03Z</time></trkpt><trkpt lat="44.8699276" lon="9.6947274"><ele>284.85714285714283</ele><time>2026-05-01T07:59:40.032Z</time></trkpt><trkpt lat="44.8699762" lon="9.6947873"><ele>284.57142857142856</ele><time>2026-05-01T07:59:41.005Z</time></trkpt><trkpt lat="44.8700228" lon="9.6948486"><ele>284.2857142857143</ele><time>2026-05-01T07:59:42.037Z</time></trkpt><trkpt lat="44.8700793" lon="9.6949195"><ele>284.0</ele><time>2026-05-01T07:59:43.032Z</time></trkpt><trkpt lat="44.8701465" lon="9.6949779"><ele>284.0</ele><time>2026-05-01T07:59:44.029Z</time></trkpt><trkpt lat="44.8702039" lon="9.6950374"><ele>284.0</ele><time>2026-05-01T07:59:45.016Z</time></trkpt><trkpt lat="44.8702685" lon="9.6950897"><ele>284.0</ele><time>2026-05-01T07:59:46.029Z</time></trkpt><trkpt lat="44.8703261" lon="9.6951376"><ele>284.0</ele><time>2026-05-01T07:59:47.043Z</time></trkpt><trkpt lat="44.87041" lon="9.6952351"><ele>284.0</ele><time>2026-05-01T07:59:49.015Z</time></trkpt><trkpt lat="44.8704388" lon="9.6953629"><ele>284.0</ele><time>2026-05-01T07:59:51.024Z</time></trkpt><trkpt lat="44.8703671" lon="9.695471"><ele>281.8</ele><time>2026-05-01T07:59:53.019Z</time></trkpt><trkpt lat="44.8702574" lon="9.695476"><ele>279.59999999999997</ele><time>2026-05-01T07:59:55.008Z</time></trkpt><trkpt lat="44.8701442" lon="9.6954394"><ele>277.4</ele><time>2026-05-01T07:59:57.031Z</time></trkpt><trkpt lat="44.8700389" lon="9.6953982"><ele>275.2</ele><time>2026-05-01T07:59:59.037Z</time></trkpt><trkpt lat="44.869946" lon="9.6953642"><ele>273.0</ele><time>2026-05-01T08:00:01.026Z</time></trkpt><trkpt lat="44.8698458" lon="9.6953152"><ele>273.8</ele><time>2026-05-01T08:00:03.032Z</time></trkpt><trkpt lat="44.8697499" lon="9.6952329"><ele>274.6</ele><time>2026-05-01T08:00:05.028Z</time></trkpt><trkpt lat="44.8696569" lon="9.6951256"><ele>275.4</ele><time>2026-05-01T08:00:07.037Z</time></trkpt><trkpt lat="44.8696114" lon="9.6950635"><ele>276.2</ele><time>2026-05-01T08:00:08.016Z</time></trkpt><trkpt lat="44.8695213" lon="9.6949369"><ele>277.0</ele><time>2026-05-01T08:00:10.027Z</time></trkpt><trkpt lat="44.8694702" lon="9.6948636"><ele>277.0</ele><time>2026-05-01T08:00:11.027Z</time></trkpt><trkpt lat="44.8694138" lon="9.6947943"><ele>277.0</ele><time>2026-05-01T08:00:12.026Z</time></trkpt><trkpt lat="44.8693529" lon="9.6947295"><ele>277.0</ele><time>2026-05-01T08:00:13.024Z</time></trkpt><trkpt lat="44.8692848" lon="9.6946663"><ele>277.0</ele><time>2026-05-01T08:00:14.026Z</time></trkpt><trkpt lat="44.8692167" lon="9.6946059"><ele>277.0</ele><time>2026-05-01T08:00:15.023Z</time></trkpt><trkpt lat="44.8691519" lon="9.6945587"><ele>277.0</ele><time>2026-05-01T08:00:16.023Z</time></trkpt><trkpt lat="44.8690841" lon="9.6945147"><ele>277.0</ele><time>2026-05-01T08:00:17.029Z</time></trkpt><trkpt lat="44.8690168" lon="9.6944716"><ele>277.0</ele><time>2026-05-01T08:00:18.023Z</time></trkpt><trkpt lat="44.8689569" lon="9.6944319"><ele>277.0</ele><time>2026-05-01T08:00:19.035Z</time></trkpt><trkpt lat="44.8688977" lon="9.6943933"><ele>277.0</ele><time>2026-05-01T08:00:20.017Z</time></trkpt><trkpt lat="44.8688363" lon="9.6943614"><ele>277.0</ele><time>2026-05-01T08:00:21.025Z</time></trkpt><trkpt lat="44.8687736" lon="9.6943323"><ele>277.0</ele><time>2026-05-01T08:00:22.03Z</time></trkpt><trkpt lat="44.8686516" lon="9.69427"><ele>277.0</ele><time>2026-05-01T08:00:24.028Z</time></trkpt><trkpt lat="44.868587" lon="9.6942346"><ele>277.0</ele><time>2026-05-01T08:00:25.011Z</time></trkpt><trkpt lat="44.8684951" lon="9.6941454"><ele>277.0</ele><time>2026-05-01T08:00:27.024Z</time></trkpt><trkpt lat="44.8684023" lon="9.6940889"><ele>277.0</ele><time>2026-05-01T08:00:29.025Z</time></trkpt><trkpt lat="44.868316" lon="9.6941484"><ele>277.0</ele><time>2026-05-01T08:00:31.012Z</time></trkpt><trkpt lat="44.8683113" lon="9.6942589"><ele>273.8333333333333</ele><time>2026-05-01T08:00:33.026Z</time></trkpt><trkpt lat="44.8683876" lon="9.6943613"><ele>270.66666666666663</ele><time>2026-05-01T08:00:35.016Z</time></trkpt><trkpt lat="44.8684374" lon="9.694421"><ele>267.5</ele><time>2026-05-01T08:00:36.03Z</time></trkpt><trkpt lat="44.868492" lon="9.6944868"><ele>264.3333333333333</ele><time>2026-05-01T08:00:37Z</time></trkpt><trkpt lat="44.8685426" lon="9.6945546"><ele>261.1666666666667</ele><time>2026-05-01T08:00:38.007Z</time></trkpt><trkpt lat="44.8685874" lon="9.6946242"><ele>258.0</ele><time>2026-05-01T08:00:39.006Z</time></trkpt><trkpt lat="44.8686336" lon="9.6947143"><ele>257.71428571428567</ele><time>2026-05-01T08:00:40.008Z</time></trkpt><trkpt lat="44.8686815" lon="9.6947956"><ele>257.42857142857144</ele><time>2026-05-01T08:00:41.027Z</time></trkpt><trkpt lat="44.8687319" lon="9.6948785"><ele>257.1428571428571</ele><time>2026-05-01T08:00:42.032Z</time></trkpt><trkpt lat="44.8687812" lon="9.6949627"><ele>256.85714285714283</ele><time>2026-05-01T08:00:43.022Z</time></trkpt><trkpt lat="44.8688306" lon="9.6950392"><ele>256.57142857142856</ele><time>2026-05-01T08:00:44.022Z</time></trkpt><trkpt lat="44.8688732" lon="9.6951175"><ele>256.2857142857143</ele><time>2026-05-01T08:00:45.033Z</time></trkpt><trkpt lat="44.8689177" lon="9.6951946"><ele>256.0</ele><time>2026-05-01T08:00:46.026Z</time></trkpt><trkpt lat="44.8689546" lon="9.6952719"><ele>253.4</ele><time>2026-05-01T08:00:47.028Z</time></trkpt><trkpt lat="44.8689823" lon="9.6954321"><ele>250.8</ele><time>2026-05-01T08:00:49.029Z</time></trkpt><trkpt lat="44.868973" lon="9.695523"><ele>248.20000000000002</ele><time>2026-05-01T08:00:50.02Z</time></trkpt><trkpt lat="44.8689047" lon="9.6956657"><ele>245.60000000000002</ele><time>2026-05-01T08:00:52.014Z</time></trkpt><trkpt lat="44.868855" lon="9.6957384"><ele>243.0</ele><time>2026-05-01T08:00:53.015Z</time></trkpt><trkpt lat="44.8687998" lon="9.6958091"><ele>243.0</ele><time>2026-05-01T08:00:54.018Z</time></trkpt><trkpt lat="44.8687423" lon="9.6958867"><ele>243.0</ele><time>2026-05-01T08:00:55.014Z</time></trkpt><trkpt lat="44.8686796" lon="9.695975"><ele>243.0</ele><time>2026-05-01T08:00:56.014Z</time></trkpt><trkpt lat="44.8686141" lon="9.696066"><ele>243.0</ele><time>2026-05-01T08:00:57.026Z</time></trkpt><trkpt lat="44.8685513" lon="9.6961406"><ele>243.0</ele><time>2026-05-01T08:00:58.027Z</time></trkpt><trkpt lat="44.8684935" lon="9.6962159"><ele>243.0</ele><time>2026-05-01T08:00:59.03Z</time></trkpt><trkpt lat="44.8684389" lon="9.6962794"><ele>240.0</ele><time>2026-05-01T08:01:00.025Z</time></trkpt><trkpt lat="44.8683915" lon="9.696346"><ele>237.0</ele><time>2026-05-01T08:01:01.021Z</time></trkpt><trkpt lat="44.8683019" lon="9.6964577"><ele>234.0</ele><time>2026-05-01T08:01:03.025Z</time></trkpt><trkpt lat="44.8682398" lon="9.6965451"><ele>231.0</ele><time>2026-05-01T08:01:05.017Z</time></trkpt><trkpt lat="44.8682452" lon="9.6966345"><ele>228.0</ele><time>2026-05-01T08:01:07.02Z</time></trkpt><trkpt lat="44.8682936" lon="9.6967005"><ele>225.0</ele><time>2026-05-01T08:01:09.024Z</time></trkpt><trkpt lat="44.8683768" lon="9.6967736"><ele>224.6</ele><time>2026-05-01T08:01:11.022Z</time></trkpt><trkpt lat="44.8684622" lon="9.6968438"><ele>224.2</ele><time>2026-05-01T08:01:13.026Z</time></trkpt><trkpt lat="44.8685623" lon="9.6969021"><ele>223.8</ele><time>2026-05-01T08:01:15.034Z</time></trkpt><trkpt lat="44.86866" lon="9.6969621"><ele>223.4</ele><time>2026-05-01T08:01:17.031Z</time></trkpt><trkpt lat="44.868757" lon="9.6970493"><ele>223.0</ele><time>2026-05-01T08:01:19.018Z</time></trkpt><trkpt lat="44.8688419" lon="9.6971375"><ele>223.0</ele><time>2026-05-01T08:01:21.007Z</time></trkpt><trkpt lat="44.868928" lon="9.6972198"><ele>223.0</ele><time>2026-05-01T08:01:23.041Z</time></trkpt><trkpt lat="44.8690061" lon="9.6973017"><ele>223.0</ele><time>2026-05-01T08:01:25.017Z</time></trkpt><trkpt lat="44.8690708" lon="9.6974018"><ele>223.0</ele><time>2026-05-01T08:01:27.018Z</time></trkpt><trkpt lat="44.8691364" lon="9.6975047"><ele>223.0</ele><time>2026-05-01T08:01:29.028Z</time></trkpt><trkpt lat="44.8692078" lon="9.6975949"><ele>223.2</ele><time>2026-05-01T08:01:31.016Z</time></trkpt><trkpt lat="44.8692806" lon="9.6976822"><ele>223.4</ele><time>2026-05-01T08:01:33.023Z</time></trkpt><trkpt lat="44.8693644" lon="9.6977777"><ele>223.59999999999997</ele><time>2026-05-01T08:01:35.023Z</time></trkpt><trkpt lat="44.8694133" lon="9.6978362"><ele>223.79999999999998</ele><time>2026-05-01T08:01:36.026Z</time></trkpt><trkpt lat="44.8695002" lon="9.6979439"><ele>224.0</ele><time>2026-05-01T08:01:38.026Z</time></trkpt><trkpt lat="44.8695796" lon="9.6980549"><ele>223.39999999999998</ele><time>2026-05-01T08:01:40.032Z</time></trkpt><trkpt lat="44.8696487" lon="9.6981688"><ele>222.79999999999998</ele><time>2026-05-01T08:01:42.025Z</time></trkpt><trkpt lat="44.869715" lon="9.6983188"><ele>222.20000000000002</ele><time>2026-05-01T08:01:44.028Z</time></trkpt><trkpt lat="44.8697753" lon="9.6984383"><ele>221.60000000000002</ele><time>2026-05-01T08:01:46.029Z</time></trkpt><trkpt lat="44.8698473" lon="9.6985536"><ele>221.0</ele><time>2026-05-01T08:01:48.02Z</time></trkpt><trkpt lat="44.869932" lon="9.6986774"><ele>221.0</ele><time>2026-05-01T08:01:50.032Z</time></trkpt><trkpt lat="44.8700241" lon="9.6987864"><ele>221.00000000000003</ele><time>2026-05-01T08:01:52.021Z</time></trkpt><trkpt lat="44.8700698" lon="9.6988481"><ele>221.00000000000003</ele><time>2026-05-01T08:01:53.006Z</time></trkpt><trkpt lat="44.8701441" lon="9.6989799"><ele>221.0</ele><time>2026-05-01T08:01:55.03Z</time></trkpt><trkpt lat="44.8702164" lon="9.6991034"><ele>221.0</ele><time>2026-05-01T08:01:57.025Z</time></trkpt><trkpt lat="44.8702805" lon="9.69924"><ele>220.83333333333334</ele><time>2026-05-01T08:01:59.029Z</time></trkpt><trkpt lat="44.8703167" lon="9.6993159"><ele>220.66666666666669</ele><time>2026-05-01T08:02:00.025Z</time></trkpt><trkpt lat="44.8703564" lon="9.6993894"><ele>220.5</ele><time>2026-05-01T08:02:01.022Z</time></trkpt><trkpt lat="44.8703929" lon="9.6994677"><ele>220.33333333333331</ele><time>2026-05-01T08:02:02.027Z</time></trkpt><trkpt lat="44.8704415" lon="9.6996192"><ele>220.16666666666666</ele><time>2026-05-01T08:02:04.021Z</time></trkpt><trkpt lat="44.8704906" lon="9.6997806"><ele>220.0</ele><time>2026-05-01T08:02:06.021Z</time></trkpt><trkpt lat="44.8705137" lon="9.6998655"><ele>219.8</ele><time>2026-05-01T08:02:07.026Z</time></trkpt><trkpt lat="44.8705573" lon="9.7000295"><ele>219.6</ele><time>2026-05-01T08:02:09.025Z</time></trkpt><trkpt lat="44.8706095" lon="9.7001895"><ele>219.39999999999998</ele><time>2026-05-01T08:02:11.033Z</time></trkpt><trkpt lat="44.870636" lon="9.7002713"><ele>219.2</ele><time>2026-05-01T08:02:12.026Z</time></trkpt><trkpt lat="44.8706795" lon="9.7004184"><ele>219.0</ele><time>2026-05-01T08:02:14.021Z</time></trkpt><trkpt lat="44.8707214" lon="9.7005591"><ele>218.6</ele><time>2026-05-01T08:02:16.022Z</time></trkpt><trkpt lat="44.870748" lon="9.7006977"><ele>218.2</ele><time>2026-05-01T08:02:18.031Z</time></trkpt><trkpt lat="44.8707334" lon="9.7008557"><ele>217.79999999999998</ele><time>2026-05-01T08:02:20.019Z</time></trkpt><trkpt lat="44.8707249" lon="9.7009468"><ele>217.39999999999998</ele><time>2026-05-01T08:02:21.021Z</time></trkpt><trkpt lat="44.8707111" lon="9.7011138"><ele>217.0</ele><time>2026-05-01T08:02:23.029Z</time></trkpt><trkpt lat="44.8707603" lon="9.7012524"><ele>216.39999999999998</ele><time>2026-05-01T08:02:25.018Z</time></trkpt><trkpt lat="44.8708412" lon="9.701357"><ele>215.79999999999998</ele><time>2026-05-01T08:02:27.008Z</time></trkpt><trkpt lat="44.8708919" lon="9.7014592"><ele>215.2</ele><time>2026-05-01T08:02:29.021Z</time></trkpt><trkpt lat="44.8709498" lon="9.7015657"><ele>214.6</ele><time>2026-05-01T08:02:31.028Z</time></trkpt><trkpt lat="44.8710161" lon="9.7016757"><ele>214.0</ele><time>2026-05-01T08:02:33.038Z</time></trkpt><trkpt lat="44.8710993" lon="9.7017688"><ele>214.0</ele><time>2026-05-01T08:02:35.026Z</time></trkpt><trkpt lat="44.871183" lon="9.7018507"><ele>213.99999999999997</ele><time>2026-05-01T08:02:37.029Z</time></trkpt><trkpt lat="44.8712718" lon="9.7019272"><ele>213.99999999999997</ele><time>2026-05-01T08:02:39.035Z</time></trkpt><trkpt lat="44.8713499" lon="9.7019515"><ele>214.0</ele><time>2026-05-01T08:02:41.021Z</time></trkpt><trkpt lat="44.8714237" lon="9.7019977"><ele>214.0</ele><time>2026-05-01T08:02:43.037Z</time></trkpt><trkpt lat="44.871504" lon="9.7020711"><ele>214.0</ele><time>2026-05-01T08:02:45.027Z</time></trkpt><trkpt lat="44.8715799" lon="9.7021551"><ele>213.99999999999997</ele><time>2026-05-01T08:02:47.024Z</time></trkpt><trkpt lat="44.8716501" lon="9.7022409"><ele>213.99999999999997</ele><time>2026-05-01T08:02:49.028Z</time></trkpt><trkpt lat="44.8717128" lon="9.7023399"><ele>214.0</ele><time>2026-05-01T08:02:52.022Z</time></trkpt><trkpt lat="44.8717824" lon="9.7024324"><ele>214.0</ele><time>2026-05-01T08:02:55.03Z</time></trkpt><trkpt lat="44.8718523" lon="9.7025096"><ele>213.99999999999997</ele><time>2026-05-01T08:02:57.022Z</time></trkpt><trkpt lat="44.8719346" lon="9.702549"><ele>214.0</ele><time>2026-05-01T08:02:59.031Z</time></trkpt><trkpt lat="44.8720037" lon="9.7026078"><ele>214.0</ele><time>2026-05-01T08:03:01.029Z</time></trkpt><trkpt lat="44.8720748" lon="9.7026576"><ele>214.0</ele><time>2026-05-01T08:03:03.032Z</time></trkpt><trkpt lat="44.8721482" lon="9.7027179"><ele>213.99999999999997</ele><time>2026-05-01T08:03:05.031Z</time></trkpt><trkpt lat="44.8722116" lon="9.7027979"><ele>214.0</ele><time>2026-05-01T08:03:07.021Z</time></trkpt><trkpt lat="44.8722809" lon="9.7028842"><ele>213.6</ele><time>2026-05-01T08:03:09.029Z</time></trkpt><trkpt lat="44.8723675" lon="9.7029729"><ele>213.2</ele><time>2026-05-01T08:03:11.025Z</time></trkpt><trkpt lat="44.8724551" lon="9.7030577"><ele>212.79999999999998</ele><time>2026-05-01T08:03:13.023Z</time></trkpt><trkpt lat="44.8725524" lon="9.7031446"><ele>212.39999999999998</ele><time>2026-05-01T08:03:15.032Z</time></trkpt><trkpt lat="44.8726402" lon="9.7032326"><ele>212.0</ele><time>2026-05-01T08:03:17.034Z</time></trkpt><trkpt lat="44.8727283" lon="9.7033001"><ele>211.8</ele><time>2026-05-01T08:03:19.036Z</time></trkpt><trkpt lat="44.8728186" lon="9.7033632"><ele>211.6</ele><time>2026-05-01T08:03:20.996Z</time></trkpt><trkpt lat="44.8729075" lon="9.7034209"><ele>211.4</ele><time>2026-05-01T08:03:23.02Z</time></trkpt><trkpt lat="44.8730047" lon="9.7034655"><ele>211.20000000000002</ele><time>2026-05-01T08:03:25.029Z</time></trkpt><trkpt lat="44.8730967" lon="9.7035101"><ele>211.0</ele><time>2026-05-01T08:03:27.022Z</time></trkpt><trkpt lat="44.873186" lon="9.7035598"><ele>211.0</ele><time>2026-05-01T08:03:29.037Z</time></trkpt><trkpt lat="44.8732761" lon="9.7036282"><ele>211.0</ele><time>2026-05-01T08:03:31.005Z</time></trkpt><trkpt lat="44.8733437" lon="9.7037041"><ele>211.0</ele><time>2026-05-01T08:03:33.027Z</time></trkpt><trkpt lat="44.8734056" lon="9.7037933"><ele>211.0</ele><time>2026-05-01T08:03:35.016Z</time></trkpt><trkpt lat="44.873459" lon="9.7039135"><ele>211.0</ele><time>2026-05-01T08:03:37.016Z</time></trkpt><trkpt lat="44.8735028" lon="9.7040416"><ele>211.20000000000002</ele><time>2026-05-01T08:03:39.019Z</time></trkpt><trkpt lat="44.8735233" lon="9.7041772"><ele>211.4</ele><time>2026-05-01T08:03:41.013Z</time></trkpt><trkpt lat="44.8735399" lon="9.7043137"><ele>211.6</ele><time>2026-05-01T08:03:43.01Z</time></trkpt><trkpt lat="44.8735712" lon="9.7044525"><ele>211.8</ele><time>2026-05-01T08:03:45.016Z</time></trkpt><trkpt lat="44.8736167" lon="9.7045821"><ele>212.0</ele><time>2026-05-01T08:03:47.013Z</time></trkpt><trkpt lat="44.8736685" lon="9.7047053"><ele>211.0</ele><time>2026-05-01T08:03:49.021Z</time></trkpt><trkpt lat="44.8737297" lon="9.7048163"><ele>210.0</ele><time>2026-05-01T08:03:51.033Z</time></trkpt><trkpt lat="44.873782" lon="9.7049266"><ele>209.0</ele><time>2026-05-01T08:03:53.022Z</time></trkpt><trkpt lat="44.8738238" lon="9.7050478"><ele>208.0</ele><time>2026-05-01T08:03:55.02Z</time></trkpt><trkpt lat="44.8738572" lon="9.7051823"><ele>207.0</ele><time>2026-05-01T08:03:57.025Z</time></trkpt><trkpt lat="44.8738825" lon="9.7053204"><ele>206.8</ele><time>2026-05-01T08:03:59.023Z</time></trkpt><trkpt lat="44.8739135" lon="9.7054578"><ele>206.6</ele><time>2026-05-01T08:04:01.022Z</time></trkpt><trkpt lat="44.8739472" lon="9.7056139"><ele>206.4</ele><time>2026-05-01T08:04:03.017Z</time></trkpt><trkpt lat="44.8739815" lon="9.7057704"><ele>206.20000000000002</ele><time>2026-05-01T08:04:05.031Z</time></trkpt><trkpt lat="44.874011" lon="9.7059085"><ele>206.0</ele><time>2026-05-01T08:04:07.028Z</time></trkpt><trkpt lat="44.8740482" lon="9.7060449"><ele>206.0</ele><time>2026-05-01T08:04:09.022Z</time></trkpt><trkpt lat="44.8741014" lon="9.7061658"><ele>206.0</ele><time>2026-05-01T08:04:11.014Z</time></trkpt><trkpt lat="44.8741654" lon="9.7062896"><ele>206.0</ele><time>2026-05-01T08:04:13.008Z</time></trkpt><trkpt lat="44.8742362" lon="9.7064139"><ele>206.0</ele><time>2026-05-01T08:04:15.003Z</time></trkpt><trkpt lat="44.8742898" lon="9.7065335"><ele>206.0</ele><time>2026-05-01T08:04:17.029Z</time></trkpt><trkpt lat="44.8743369" lon="9.7066491"><ele>206.0</ele><time>2026-05-01T08:04:19.001Z</time></trkpt><trkpt lat="44.8743838" lon="9.7067501"><ele>206.0</ele><time>2026-05-01T08:04:21.022Z</time></trkpt><trkpt lat="44.8744385" lon="9.7068552"><ele>206.0</ele><time>2026-05-01T08:04:23.023Z</time></trkpt><trkpt lat="44.8744997" lon="9.7069508"><ele>206.0</ele><time>2026-05-01T08:04:25.029Z</time></trkpt><trkpt lat="44.8745782" lon="9.707049"><ele>206.0</ele><time>2026-05-01T08:04:27.034Z</time></trkpt><trkpt lat="44.8746645" lon="9.7071458"><ele>205.60000000000002</ele><time>2026-05-01T08:04:29.027Z</time></trkpt><trkpt lat="44.8747451" lon="9.7072137"><ele>205.2</ele><time>2026-05-01T08:04:31.021Z</time></trkpt><trkpt lat="44.8748276" lon="9.7072842"><ele>204.8</ele><time>2026-05-01T08:04:33.025Z</time></trkpt><trkpt lat="44.8749094" lon="9.7073639"><ele>204.39999999999998</ele><time>2026-05-01T08:04:35.021Z</time></trkpt><trkpt lat="44.8749821" lon="9.7074623"><ele>204.0</ele><time>2026-05-01T08:04:37.025Z</time></trkpt><trkpt lat="44.8750392" lon="9.7075589"><ele>203.79999999999998</ele><time>2026-05-01T08:04:39.036Z</time></trkpt><trkpt lat="44.8751153" lon="9.7076564"><ele>203.6</ele><time>2026-05-01T08:04:41.024Z</time></trkpt><trkpt lat="44.8751909" lon="9.7077317"><ele>203.4</ele><time>2026-05-01T08:04:43.013Z</time></trkpt><trkpt lat="44.8752824" lon="9.7077827"><ele>203.2</ele><time>2026-05-01T08:04:45.021Z</time></trkpt><trkpt lat="44.8753787" lon="9.7078252"><ele>203.0</ele><time>2026-05-01T08:04:47.025Z</time></trkpt><trkpt lat="44.8754584" lon="9.7078184"><ele>203.00000000000003</ele><time>2026-05-01T08:04:49.014Z</time></trkpt><trkpt lat="44.8755521" lon="9.7077977"><ele>203.0</ele><time>2026-05-01T08:04:51.01Z</time></trkpt><trkpt lat="44.8756265" lon="9.7077752"><ele>203.0</ele><time>2026-05-01T08:04:53.026Z</time></trkpt><trkpt lat="44.8756993" lon="9.7077289"><ele>203.0</ele><time>2026-05-01T08:04:55.025Z</time></trkpt><trkpt lat="44.8757563" lon="9.7076764"><ele>203.00000000000003</ele><time>2026-05-01T08:04:57.024Z</time></trkpt><trkpt lat="44.87584" lon="9.7076612"><ele>203.0</ele><time>2026-05-01T08:05:00.015Z</time></trkpt><trkpt lat="44.8759242" lon="9.7077247"><ele>202.60000000000002</ele><time>2026-05-01T08:05:03.017Z</time></trkpt><trkpt lat="44.8759869" lon="9.7077998"><ele>202.20000000000002</ele><time>2026-05-01T08:05:05.025Z</time></trkpt><trkpt lat="44.876069" lon="9.7078928"><ele>201.8</ele><time>2026-05-01T08:05:07.018Z</time></trkpt><trkpt lat="44.8761516" lon="9.7079643"><ele>201.4</ele><time>2026-05-01T08:05:09.014Z</time></trkpt><trkpt lat="44.8762298" lon="9.7080436"><ele>201.0</ele><time>2026-05-01T08:05:11.019Z</time></trkpt><trkpt lat="44.8762992" lon="9.7081219"><ele>201.0</ele><time>2026-05-01T08:05:13.013Z</time></trkpt><trkpt lat="44.8763576" lon="9.7081906"><ele>201.0</ele><time>2026-05-01T08:05:15.026Z</time></trkpt><trkpt lat="44.8764145" lon="9.7082857"><ele>201.0</ele><time>2026-05-01T08:05:17.018Z</time></trkpt><trkpt lat="44.8764583" lon="9.7084099"><ele>201.0</ele><time>2026-05-01T08:05:19.022Z</time></trkpt><trkpt lat="44.8765095" lon="9.7085215"><ele>201.0</ele><time>2026-05-01T08:05:21.025Z</time></trkpt><trkpt lat="44.8765726" lon="9.7086226"><ele>200.60000000000002</ele><time>2026-05-01T08:05:23.017Z</time></trkpt><trkpt lat="44.8766295" lon="9.7087198"><ele>200.2</ele><time>2026-05-01T08:05:25.022Z</time></trkpt><trkpt lat="44.8766921" lon="9.7088138"><ele>199.8</ele><time>2026-05-01T08:05:27.02Z</time></trkpt><trkpt lat="44.8767564" lon="9.7089059"><ele>199.39999999999998</ele><time>2026-05-01T08:05:29.008Z</time></trkpt><trkpt lat="44.8768216" lon="9.7090046"><ele>199.0</ele><time>2026-05-01T08:05:31.02Z</time></trkpt><trkpt lat="44.8768941" lon="9.7091164"><ele>198.6</ele><time>2026-05-01T08:05:33.022Z</time></trkpt><trkpt lat="44.8769685" lon="9.7092321"><ele>198.2</ele><time>2026-05-01T08:05:35.028Z</time></trkpt><trkpt lat="44.8770417" lon="9.7093361"><ele>197.79999999999998</ele><time>2026-05-01T08:05:37.022Z</time></trkpt><trkpt lat="44.8771066" lon="9.7094479"><ele>197.39999999999998</ele><time>2026-05-01T08:05:39.02Z</time></trkpt><trkpt lat="44.8771717" lon="9.7095584"><ele>197.0</ele><time>2026-05-01T08:05:41.029Z</time></trkpt><trkpt lat="44.877229" lon="9.709668"><ele>197.83333333333334</ele><time>2026-05-01T08:05:43.02Z</time></trkpt><trkpt lat="44.8772957" lon="9.7097895"><ele>198.66666666666669</ele><time>2026-05-01T08:05:45.021Z</time></trkpt><trkpt lat="44.8773627" lon="9.7099124"><ele>199.5</ele><time>2026-05-01T08:05:47.03Z</time></trkpt><trkpt lat="44.8774099" lon="9.7099778"><ele>200.33333333333331</ele><time>2026-05-01T08:05:48.024Z</time></trkpt><trkpt lat="44.8774579" lon="9.7100413"><ele>201.16666666666666</ele><time>2026-05-01T08:05:49.028Z</time></trkpt><trkpt lat="44.8775098" lon="9.7101019"><ele>202.0</ele><time>2026-05-01T08:05:50.029Z</time></trkpt><trkpt lat="44.8775643" lon="9.7101607"><ele>201.28571428571428</ele><time>2026-05-01T08:05:51.024Z</time></trkpt><trkpt lat="44.8776271" lon="9.7102138"><ele>200.57142857142856</ele><time>2026-05-01T08:05:52.03Z</time></trkpt><trkpt lat="44.8776953" lon="9.7102498"><ele>199.85714285714286</ele><time>2026-05-01T08:05:53.028Z</time></trkpt><trkpt lat="44.877769" lon="9.7102785"><ele>199.14285714285714</ele><time>2026-05-01T08:05:54.026Z</time></trkpt><trkpt lat="44.8778376" lon="9.7103106"><ele>198.42857142857144</ele><time>2026-05-01T08:05:55.029Z</time></trkpt><trkpt lat="44.8779" lon="9.7103619"><ele>197.71428571428572</ele><time>2026-05-01T08:05:56.031Z</time></trkpt><trkpt lat="44.8779618" lon="9.7104213"><ele>197.0</ele><time>2026-05-01T08:05:57.029Z</time></trkpt><trkpt lat="44.8780185" lon="9.710471"><ele>197.00000000000003</ele><time>2026-05-01T08:05:58.026Z</time></trkpt><trkpt lat="44.8780798" lon="9.7105089"><ele>197.0</ele><time>2026-05-01T08:05:59.029Z</time></trkpt><trkpt lat="44.8781427" lon="9.710537"><ele>197.0</ele><time>2026-05-01T08:06:00.034Z</time></trkpt><trkpt lat="44.878205" lon="9.7105521"><ele>197.0</ele><time>2026-05-01T08:06:01.02Z</time></trkpt><trkpt lat="44.8783193" lon="9.710532"><ele>197.00000000000003</ele><time>2026-05-01T08:06:03.027Z</time></trkpt><trkpt lat="44.8784349" lon="9.7105112"><ele>197.0</ele><time>2026-05-01T08:06:05.033Z</time></trkpt><trkpt lat="44.8785442" lon="9.7105325"><ele>196.39999999999998</ele><time>2026-05-01T08:06:07.029Z</time></trkpt><trkpt lat="44.878653" lon="9.7105743"><ele>195.79999999999998</ele><time>2026-05-01T08:06:09.036Z</time></trkpt><trkpt lat="44.8787579" lon="9.7105985"><ele>195.2</ele><time>2026-05-01T08:06:11.019Z</time></trkpt><trkpt lat="44.8788598" lon="9.710625"><ele>194.6</ele><time>2026-05-01T08:06:13.032Z</time></trkpt><trkpt lat="44.8789326" lon="9.7106531"><ele>194.0</ele><time>2026-05-01T08:06:15.023Z</time></trkpt><trkpt lat="44.8790104" lon="9.7106525"><ele>194.0</ele><time>2026-05-01T08:06:17.025Z</time></trkpt><trkpt lat="44.8790995" lon="9.7106577"><ele>194.0</ele><time>2026-05-01T08:06:19.028Z</time></trkpt><trkpt lat="44.8792148" lon="9.7106623"><ele>194.0</ele><time>2026-05-01T08:06:21.035Z</time></trkpt><trkpt lat="44.8793221" lon="9.7107096"><ele>194.0</ele><time>2026-05-01T08:06:23.009Z</time></trkpt><trkpt lat="44.879437" lon="9.7107935"><ele>194.0</ele><time>2026-05-01T08:06:25.036Z</time></trkpt><trkpt lat="44.8795008" lon="9.7108391"><ele>193.83333333333334</ele><time>2026-05-01T08:06:26.028Z</time></trkpt><trkpt lat="44.8795585" lon="9.7108983"><ele>193.66666666666669</ele><time>2026-05-01T08:06:27.03Z</time></trkpt><trkpt lat="44.8796068" lon="9.7109621"><ele>193.5</ele><time>2026-05-01T08:06:28.029Z</time></trkpt><trkpt lat="44.8796799" lon="9.7110962"><ele>193.33333333333331</ele><time>2026-05-01T08:06:30.029Z</time></trkpt><trkpt lat="44.8797539" lon="9.7111749"><ele>193.16666666666666</ele><time>2026-05-01T08:06:32.021Z</time></trkpt><trkpt lat="44.879817" lon="9.7111723"><ele>193.0</ele><time>2026-05-01T08:06:34.027Z</time></trkpt><trkpt lat="44.8799155" lon="9.7112015"><ele>192.99999999999997</ele><time>2026-05-01T08:06:37.025Z</time></trkpt><trkpt lat="44.8799896" lon="9.7111615"><ele>193.0</ele><time>2026-05-01T08:06:39.027Z</time></trkpt><trkpt lat="44.8800414" lon="9.7110568"><ele>193.0</ele><time>2026-05-01T08:06:41.021Z</time></trkpt><trkpt lat="44.880096" lon="9.7109827"><ele>193.0</ele><time>2026-05-01T08:06:43.028Z</time></trkpt><trkpt lat="44.8801573" lon="9.7109524"><ele>192.99999999999997</ele><time>2026-05-01T08:06:45.015Z</time></trkpt><trkpt lat="44.8802295" lon="9.7109553"><ele>193.0</ele><time>2026-05-01T08:06:47.024Z</time></trkpt><trkpt lat="44.8802882" lon="9.7110218"><ele>192.60000000000002</ele><time>2026-05-01T08:06:49.028Z</time></trkpt><trkpt lat="44.8803741" lon="9.7110871"><ele>192.20000000000002</ele><time>2026-05-01T08:06:51.034Z</time></trkpt><trkpt lat="44.8804666" lon="9.7111537"><ele>191.8</ele><time>2026-05-01T08:06:53.04Z</time></trkpt><trkpt lat="44.8805593" lon="9.7112184"><ele>191.4</ele><time>2026-05-01T08:06:55.03Z</time></trkpt><trkpt lat="44.8806463" lon="9.7113065"><ele>191.0</ele><time>2026-05-01T08:06:57.032Z</time></trkpt><trkpt lat="44.8807412" lon="9.7113796"><ele>191.0</ele><time>2026-05-01T08:06:59.013Z</time></trkpt><trkpt lat="44.8808394" lon="9.7114561"><ele>191.0</ele><time>2026-05-01T08:07:01.025Z</time></trkpt><trkpt lat="44.8809464" lon="9.7115339"><ele>191.0</ele><time>2026-05-01T08:07:03.03Z</time></trkpt><trkpt lat="44.8810424" lon="9.7116331"><ele>191.0</ele><time>2026-05-01T08:07:05.026Z</time></trkpt><trkpt lat="44.8811063" lon="9.7117588"><ele>191.0</ele><time>2026-05-01T08:07:07.033Z</time></trkpt><trkpt lat="44.8811866" lon="9.7118688"><ele>191.0</ele><time>2026-05-01T08:07:09.038Z</time></trkpt><trkpt lat="44.8812928" lon="9.7119183"><ele>191.0</ele><time>2026-05-01T08:07:11.019Z</time></trkpt><trkpt lat="44.881399" lon="9.7119427"><ele>191.0</ele><time>2026-05-01T08:07:13.02Z</time></trkpt><trkpt lat="44.8814951" lon="9.711967"><ele>191.0</ele><time>2026-05-01T08:07:15.029Z</time></trkpt><trkpt lat="44.8815891" lon="9.7119965"><ele>190.8</ele><time>2026-05-01T08:07:17.023Z</time></trkpt><trkpt lat="44.8816811" lon="9.7120195"><ele>190.60000000000002</ele><time>2026-05-01T08:07:19.026Z</time></trkpt><trkpt lat="44.8817795" lon="9.712039"><ele>190.4</ele><time>2026-05-01T08:07:21.028Z</time></trkpt><trkpt lat="44.8818854" lon="9.7120679"><ele>190.2</ele><time>2026-05-01T08:07:23.028Z</time></trkpt><trkpt lat="44.8819919" lon="9.7120906"><ele>190.0</ele><time>2026-05-01T08:07:25.033Z</time></trkpt><trkpt lat="44.8821048" lon="9.7121122"><ele>189.6</ele><time>2026-05-01T08:07:27.023Z</time></trkpt><trkpt lat="44.8822048" lon="9.7121446"><ele>189.2</ele><time>2026-05-01T08:07:29.023Z</time></trkpt><trkpt lat="44.8823087" lon="9.7121705"><ele>188.8</ele><time>2026-05-01T08:07:31.031Z</time></trkpt><trkpt lat="44.8824218" lon="9.7121976"><ele>188.4</ele><time>2026-05-01T08:07:33.028Z</time></trkpt><trkpt lat="44.8825354" lon="9.7122273"><ele>188.0</ele><time>2026-05-01T08:07:35.03Z</time></trkpt><trkpt lat="44.8826541" lon="9.7122526"><ele>187.4</ele><time>2026-05-01T08:07:37.033Z</time></trkpt><trkpt lat="44.8827707" lon="9.7122763"><ele>186.8</ele><time>2026-05-01T08:07:39.031Z</time></trkpt><trkpt lat="44.8828326" lon="9.7123001"><ele>186.2</ele><time>2026-05-01T08:07:40.029Z</time></trkpt><trkpt lat="44.882949" lon="9.7123363"><ele>185.6</ele><time>2026-05-01T08:07:42.02Z</time></trkpt><trkpt lat="44.8830736" lon="9.7123612"><ele>185.0</ele><time>2026-05-01T08:07:44.037Z</time></trkpt><trkpt lat="44.8831425" lon="9.712372"><ele>185.0</ele><time>2026-05-01T08:07:45.022Z</time></trkpt><trkpt lat="44.8832061" lon="9.7123928"><ele>185.0</ele><time>2026-05-01T08:07:46.024Z</time></trkpt><trkpt lat="44.8833335" lon="9.7124239"><ele>185.0</ele><time>2026-05-01T08:07:48.022Z</time></trkpt><trkpt lat="44.8833984" lon="9.7124329"><ele>185.0</ele><time>2026-05-01T08:07:49.036Z</time></trkpt><trkpt lat="44.8835165" lon="9.7124727"><ele>185.0</ele><time>2026-05-01T08:07:51.024Z</time></trkpt><trkpt lat="44.8836373" lon="9.7125056"><ele>184.5</ele><time>2026-05-01T08:07:53.019Z</time></trkpt><trkpt lat="44.8837617" lon="9.7125276"><ele>184.0</ele><time>2026-05-01T08:07:55.04Z</time></trkpt><trkpt lat="44.8838815" lon="9.7125521"><ele>183.5</ele><time>2026-05-01T08:07:57.019Z</time></trkpt><trkpt lat="44.8840051" lon="9.7125735"><ele>183.0</ele><time>2026-05-01T08:07:59.026Z</time></trkpt><trkpt lat="44.8841213" lon="9.7125816"><ele>183.0</ele><time>2026-05-01T08:08:01.029Z</time></trkpt><trkpt lat="44.8841952" lon="9.7126385"><ele>183.0</ele><time>2026-05-01T08:08:03.008Z</time></trkpt><trkpt lat="44.884181" lon="9.71276"><ele>183.0</ele><time>2026-05-01T08:08:04.999Z</time></trkpt><trkpt lat="44.8841476" lon="9.7128532"><ele>183.0</ele><time>2026-05-01T08:08:07.018Z</time></trkpt><trkpt lat="44.8841284" lon="9.712961"><ele>183.0</ele><time>2026-05-01T08:08:09.023Z</time></trkpt><trkpt lat="44.8840993" lon="9.7130657"><ele>183.0</ele><time>2026-05-01T08:08:11.039Z</time></trkpt><trkpt lat="44.8840679" lon="9.7131716"><ele>183.2</ele><time>2026-05-01T08:08:13.027Z</time></trkpt><trkpt lat="44.8840355" lon="9.7132823"><ele>183.4</ele><time>2026-05-01T08:08:15.018Z</time></trkpt><trkpt lat="44.8839986" lon="9.7133929"><ele>183.6</ele><time>2026-05-01T08:08:17.029Z</time></trkpt><trkpt lat="44.8839647" lon="9.7135175"><ele>183.79999999999998</ele><time>2026-05-01T08:08:19.028Z</time></trkpt><trkpt lat="44.8839381" lon="9.7136553"><ele>184.0</ele><time>2026-05-01T08:08:21.033Z</time></trkpt><trkpt lat="44.8839099" lon="9.7137857"><ele>184.0</ele><time>2026-05-01T08:08:23.024Z</time></trkpt><trkpt lat="44.8838853" lon="9.713912"><ele>184.0</ele><time>2026-05-01T08:08:25.027Z</time></trkpt><trkpt lat="44.883863" lon="9.7140309"><ele>184.0</ele><time>2026-05-01T08:08:27.017Z</time></trkpt><trkpt lat="44.8838369" lon="9.7141317"><ele>184.0</ele><time>2026-05-01T08:08:29.03Z</time></trkpt><trkpt lat="44.8838187" lon="9.7142224"><ele>184.0</ele><time>2026-05-01T08:08:31.03Z</time></trkpt><trkpt lat="44.8837847" lon="9.7143249"><ele>184.0</ele><time>2026-05-01T08:08:33.026Z</time></trkpt><trkpt lat="44.8837646" lon="9.7144177"><ele>183.83333333333334</ele><time>2026-05-01T08:08:35.024Z</time></trkpt><trkpt lat="44.8837459" lon="9.7145246"><ele>183.66666666666669</ele><time>2026-05-01T08:08:37.027Z</time></trkpt><trkpt lat="44.8837161" lon="9.7146391"><ele>183.5</ele><time>2026-05-01T08:08:39.031Z</time></trkpt><trkpt lat="44.8836886" lon="9.7147378"><ele>183.33333333333334</ele><time>2026-05-01T08:08:41.022Z</time></trkpt><trkpt lat="44.8836626" lon="9.7148234"><ele>183.16666666666666</ele><time>2026-05-01T08:08:43.024Z</time></trkpt><trkpt lat="44.8836348" lon="9.7149144"><ele>183.0</ele><time>2026-05-01T08:08:45.025Z</time></trkpt><trkpt lat="44.8836084" lon="9.7150403"><ele>183.0</ele><time>2026-05-01T08:08:48.028Z</time></trkpt><trkpt lat="44.8835856" lon="9.7151351"><ele>183.0</ele><time>2026-05-01T08:08:50.023Z</time></trkpt><trkpt lat="44.8835649" lon="9.7152264"><ele>183.0</ele><time>2026-05-01T08:08:52.021Z</time></trkpt><trkpt lat="44.8835365" lon="9.7153416"><ele>183.0</ele><time>2026-05-01T08:08:55.035Z</time></trkpt><trkpt lat="44.8835037" lon="9.7154608"><ele>183.0</ele><time>2026-05-01T08:08:58.026Z</time></trkpt><trkpt lat="44.8834716" lon="9.7155652"><ele>183.0</ele><time>2026-05-01T08:09:01.024Z</time></trkpt><trkpt lat="44.8834417" lon="9.7156854"><ele>183.33333333333334</ele><time>2026-05-01T08:09:04.018Z</time></trkpt><trkpt lat="44.88342" lon="9.7157712"><ele>183.66666666666666</ele><time>2026-05-01T08:09:06.042Z</time></trkpt><trkpt lat="44.8833972" lon="9.7158566"><ele>184.0</ele><time>2026-05-01T08:09:08.025Z</time></trkpt><trkpt lat="44.8833658" lon="9.7159739"><ele>184.33333333333331</ele><time>2026-05-01T08:09:11.024Z</time></trkpt><trkpt lat="44.8833357" lon="9.7160851"><ele>184.66666666666666</ele><time>2026-05-01T08:09:14.016Z</time></trkpt><trkpt lat="44.8833097" lon="9.7161913"><ele>185.0</ele><time>2026-05-01T08:09:17.036Z</time></trkpt><trkpt lat="44.8832778" lon="9.7163004"><ele>186.0</ele><time>2026-05-01T08:09:20.036Z</time></trkpt><trkpt lat="44.8832466" lon="9.7164014"><ele>187.0</ele><time>2026-05-01T08:09:23.031Z</time></trkpt><trkpt lat="44.8832206" lon="9.7165013"><ele>188.0</ele><time>2026-05-01T08:09:26.031Z</time></trkpt><trkpt lat="44.8831908" lon="9.7166021"><ele>189.0</ele><time>2026-05-01T08:09:29.021Z</time></trkpt><trkpt lat="44.8831571" lon="9.7167057"><ele>190.0</ele><time>2026-05-01T08:09:33.026Z</time></trkpt><trkpt lat="44.883118" lon="9.7167943"><ele>191.0</ele><time>2026-05-01T08:09:36.028Z</time></trkpt><trkpt lat="44.8830919" lon="9.716879"><ele>191.71428571428572</ele><time>2026-05-01T08:09:39.034Z</time></trkpt><trkpt lat="44.8830435" lon="9.7169653"><ele>192.42857142857142</ele><time>2026-05-01T08:09:42.998Z</time></trkpt><trkpt lat="44.8829966" lon="9.7170255"><ele>193.14285714285714</ele><time>2026-05-01T08:09:46.997Z</time></trkpt><trkpt lat="44.8829372" lon="9.717072"><ele>193.85714285714286</ele><time>2026-05-01T08:09:51.016Z</time></trkpt><trkpt lat="44.8828854" lon="9.7171273"><ele>194.57142857142856</ele><time>2026-05-01T08:09:55.022Z</time></trkpt><trkpt lat="44.8828319" lon="9.7171936"><ele>195.28571428571428</ele><time>2026-05-01T08:10:00.022Z</time></trkpt><trkpt lat="44.8827712" lon="9.7172482"><ele>196.0</ele><time>2026-05-01T08:10:04.024Z</time></trkpt><trkpt lat="44.8827156" lon="9.7173012"><ele>196.0</ele><time>2026-05-01T08:10:08.01Z</time></trkpt><trkpt lat="44.8826624" lon="9.7173515"><ele>196.0</ele><time>2026-05-01T08:10:12.003Z</time></trkpt><trkpt lat="44.882603" lon="9.7174075"><ele>196.0</ele><time>2026-05-01T08:10:17.025Z</time></trkpt><trkpt lat="44.8825419" lon="9.717448"><ele>196.0</ele><time>2026-05-01T08:10:20.998Z</time></trkpt><trkpt lat="44.8824821" lon="9.7174981"><ele>196.0</ele><time>2026-05-01T08:10:25.005Z</time></trkpt><trkpt lat="44.882419" lon="9.7175493"><ele>196.0</ele><time>2026-05-01T08:10:30.03Z</time></trkpt><trkpt lat="44.8823545" lon="9.7175753"><ele>196.0</ele><time>2026-05-01T08:10:34.025Z</time></trkpt><trkpt lat="44.8822854" lon="9.7176278"><ele>197.71428571428572</ele><time>2026-05-01T08:10:39.022Z</time></trkpt><trkpt lat="44.8822255" lon="9.7176566"><ele>199.42857142857144</ele><time>2026-05-01T08:10:42.03Z</time></trkpt><trkpt lat="44.882155" lon="9.7176936"><ele>201.14285714285714</ele><time>2026-05-01T08:10:46.026Z</time></trkpt><trkpt lat="44.8820928" lon="9.7177236"><ele>202.85714285714286</ele><time>2026-05-01T08:10:50.025Z</time></trkpt><trkpt lat="44.8820218" lon="9.7177534"><ele>204.57142857142858</ele><time>2026-05-01T08:10:55.025Z</time></trkpt><trkpt lat="44.8819567" lon="9.71779"><ele>206.28571428571428</ele><time>2026-05-01T08:10:59.031Z</time></trkpt><trkpt lat="44.8818847" lon="9.7178"><ele>208.0</ele><time>2026-05-01T08:11:03.025Z</time></trkpt><trkpt lat="44.8818535" lon="9.7177036"><ele>208.0</ele><time>2026-05-01T08:11:09.015Z</time></trkpt><trkpt lat="44.8818623" lon="9.717613"><ele>208.0</ele><time>2026-05-01T08:11:13.028Z</time></trkpt><trkpt lat="44.881869" lon="9.7175113"><ele>208.0</ele><time>2026-05-01T08:11:17.024Z</time></trkpt><trkpt lat="44.8818571" lon="9.7174087"><ele>208.0</ele><time>2026-05-01T08:11:22.031Z</time></trkpt><trkpt lat="44.8818477" lon="9.7173008"><ele>208.0</ele><time>2026-05-01T08:11:27.015Z</time></trkpt><trkpt lat="44.8818045" lon="9.7172134"><ele>208.0</ele><time>2026-05-01T08:11:32.021Z</time></trkpt><trkpt lat="44.881738" lon="9.7171849"><ele>208.0</ele><time>2026-05-01T08:11:36.036Z</time></trkpt><trkpt lat="44.8816736" lon="9.7171778"><ele>209.57142857142856</ele><time>2026-05-01T08:11:40.023Z</time></trkpt><trkpt lat="44.8816099" lon="9.7171684"><ele>211.14285714285717</ele><time>2026-05-01T08:11:44.033Z</time></trkpt><trkpt lat="44.8815304" lon="9.7171514"><ele>212.71428571428572</ele><time>2026-05-01T08:11:49.024Z</time></trkpt><trkpt lat="44.8814584" lon="9.7171476"><ele>214.28571428571428</ele><time>2026-05-01T08:11:53.023Z</time></trkpt><trkpt lat="44.8813854" lon="9.7171387"><ele>215.85714285714283</ele><time>2026-05-01T08:11:57.037Z</time></trkpt><trkpt lat="44.8813156" lon="9.7171411"><ele>217.42857142857144</ele><time>2026-05-01T08:12:01.037Z</time></trkpt><trkpt lat="44.8812475" lon="9.7171284"><ele>219.0</ele><time>2026-05-01T08:12:05.036Z</time></trkpt><trkpt lat="44.8811797" lon="9.7171072"><ele>219.0</ele><time>2026-05-01T08:12:09.032Z</time></trkpt><trkpt lat="44.8811064" lon="9.7170965"><ele>219.0</ele><time>2026-05-01T08:12:14.025Z</time></trkpt><trkpt lat="44.8810336" lon="9.7170944"><ele>219.0</ele><time>2026-05-01T08:12:18.028Z</time></trkpt><trkpt lat="44.8809662" lon="9.717087"><ele>219.0</ele><time>2026-05-01T08:12:22.027Z</time></trkpt><trkpt lat="44.8809021" lon="9.7170836"><ele>219.0</ele><time>2026-05-01T08:12:26.036Z</time></trkpt><trkpt lat="44.8808309" lon="9.7170643"><ele>219.0</ele><time>2026-05-01T08:12:31.018Z</time></trkpt><trkpt lat="44.880751" lon="9.7170463"><ele>219.0</ele><time>2026-05-01T08:12:36.028Z</time></trkpt><trkpt lat="44.8806687" lon="9.7170258"><ele>219.0</ele><time>2026-05-01T08:12:41.027Z</time></trkpt><trkpt lat="44.8805962" lon="9.717014"><ele>219.0</ele><time>2026-05-01T08:12:45.032Z</time></trkpt><trkpt lat="44.8805325" lon="9.716986"><ele>219.0</ele><time>2026-05-01T08:12:49.018Z</time></trkpt><trkpt lat="44.8804587" lon="9.7169507"><ele>219.0</ele><time>2026-05-01T08:12:54.034Z</time></trkpt><trkpt lat="44.8804016" lon="9.7169086"><ele>219.0</ele><time>2026-05-01T08:12:58.027Z</time></trkpt><trkpt lat="44.8803377" lon="9.7168577"><ele>219.0</ele><time>2026-05-01T08:13:02.033Z</time></trkpt><trkpt lat="44.8802713" lon="9.7168242"><ele>219.0</ele><time>2026-05-01T08:13:06.034Z</time></trkpt><trkpt lat="44.8802081" lon="9.7167842"><ele>219.14285714285714</ele><time>2026-05-01T08:13:10.017Z</time></trkpt><trkpt lat="44.8801319" lon="9.7167571"><ele>219.28571428571428</ele><time>2026-05-01T08:13:14.042Z</time></trkpt><trkpt lat="44.8800735" lon="9.7167186"><ele>219.42857142857142</ele><time>2026-05-01T08:13:18.028Z</time></trkpt><trkpt lat="44.8800086" lon="9.716684"><ele>219.57142857142856</ele><time>2026-05-01T08:13:22.026Z</time></trkpt><trkpt lat="44.8799359" lon="9.716642"><ele>219.71428571428572</ele><time>2026-05-01T08:13:26.019Z</time></trkpt><trkpt lat="44.8798708" lon="9.7166057"><ele>219.85714285714283</ele><time>2026-05-01T08:13:30.024Z</time></trkpt><trkpt lat="44.879798" lon="9.7165536"><ele>220.0</ele><time>2026-05-01T08:13:34.026Z</time></trkpt><trkpt lat="44.8797243" lon="9.7165136"><ele>220.85714285714283</ele><time>2026-05-01T08:13:38.031Z</time></trkpt><trkpt lat="44.8796523" lon="9.7164841"><ele>221.71428571428572</ele><time>2026-05-01T08:13:42.031Z</time></trkpt><trkpt lat="44.879586" lon="9.716437"><ele>222.57142857142856</ele><time>2026-05-01T08:13:46.041Z</time></trkpt><trkpt lat="44.8795215" lon="9.7163879"><ele>223.42857142857142</ele><time>2026-05-01T08:13:50.023Z</time></trkpt><trkpt lat="44.8794668" lon="9.7163381"><ele>224.28571428571428</ele><time>2026-05-01T08:13:53.03Z</time></trkpt><trkpt lat="44.8794117" lon="9.7162846"><ele>225.14285714285714</ele><time>2026-05-01T08:13:56.041Z</time></trkpt><trkpt lat="44.8793468" lon="9.7162481"><ele>226.0</ele><time>2026-05-01T08:13:59.023Z</time></trkpt><trkpt lat="44.8792851" lon="9.7162176"><ele>226.71428571428572</ele><time>2026-05-01T08:14:02.031Z</time></trkpt><trkpt lat="44.8792247" lon="9.7161747"><ele>227.42857142857142</ele><time>2026-05-01T08:14:05.028Z</time></trkpt><trkpt lat="44.8791606" lon="9.7161561"><ele>228.14285714285714</ele><time>2026-05-01T08:14:08.03Z</time></trkpt><trkpt lat="44.879097" lon="9.716124"><ele>228.85714285714286</ele><time>2026-05-01T08:14:11.029Z</time></trkpt><trkpt lat="44.8790379" lon="9.7160815"><ele>229.57142857142856</ele><time>2026-05-01T08:14:15.041Z</time></trkpt><trkpt lat="44.8789686" lon="9.7160954"><ele>230.28571428571428</ele><time>2026-05-01T08:16:20.039Z</time></trkpt><trkpt lat="44.878904" lon="9.7161042"><ele>231.0</ele><time>2026-05-01T08:16:23.023Z</time></trkpt><trkpt lat="44.8788291" lon="9.7161112"><ele>231.0</ele><time>2026-05-01T08:16:27.033Z</time></trkpt><trkpt lat="44.8787475" lon="9.7161146"><ele>231.0</ele><time>2026-05-01T08:16:31.016Z</time></trkpt><trkpt lat="44.8786656" lon="9.7161105"><ele>231.0</ele><time>2026-05-01T08:16:35.033Z</time></trkpt><trkpt lat="44.8785867" lon="9.7161059"><ele>231.0</ele><time>2026-05-01T08:16:39.038Z</time></trkpt><trkpt lat="44.8785176" lon="9.7161052"><ele>231.0</ele><time>2026-05-01T08:16:42.029Z</time></trkpt><trkpt lat="44.8784527" lon="9.7160987"><ele>231.0</ele><time>2026-05-01T08:16:45.035Z</time></trkpt><trkpt lat="44.8783881" lon="9.7160939"><ele>231.0</ele><time>2026-05-01T08:16:48.007Z</time></trkpt><trkpt lat="44.8783043" lon="9.7160895"><ele>231.83333333333334</ele><time>2026-05-01T08:16:52.009Z</time></trkpt><trkpt lat="44.8782188" lon="9.7161007"><ele>232.66666666666669</ele><time>2026-05-01T08:16:56.016Z</time></trkpt><trkpt lat="44.8781504" lon="9.7161048"><ele>233.5</ele><time>2026-05-01T08:16:59.023Z</time></trkpt><trkpt lat="44.8780698" lon="9.7161171"><ele>234.33333333333334</ele><time>2026-05-01T08:17:03.033Z</time></trkpt><trkpt lat="44.8780024" lon="9.7161231"><ele>235.16666666666669</ele><time>2026-05-01T08:17:06.034Z</time></trkpt><trkpt lat="44.877918" lon="9.7161498"><ele>236.0</ele><time>2026-05-01T08:17:10.029Z</time></trkpt><trkpt lat="44.8778346" lon="9.7161739"><ele>236.0</ele><time>2026-05-01T08:17:14.031Z</time></trkpt><trkpt lat="44.8777647" lon="9.716176"><ele>236.0</ele><time>2026-05-01T08:17:17.041Z</time></trkpt><trkpt lat="44.8776914" lon="9.7161176"><ele>236.0</ele><time>2026-05-01T08:17:21.033Z</time></trkpt><trkpt lat="44.8776351" lon="9.7160703"><ele>236.0</ele><time>2026-05-01T08:17:24.017Z</time></trkpt><trkpt lat="44.8775761" lon="9.716025"><ele>236.0</ele><time>2026-05-01T08:17:27.031Z</time></trkpt><trkpt lat="44.8775127" lon="9.7159733"><ele>236.0</ele><time>2026-05-01T08:17:30.024Z</time></trkpt><trkpt lat="44.877444" lon="9.7159353"><ele>236.0</ele><time>2026-05-01T08:17:33.026Z</time></trkpt><trkpt lat="44.8773803" lon="9.715896"><ele>237.14285714285714</ele><time>2026-05-01T08:17:36.019Z</time></trkpt><trkpt lat="44.8773108" lon="9.7158619"><ele>238.28571428571428</ele><time>2026-05-01T08:17:39.04Z</time></trkpt><trkpt lat="44.877235" lon="9.7158095"><ele>239.42857142857142</ele><time>2026-05-01T08:17:43.023Z</time></trkpt><trkpt lat="44.8771745" lon="9.7157831"><ele>240.57142857142856</ele><time>2026-05-01T08:17:46.013Z</time></trkpt><trkpt lat="44.8771164" lon="9.7158249"><ele>241.71428571428572</ele><time>2026-05-01T08:17:49.027Z</time></trkpt><trkpt lat="44.8770836" lon="9.7159294"><ele>242.85714285714283</ele><time>2026-05-01T08:17:52.023Z</time></trkpt><trkpt lat="44.8770523" lon="9.7160183"><ele>243.99999999999997</ele><time>2026-05-01T08:17:54.036Z</time></trkpt><trkpt lat="44.8769842" lon="9.7160731"><ele>243.99999999999997</ele><time>2026-05-01T08:17:56.003Z</time></trkpt><trkpt lat="44.8769006" lon="9.7160903"><ele>244.0</ele><time>2026-05-01T08:17:59.036Z</time></trkpt><trkpt lat="44.8768234" lon="9.7160996"><ele>244.0</ele><time>2026-05-01T08:18:02.034Z</time></trkpt><trkpt lat="44.8767547" lon="9.716136"><ele>244.0</ele><time>2026-05-01T08:18:05.034Z</time></trkpt><trkpt lat="44.8766805" lon="9.7161618"><ele>243.99999999999997</ele><time>2026-05-01T08:18:08.031Z</time></trkpt><trkpt lat="44.8766069" lon="9.7161814"><ele>244.0</ele><time>2026-05-01T08:18:11.034Z</time></trkpt><trkpt lat="44.8765316" lon="9.7161654"><ele>244.99999999999997</ele><time>2026-05-01T08:18:14.032Z</time></trkpt><trkpt lat="44.8764655" lon="9.7161477"><ele>246.0</ele><time>2026-05-01T08:18:17.035Z</time></trkpt><trkpt lat="44.876394" lon="9.716115"><ele>247.0</ele><time>2026-05-01T08:18:20.026Z</time></trkpt><trkpt lat="44.876323" lon="9.7161104"><ele>248.0</ele><time>2026-05-01T08:18:23.01Z</time></trkpt><trkpt lat="44.8762694" lon="9.7161872"><ele>248.99999999999997</ele><time>2026-05-01T08:18:27.018Z</time></trkpt><trkpt lat="44.876294" lon="9.7162971"><ele>250.0</ele><time>2026-05-01T08:18:30.025Z</time></trkpt><trkpt lat="44.8763176" lon="9.7164177"><ele>250.0</ele><time>2026-05-01T08:18:33.03Z</time></trkpt><trkpt lat="44.8763368" lon="9.7165407"><ele>250.0</ele><time>2026-05-01T08:18:35.034Z</time></trkpt><trkpt lat="44.8763296" lon="9.7166777"><ele>250.0</ele><time>2026-05-01T08:18:37.027Z</time></trkpt><trkpt lat="44.8763379" lon="9.7167934"><ele>250.0</ele><time>2026-05-01T08:18:39.026Z</time></trkpt><trkpt lat="44.8763315" lon="9.7169234"><ele>250.0</ele><time>2026-05-01T08:18:41.027Z</time></trkpt><trkpt lat="44.8763277" lon="9.7170518"><ele>248.6</ele><time>2026-05-01T08:18:43.037Z</time></trkpt><trkpt lat="44.8763194" lon="9.7171865"><ele>247.2</ele><time>2026-05-01T08:18:45.035Z</time></trkpt><trkpt lat="44.8763119" lon="9.7173467"><ele>245.8</ele><time>2026-05-01T08:18:47.016Z</time></trkpt><trkpt lat="44.8762946" lon="9.7175268"><ele>244.4</ele><time>2026-05-01T08:18:49.035Z</time></trkpt><trkpt lat="44.876288" lon="9.7176227"><ele>243.0</ele><time>2026-05-01T08:18:50.041Z</time></trkpt><trkpt lat="44.8762743" lon="9.7177271"><ele>242.5</ele><time>2026-05-01T08:18:51.027Z</time></trkpt><trkpt lat="44.876229" lon="9.7178971"><ele>242.0</ele><time>2026-05-01T08:18:53.027Z</time></trkpt><trkpt lat="44.8761989" lon="9.7179826"><ele>241.5</ele><time>2026-05-01T08:18:54.045Z</time></trkpt><trkpt lat="44.8761667" lon="9.7180681"><ele>241.0</ele><time>2026-05-01T08:18:55.031Z</time></trkpt><trkpt lat="44.8761313" lon="9.7181532"><ele>240.5</ele><time>2026-05-01T08:18:56.037Z</time></trkpt><trkpt lat="44.8760945" lon="9.7182394"><ele>240.0</ele><time>2026-05-01T08:18:57.033Z</time></trkpt><trkpt lat="44.8760585" lon="9.7183157"><ele>240.0</ele><time>2026-05-01T08:18:58.034Z</time></trkpt><trkpt lat="44.875997" lon="9.7184623"><ele>240.0</ele><time>2026-05-01T08:19:00.045Z</time></trkpt><trkpt lat="44.8759607" lon="9.7185441"><ele>240.0</ele><time>2026-05-01T08:19:01.023Z</time></trkpt><trkpt lat="44.8759024" lon="9.7186935"><ele>240.0</ele><time>2026-05-01T08:19:03.005Z</time></trkpt><trkpt lat="44.8758548" lon="9.7188496"><ele>240.0</ele><time>2026-05-01T08:19:05.033Z</time></trkpt><trkpt lat="44.8757962" lon="9.7189947"><ele>239.66666666666666</ele><time>2026-05-01T08:19:07.036Z</time></trkpt><trkpt lat="44.8757559" lon="9.719124"><ele>239.33333333333331</ele><time>2026-05-01T08:19:09.037Z</time></trkpt><trkpt lat="44.8757317" lon="9.7192238"><ele>239.0</ele><time>2026-05-01T08:19:11.041Z</time></trkpt><trkpt lat="44.8756897" lon="9.7193304"><ele>238.66666666666666</ele><time>2026-05-01T08:19:14.046Z</time></trkpt><trkpt lat="44.8756414" lon="9.719392"><ele>238.33333333333331</ele><time>2026-05-01T08:19:16.036Z</time></trkpt><trkpt lat="44.8755805" lon="9.7194149"><ele>238.0</ele><time>2026-05-01T08:19:18.032Z</time></trkpt><trkpt lat="44.8754944" lon="9.7194"><ele>237.99999999999997</ele><time>2026-05-01T08:19:21.032Z</time></trkpt><trkpt lat="44.8754128" lon="9.7193856"><ele>238.0</ele><time>2026-05-01T08:19:24.042Z</time></trkpt><trkpt lat="44.8753312" lon="9.7193496"><ele>238.0</ele><time>2026-05-01T08:19:27.028Z</time></trkpt><trkpt lat="44.875268" lon="9.7193004"><ele>238.0</ele><time>2026-05-01T08:19:30.044Z</time></trkpt><trkpt lat="44.8751966" lon="9.7192523"><ele>237.99999999999997</ele><time>2026-05-01T08:19:33.025Z</time></trkpt><trkpt lat="44.8751226" lon="9.7192345"><ele>238.0</ele><time>2026-05-01T08:19:36.031Z</time></trkpt><trkpt lat="44.8750667" lon="9.7193061"><ele>239.16666666666666</ele><time>2026-05-01T08:19:39.032Z</time></trkpt><trkpt lat="44.8750189" lon="9.7193978"><ele>240.33333333333331</ele><time>2026-05-01T08:19:42.031Z</time></trkpt><trkpt lat="44.8749805" lon="9.7194995"><ele>241.5</ele><time>2026-05-01T08:19:45.035Z</time></trkpt><trkpt lat="44.874938" lon="9.7195943"><ele>242.66666666666669</ele><time>2026-05-01T08:19:48.03Z</time></trkpt><trkpt lat="44.8748981" lon="9.7196872"><ele>243.83333333333334</ele><time>2026-05-01T08:19:51.029Z</time></trkpt><trkpt lat="44.8748535" lon="9.7197796"><ele>245.0</ele><time>2026-05-01T08:19:54.016Z</time></trkpt><trkpt lat="44.8748116" lon="9.7198765"><ele>245.16666666666669</ele><time>2026-05-01T08:19:57.029Z</time></trkpt><trkpt lat="44.8747608" lon="9.7199699"><ele>245.33333333333334</ele><time>2026-05-01T08:20:00.032Z</time></trkpt><trkpt lat="44.8747076" lon="9.7200599"><ele>245.5</ele><time>2026-05-01T08:20:03.032Z</time></trkpt><trkpt lat="44.8746611" lon="9.7201428"><ele>245.66666666666669</ele><time>2026-05-01T08:20:06.031Z</time></trkpt><trkpt lat="44.8746107" lon="9.72023"><ele>245.83333333333334</ele><time>2026-05-01T08:20:09.036Z</time></trkpt><trkpt lat="44.8745501" lon="9.7203282"><ele>246.0</ele><time>2026-05-01T08:20:12.033Z</time></trkpt><trkpt lat="44.8745016" lon="9.7204302"><ele>245.5</ele><time>2026-05-01T08:20:15.031Z</time></trkpt><trkpt lat="44.8744712" lon="9.7205219"><ele>245.0</ele><time>2026-05-01T08:20:18.019Z</time></trkpt><trkpt lat="44.8744688" lon="9.7206225"><ele>244.5</ele><time>2026-05-01T08:20:21.03Z</time></trkpt><trkpt lat="44.8745184" lon="9.7206915"><ele>244.0</ele><time>2026-05-01T08:21:30.033Z</time></trkpt><trkpt lat="44.8745421" lon="9.7208168"><ele>243.5</ele><time>2026-05-01T08:21:34.029Z</time></trkpt><trkpt lat="44.8745784" lon="9.7209234"><ele>243.0</ele><time>2026-05-01T08:21:36Z</time></trkpt><trkpt lat="44.8746359" lon="9.7210185"><ele>242.8</ele><time>2026-05-01T08:21:38.033Z</time></trkpt><trkpt lat="44.8747068" lon="9.7211192"><ele>242.60000000000002</ele><time>2026-05-01T08:21:40.037Z</time></trkpt><trkpt lat="44.874791" lon="9.7212166"><ele>242.39999999999998</ele><time>2026-05-01T08:21:42.012Z</time></trkpt><trkpt lat="44.8748775" lon="9.7213127"><ele>242.2</ele><time>2026-05-01T08:21:44.034Z</time></trkpt><trkpt lat="44.8749692" lon="9.7214155"><ele>242.0</ele><time>2026-05-01T08:21:46.033Z</time></trkpt><trkpt lat="44.8750234" lon="9.7214632"><ele>241.66666666666669</ele><time>2026-05-01T08:21:47.02Z</time></trkpt><trkpt lat="44.8751217" lon="9.7215621"><ele>241.33333333333334</ele><time>2026-05-01T08:21:49.036Z</time></trkpt><trkpt lat="44.8751687" lon="9.7216272"><ele>241.0</ele><time>2026-05-01T08:21:50.036Z</time></trkpt><trkpt lat="44.8751957" lon="9.7217128"><ele>240.66666666666669</ele><time>2026-05-01T08:21:51.026Z</time></trkpt><trkpt lat="44.8752049" lon="9.7218131"><ele>240.33333333333334</ele><time>2026-05-01T08:21:52.031Z</time></trkpt><trkpt lat="44.875205" lon="9.7219061"><ele>240.0</ele><time>2026-05-01T08:21:53.043Z</time></trkpt><trkpt lat="44.8751991" lon="9.7219977"><ele>239.71428571428572</ele><time>2026-05-01T08:21:54.04Z</time></trkpt><trkpt lat="44.8751957" lon="9.7220899"><ele>239.42857142857142</ele><time>2026-05-01T08:21:55.043Z</time></trkpt><trkpt lat="44.8752062" lon="9.7221787"><ele>239.14285714285714</ele><time>2026-05-01T08:21:56.041Z</time></trkpt><trkpt lat="44.8752623" lon="9.7222521"><ele>238.85714285714286</ele><time>2026-05-01T08:21:57.036Z</time></trkpt><trkpt lat="44.8753276" lon="9.7222816"><ele>238.57142857142856</ele><time>2026-05-01T08:21:58.032Z</time></trkpt><trkpt lat="44.8753967" lon="9.7223105"><ele>238.28571428571428</ele><time>2026-05-01T08:21:59.035Z</time></trkpt><trkpt lat="44.8754577" lon="9.7223416"><ele>238.0</ele><time>2026-05-01T08:22:00.03Z</time></trkpt><trkpt lat="44.8755196" lon="9.7223726"><ele>238.0</ele><time>2026-05-01T08:22:01.03Z</time></trkpt><trkpt lat="44.87558" lon="9.7224327"><ele>238.0</ele><time>2026-05-01T08:22:02.039Z</time></trkpt><trkpt lat="44.8755989" lon="9.7225213"><ele>238.0</ele><time>2026-05-01T08:22:03.03Z</time></trkpt><trkpt lat="44.8755797" lon="9.722616"><ele>238.0</ele><time>2026-05-01T08:22:04.029Z</time></trkpt><trkpt lat="44.8755401" lon="9.7226938"><ele>238.0</ele><time>2026-05-01T08:22:05.033Z</time></trkpt><trkpt lat="44.8755048" lon="9.7227759"><ele>238.0</ele><time>2026-05-01T08:22:06.027Z</time></trkpt><trkpt lat="44.8754665" lon="9.7228529"><ele>238.0</ele><time>2026-05-01T08:22:07.038Z</time></trkpt><trkpt lat="44.8754354" lon="9.7229322"><ele>237.14285714285714</ele><time>2026-05-01T08:22:08.038Z</time></trkpt><trkpt lat="44.8753957" lon="9.7230122"><ele>236.28571428571428</ele><time>2026-05-01T08:22:09.044Z</time></trkpt><trkpt lat="44.8753532" lon="9.7230983"><ele>235.42857142857144</ele><time>2026-05-01T08:22:10.037Z</time></trkpt><trkpt lat="44.8753062" lon="9.7231848"><ele>234.57142857142858</ele><time>2026-05-01T08:22:11.046Z</time></trkpt><trkpt lat="44.8752655" lon="9.7232709"><ele>233.71428571428572</ele><time>2026-05-01T08:22:12.03Z</time></trkpt><trkpt lat="44.8752306" lon="9.7233547"><ele>232.8571428571429</ele><time>2026-05-01T08:22:13.035Z</time></trkpt><trkpt lat="44.8752197" lon="9.7234618"><ele>232.00000000000003</ele><time>2026-05-01T08:22:14.041Z</time></trkpt><trkpt lat="44.8752355" lon="9.7235759"><ele>231.33333333333331</ele><time>2026-05-01T08:22:15.045Z</time></trkpt><trkpt lat="44.8752736" lon="9.723672"><ele>230.66666666666666</ele><time>2026-05-01T08:22:16.041Z</time></trkpt><trkpt lat="44.8753328" lon="9.7237506"><ele>230.0</ele><time>2026-05-01T08:22:17.027Z</time></trkpt><trkpt lat="44.8753992" lon="9.72383"><ele>229.33333333333331</ele><time>2026-05-01T08:22:18.019Z</time></trkpt><trkpt lat="44.8754662" lon="9.7239086"><ele>228.66666666666666</ele><time>2026-05-01T08:22:19.036Z</time></trkpt><trkpt lat="44.8755444" lon="9.723979"><ele>228.0</ele><time>2026-05-01T08:22:20.046Z</time></trkpt><trkpt lat="44.875617" lon="9.7240418"><ele>228.0</ele><time>2026-05-01T08:22:21.032Z</time></trkpt><trkpt lat="44.875681" lon="9.7241136"><ele>228.0</ele><time>2026-05-01T08:22:22.047Z</time></trkpt><trkpt lat="44.8757145" lon="9.7242074"><ele>228.0</ele><time>2026-05-01T08:22:23.029Z</time></trkpt><trkpt lat="44.87571" lon="9.724336"><ele>228.0</ele><time>2026-05-01T08:22:24.031Z</time></trkpt><trkpt lat="44.8756963" lon="9.7244614"><ele>228.0</ele><time>2026-05-01T08:22:25.024Z</time></trkpt><trkpt lat="44.8756748" lon="9.7245789"><ele>228.0</ele><time>2026-05-01T08:22:26.032Z</time></trkpt><trkpt lat="44.8756341" lon="9.7247239"><ele>226.83333333333334</ele><time>2026-05-01T08:22:28.033Z</time></trkpt><trkpt lat="44.8755008" lon="9.724773"><ele>225.66666666666669</ele><time>2026-05-01T08:22:30.031Z</time></trkpt><trkpt lat="44.8754258" lon="9.7247556"><ele>224.5</ele><time>2026-05-01T08:22:31.01Z</time></trkpt><trkpt lat="44.8753575" lon="9.7247397"><ele>223.33333333333334</ele><time>2026-05-01T08:22:32.026Z</time></trkpt><trkpt lat="44.8752835" lon="9.7247243"><ele>222.16666666666669</ele><time>2026-05-01T08:22:33.027Z</time></trkpt><trkpt lat="44.8752062" lon="9.7247043"><ele>221.0</ele><time>2026-05-01T08:22:34.028Z</time></trkpt><trkpt lat="44.8751339" lon="9.724684"><ele>220.66666666666669</ele><time>2026-05-01T08:22:35.023Z</time></trkpt><trkpt lat="44.8750609" lon="9.7246585"><ele>220.33333333333334</ele><time>2026-05-01T08:22:36.034Z</time></trkpt><trkpt lat="44.8749872" lon="9.7246242"><ele>220.0</ele><time>2026-05-01T08:22:37.028Z</time></trkpt><trkpt lat="44.8749149" lon="9.7246028"><ele>219.66666666666669</ele><time>2026-05-01T08:22:38.028Z</time></trkpt><trkpt lat="44.8748361" lon="9.7245839"><ele>219.33333333333334</ele><time>2026-05-01T08:22:39.027Z</time></trkpt><trkpt lat="44.8747582" lon="9.7245549"><ele>219.0</ele><time>2026-05-01T08:22:40.036Z</time></trkpt><trkpt lat="44.874677" lon="9.7245283"><ele>219.0</ele><time>2026-05-01T08:22:41.042Z</time></trkpt><trkpt lat="44.874598" lon="9.7245085"><ele>219.0</ele><time>2026-05-01T08:22:42.025Z</time></trkpt><trkpt lat="44.874523" lon="9.7244867"><ele>219.0</ele><time>2026-05-01T08:22:43.036Z</time></trkpt><trkpt lat="44.8744447" lon="9.7244629"><ele>219.0</ele><time>2026-05-01T08:22:44.025Z</time></trkpt><trkpt lat="44.8743663" lon="9.7244391"><ele>219.0</ele><time>2026-05-01T08:22:45.031Z</time></trkpt><trkpt lat="44.8742879" lon="9.7244082"><ele>219.0</ele><time>2026-05-01T08:22:46.036Z</time></trkpt><trkpt lat="44.8742127" lon="9.7243711"><ele>219.16666666666666</ele><time>2026-05-01T08:22:47.035Z</time></trkpt><trkpt lat="44.8741313" lon="9.7243391"><ele>219.33333333333331</ele><time>2026-05-01T08:22:48.038Z</time></trkpt><trkpt lat="44.8740539" lon="9.7243033"><ele>219.5</ele><time>2026-05-01T08:22:49.035Z</time></trkpt><trkpt lat="44.8739733" lon="9.7242604"><ele>219.66666666666666</ele><time>2026-05-01T08:22:50.04Z</time></trkpt><trkpt lat="44.8738928" lon="9.7242129"><ele>219.83333333333331</ele><time>2026-05-01T08:22:51.01Z</time></trkpt><trkpt lat="44.8738065" lon="9.7241662"><ele>220.0</ele><time>2026-05-01T08:22:52.036Z</time></trkpt><trkpt lat="44.8737228" lon="9.7241215"><ele>219.99999999999997</ele><time>2026-05-01T08:22:53.037Z</time></trkpt><trkpt lat="44.8736395" lon="9.7240822"><ele>220.0</ele><time>2026-05-01T08:22:54.024Z</time></trkpt><trkpt lat="44.87356" lon="9.7240371"><ele>220.0</ele><time>2026-05-01T08:22:55.033Z</time></trkpt><trkpt lat="44.8734821" lon="9.723993"><ele>220.0</ele><time>2026-05-01T08:22:56.03Z</time></trkpt><trkpt lat="44.8733968" lon="9.7239445"><ele>219.99999999999997</ele><time>2026-05-01T08:22:57.029Z</time></trkpt><trkpt lat="44.8733087" lon="9.723893"><ele>220.0</ele><time>2026-05-01T08:22:58.034Z</time></trkpt><trkpt lat="44.8732277" lon="9.72384"><ele>220.16666666666666</ele><time>2026-05-01T08:22:59.034Z</time></trkpt><trkpt lat="44.8731475" lon="9.7237855"><ele>220.33333333333331</ele><time>2026-05-01T08:23:00.043Z</time></trkpt><trkpt lat="44.8730723" lon="9.7237281"><ele>220.5</ele><time>2026-05-01T08:23:01.041Z</time></trkpt><trkpt lat="44.8730041" lon="9.7236652"><ele>220.66666666666669</ele><time>2026-05-01T08:23:02.028Z</time></trkpt><trkpt lat="44.8729317" lon="9.7236042"><ele>220.83333333333334</ele><time>2026-05-01T08:23:03.037Z</time></trkpt><trkpt lat="44.8728629" lon="9.7235471"><ele>221.0</ele><time>2026-05-01T08:23:04.031Z</time></trkpt><trkpt lat="44.8727931" lon="9.7234951"><ele>221.00000000000003</ele><time>2026-05-01T08:23:05.017Z</time></trkpt><trkpt lat="44.8727294" lon="9.7234449"><ele>221.0</ele><time>2026-05-01T08:23:06.038Z</time></trkpt><trkpt lat="44.8726711" lon="9.7233856"><ele>221.0</ele><time>2026-05-01T08:23:07.027Z</time></trkpt><trkpt lat="44.8726182" lon="9.7233205"><ele>221.0</ele><time>2026-05-01T08:23:08.027Z</time></trkpt><trkpt lat="44.8725672" lon="9.7232513"><ele>221.0</ele><time>2026-05-01T08:23:09.03Z</time></trkpt><trkpt lat="44.8725172" lon="9.7231965"><ele>221.00000000000003</ele><time>2026-05-01T08:23:10.028Z</time></trkpt><trkpt lat="44.8724659" lon="9.7231397"><ele>221.0</ele><time>2026-05-01T08:23:11.032Z</time></trkpt><trkpt lat="44.8723753" lon="9.7230306"><ele>220.25</ele><time>2026-05-01T08:23:13.03Z</time></trkpt><trkpt lat="44.8722865" lon="9.7229209"><ele>219.5</ele><time>2026-05-01T08:23:15.036Z</time></trkpt><trkpt lat="44.8721991" lon="9.7228164"><ele>218.75</ele><time>2026-05-01T08:23:17.029Z</time></trkpt><trkpt lat="44.872104" lon="9.7227135"><ele>218.0</ele><time>2026-05-01T08:23:19.032Z</time></trkpt><trkpt lat="44.8720083" lon="9.7226058"><ele>218.0</ele><time>2026-05-01T08:23:21.027Z</time></trkpt><trkpt lat="44.8719083" lon="9.72251"><ele>218.0</ele><time>2026-05-01T08:23:23.035Z</time></trkpt><trkpt lat="44.8717972" lon="9.7224183"><ele>218.0</ele><time>2026-05-01T08:23:25.016Z</time></trkpt><trkpt lat="44.8717353" lon="9.7223834"><ele>218.0</ele><time>2026-05-01T08:23:26.026Z</time></trkpt><trkpt lat="44.8716724" lon="9.7223534"><ele>218.0</ele><time>2026-05-01T08:23:27.046Z</time></trkpt><trkpt lat="44.871608" lon="9.7223255"><ele>216.16666666666669</ele><time>2026-05-01T08:23:28.041Z</time></trkpt><trkpt lat="44.8715356" lon="9.7222917"><ele>214.33333333333334</ele><time>2026-05-01T08:23:29.046Z</time></trkpt><trkpt lat="44.8714649" lon="9.7222547"><ele>212.5</ele><time>2026-05-01T08:23:29.999Z</time></trkpt><trkpt lat="44.8713934" lon="9.7222171"><ele>210.66666666666669</ele><time>2026-05-01T08:23:31.036Z</time></trkpt><trkpt lat="44.8713205" lon="9.7221795"><ele>208.83333333333334</ele><time>2026-05-01T08:23:32.03Z</time></trkpt><trkpt lat="44.871248" lon="9.7221461"><ele>207.0</ele><time>2026-05-01T08:23:33.029Z</time></trkpt><trkpt lat="44.8711664" lon="9.7221047"><ele>207.0</ele><time>2026-05-01T08:23:34.035Z</time></trkpt><trkpt lat="44.8710896" lon="9.722058"><ele>207.0</ele><time>2026-05-01T08:23:35.028Z</time></trkpt><trkpt lat="44.8710107" lon="9.7220129"><ele>207.0</ele><time>2026-05-01T08:23:36.029Z</time></trkpt><trkpt lat="44.8709293" lon="9.7219723"><ele>207.0</ele><time>2026-05-01T08:23:37.034Z</time></trkpt><trkpt lat="44.8708494" lon="9.7219291"><ele>207.0</ele><time>2026-05-01T08:23:38.035Z</time></trkpt><trkpt lat="44.8707635" lon="9.721891"><ele>207.0</ele><time>2026-05-01T08:23:39.037Z</time></trkpt><trkpt lat="44.8706703" lon="9.7218604"><ele>207.39999999999998</ele><time>2026-05-01T08:23:40.042Z</time></trkpt><trkpt lat="44.8705793" lon="9.7218366"><ele>207.79999999999998</ele><time>2026-05-01T08:23:41.042Z</time></trkpt><trkpt lat="44.870482" lon="9.7218257"><ele>208.2</ele><time>2026-05-01T08:23:42.031Z</time></trkpt><trkpt lat="44.8703874" lon="9.7218389"><ele>208.6</ele><time>2026-05-01T08:23:43.036Z</time></trkpt><trkpt lat="44.8702955" lon="9.7218832"><ele>209.0</ele><time>2026-05-01T08:23:44.026Z</time></trkpt><trkpt lat="44.8702079" lon="9.7219412"><ele>207.66666666666669</ele><time>2026-05-01T08:23:45.03Z</time></trkpt><trkpt lat="44.8701278" lon="9.7220075"><ele>206.33333333333334</ele><time>2026-05-01T08:23:46.056Z</time></trkpt><trkpt lat="44.8700532" lon="9.7220611"><ele>205.0</ele><time>2026-05-01T08:23:47.012Z</time></trkpt><trkpt lat="44.8699857" lon="9.7221203"><ele>203.66666666666669</ele><time>2026-05-01T08:23:48.041Z</time></trkpt><trkpt lat="44.86992" lon="9.7221783"><ele>202.33333333333334</ele><time>2026-05-01T08:23:49.031Z</time></trkpt><trkpt lat="44.8698549" lon="9.7222368"><ele>201.0</ele><time>2026-05-01T08:23:50.033Z</time></trkpt><trkpt lat="44.8697896" lon="9.7222855"><ele>200.4</ele><time>2026-05-01T08:23:51.039Z</time></trkpt><trkpt lat="44.869732" lon="9.7223311"><ele>199.8</ele><time>2026-05-01T08:23:52.045Z</time></trkpt><trkpt lat="44.8696761" lon="9.7223763"><ele>199.20000000000002</ele><time>2026-05-01T08:23:53.034Z</time></trkpt><trkpt lat="44.8695705" lon="9.7224564"><ele>198.60000000000002</ele><time>2026-05-01T08:23:55.029Z</time></trkpt><trkpt lat="44.8694802" lon="9.7225299"><ele>198.0</ele><time>2026-05-01T08:23:57.026Z</time></trkpt><trkpt lat="44.8694591" lon="9.7226649"><ele>198.0</ele><time>2026-05-01T08:23:59.029Z</time></trkpt><trkpt lat="44.869493" lon="9.7228085"><ele>198.0</ele><time>2026-05-01T08:24:01.038Z</time></trkpt><trkpt lat="44.8695418" lon="9.7229735"><ele>198.0</ele><time>2026-05-01T08:24:03.033Z</time></trkpt><trkpt lat="44.8695735" lon="9.7230591"><ele>198.0</ele><time>2026-05-01T08:24:04.031Z</time></trkpt><trkpt lat="44.8696062" lon="9.7231446"><ele>198.0</ele><time>2026-05-01T08:24:05.034Z</time></trkpt><trkpt lat="44.8696384" lon="9.7232363"><ele>198.0</ele><time>2026-05-01T08:24:06.03Z</time></trkpt><trkpt lat="44.86967" lon="9.7233311"><ele>198.0</ele><time>2026-05-01T08:24:07.026Z</time></trkpt><trkpt lat="44.8696967" lon="9.7234232"><ele>198.0</ele><time>2026-05-01T08:24:08.032Z</time></trkpt><trkpt lat="44.8697259" lon="9.7235082"><ele>198.0</ele><time>2026-05-01T08:24:09.031Z</time></trkpt><trkpt lat="44.8697523" lon="9.7235953"><ele>198.0</ele><time>2026-05-01T08:24:10.028Z</time></trkpt><trkpt lat="44.869779" lon="9.7236895"><ele>198.0</ele><time>2026-05-01T08:24:11.026Z</time></trkpt><trkpt lat="44.8698029" lon="9.7237839"><ele>198.0</ele><time>2026-05-01T08:24:12.03Z</time></trkpt><trkpt lat="44.8698279" lon="9.7238812"><ele>198.0</ele><time>2026-05-01T08:24:13.03Z</time></trkpt><trkpt lat="44.8698507" lon="9.723978"><ele>197.71428571428572</ele><time>2026-05-01T08:24:14.021Z</time></trkpt><trkpt lat="44.8698743" lon="9.7240731"><ele>197.42857142857142</ele><time>2026-05-01T08:24:15.029Z</time></trkpt><trkpt lat="44.8699013" lon="9.7241647"><ele>197.14285714285714</ele><time>2026-05-01T08:24:16.03Z</time></trkpt><trkpt lat="44.8699283" lon="9.7242598"><ele>196.85714285714286</ele><time>2026-05-01T08:24:17.031Z</time></trkpt><trkpt lat="44.8699527" lon="9.724351"><ele>196.57142857142856</ele><time>2026-05-01T08:24:18.029Z</time></trkpt><trkpt lat="44.86998" lon="9.7244422"><ele>196.28571428571428</ele><time>2026-05-01T08:24:19.032Z</time></trkpt><trkpt lat="44.8700105" lon="9.7245313"><ele>196.0</ele><time>2026-05-01T08:24:20.033Z</time></trkpt><trkpt lat="44.8700365" lon="9.7246219"><ele>196.0</ele><time>2026-05-01T08:24:21.039Z</time></trkpt><trkpt lat="44.8700632" lon="9.7247173"><ele>196.0</ele><time>2026-05-01T08:24:22.028Z</time></trkpt><trkpt lat="44.8700922" lon="9.7248105"><ele>196.0</ele><time>2026-05-01T08:24:23.028Z</time></trkpt><trkpt lat="44.8701161" lon="9.7248989"><ele>196.0</ele><time>2026-05-01T08:24:24.032Z</time></trkpt><trkpt lat="44.8701393" lon="9.7249895"><ele>196.0</ele><time>2026-05-01T08:24:25.026Z</time></trkpt><trkpt lat="44.8701638" lon="9.7250767"><ele>196.0</ele><time>2026-05-01T08:24:26.04Z</time></trkpt><trkpt lat="44.8701895" lon="9.7251681"><ele>196.0</ele><time>2026-05-01T08:24:27.033Z</time></trkpt><trkpt lat="44.8702126" lon="9.7252528"><ele>195.60000000000002</ele><time>2026-05-01T08:24:28.02Z</time></trkpt><trkpt lat="44.8702661" lon="9.7254173"><ele>195.2</ele><time>2026-05-01T08:24:30.006Z</time></trkpt><trkpt lat="44.8702875" lon="9.725502"><ele>194.8</ele><time>2026-05-01T08:24:31.007Z</time></trkpt><trkpt lat="44.8703416" lon="9.7256611"><ele>194.39999999999998</ele><time>2026-05-01T08:24:33.021Z</time></trkpt><trkpt lat="44.8703959" lon="9.7258125"><ele>194.0</ele><time>2026-05-01T08:24:35.032Z</time></trkpt><trkpt lat="44.8704636" lon="9.7259633"><ele>194.39999999999998</ele><time>2026-05-01T08:24:37.009Z</time></trkpt><trkpt lat="44.8705338" lon="9.7260991"><ele>194.8</ele><time>2026-05-01T08:24:39.033Z</time></trkpt><trkpt lat="44.870608" lon="9.7262304"><ele>195.2</ele><time>2026-05-01T08:24:41.034Z</time></trkpt><trkpt lat="44.8706546" lon="9.7262929"><ele>195.60000000000002</ele><time>2026-05-01T08:24:42.023Z</time></trkpt><trkpt lat="44.8707361" lon="9.7264149"><ele>196.0</ele><time>2026-05-01T08:24:44.026Z</time></trkpt><trkpt lat="44.870811" lon="9.7265482"><ele>195.99999999999997</ele><time>2026-05-01T08:24:46.03Z</time></trkpt><trkpt lat="44.8708548" lon="9.7266156"><ele>196.0</ele><time>2026-05-01T08:24:47.021Z</time></trkpt><trkpt lat="44.870941" lon="9.7267461"><ele>196.0</ele><time>2026-05-01T08:24:49.023Z</time></trkpt><trkpt lat="44.8709858" lon="9.72681"><ele>196.0</ele><time>2026-05-01T08:24:50.029Z</time></trkpt><trkpt lat="44.8710266" lon="9.7268779"><ele>195.99999999999997</ele><time>2026-05-01T08:24:51.031Z</time></trkpt><trkpt lat="44.8711131" lon="9.7270067"><ele>196.0</ele><time>2026-05-01T08:24:53.028Z</time></trkpt><trkpt lat="44.8711562" lon="9.727072"><ele>195.33333333333331</ele><time>2026-05-01T08:24:54.024Z</time></trkpt><trkpt lat="44.8711979" lon="9.7271419"><ele>194.66666666666666</ele><time>2026-05-01T08:24:55.033Z</time></trkpt><trkpt lat="44.8712405" lon="9.7272141"><ele>194.0</ele><time>2026-05-01T08:24:56.029Z</time></trkpt><trkpt lat="44.871281" lon="9.7272835"><ele>193.33333333333331</ele><time>2026-05-01T08:24:57.033Z</time></trkpt><trkpt lat="44.871362" lon="9.7274157"><ele>192.66666666666666</ele><time>2026-05-01T08:24:59.028Z</time></trkpt><trkpt lat="44.8714397" lon="9.7275435"><ele>192.0</ele><time>2026-05-01T08:25:01.039Z</time></trkpt><trkpt lat="44.8714804" lon="9.7276169"><ele>192.0</ele><time>2026-05-01T08:25:02.021Z</time></trkpt><trkpt lat="44.8715245" lon="9.7276813"><ele>192.0</ele><time>2026-05-01T08:25:03.024Z</time></trkpt><trkpt lat="44.8715662" lon="9.7277498"><ele>192.0</ele><time>2026-05-01T08:25:04.028Z</time></trkpt><trkpt lat="44.8716129" lon="9.7278123"><ele>192.0</ele><time>2026-05-01T08:25:05.028Z</time></trkpt><trkpt lat="44.8716575" lon="9.7278816"><ele>192.0</ele><time>2026-05-01T08:25:06.025Z</time></trkpt><trkpt lat="44.8717353" lon="9.7280094"><ele>192.0</ele><time>2026-05-01T08:25:08.033Z</time></trkpt><trkpt lat="44.8718117" lon="9.7281324"><ele>191.5</ele><time>2026-05-01T08:25:10.013Z</time></trkpt><trkpt lat="44.871856" lon="9.7282075"><ele>191.0</ele><time>2026-05-01T08:25:11.039Z</time></trkpt><trkpt lat="44.8719394" lon="9.7283374"><ele>190.5</ele><time>2026-05-01T08:25:13.016Z</time></trkpt><trkpt lat="44.8720281" lon="9.7284617"><ele>190.0</ele><time>2026-05-01T08:25:15.023Z</time></trkpt><trkpt lat="44.872072" lon="9.7285271"><ele>189.5</ele><time>2026-05-01T08:25:16.032Z</time></trkpt><trkpt lat="44.8721199" lon="9.7285921"><ele>189.0</ele><time>2026-05-01T08:25:17.025Z</time></trkpt><trkpt lat="44.8721586" lon="9.728663"><ele>189.0</ele><time>2026-05-01T08:25:18.018Z</time></trkpt><trkpt lat="44.872234" lon="9.728796"><ele>189.0</ele><time>2026-05-01T08:25:20.028Z</time></trkpt><trkpt lat="44.872314" lon="9.7289198"><ele>189.0</ele><time>2026-05-01T08:25:21.999Z</time></trkpt><trkpt lat="44.8723567" lon="9.72899"><ele>189.0</ele><time>2026-05-01T08:25:22.997Z</time></trkpt><trkpt lat="44.8724409" lon="9.729123"><ele>189.0</ele><time>2026-05-01T08:25:25.041Z</time></trkpt><trkpt lat="44.8724896" lon="9.7291861"><ele>189.0</ele><time>2026-05-01T08:25:26.009Z</time></trkpt><trkpt lat="44.8725821" lon="9.7293134"><ele>189.0</ele><time>2026-05-01T08:25:28.007Z</time></trkpt><trkpt lat="44.8726246" lon="9.7293804"><ele>189.0</ele><time>2026-05-01T08:25:29.025Z</time></trkpt><trkpt lat="44.8727092" lon="9.7295099"><ele>189.0</ele><time>2026-05-01T08:25:31.018Z</time></trkpt><trkpt lat="44.8727848" lon="9.7296417"><ele>189.0</ele><time>2026-05-01T08:25:33.023Z</time></trkpt><trkpt lat="44.8728645" lon="9.7297711"><ele>189.0</ele><time>2026-05-01T08:25:35.042Z</time></trkpt><trkpt lat="44.8729435" lon="9.729892"><ele>189.0</ele><time>2026-05-01T08:25:37.026Z</time></trkpt><trkpt lat="44.8730215" lon="9.7300256"><ele>189.0</ele><time>2026-05-01T08:25:39.032Z</time></trkpt><trkpt lat="44.8730986" lon="9.7301558"><ele>189.0</ele><time>2026-05-01T08:25:41.036Z</time></trkpt><trkpt lat="44.8731411" lon="9.730223"><ele>189.0</ele><time>2026-05-01T08:25:42.033Z</time></trkpt><trkpt lat="44.873224" lon="9.7303509"><ele>189.0</ele><time>2026-05-01T08:25:44.033Z</time></trkpt><trkpt lat="44.8733098" lon="9.7304796"><ele>189.0</ele><time>2026-05-01T08:25:46.041Z</time></trkpt><trkpt lat="44.8733906" lon="9.730607"><ele>189.0</ele><time>2026-05-01T08:25:48.035Z</time></trkpt><trkpt lat="44.8734722" lon="9.7307352"><ele>189.0</ele><time>2026-05-01T08:25:50.031Z</time></trkpt><trkpt lat="44.8735597" lon="9.7308645"><ele>188.6</ele><time>2026-05-01T08:25:52.047Z</time></trkpt><trkpt lat="44.8736399" lon="9.7309877"><ele>188.2</ele><time>2026-05-01T08:25:54.038Z</time></trkpt><trkpt lat="44.8737203" lon="9.7311111"><ele>187.79999999999998</ele><time>2026-05-01T08:25:56.023Z</time></trkpt><trkpt lat="44.8737655" lon="9.7311758"><ele>187.39999999999998</ele><time>2026-05-01T08:25:57.035Z</time></trkpt><trkpt lat="44.8738461" lon="9.7312944"><ele>187.0</ele><time>2026-05-01T08:25:59.039Z</time></trkpt><trkpt lat="44.8739244" lon="9.7314189"><ele>187.0</ele><time>2026-05-01T08:26:01.034Z</time></trkpt><trkpt lat="44.8740046" lon="9.7315529"><ele>187.0</ele><time>2026-05-01T08:26:03.039Z</time></trkpt><trkpt lat="44.8740841" lon="9.7316806"><ele>187.0</ele><time>2026-05-01T08:26:05.031Z</time></trkpt><trkpt lat="44.8741261" lon="9.7317488"><ele>187.0</ele><time>2026-05-01T08:26:06.04Z</time></trkpt><trkpt lat="44.874167" lon="9.7318164"><ele>187.0</ele><time>2026-05-01T08:26:07.026Z</time></trkpt><trkpt lat="44.8742092" lon="9.7318856"><ele>187.0</ele><time>2026-05-01T08:26:08.039Z</time></trkpt><trkpt lat="44.8742887" lon="9.732013"><ele>186.39999999999998</ele><time>2026-05-01T08:26:10.08Z</time></trkpt><trkpt lat="44.8743728" lon="9.7321426"><ele>185.79999999999998</ele><time>2026-05-01T08:26:12.018Z</time></trkpt><trkpt lat="44.8744486" lon="9.7322806"><ele>185.2</ele><time>2026-05-01T08:26:14.036Z</time></trkpt><trkpt lat="44.8745247" lon="9.7324196"><ele>184.6</ele><time>2026-05-01T08:26:16.035Z</time></trkpt><trkpt lat="44.8745648" lon="9.7324901"><ele>184.0</ele><time>2026-05-01T08:26:17.037Z</time></trkpt><trkpt lat="44.874604" lon="9.7325647"><ele>184.0</ele><time>2026-05-01T08:26:18.038Z</time></trkpt><trkpt lat="44.8746442" lon="9.7326333"><ele>184.0</ele><time>2026-05-01T08:26:19.033Z</time></trkpt><trkpt lat="44.8747202" lon="9.7327749"><ele>184.0</ele><time>2026-05-01T08:26:21.04Z</time></trkpt><trkpt lat="44.8747975" lon="9.7329121"><ele>184.0</ele><time>2026-05-01T08:26:23.04Z</time></trkpt><trkpt lat="44.8748737" lon="9.733051"><ele>184.0</ele><time>2026-05-01T08:26:25.038Z</time></trkpt><trkpt lat="44.874945" lon="9.7331847"><ele>184.0</ele><time>2026-05-01T08:26:27.039Z</time></trkpt><trkpt lat="44.875021" lon="9.7333263"><ele>184.0</ele><time>2026-05-01T08:26:29.035Z</time></trkpt><trkpt lat="44.8750964" lon="9.7334613"><ele>184.0</ele><time>2026-05-01T08:26:31.041Z</time></trkpt><trkpt lat="44.8751726" lon="9.733598"><ele>184.0</ele><time>2026-05-01T08:26:33.049Z</time></trkpt><trkpt lat="44.8752439" lon="9.7337273"><ele>183.75</ele><time>2026-05-01T08:26:35.032Z</time></trkpt><trkpt lat="44.8753127" lon="9.7338641"><ele>183.5</ele><time>2026-05-01T08:26:37.039Z</time></trkpt><trkpt lat="44.8753808" lon="9.7339895"><ele>183.25</ele><time>2026-05-01T08:26:39.033Z</time></trkpt><trkpt lat="44.8754503" lon="9.7341189"><ele>183.0</ele><time>2026-05-01T08:26:41.045Z</time></trkpt><trkpt lat="44.87552" lon="9.7342451"><ele>183.0</ele><time>2026-05-01T08:26:43.032Z</time></trkpt><trkpt lat="44.8755934" lon="9.7343724"><ele>183.0</ele><time>2026-05-01T08:26:45.037Z</time></trkpt><trkpt lat="44.8756599" lon="9.734504"><ele>183.0</ele><time>2026-05-01T08:26:47.037Z</time></trkpt><trkpt lat="44.8757258" lon="9.734633"><ele>183.0</ele><time>2026-05-01T08:26:49.037Z</time></trkpt><trkpt lat="44.8757975" lon="9.7347524"><ele>183.2</ele><time>2026-05-01T08:26:51.025Z</time></trkpt><trkpt lat="44.8758598" lon="9.7348678"><ele>183.4</ele><time>2026-05-01T08:26:53.034Z</time></trkpt><trkpt lat="44.8759249" lon="9.7349846"><ele>183.6</ele><time>2026-05-01T08:26:55.038Z</time></trkpt><trkpt lat="44.875986" lon="9.7351225"><ele>183.79999999999998</ele><time>2026-05-01T08:26:57.036Z</time></trkpt><trkpt lat="44.8760564" lon="9.7352528"><ele>184.0</ele><time>2026-05-01T08:26:59.038Z</time></trkpt><trkpt lat="44.8761204" lon="9.7353857"><ele>183.0</ele><time>2026-05-01T08:27:01.031Z</time></trkpt><trkpt lat="44.8761888" lon="9.7355096"><ele>182.0</ele><time>2026-05-01T08:27:03.034Z</time></trkpt><trkpt lat="44.8762505" lon="9.735639"><ele>181.0</ele><time>2026-05-01T08:27:05.037Z</time></trkpt><trkpt lat="44.8763185" lon="9.7357729"><ele>180.0</ele><time>2026-05-01T08:27:07.026Z</time></trkpt><trkpt lat="44.8763806" lon="9.7359056"><ele>180.0</ele><time>2026-05-01T08:27:09.039Z</time></trkpt><trkpt lat="44.876445" lon="9.7360282"><ele>180.0</ele><time>2026-05-01T08:27:11.034Z</time></trkpt><trkpt lat="44.8765078" lon="9.7361548"><ele>180.0</ele><time>2026-05-01T08:27:13.029Z</time></trkpt><trkpt lat="44.8765735" lon="9.7362889"><ele>180.0</ele><time>2026-05-01T08:27:15.027Z</time></trkpt><trkpt lat="44.8766344" lon="9.7364284"><ele>180.0</ele><time>2026-05-01T08:27:17.033Z</time></trkpt><trkpt lat="44.8767029" lon="9.7365566"><ele>179.75</ele><time>2026-05-01T08:27:19.035Z</time></trkpt><trkpt lat="44.8767711" lon="9.7366938"><ele>179.5</ele><time>2026-05-01T08:27:21.033Z</time></trkpt><trkpt lat="44.876836" lon="9.736825"><ele>179.25</ele><time>2026-05-01T08:27:23.031Z</time></trkpt><trkpt lat="44.8768986" lon="9.7369631"><ele>179.0</ele><time>2026-05-01T08:27:25.035Z</time></trkpt><trkpt lat="44.8769575" lon="9.7370976"><ele>178.6</ele><time>2026-05-01T08:27:27.039Z</time></trkpt><trkpt lat="44.8770205" lon="9.7372228"><ele>178.2</ele><time>2026-05-01T08:27:29.031Z</time></trkpt><trkpt lat="44.8770834" lon="9.7373552"><ele>177.79999999999998</ele><time>2026-05-01T08:27:31.023Z</time></trkpt><trkpt lat="44.8771428" lon="9.7374798"><ele>177.39999999999998</ele><time>2026-05-01T08:27:33.044Z</time></trkpt><trkpt lat="44.8771967" lon="9.7376142"><ele>177.0</ele><time>2026-05-01T08:27:35.015Z</time></trkpt><trkpt lat="44.8772454" lon="9.7377582"><ele>177.0</ele><time>2026-05-01T08:27:37.032Z</time></trkpt><trkpt lat="44.8772971" lon="9.737898"><ele>177.0</ele><time>2026-05-01T08:27:39.037Z</time></trkpt><trkpt lat="44.8773448" lon="9.738042"><ele>177.0</ele><time>2026-05-01T08:27:41.037Z</time></trkpt><trkpt lat="44.8773842" lon="9.7381959"><ele>177.0</ele><time>2026-05-01T08:27:43.035Z</time></trkpt><trkpt lat="44.8774266" lon="9.7383359"><ele>177.0</ele><time>2026-05-01T08:27:45.032Z</time></trkpt><trkpt lat="44.8774761" lon="9.7384782"><ele>177.2</ele><time>2026-05-01T08:27:47.029Z</time></trkpt><trkpt lat="44.8775195" lon="9.7386255"><ele>177.39999999999998</ele><time>2026-05-01T08:27:49.025Z</time></trkpt><trkpt lat="44.8775562" lon="9.7387702"><ele>177.60000000000002</ele><time>2026-05-01T08:27:51.033Z</time></trkpt><trkpt lat="44.8775984" lon="9.7389136"><ele>177.8</ele><time>2026-05-01T08:27:53.032Z</time></trkpt><trkpt lat="44.8776432" lon="9.739055"><ele>178.0</ele><time>2026-05-01T08:27:55.028Z</time></trkpt><trkpt lat="44.8776829" lon="9.7391982"><ele>178.0</ele><time>2026-05-01T08:27:57.031Z</time></trkpt><trkpt lat="44.8777196" lon="9.7393402"><ele>178.0</ele><time>2026-05-01T08:27:59.045Z</time></trkpt><trkpt lat="44.8777632" lon="9.7394834"><ele>178.0</ele><time>2026-05-01T08:28:01.036Z</time></trkpt><trkpt lat="44.8778089" lon="9.7396287"><ele>178.0</ele><time>2026-05-01T08:28:03.033Z</time></trkpt><trkpt lat="44.8778642" lon="9.7397674"><ele>178.0</ele><time>2026-05-01T08:28:05.031Z</time></trkpt><trkpt lat="44.8779461" lon="9.7398766"><ele>178.4</ele><time>2026-05-01T08:28:07.03Z</time></trkpt><trkpt lat="44.8780601" lon="9.7399135"><ele>178.8</ele><time>2026-05-01T08:28:09.022Z</time></trkpt><trkpt lat="44.8781247" lon="9.7398966"><ele>179.2</ele><time>2026-05-01T08:28:10.036Z</time></trkpt><trkpt lat="44.878185" lon="9.7398688"><ele>179.6</ele><time>2026-05-01T08:28:11.033Z</time></trkpt><trkpt lat="44.8782926" lon="9.7397786"><ele>180.0</ele><time>2026-05-01T08:28:13.032Z</time></trkpt><trkpt lat="44.8783995" lon="9.7396929"><ele>178.6</ele><time>2026-05-01T08:28:15.037Z</time></trkpt><trkpt lat="44.8785171" lon="9.7396277"><ele>177.2</ele><time>2026-05-01T08:28:17.034Z</time></trkpt><trkpt lat="44.8785827" lon="9.739611"><ele>175.8</ele><time>2026-05-01T08:28:18.036Z</time></trkpt><trkpt lat="44.8786521" lon="9.739619"><ele>174.4</ele><time>2026-05-01T08:28:19.031Z</time></trkpt><trkpt lat="44.8787737" lon="9.7396806"><ele>173.0</ele><time>2026-05-01T08:28:21.043Z</time></trkpt><trkpt lat="44.8788599" lon="9.7398152"><ele>173.0</ele><time>2026-05-01T08:28:23.033Z</time></trkpt><trkpt lat="44.8788944" lon="9.7398911"><ele>173.0</ele><time>2026-05-01T08:28:24.037Z</time></trkpt><trkpt lat="44.8789305" lon="9.7399663"><ele>173.0</ele><time>2026-05-01T08:28:25.034Z</time></trkpt><trkpt lat="44.8789902" lon="9.7401159"><ele>173.0</ele><time>2026-05-01T08:28:27.032Z</time></trkpt><trkpt lat="44.8790581" lon="9.7402636"><ele>173.0</ele><time>2026-05-01T08:28:29.032Z</time></trkpt><trkpt lat="44.8791231" lon="9.7404076"><ele>172.75</ele><time>2026-05-01T08:28:31.035Z</time></trkpt><trkpt lat="44.8791825" lon="9.740544"><ele>172.5</ele><time>2026-05-01T08:28:33.037Z</time></trkpt><trkpt lat="44.879246" lon="9.7406843"><ele>172.25</ele><time>2026-05-01T08:28:35.043Z</time></trkpt><trkpt lat="44.8793108" lon="9.740824"><ele>172.0</ele><time>2026-05-01T08:28:37.024Z</time></trkpt><trkpt lat="44.8793697" lon="9.740975"><ele>172.5</ele><time>2026-05-01T08:28:39.034Z</time></trkpt><trkpt lat="44.8794295" lon="9.7411258"><ele>173.0</ele><time>2026-05-01T08:28:41.033Z</time></trkpt><trkpt lat="44.879482" lon="9.7412677"><ele>173.5</ele><time>2026-05-01T08:28:43.028Z</time></trkpt><trkpt lat="44.8795311" lon="9.7414205"><ele>174.0</ele><time>2026-05-01T08:28:45.027Z</time></trkpt><trkpt lat="44.8795859" lon="9.7415681"><ele>174.0</ele><time>2026-05-01T08:28:47.043Z</time></trkpt><trkpt lat="44.8796563" lon="9.7416981"><ele>174.0</ele><time>2026-05-01T08:28:49.036Z</time></trkpt><trkpt lat="44.879735" lon="9.7418147"><ele>174.0</ele><time>2026-05-01T08:28:51.036Z</time></trkpt><trkpt lat="44.8798134" lon="9.7419335"><ele>174.0</ele><time>2026-05-01T08:28:53.029Z</time></trkpt><trkpt lat="44.8798955" lon="9.7420462"><ele>173.5</ele><time>2026-05-01T08:28:55.034Z</time></trkpt><trkpt lat="44.8799705" lon="9.7421654"><ele>173.0</ele><time>2026-05-01T08:28:57.024Z</time></trkpt><trkpt lat="44.8800445" lon="9.7422962"><ele>172.5</ele><time>2026-05-01T08:28:59.029Z</time></trkpt><trkpt lat="44.8801048" lon="9.7424295"><ele>172.0</ele><time>2026-05-01T08:29:01.032Z</time></trkpt><trkpt lat="44.8801713" lon="9.7425668"><ele>171.75</ele><time>2026-05-01T08:29:03.036Z</time></trkpt><trkpt lat="44.8802452" lon="9.7427096"><ele>171.5</ele><time>2026-05-01T08:29:05.038Z</time></trkpt><trkpt lat="44.8803145" lon="9.7428559"><ele>171.25</ele><time>2026-05-01T08:29:07.019Z</time></trkpt><trkpt lat="44.8803789" lon="9.7429915"><ele>171.0</ele><time>2026-05-01T08:29:09.036Z</time></trkpt><trkpt lat="44.88045" lon="9.743123"><ele>171.0</ele><time>2026-05-01T08:29:11.044Z</time></trkpt><trkpt lat="44.8804855" lon="9.7431964"><ele>171.0</ele><time>2026-05-01T08:29:12.037Z</time></trkpt><trkpt lat="44.8805536" lon="9.7433294"><ele>171.0</ele><time>2026-05-01T08:29:14.032Z</time></trkpt><trkpt lat="44.880623" lon="9.7434696"><ele>171.0</ele><time>2026-05-01T08:29:16.032Z</time></trkpt><trkpt lat="44.8806843" lon="9.7436118"><ele>171.0</ele><time>2026-05-01T08:29:18.018Z</time></trkpt><trkpt lat="44.88075" lon="9.743751"><ele>171.0</ele><time>2026-05-01T08:29:20.033Z</time></trkpt><trkpt lat="44.8808121" lon="9.7438909"><ele>171.0</ele><time>2026-05-01T08:29:22.039Z</time></trkpt><trkpt lat="44.8808378" lon="9.7440423"><ele>171.0</ele><time>2026-05-01T08:29:24.036Z</time></trkpt><trkpt lat="44.8808034" lon="9.744188"><ele>171.0</ele><time>2026-05-01T08:29:26.037Z</time></trkpt><trkpt lat="44.8807118" lon="9.7442784"><ele>171.0</ele><time>2026-05-01T08:29:28.034Z</time></trkpt><trkpt lat="44.8806374" lon="9.7443638"><ele>171.33333333333334</ele><time>2026-05-01T08:29:30.03Z</time></trkpt><trkpt lat="44.8805664" lon="9.7444351"><ele>171.66666666666666</ele><time>2026-05-01T08:29:32.035Z</time></trkpt><trkpt lat="44.8804963" lon="9.7445233"><ele>172.0</ele><time>2026-05-01T08:29:34.041Z</time></trkpt><trkpt lat="44.880455" lon="9.7446216"><ele>172.33333333333331</ele><time>2026-05-01T08:29:36.024Z</time></trkpt><trkpt lat="44.8804201" lon="9.7447353"><ele>172.66666666666666</ele><time>2026-05-01T08:29:38.033Z</time></trkpt><trkpt lat="44.8804247" lon="9.7448641"><ele>173.0</ele><time>2026-05-01T08:29:40.001Z</time></trkpt><trkpt lat="44.8804708" lon="9.744984"><ele>173.0</ele><time>2026-05-01T08:29:42.015Z</time></trkpt><trkpt lat="44.8805281" lon="9.7450908"><ele>173.0</ele><time>2026-05-01T08:29:44.031Z</time></trkpt><trkpt lat="44.8805886" lon="9.7452061"><ele>173.0</ele><time>2026-05-01T08:29:46.037Z</time></trkpt><trkpt lat="44.8806609" lon="9.7453304"><ele>173.0</ele><time>2026-05-01T08:29:48.032Z</time></trkpt><trkpt lat="44.8807308" lon="9.7454501"><ele>173.0</ele><time>2026-05-01T08:29:50.034Z</time></trkpt><trkpt lat="44.8808004" lon="9.7455607"><ele>172.4</ele><time>2026-05-01T08:29:52.032Z</time></trkpt><trkpt lat="44.8808747" lon="9.7456863"><ele>171.8</ele><time>2026-05-01T08:29:54.03Z</time></trkpt><trkpt lat="44.8809179" lon="9.7457511"><ele>171.2</ele><time>2026-05-01T08:29:55.026Z</time></trkpt><trkpt lat="44.8809899" lon="9.7458803"><ele>170.6</ele><time>2026-05-01T08:29:57.033Z</time></trkpt><trkpt lat="44.8810705" lon="9.746013"><ele>170.0</ele><time>2026-05-01T08:29:59.031Z</time></trkpt><trkpt lat="44.8811537" lon="9.7461434"><ele>170.0</ele><time>2026-05-01T08:30:01.013Z</time></trkpt><trkpt lat="44.8811936" lon="9.7462191"><ele>170.0</ele><time>2026-05-01T08:30:02.028Z</time></trkpt><trkpt lat="44.8812319" lon="9.7462929"><ele>170.0</ele><time>2026-05-01T08:30:03.031Z</time></trkpt><trkpt lat="44.881269" lon="9.7463721"><ele>170.0</ele><time>2026-05-01T08:30:04.024Z</time></trkpt><trkpt lat="44.881308" lon="9.7464502"><ele>170.0</ele><time>2026-05-01T08:30:05.035Z</time></trkpt><trkpt lat="44.8813878" lon="9.7465859"><ele>170.0</ele><time>2026-05-01T08:30:07.03Z</time></trkpt><trkpt lat="44.8814653" lon="9.7467215"><ele>170.0</ele><time>2026-05-01T08:30:09.022Z</time></trkpt><trkpt lat="44.8815499" lon="9.7468555"><ele>170.0</ele><time>2026-05-01T08:30:11.028Z</time></trkpt><trkpt lat="44.8815959" lon="9.7469262"><ele>170.0</ele><time>2026-05-01T08:30:12.024Z</time></trkpt><trkpt lat="44.8816391" lon="9.7469986"><ele>170.0</ele><time>2026-05-01T08:30:13.034Z</time></trkpt><trkpt lat="44.8816814" lon="9.7470689"><ele>170.0</ele><time>2026-05-01T08:30:14.021Z</time></trkpt><trkpt lat="44.8817241" lon="9.7471436"><ele>170.0</ele><time>2026-05-01T08:30:15.029Z</time></trkpt><trkpt lat="44.8817644" lon="9.7472148"><ele>169.33333333333331</ele><time>2026-05-01T08:30:16.021Z</time></trkpt><trkpt lat="44.8818071" lon="9.7472833"><ele>168.66666666666666</ele><time>2026-05-01T08:30:17.028Z</time></trkpt><trkpt lat="44.8818485" lon="9.7473561"><ele>168.0</ele><time>2026-05-01T08:30:18.032Z</time></trkpt><trkpt lat="44.8818927" lon="9.7474279"><ele>167.33333333333334</ele><time>2026-05-01T08:30:19.01Z</time></trkpt><trkpt lat="44.8819545" lon="9.7475618"><ele>166.66666666666669</ele><time>2026-05-01T08:30:21.036Z</time></trkpt><trkpt lat="44.8820341" lon="9.7476878"><ele>166.0</ele><time>2026-05-01T08:30:23.029Z</time></trkpt><trkpt lat="44.8820821" lon="9.7477494"><ele>166.0</ele><time>2026-05-01T08:30:24.04Z</time></trkpt><trkpt lat="44.8821256" lon="9.7478179"><ele>166.0</ele><time>2026-05-01T08:30:25.033Z</time></trkpt><trkpt lat="44.8821691" lon="9.7478885"><ele>166.0</ele><time>2026-05-01T08:30:26.036Z</time></trkpt><trkpt lat="44.8822514" lon="9.7480088"><ele>166.0</ele><time>2026-05-01T08:30:28.034Z</time></trkpt><trkpt lat="44.8822903" lon="9.7480787"><ele>166.0</ele><time>2026-05-01T08:30:29.033Z</time></trkpt><trkpt lat="44.8823351" lon="9.7481448"><ele>166.0</ele><time>2026-05-01T08:30:30.035Z</time></trkpt><trkpt lat="44.8824188" lon="9.7482795"><ele>166.0</ele><time>2026-05-01T08:30:32.036Z</time></trkpt><trkpt lat="44.8825099" lon="9.7484077"><ele>166.0</ele><time>2026-05-01T08:30:34.03Z</time></trkpt><trkpt lat="44.8825552" lon="9.7484701"><ele>166.0</ele><time>2026-05-01T08:30:35.038Z</time></trkpt><trkpt lat="44.8826386" lon="9.748598"><ele>166.0</ele><time>2026-05-01T08:30:37.027Z</time></trkpt><trkpt lat="44.8826827" lon="9.7486629"><ele>166.0</ele><time>2026-05-01T08:30:38.041Z</time></trkpt><trkpt lat="44.8827668" lon="9.7487914"><ele>166.0</ele><time>2026-05-01T08:30:40.032Z</time></trkpt><trkpt lat="44.8828114" lon="9.7488591"><ele>166.0</ele><time>2026-05-01T08:30:41.037Z</time></trkpt><trkpt lat="44.8828552" lon="9.7489242"><ele>166.0</ele><time>2026-05-01T08:30:42.03Z</time></trkpt><trkpt lat="44.8829356" lon="9.7490529"><ele>166.0</ele><time>2026-05-01T08:30:44.046Z</time></trkpt><trkpt lat="44.8830164" lon="9.7491834"><ele>166.0</ele><time>2026-05-01T08:30:46.034Z</time></trkpt><trkpt lat="44.883093" lon="9.7493065"><ele>167.0</ele><time>2026-05-01T08:30:48.041Z</time></trkpt><trkpt lat="44.8831737" lon="9.7494402"><ele>168.0</ele><time>2026-05-01T08:30:50.027Z</time></trkpt><trkpt lat="44.8832504" lon="9.7495688"><ele>169.0</ele><time>2026-05-01T08:30:52.025Z</time></trkpt><trkpt lat="44.8833271" lon="9.7496975"><ele>170.0</ele><time>2026-05-01T08:30:54.035Z</time></trkpt><trkpt lat="44.8833854" lon="9.7498374"><ele>170.0</ele><time>2026-05-01T08:30:56.036Z</time></trkpt><trkpt lat="44.8834279" lon="9.7499817"><ele>170.0</ele><time>2026-05-01T08:30:58.039Z</time></trkpt><trkpt lat="44.8834665" lon="9.7501264"><ele>170.0</ele><time>2026-05-01T08:31:00.032Z</time></trkpt><trkpt lat="44.8834999" lon="9.7502652"><ele>170.0</ele><time>2026-05-01T08:31:02.042Z</time></trkpt><trkpt lat="44.8835265" lon="9.7504122"><ele>170.0</ele><time>2026-05-01T08:31:04.039Z</time></trkpt><trkpt lat="44.8835447" lon="9.7505506"><ele>168.4</ele><time>2026-05-01T08:31:06.036Z</time></trkpt><trkpt lat="44.8835626" lon="9.7507004"><ele>166.8</ele><time>2026-05-01T08:31:08.037Z</time></trkpt><trkpt lat="44.8835905" lon="9.7508465"><ele>165.2</ele><time>2026-05-01T08:31:10.035Z</time></trkpt><trkpt lat="44.8836163" lon="9.7509968"><ele>163.6</ele><time>2026-05-01T08:31:12.024Z</time></trkpt><trkpt lat="44.8836422" lon="9.7511486"><ele>162.0</ele><time>2026-05-01T08:31:14.033Z</time></trkpt><trkpt lat="44.8836672" lon="9.7513011"><ele>162.0</ele><time>2026-05-01T08:31:16.047Z</time></trkpt><trkpt lat="44.8836883" lon="9.7514564"><ele>162.0</ele><time>2026-05-01T08:31:18.04Z</time></trkpt><trkpt lat="44.8837116" lon="9.7516088"><ele>162.0</ele><time>2026-05-01T08:31:20.031Z</time></trkpt><trkpt lat="44.8837347" lon="9.7517685"><ele>162.0</ele><time>2026-05-01T08:31:22.046Z</time></trkpt><trkpt lat="44.8837627" lon="9.7519195"><ele>162.0</ele><time>2026-05-01T08:31:24.038Z</time></trkpt><trkpt lat="44.8837863" lon="9.7520688"><ele>161.8</ele><time>2026-05-01T08:31:26.022Z</time></trkpt><trkpt lat="44.8838074" lon="9.7522243"><ele>161.6</ele><time>2026-05-01T08:31:28.034Z</time></trkpt><trkpt lat="44.8838365" lon="9.7523789"><ele>161.4</ele><time>2026-05-01T08:31:30.046Z</time></trkpt><trkpt lat="44.8838622" lon="9.75253"><ele>161.20000000000002</ele><time>2026-05-01T08:31:32.036Z</time></trkpt><trkpt lat="44.8838852" lon="9.7526754"><ele>161.0</ele><time>2026-05-01T08:31:34.036Z</time></trkpt><trkpt lat="44.8839046" lon="9.7528233"><ele>161.0</ele><time>2026-05-01T08:31:36.028Z</time></trkpt><trkpt lat="44.883926" lon="9.7529654"><ele>161.0</ele><time>2026-05-01T08:31:38.029Z</time></trkpt><trkpt lat="44.8839514" lon="9.7531143"><ele>161.0</ele><time>2026-05-01T08:31:40.032Z</time></trkpt><trkpt lat="44.8839799" lon="9.7532636"><ele>161.0</ele><time>2026-05-01T08:31:42.043Z</time></trkpt><trkpt lat="44.8840023" lon="9.7534165"><ele>161.0</ele><time>2026-05-01T08:31:44.043Z</time></trkpt><trkpt lat="44.8840199" lon="9.7535746"><ele>161.0</ele><time>2026-05-01T08:31:46.032Z</time></trkpt><trkpt lat="44.8840325" lon="9.7537233"><ele>161.0</ele><time>2026-05-01T08:31:48.031Z</time></trkpt><trkpt lat="44.8840329" lon="9.7538763"><ele>161.0</ele><time>2026-05-01T08:31:50.026Z</time></trkpt><trkpt lat="44.8840377" lon="9.754034"><ele>161.0</ele><time>2026-05-01T08:31:52.031Z</time></trkpt><trkpt lat="44.8840363" lon="9.7541816"><ele>161.0</ele><time>2026-05-01T08:31:54.04Z</time></trkpt><trkpt lat="44.8840377" lon="9.7543231"><ele>161.20000000000002</ele><time>2026-05-01T08:31:56.041Z</time></trkpt><trkpt lat="44.8840254" lon="9.7544616"><ele>161.4</ele><time>2026-05-01T08:31:58.038Z</time></trkpt><trkpt lat="44.8840012" lon="9.7545956"><ele>161.6</ele><time>2026-05-01T08:32:00.038Z</time></trkpt><trkpt lat="44.8839543" lon="9.7547282"><ele>161.8</ele><time>2026-05-01T08:32:02.029Z</time></trkpt><trkpt lat="44.8838857" lon="9.7548328"><ele>162.0</ele><time>2026-05-01T08:32:04.04Z</time></trkpt><trkpt lat="44.8837865" lon="9.7549077"><ele>162.0</ele><time>2026-05-01T08:32:06.03Z</time></trkpt><trkpt lat="44.8836884" lon="9.7549607"><ele>162.0</ele><time>2026-05-01T08:32:08.035Z</time></trkpt><trkpt lat="44.8835941" lon="9.7550177"><ele>162.0</ele><time>2026-05-01T08:32:10.03Z</time></trkpt><trkpt lat="44.8835018" lon="9.7550926"><ele>162.0</ele><time>2026-05-01T08:32:12.024Z</time></trkpt><trkpt lat="44.8834353" lon="9.7552032"><ele>162.0</ele><time>2026-05-01T08:32:14.025Z</time></trkpt><trkpt lat="44.8833892" lon="9.7553363"><ele>162.39999999999998</ele><time>2026-05-01T08:32:16.028Z</time></trkpt><trkpt lat="44.8833619" lon="9.7554904"><ele>162.79999999999998</ele><time>2026-05-01T08:32:18.032Z</time></trkpt><trkpt lat="44.883335" lon="9.7556446"><ele>163.2</ele><time>2026-05-01T08:32:20.029Z</time></trkpt><trkpt lat="44.8833048" lon="9.7557944"><ele>163.6</ele><time>2026-05-01T08:32:22.04Z</time></trkpt><trkpt lat="44.8832784" lon="9.7559477"><ele>164.0</ele><time>2026-05-01T08:32:24.036Z</time></trkpt><trkpt lat="44.8832547" lon="9.7560948"><ele>164.79999999999998</ele><time>2026-05-01T08:32:26.035Z</time></trkpt><trkpt lat="44.8832289" lon="9.7562443"><ele>165.6</ele><time>2026-05-01T08:32:28.042Z</time></trkpt><trkpt lat="44.8831987" lon="9.7563837"><ele>166.4</ele><time>2026-05-01T08:32:30.042Z</time></trkpt><trkpt lat="44.8831777" lon="9.7565023"><ele>167.2</ele><time>2026-05-01T08:32:32.033Z</time></trkpt><trkpt lat="44.883151" lon="9.7566134"><ele>168.0</ele><time>2026-05-01T08:32:34.026Z</time></trkpt><trkpt lat="44.8831217" lon="9.7567081"><ele>168.0</ele><time>2026-05-01T08:32:36.005Z</time></trkpt><trkpt lat="44.8831038" lon="9.7568002"><ele>168.0</ele><time>2026-05-01T08:32:38.033Z</time></trkpt><trkpt lat="44.8830853" lon="9.7569217"><ele>168.0</ele><time>2026-05-01T08:32:41.031Z</time></trkpt><trkpt lat="44.883077" lon="9.7570229"><ele>168.0</ele><time>2026-05-01T08:32:43.01Z</time></trkpt><trkpt lat="44.883074" lon="9.757128"><ele>168.0</ele><time>2026-05-01T08:32:45.027Z</time></trkpt><trkpt lat="44.8830658" lon="9.7572429"><ele>168.0</ele><time>2026-05-01T08:32:47.026Z</time></trkpt><trkpt lat="44.883059" lon="9.7573575"><ele>168.0</ele><time>2026-05-01T08:32:49.037Z</time></trkpt><trkpt lat="44.8830356" lon="9.7574962"><ele>168.0</ele><time>2026-05-01T08:32:51.032Z</time></trkpt><trkpt lat="44.8830234" lon="9.7576214"><ele>168.0</ele><time>2026-05-01T08:32:53.034Z</time></trkpt><trkpt lat="44.883016" lon="9.7577522"><ele>168.0</ele><time>2026-05-01T08:32:55.028Z</time></trkpt><trkpt lat="44.8830043" lon="9.7578813"><ele>168.0</ele><time>2026-05-01T08:32:57.035Z</time></trkpt><trkpt lat="44.8829919" lon="9.7580098"><ele>167.8</ele><time>2026-05-01T08:32:59.03Z</time></trkpt><trkpt lat="44.8829785" lon="9.7581485"><ele>167.60000000000002</ele><time>2026-05-01T08:33:01.032Z</time></trkpt><trkpt lat="44.8829706" lon="9.7582879"><ele>167.39999999999998</ele><time>2026-05-01T08:33:03.022Z</time></trkpt><trkpt lat="44.8829608" lon="9.7584287"><ele>167.2</ele><time>2026-05-01T08:33:05.043Z</time></trkpt><trkpt lat="44.8829371" lon="9.7585823"><ele>167.0</ele><time>2026-05-01T08:33:07.033Z</time></trkpt><trkpt lat="44.8829189" lon="9.7587467"><ele>165.6</ele><time>2026-05-01T08:33:09.029Z</time></trkpt><trkpt lat="44.8829007" lon="9.7589218"><ele>164.2</ele><time>2026-05-01T08:33:11.038Z</time></trkpt><trkpt lat="44.8828893" lon="9.7590939"><ele>162.8</ele><time>2026-05-01T08:33:13.025Z</time></trkpt><trkpt lat="44.8828833" lon="9.7591839"><ele>161.4</ele><time>2026-05-01T08:33:14.032Z</time></trkpt><trkpt lat="44.882872" lon="9.7593614"><ele>160.0</ele><time>2026-05-01T08:33:16.027Z</time></trkpt><trkpt lat="44.8828634" lon="9.7594519"><ele>159.83333333333334</ele><time>2026-05-01T08:33:17.036Z</time></trkpt><trkpt lat="44.8828547" lon="9.7595402"><ele>159.66666666666669</ele><time>2026-05-01T08:33:18.04Z</time></trkpt><trkpt lat="44.8828401" lon="9.7597164"><ele>159.5</ele><time>2026-05-01T08:33:20.044Z</time></trkpt><trkpt lat="44.8828357" lon="9.759895"><ele>159.33333333333334</ele><time>2026-05-01T08:33:22.037Z</time></trkpt><trkpt lat="44.8828393" lon="9.7599868"><ele>159.16666666666666</ele><time>2026-05-01T08:33:23.047Z</time></trkpt><trkpt lat="44.8828447" lon="9.76008"><ele>159.0</ele><time>2026-05-01T08:33:24.041Z</time></trkpt><trkpt lat="44.8828484" lon="9.7601743"><ele>159.5</ele><time>2026-05-01T08:33:25.035Z</time></trkpt><trkpt lat="44.8828579" lon="9.7602667"><ele>160.0</ele><time>2026-05-01T08:33:26.043Z</time></trkpt><trkpt lat="44.882867" lon="9.7604341"><ele>160.5</ele><time>2026-05-01T08:33:28.035Z</time></trkpt><trkpt lat="44.8828617" lon="9.7605479"><ele>161.0</ele><time>2026-05-01T08:33:30.034Z</time></trkpt><trkpt lat="44.8828608" lon="9.7606544"><ele>161.5</ele><time>2026-05-01T08:33:32.03Z</time></trkpt><trkpt lat="44.8828524" lon="9.7607545"><ele>162.0</ele><time>2026-05-01T08:33:34.025Z</time></trkpt><trkpt lat="44.8828489" lon="9.7608501"><ele>162.0</ele><time>2026-05-01T08:33:36.019Z</time></trkpt><trkpt lat="44.8828326" lon="9.7609554"><ele>162.0</ele><time>2026-05-01T08:33:39.036Z</time></trkpt><trkpt lat="44.8827771" lon="9.7610502"><ele>162.0</ele><time>2026-05-01T08:33:43.03Z</time></trkpt><trkpt lat="44.8827625" lon="9.7611445"><ele>162.0</ele><time>2026-05-01T08:33:47.025Z</time></trkpt><trkpt lat="44.8827135" lon="9.7612078"><ele>162.0</ele><time>2026-05-01T08:34:03.028Z</time></trkpt><trkpt lat="44.8826858" lon="9.7612991"><ele>162.0</ele><time>2026-05-01T08:34:20.023Z</time></trkpt><trkpt lat="44.8826775" lon="9.7614026"><ele>162.0</ele><time>2026-05-01T08:34:23.029Z</time></trkpt><trkpt lat="44.8826655" lon="9.7615053"><ele>161.66666666666666</ele><time>2026-05-01T08:34:25.034Z</time></trkpt><trkpt lat="44.8826554" lon="9.7616307"><ele>161.33333333333334</ele><time>2026-05-01T08:34:27.018Z</time></trkpt><trkpt lat="44.8826442" lon="9.7617694"><ele>161.0</ele><time>2026-05-01T08:34:29.035Z</time></trkpt><trkpt lat="44.8826819" lon="9.7618988"><ele>160.66666666666669</ele><time>2026-05-01T08:34:31.036Z</time></trkpt><trkpt lat="44.8826853" lon="9.7620153"><ele>160.33333333333334</ele><time>2026-05-01T08:34:33.012Z</time></trkpt><trkpt lat="44.8827374" lon="9.7620768"><ele>160.0</ele><time>2026-05-01T08:34:36.025Z</time></trkpt><trkpt lat="44.8827841" lon="9.7621818"><ele>158.4</ele><time>2026-05-01T08:34:46Z</time></trkpt><trkpt lat="44.8828411" lon="9.7622305"><ele>156.8</ele><time>2026-05-01T08:34:48.025Z</time></trkpt><trkpt lat="44.8829174" lon="9.7622787"><ele>155.2</ele><time>2026-05-01T08:34:50.03Z</time></trkpt><trkpt lat="44.8830195" lon="9.7623522"><ele>153.6</ele><time>2026-05-01T08:34:52.026Z</time></trkpt><trkpt lat="44.8831131" lon="9.7624352"><ele>152.0</ele><time>2026-05-01T08:34:54.041Z</time></trkpt><trkpt lat="44.8831454" lon="9.7625644"><ele>152.0</ele><time>2026-05-01T08:34:56.041Z</time></trkpt><trkpt lat="44.8831454" lon="9.7627008"><ele>152.0</ele><time>2026-05-01T08:34:58.04Z</time></trkpt><trkpt lat="44.8831231" lon="9.7628446"><ele>152.0</ele><time>2026-05-01T08:35:00.042Z</time></trkpt><trkpt lat="44.8830983" lon="9.7629884"><ele>152.0</ele><time>2026-05-01T08:35:02.026Z</time></trkpt><trkpt lat="44.8830845" lon="9.7631282"><ele>152.0</ele><time>2026-05-01T08:35:04.038Z</time></trkpt><trkpt lat="44.8830678" lon="9.7632531"><ele>152.0</ele><time>2026-05-01T08:35:06.032Z</time></trkpt><trkpt lat="44.883056" lon="9.7633728"><ele>152.0</ele><time>2026-05-01T08:35:08.016Z</time></trkpt><trkpt lat="44.8830409" lon="9.7634771"><ele>152.0</ele><time>2026-05-01T08:35:10.028Z</time></trkpt><trkpt lat="44.883017" lon="9.7635822"><ele>152.0</ele><time>2026-05-01T08:35:12.036Z</time></trkpt><trkpt lat="44.8829821" lon="9.7636789"><ele>152.0</ele><time>2026-05-01T08:35:14.026Z</time></trkpt><trkpt lat="44.8829292" lon="9.763785"><ele>152.0</ele><time>2026-05-01T08:35:16.032Z</time></trkpt><trkpt lat="44.8829" lon="9.7639245"><ele>152.0</ele><time>2026-05-01T08:35:18.042Z</time></trkpt><trkpt lat="44.8828885" lon="9.764055"><ele>152.0</ele><time>2026-05-01T08:35:20.029Z</time></trkpt><trkpt lat="44.882908" lon="9.7641864"><ele>152.0</ele><time>2026-05-01T08:35:22.033Z</time></trkpt><trkpt lat="44.8829485" lon="9.7643219"><ele>152.0</ele><time>2026-05-01T08:35:24.022Z</time></trkpt><trkpt lat="44.8829842" lon="9.764459"><ele>152.0</ele><time>2026-05-01T08:35:26.023Z</time></trkpt><trkpt lat="44.883012" lon="9.7645927"><ele>152.0</ele><time>2026-05-01T08:35:28.016Z</time></trkpt><trkpt lat="44.8830483" lon="9.7647341"><ele>152.0</ele><time>2026-05-01T08:35:30.036Z</time></trkpt><trkpt lat="44.8830889" lon="9.7648651"><ele>152.0</ele><time>2026-05-01T08:35:32.031Z</time></trkpt><trkpt lat="44.8831421" lon="9.7649893"><ele>152.0</ele><time>2026-05-01T08:35:34.033Z</time></trkpt><trkpt lat="44.8832" lon="9.7651109"><ele>152.0</ele><time>2026-05-01T08:35:36.037Z</time></trkpt><trkpt lat="44.8832638" lon="9.7652135"><ele>152.0</ele><time>2026-05-01T08:35:38.03Z</time></trkpt><trkpt lat="44.883339" lon="9.765305"><ele>152.0</ele><time>2026-05-01T08:35:40.042Z</time></trkpt><trkpt lat="44.883418" lon="9.7653787"><ele>152.0</ele><time>2026-05-01T08:35:42.003Z</time></trkpt><trkpt lat="44.8834857" lon="9.7654699"><ele>152.0</ele><time>2026-05-01T08:35:44.028Z</time></trkpt><trkpt lat="44.8835548" lon="9.7655688"><ele>152.0</ele><time>2026-05-01T08:35:46.037Z</time></trkpt><trkpt lat="44.8836228" lon="9.7656794"><ele>152.0</ele><time>2026-05-01T08:35:48.03Z</time></trkpt><trkpt lat="44.8836862" lon="9.7657671"><ele>152.0</ele><time>2026-05-01T08:35:50.033Z</time></trkpt><trkpt lat="44.8837767" lon="9.7658177"><ele>152.0</ele><time>2026-05-01T08:35:52.03Z</time></trkpt><trkpt lat="44.8838645" lon="9.7658619"><ele>152.0</ele><time>2026-05-01T08:35:54.04Z</time></trkpt><trkpt lat="44.8839649" lon="9.7659256"><ele>152.0</ele><time>2026-05-01T08:35:56.031Z</time></trkpt><trkpt lat="44.8840588" lon="9.7659787"><ele>152.0</ele><time>2026-05-01T08:35:58.033Z</time></trkpt><trkpt lat="44.8841514" lon="9.7660162"><ele>152.0</ele><time>2026-05-01T08:36:00.036Z</time></trkpt><trkpt lat="44.884247" lon="9.766055"><ele>152.0</ele><time>2026-05-01T08:36:02.031Z</time></trkpt><trkpt lat="44.8843411" lon="9.7660788"><ele>152.0</ele><time>2026-05-01T08:36:04.032Z</time></trkpt><trkpt lat="44.8844367" lon="9.7661024"><ele>152.0</ele><time>2026-05-01T08:36:06.036Z</time></trkpt><trkpt lat="44.8845276" lon="9.7661066"><ele>151.4</ele><time>2026-05-01T08:36:08.035Z</time></trkpt><trkpt lat="44.8846155" lon="9.7661186"><ele>150.79999999999998</ele><time>2026-05-01T08:36:10.034Z</time></trkpt><trkpt lat="44.884713" lon="9.7661205"><ele>150.2</ele><time>2026-05-01T08:36:12.04Z</time></trkpt><trkpt lat="44.8848068" lon="9.7661181"><ele>149.6</ele><time>2026-05-01T08:36:14.034Z</time></trkpt><trkpt lat="44.8849046" lon="9.7661108"><ele>149.0</ele><time>2026-05-01T08:36:16.023Z</time></trkpt><trkpt lat="44.8849958" lon="9.7661115"><ele>149.0</ele><time>2026-05-01T08:36:18.038Z</time></trkpt><trkpt lat="44.8850937" lon="9.7661078"><ele>149.0</ele><time>2026-05-01T08:36:20.06Z</time></trkpt><trkpt lat="44.885189" lon="9.7661128"><ele>149.0</ele><time>2026-05-01T08:36:22.035Z</time></trkpt><trkpt lat="44.8852795" lon="9.7661234"><ele>149.0</ele><time>2026-05-01T08:36:24.039Z</time></trkpt><trkpt lat="44.8853614" lon="9.7660957"><ele>149.0</ele><time>2026-05-01T08:36:26.033Z</time></trkpt><trkpt lat="44.8854258" lon="9.7660417"><ele>149.0</ele><time>2026-05-01T08:36:28.028Z</time></trkpt><trkpt lat="44.8854944" lon="9.7659798"><ele>149.4</ele><time>2026-05-01T08:36:30.035Z</time></trkpt><trkpt lat="44.885561" lon="9.7659176"><ele>149.8</ele><time>2026-05-01T08:36:32.038Z</time></trkpt><trkpt lat="44.8856426" lon="9.7658185"><ele>150.2</ele><time>2026-05-01T08:36:34.039Z</time></trkpt><trkpt lat="44.8857202" lon="9.7657346"><ele>150.6</ele><time>2026-05-01T08:36:36.01Z</time></trkpt><trkpt lat="44.8858092" lon="9.7656305"><ele>151.0</ele><time>2026-05-01T08:36:38.042Z</time></trkpt><trkpt lat="44.8858959" lon="9.765535"><ele>150.6</ele><time>2026-05-01T08:36:40.035Z</time></trkpt><trkpt lat="44.885997" lon="9.7654818"><ele>150.2</ele><time>2026-05-01T08:36:42.03Z</time></trkpt><trkpt lat="44.886095" lon="9.7654561"><ele>149.8</ele><time>2026-05-01T08:36:44.03Z</time></trkpt><trkpt lat="44.8861915" lon="9.7654437"><ele>149.4</ele><time>2026-05-01T08:36:46.017Z</time></trkpt><trkpt lat="44.8862652" lon="9.7655037"><ele>149.0</ele><time>2026-05-01T08:36:48.035Z</time></trkpt><trkpt lat="44.8863248" lon="9.7655878"><ele>149.0</ele><time>2026-05-01T08:36:50.027Z</time></trkpt><trkpt lat="44.8863809" lon="9.7656768"><ele>149.0</ele><time>2026-05-01T08:36:52.028Z</time></trkpt><trkpt lat="44.8864379" lon="9.7657711"><ele>149.0</ele><time>2026-05-01T08:36:54.04Z</time></trkpt><trkpt lat="44.8864949" lon="9.7658704"><ele>149.0</ele><time>2026-05-01T08:36:56.029Z</time></trkpt><trkpt lat="44.886541" lon="9.7659695"><ele>149.0</ele><time>2026-05-01T08:36:58.023Z</time></trkpt><trkpt lat="44.8865809" lon="9.7660698"><ele>149.0</ele><time>2026-05-01T08:37:00.042Z</time></trkpt><trkpt lat="44.8866232" lon="9.7661721"><ele>148.83333333333331</ele><time>2026-05-01T08:37:02.036Z</time></trkpt><trkpt lat="44.8866724" lon="9.7662842"><ele>148.66666666666666</ele><time>2026-05-01T08:37:04.033Z</time></trkpt><trkpt lat="44.88672" lon="9.7663799"><ele>148.5</ele><time>2026-05-01T08:37:06.033Z</time></trkpt><trkpt lat="44.8867762" lon="9.7664788"><ele>148.33333333333334</ele><time>2026-05-01T08:37:08.002Z</time></trkpt><trkpt lat="44.8868301" lon="9.7665573"><ele>148.16666666666669</ele><time>2026-05-01T08:37:10.034Z</time></trkpt><trkpt lat="44.8868847" lon="9.7666362"><ele>148.0</ele><time>2026-05-01T08:37:12.016Z</time></trkpt><trkpt lat="44.8869318" lon="9.7666983"><ele>148.0</ele><time>2026-05-01T08:37:14.031Z</time></trkpt><trkpt lat="44.8869835" lon="9.7667555"><ele>148.0</ele><time>2026-05-01T08:37:16.037Z</time></trkpt><trkpt lat="44.8870555" lon="9.7667539"><ele>148.0</ele><time>2026-05-01T08:37:19.037Z</time></trkpt><trkpt lat="44.8871184" lon="9.7668445"><ele>148.0</ele><time>2026-05-01T08:37:22.028Z</time></trkpt><trkpt lat="44.8871875" lon="9.7669374"><ele>148.0</ele><time>2026-05-01T08:37:25.046Z</time></trkpt><trkpt lat="44.8872258" lon="9.7670399"><ele>148.0</ele><time>2026-05-01T08:37:28.037Z</time></trkpt><trkpt lat="44.887269" lon="9.7671146"><ele>147.83333333333334</ele><time>2026-05-01T08:37:30.036Z</time></trkpt><trkpt lat="44.8873004" lon="9.7672361"><ele>147.66666666666669</ele><time>2026-05-01T08:37:33.027Z</time></trkpt><trkpt lat="44.8873452" lon="9.7673086"><ele>147.5</ele><time>2026-05-01T08:37:35.032Z</time></trkpt><trkpt lat="44.8873872" lon="9.7673857"><ele>147.33333333333334</ele><time>2026-05-01T08:37:37.029Z</time></trkpt><trkpt lat="44.8874085" lon="9.7674832"><ele>147.16666666666666</ele><time>2026-05-01T08:37:39.03Z</time></trkpt><trkpt lat="44.8874591" lon="9.7675945"><ele>147.0</ele><time>2026-05-01T08:37:42.025Z</time></trkpt><trkpt lat="44.8875028" lon="9.7676659"><ele>146.85714285714286</ele><time>2026-05-01T08:37:44.034Z</time></trkpt><trkpt lat="44.8875537" lon="9.7677559"><ele>146.71428571428572</ele><time>2026-05-01T08:37:46.031Z</time></trkpt><trkpt lat="44.8875913" lon="9.7678559"><ele>146.57142857142856</ele><time>2026-05-01T08:37:48.039Z</time></trkpt><trkpt lat="44.8876098" lon="9.7679451"><ele>146.42857142857144</ele><time>2026-05-01T08:37:50.03Z</time></trkpt><trkpt lat="44.8875879" lon="9.7680296"><ele>146.28571428571428</ele><time>2026-05-01T08:37:52.034Z</time></trkpt><trkpt lat="44.8875989" lon="9.7681433"><ele>146.14285714285714</ele><time>2026-05-01T08:37:55.027Z</time></trkpt><trkpt lat="44.8876147" lon="9.7682321"><ele>146.0</ele><time>2026-05-01T08:37:57.037Z</time></trkpt><trkpt lat="44.8876449" lon="9.7683434"><ele>145.8</ele><time>2026-05-01T08:37:59.047Z</time></trkpt><trkpt lat="44.8876791" lon="9.7684445"><ele>145.6</ele><time>2026-05-01T08:38:01.029Z</time></trkpt><trkpt lat="44.8877299" lon="9.768581"><ele>145.4</ele><time>2026-05-01T08:38:03.045Z</time></trkpt><trkpt lat="44.8877838" lon="9.7686925"><ele>145.2</ele><time>2026-05-01T08:38:05.035Z</time></trkpt><trkpt lat="44.8878249" lon="9.7688057"><ele>145.0</ele><time>2026-05-01T08:38:07.026Z</time></trkpt><trkpt lat="44.8878673" lon="9.7689113"><ele>145.0</ele><time>2026-05-01T08:38:09.035Z</time></trkpt><trkpt lat="44.8879108" lon="9.7690336"><ele>145.0</ele><time>2026-05-01T08:38:11.029Z</time></trkpt><trkpt lat="44.887955" lon="9.7691263"><ele>145.0</ele><time>2026-05-01T08:38:13.006Z</time></trkpt><trkpt lat="44.8880109" lon="9.7692299"><ele>145.0</ele><time>2026-05-01T08:38:15.036Z</time></trkpt><trkpt lat="44.8880726" lon="9.7693308"><ele>145.0</ele><time>2026-05-01T08:38:17.016Z</time></trkpt><trkpt lat="44.888135" lon="9.7694359"><ele>145.5</ele><time>2026-05-01T08:38:19.045Z</time></trkpt><trkpt lat="44.8882039" lon="9.7694991"><ele>146.0</ele><time>2026-05-01T08:38:21.036Z</time></trkpt><trkpt lat="44.8882772" lon="9.7695562"><ele>146.5</ele><time>2026-05-01T08:38:23.03Z</time></trkpt><trkpt lat="44.8883381" lon="9.7696359"><ele>147.0</ele><time>2026-05-01T08:38:25.038Z</time></trkpt><trkpt lat="44.8883923" lon="9.7697076"><ele>147.5</ele><time>2026-05-01T08:38:27.031Z</time></trkpt><trkpt lat="44.8884381" lon="9.7697729"><ele>148.0</ele><time>2026-05-01T08:38:29.027Z</time></trkpt><trkpt lat="44.8884904" lon="9.7698225"><ele>148.0</ele><time>2026-05-01T08:38:31.018Z</time></trkpt><trkpt lat="44.8885748" lon="9.7698473"><ele>148.0</ele><time>2026-05-01T08:38:34.01Z</time></trkpt><trkpt lat="44.8886696" lon="9.7698647"><ele>148.0</ele><time>2026-05-01T08:38:37.027Z</time></trkpt><trkpt lat="44.8887491" lon="9.7698751"><ele>148.0</ele><time>2026-05-01T08:38:39.029Z</time></trkpt><trkpt lat="44.8888672" lon="9.7698898"><ele>148.0</ele><time>2026-05-01T08:38:41.028Z</time></trkpt><trkpt lat="44.8889717" lon="9.7699385"><ele>148.0</ele><time>2026-05-01T08:38:43.03Z</time></trkpt><trkpt lat="44.8890587" lon="9.7699734"><ele>148.0</ele><time>2026-05-01T08:38:45.029Z</time></trkpt><trkpt lat="44.8891408" lon="9.7699026"><ele>148.0</ele><time>2026-05-01T08:38:47.025Z</time></trkpt><trkpt lat="44.8891779" lon="9.769803"><ele>148.0</ele><time>2026-05-01T08:38:49.027Z</time></trkpt><trkpt lat="44.8892461" lon="9.7697604"><ele>148.0</ele><time>2026-05-01T08:38:51.014Z</time></trkpt><trkpt lat="44.8893194" lon="9.7697307"><ele>148.0</ele><time>2026-05-01T08:38:53.039Z</time></trkpt><trkpt lat="44.8893895" lon="9.7696925"><ele>147.57142857142858</ele><time>2026-05-01T08:38:55.036Z</time></trkpt><trkpt lat="44.8894467" lon="9.7696238"><ele>147.14285714285714</ele><time>2026-05-01T08:38:57.041Z</time></trkpt><trkpt lat="44.8895155" lon="9.7696322"><ele>146.71428571428572</ele><time>2026-05-01T08:38:59.017Z</time></trkpt><trkpt lat="44.8895863" lon="9.7695955"><ele>146.28571428571428</ele><time>2026-05-01T08:39:01.02Z</time></trkpt><trkpt lat="44.8896508" lon="9.7695578"><ele>145.85714285714286</ele><time>2026-05-01T08:39:03.037Z</time></trkpt><trkpt lat="44.8897145" lon="9.7695538"><ele>145.42857142857144</ele><time>2026-05-01T08:39:05.029Z</time></trkpt><trkpt lat="44.8897952" lon="9.7695797"><ele>145.0</ele><time>2026-05-01T08:39:08.019Z</time></trkpt><trkpt lat="44.8898843" lon="9.7695585"><ele>145.0</ele><time>2026-05-01T08:39:11.037Z</time></trkpt><trkpt lat="44.8899582" lon="9.769547"><ele>145.0</ele><time>2026-05-01T08:39:13.038Z</time></trkpt><trkpt lat="44.8900531" lon="9.7695285"><ele>145.0</ele><time>2026-05-01T08:39:15.023Z</time></trkpt><trkpt lat="44.8901135" lon="9.7694985"><ele>145.0</ele><time>2026-05-01T08:39:16.034Z</time></trkpt><trkpt lat="44.8902095" lon="9.7694759"><ele>145.0</ele><time>2026-05-01T08:39:18.038Z</time></trkpt><trkpt lat="44.8903013" lon="9.769459"><ele>145.0</ele><time>2026-05-01T08:39:20.033Z</time></trkpt><trkpt lat="44.8903906" lon="9.769459"><ele>144.66666666666669</ele><time>2026-05-01T08:39:22.03Z</time></trkpt><trkpt lat="44.8904735" lon="9.7694891"><ele>144.33333333333334</ele><time>2026-05-01T08:39:24.036Z</time></trkpt><trkpt lat="44.8905631" lon="9.7695163"><ele>144.0</ele><time>2026-05-01T08:39:26.044Z</time></trkpt><trkpt lat="44.8906563" lon="9.7695409"><ele>143.66666666666666</ele><time>2026-05-01T08:39:28.033Z</time></trkpt><trkpt lat="44.890733" lon="9.7695626"><ele>143.33333333333331</ele><time>2026-05-01T08:39:30.032Z</time></trkpt><trkpt lat="44.8908183" lon="9.7695869"><ele>143.0</ele><time>2026-05-01T08:39:32.029Z</time></trkpt><trkpt lat="44.8909041" lon="9.7695982"><ele>142.66666666666666</ele><time>2026-05-01T08:39:34.028Z</time></trkpt><trkpt lat="44.890984" lon="9.769621"><ele>142.33333333333331</ele><time>2026-05-01T08:39:36.035Z</time></trkpt><trkpt lat="44.8910649" lon="9.7696536"><ele>142.0</ele><time>2026-05-01T08:39:38.028Z</time></trkpt><trkpt lat="44.8911529" lon="9.769634"><ele>141.66666666666666</ele><time>2026-05-01T08:39:40.033Z</time></trkpt><trkpt lat="44.8912082" lon="9.7695636"><ele>141.33333333333334</ele><time>2026-05-01T08:39:42.011Z</time></trkpt><trkpt lat="44.891255" lon="9.7694543"><ele>141.0</ele><time>2026-05-01T08:39:44.029Z</time></trkpt><trkpt lat="44.8913041" lon="9.7693609"><ele>141.0</ele><time>2026-05-01T08:39:46.023Z</time></trkpt><trkpt lat="44.8913424" lon="9.7692717"><ele>141.0</ele><time>2026-05-01T08:39:48Z</time></trkpt><trkpt lat="44.8913904" lon="9.7691945"><ele>141.0</ele><time>2026-05-01T08:39:51.036Z</time></trkpt><trkpt lat="44.8914745" lon="9.7692475"><ele>141.0</ele><time>2026-05-01T08:39:54.029Z</time></trkpt><trkpt lat="44.8915403" lon="9.7693303"><ele>141.0</ele><time>2026-05-01T08:39:57.038Z</time></trkpt><trkpt lat="44.8916058" lon="9.7694094"><ele>141.0</ele><time>2026-05-01T08:40:00.031Z</time></trkpt><trkpt lat="44.8916593" lon="9.7694769"><ele>141.0</ele><time>2026-05-01T08:40:03.031Z</time></trkpt><trkpt lat="44.8916807" lon="9.7695722"><ele>141.0</ele><time>2026-05-01T08:40:06.036Z</time></trkpt><trkpt lat="44.8917121" lon="9.769677"><ele>141.0</ele><time>2026-05-01T08:40:09.036Z</time></trkpt><trkpt lat="44.8917625" lon="9.7697585"><ele>141.0</ele><time>2026-05-01T08:40:12.033Z</time></trkpt><trkpt lat="44.8918131" lon="9.7698354"><ele>141.0</ele><time>2026-05-01T08:40:15.033Z</time></trkpt><trkpt lat="44.8918398" lon="9.7699325"><ele>141.0</ele><time>2026-05-01T08:40:18.013Z</time></trkpt><trkpt lat="44.8918653" lon="9.7700454"><ele>140.85714285714286</ele><time>2026-05-01T08:40:21.031Z</time></trkpt><trkpt lat="44.8919085" lon="9.7701478"><ele>140.71428571428572</ele><time>2026-05-01T08:40:24.031Z</time></trkpt><trkpt lat="44.8919533" lon="9.7702149"><ele>140.57142857142856</ele><time>2026-05-01T08:40:27.034Z</time></trkpt><trkpt lat="44.8919955" lon="9.7702984"><ele>140.42857142857144</ele><time>2026-05-01T08:40:31.017Z</time></trkpt><trkpt lat="44.8920342" lon="9.770373"><ele>140.28571428571428</ele><time>2026-05-01T08:40:34.029Z</time></trkpt><trkpt lat="44.892093" lon="9.7704068"><ele>140.14285714285714</ele><time>2026-05-01T08:40:37.02Z</time></trkpt><trkpt lat="44.8921877" lon="9.7704268"><ele>140.0</ele><time>2026-05-01T08:41:01.044Z</time></trkpt><trkpt lat="44.8922346" lon="9.770503"><ele>140.0</ele><time>2026-05-01T08:41:07.032Z</time></trkpt><trkpt lat="44.8922969" lon="9.7706017"><ele>140.0</ele><time>2026-05-01T08:41:10.027Z</time></trkpt><trkpt lat="44.892363" lon="9.7706922"><ele>140.0</ele><time>2026-05-01T08:41:13.035Z</time></trkpt><trkpt lat="44.8924225" lon="9.7707657"><ele>140.0</ele><time>2026-05-01T08:41:16.029Z</time></trkpt><trkpt lat="44.89243" lon="9.7708745"><ele>140.0</ele><time>2026-05-01T08:41:19.026Z</time></trkpt><trkpt lat="44.89247" lon="9.7709517"><ele>140.0</ele><time>2026-05-01T08:41:22.002Z</time></trkpt><trkpt lat="44.8925274" lon="9.771022"><ele>139.83333333333331</ele><time>2026-05-01T08:41:25.022Z</time></trkpt><trkpt lat="44.8925457" lon="9.7711183"><ele>139.66666666666666</ele><time>2026-05-01T08:41:28.025Z</time></trkpt><trkpt lat="44.8925634" lon="9.771231"><ele>139.5</ele><time>2026-05-01T08:41:31.023Z</time></trkpt><trkpt lat="44.892595" lon="9.7713165"><ele>139.33333333333334</ele><time>2026-05-01T08:41:33.033Z</time></trkpt><trkpt lat="44.8926111" lon="9.7714039"><ele>139.16666666666669</ele><time>2026-05-01T08:41:35.032Z</time></trkpt><trkpt lat="44.8926369" lon="9.7715309"><ele>139.0</ele><time>2026-05-01T08:41:38.028Z</time></trkpt><trkpt lat="44.8926936" lon="9.7716301"><ele>138.66666666666669</ele><time>2026-05-01T08:41:41.023Z</time></trkpt><trkpt lat="44.8927451" lon="9.7716816"><ele>138.33333333333334</ele><time>2026-05-01T08:41:43.02Z</time></trkpt><trkpt lat="44.8928093" lon="9.7717506"><ele>138.0</ele><time>2026-05-01T08:41:46.039Z</time></trkpt><trkpt lat="44.8928871" lon="9.7718179"><ele>137.66666666666666</ele><time>2026-05-01T08:41:49.025Z</time></trkpt><trkpt lat="44.892956" lon="9.7718973"><ele>137.33333333333331</ele><time>2026-05-01T08:41:52.032Z</time></trkpt><trkpt lat="44.8930061" lon="9.771965"><ele>137.0</ele><time>2026-05-01T08:41:55.013Z</time></trkpt><trkpt lat="44.8930804" lon="9.7719472"><ele>137.0</ele><time>2026-05-01T08:41:59.016Z</time></trkpt><trkpt lat="44.8931433" lon="9.7720115"><ele>137.0</ele><time>2026-05-01T08:42:04.031Z</time></trkpt><trkpt lat="44.8931686" lon="9.7721331"><ele>137.0</ele><time>2026-05-01T08:42:08.032Z</time></trkpt><trkpt lat="44.8931947" lon="9.7722486"><ele>137.0</ele><time>2026-05-01T08:42:11.018Z</time></trkpt><trkpt lat="44.8931928" lon="9.7723743"><ele>137.0</ele><time>2026-05-01T08:42:14.025Z</time></trkpt><trkpt lat="44.8932043" lon="9.7725005"><ele>137.0</ele><time>2026-05-01T08:42:16.036Z</time></trkpt><trkpt lat="44.8932068" lon="9.7726095"><ele>137.14285714285717</ele><time>2026-05-01T08:42:18.032Z</time></trkpt><trkpt lat="44.893191" lon="9.7727063"><ele>137.28571428571428</ele><time>2026-05-01T08:42:20.034Z</time></trkpt><trkpt lat="44.8932014" lon="9.772801"><ele>137.42857142857144</ele><time>2026-05-01T08:42:23.033Z</time></trkpt><trkpt lat="44.8932367" lon="9.7728902"><ele>137.57142857142858</ele><time>2026-05-01T08:42:26.032Z</time></trkpt><trkpt lat="44.893279" lon="9.7729571"><ele>137.71428571428572</ele><time>2026-05-01T08:42:28.034Z</time></trkpt><trkpt lat="44.893328" lon="9.7730589"><ele>137.85714285714286</ele><time>2026-05-01T08:42:31.037Z</time></trkpt><trkpt lat="44.8933757" lon="9.7731219"><ele>138.0</ele><time>2026-05-01T08:42:33.024Z</time></trkpt><trkpt lat="44.8934279" lon="9.7731741"><ele>138.0</ele><time>2026-05-01T08:42:35.023Z</time></trkpt><trkpt lat="44.8935028" lon="9.7732247"><ele>138.0</ele><time>2026-05-01T08:42:38.032Z</time></trkpt><trkpt lat="44.8935665" lon="9.7732097"><ele>138.0</ele><time>2026-05-01T08:42:40.027Z</time></trkpt><trkpt lat="44.8936397" lon="9.7731942"><ele>138.0</ele><time>2026-05-01T08:42:42.032Z</time></trkpt><trkpt lat="44.893727" lon="9.7731605"><ele>138.0</ele><time>2026-05-01T08:42:45.025Z</time></trkpt><trkpt lat="44.8938" lon="9.7731191"><ele>138.0</ele><time>2026-05-01T08:42:48.031Z</time></trkpt><trkpt lat="44.89385" lon="9.7730321"><ele>138.0</ele><time>2026-05-01T08:42:52Z</time></trkpt><trkpt lat="44.8939159" lon="9.7730117"><ele>138.0</ele><time>2026-05-01T08:42:55.032Z</time></trkpt><trkpt lat="44.8939976" lon="9.7730136"><ele>138.0</ele><time>2026-05-01T08:42:59.027Z</time></trkpt><trkpt lat="44.8940655" lon="9.7729755"><ele>138.0</ele><time>2026-05-01T08:43:03.033Z</time></trkpt><trkpt lat="44.8941234" lon="9.7729134"><ele>138.0</ele><time>2026-05-01T08:43:07.022Z</time></trkpt><trkpt lat="44.8941849" lon="9.7728467"><ele>138.0</ele><time>2026-05-01T08:43:11.038Z</time></trkpt><trkpt lat="44.8942295" lon="9.7727475"><ele>138.0</ele><time>2026-05-01T08:43:14.034Z</time></trkpt><trkpt lat="44.8942926" lon="9.772672"><ele>138.0</ele><time>2026-05-01T08:43:17.043Z</time></trkpt><trkpt lat="44.8943221" lon="9.7725747"><ele>138.0</ele><time>2026-05-01T08:43:35.034Z</time></trkpt><trkpt lat="44.8943867" lon="9.7725026"><ele>138.0</ele><time>2026-05-01T08:43:40.032Z</time></trkpt><trkpt lat="44.8944556" lon="9.7724429"><ele>138.0</ele><time>2026-05-01T08:43:43.037Z</time></trkpt><trkpt lat="44.8945383" lon="9.7724333"><ele>138.0</ele><time>2026-05-01T08:43:46.037Z</time></trkpt><trkpt lat="44.8946148" lon="9.7724428"><ele>138.0</ele><time>2026-05-01T08:43:49.038Z</time></trkpt><trkpt lat="44.8946706" lon="9.7723661"><ele>138.0</ele><time>2026-05-01T08:43:52.03Z</time></trkpt><trkpt lat="44.8947239" lon="9.772299"><ele>138.0</ele><time>2026-05-01T08:43:55.035Z</time></trkpt><trkpt lat="44.8947822" lon="9.7722501"><ele>138.0</ele><time>2026-05-01T08:43:58.045Z</time></trkpt><trkpt lat="44.8948461" lon="9.7722226"><ele>138.0</ele><time>2026-05-01T08:44:01.03Z</time></trkpt><trkpt lat="44.8949016" lon="9.772178"><ele>138.0</ele><time>2026-05-01T08:44:04.036Z</time></trkpt><trkpt lat="44.8949717" lon="9.7721958"><ele>138.0</ele><time>2026-05-01T08:44:08.025Z</time></trkpt><trkpt lat="44.8950172" lon="9.7722991"><ele>137.42857142857144</ele><time>2026-05-01T08:44:11.025Z</time></trkpt><trkpt lat="44.895093" lon="9.7722997"><ele>136.85714285714286</ele><time>2026-05-01T08:44:14.016Z</time></trkpt><trkpt lat="44.8951534" lon="9.7722646"><ele>136.28571428571428</ele><time>2026-05-01T08:44:17.043Z</time></trkpt><trkpt lat="44.8952072" lon="9.772203"><ele>135.71428571428572</ele><time>2026-05-01T08:44:20.03Z</time></trkpt><trkpt lat="44.895269" lon="9.7721706"><ele>135.14285714285714</ele><time>2026-05-01T08:44:23.009Z</time></trkpt><trkpt lat="44.8953337" lon="9.772176"><ele>134.57142857142858</ele><time>2026-05-01T08:44:27.039Z</time></trkpt><trkpt lat="44.8954157" lon="9.7721747"><ele>134.0</ele><time>2026-05-01T08:44:30.037Z</time></trkpt><trkpt lat="44.8954982" lon="9.7721971"><ele>134.0</ele><time>2026-05-01T08:44:33.024Z</time></trkpt><trkpt lat="44.8955465" lon="9.7722583"><ele>134.0</ele><time>2026-05-01T08:44:37.04Z</time></trkpt><trkpt lat="44.8956171" lon="9.7722281"><ele>134.0</ele><time>2026-05-01T08:44:41.042Z</time></trkpt><trkpt lat="44.8956806" lon="9.7721565"><ele>134.0</ele><time>2026-05-01T08:44:44.027Z</time></trkpt><trkpt lat="44.8957513" lon="9.7721861"><ele>134.0</ele><time>2026-05-01T08:44:47.031Z</time></trkpt><trkpt lat="44.8958367" lon="9.7721194"><ele>134.0</ele><time>2026-05-01T08:44:50.034Z</time></trkpt><trkpt lat="44.895895" lon="9.7720141"><ele>133.66666666666666</ele><time>2026-05-01T08:44:53.028Z</time></trkpt><trkpt lat="44.8959298" lon="9.771937"><ele>133.33333333333331</ele><time>2026-05-01T08:44:55.023Z</time></trkpt><trkpt lat="44.8959631" lon="9.7718567"><ele>133.0</ele><time>2026-05-01T08:44:57.037Z</time></trkpt><trkpt lat="44.8959951" lon="9.7717696"><ele>132.66666666666666</ele><time>2026-05-01T08:44:59.033Z</time></trkpt><trkpt lat="44.8960496" lon="9.7716728"><ele>132.33333333333334</ele><time>2026-05-01T08:45:02.022Z</time></trkpt><trkpt lat="44.8961111" lon="9.7715662"><ele>132.0</ele><time>2026-05-01T08:45:05.031Z</time></trkpt><trkpt lat="44.8961595" lon="9.7714762"><ele>132.0</ele><time>2026-05-01T08:45:08.031Z</time></trkpt><trkpt lat="44.896229" lon="9.7714363"><ele>132.0</ele><time>2026-05-01T08:45:11.027Z</time></trkpt><trkpt lat="44.8963033" lon="9.7714165"><ele>132.0</ele><time>2026-05-01T08:45:14.027Z</time></trkpt><trkpt lat="44.8963436" lon="9.7713175"><ele>132.0</ele><time>2026-05-01T08:45:17.036Z</time></trkpt><trkpt lat="44.8964192" lon="9.7713166"><ele>132.0</ele><time>2026-05-01T08:45:20.037Z</time></trkpt><trkpt lat="44.8964907" lon="9.7713403"><ele>132.0</ele><time>2026-05-01T08:45:23.038Z</time></trkpt><trkpt lat="44.8965643" lon="9.7713797"><ele>132.0</ele><time>2026-05-01T08:45:26.032Z</time></trkpt><trkpt lat="44.8966258" lon="9.7713563"><ele>132.0</ele><time>2026-05-01T08:45:28.033Z</time></trkpt><trkpt lat="44.8966854" lon="9.7713217"><ele>132.0</ele><time>2026-05-01T08:45:30.04Z</time></trkpt><trkpt lat="44.8967478" lon="9.7712912"><ele>132.0</ele><time>2026-05-01T08:45:32.03Z</time></trkpt><trkpt lat="44.8968324" lon="9.7712428"><ele>132.0</ele><time>2026-05-01T08:45:35.034Z</time></trkpt><trkpt lat="44.8968586" lon="9.7711468"><ele>132.0</ele><time>2026-05-01T08:45:38.035Z</time></trkpt><trkpt lat="44.8969188" lon="9.7710966"><ele>132.0</ele><time>2026-05-01T08:45:45.006Z</time></trkpt><trkpt lat="44.8969826" lon="9.7710563"><ele>132.0</ele><time>2026-05-01T08:45:48.012Z</time></trkpt><trkpt lat="44.8970532" lon="9.7710706"><ele>132.0</ele><time>2026-05-01T08:45:52.034Z</time></trkpt><trkpt lat="44.8970981" lon="9.771007"><ele>132.0</ele><time>2026-05-01T08:45:55.035Z</time></trkpt><trkpt lat="44.8971689" lon="9.7709761"><ele>132.0</ele><time>2026-05-01T08:45:59.012Z</time></trkpt><trkpt lat="44.8972336" lon="9.7709249"><ele>132.0</ele><time>2026-05-01T08:46:02.04Z</time></trkpt><trkpt lat="44.8973116" lon="9.7709532"><ele>132.0</ele><time>2026-05-01T08:46:05.045Z</time></trkpt><trkpt lat="44.897376" lon="9.7708963"><ele>132.0</ele><time>2026-05-01T08:46:08.037Z</time></trkpt><trkpt lat="44.8974404" lon="9.7708591"><ele>132.0</ele><time>2026-05-01T08:46:11.025Z</time></trkpt><trkpt lat="44.8975084" lon="9.7708631"><ele>132.0</ele><time>2026-05-01T08:46:16.025Z</time></trkpt><trkpt lat="44.8975745" lon="9.770817"><ele>132.0</ele><time>2026-05-01T08:46:19.031Z</time></trkpt><trkpt lat="44.8976425" lon="9.770832"><ele>132.0</ele><time>2026-05-01T08:46:22.033Z</time></trkpt><trkpt lat="44.8976906" lon="9.7707683"><ele>132.0</ele><time>2026-05-01T08:46:25.029Z</time></trkpt><trkpt lat="44.8977748" lon="9.7707663"><ele>132.0</ele><time>2026-05-01T08:46:28.031Z</time></trkpt><trkpt lat="44.8978487" lon="9.7707371"><ele>132.0</ele><time>2026-05-01T08:46:31.019Z</time></trkpt><trkpt lat="44.8979127" lon="9.7706756"><ele>132.0</ele><time>2026-05-01T08:46:34.02Z</time></trkpt><trkpt lat="44.8979992" lon="9.7706461"><ele>132.0</ele><time>2026-05-01T08:46:37.034Z</time></trkpt><trkpt lat="44.8980435" lon="9.7705729"><ele>132.0</ele><time>2026-05-01T08:46:40.03Z</time></trkpt><trkpt lat="44.8981086" lon="9.7705794"><ele>132.0</ele><time>2026-05-01T08:46:43.019Z</time></trkpt><trkpt lat="44.8981948" lon="9.7705667"><ele>132.0</ele><time>2026-05-01T08:46:46.024Z</time></trkpt><trkpt lat="44.8982779" lon="9.770529"><ele>132.0</ele><time>2026-05-01T08:46:48.037Z</time></trkpt><trkpt lat="44.898353" lon="9.7704974"><ele>132.28571428571428</ele><time>2026-05-01T08:46:53.027Z</time></trkpt><trkpt lat="44.8984211" lon="9.7704908"><ele>132.57142857142858</ele><time>2026-05-01T08:46:55.033Z</time></trkpt><trkpt lat="44.8984868" lon="9.7704875"><ele>132.85714285714286</ele><time>2026-05-01T08:46:57.028Z</time></trkpt><trkpt lat="44.8985314" lon="9.7705815"><ele>133.14285714285714</ele><time>2026-05-01T08:47:02.04Z</time></trkpt><trkpt lat="44.898579" lon="9.7706429"><ele>133.42857142857142</ele><time>2026-05-01T08:47:05.038Z</time></trkpt><trkpt lat="44.8986578" lon="9.7706518"><ele>133.71428571428572</ele><time>2026-05-01T08:47:12.034Z</time></trkpt><trkpt lat="44.8987209" lon="9.7706739"><ele>134.0</ele><time>2026-05-01T08:47:15.033Z</time></trkpt><trkpt lat="44.8987917" lon="9.7706445"><ele>134.0</ele><time>2026-05-01T08:47:19.026Z</time></trkpt><trkpt lat="44.8988712" lon="9.7706603"><ele>134.0</ele><time>2026-05-01T08:47:23.027Z</time></trkpt><trkpt lat="44.8989353" lon="9.7707129"><ele>134.0</ele><time>2026-05-01T08:47:27.033Z</time></trkpt><trkpt lat="44.8989922" lon="9.7707634"><ele>134.0</ele><time>2026-05-01T08:47:30.02Z</time></trkpt><trkpt lat="44.8990501" lon="9.7708122"><ele>134.0</ele><time>2026-05-01T08:47:33.033Z</time></trkpt><trkpt lat="44.899115" lon="9.7708709"><ele>134.0</ele><time>2026-05-01T08:47:36.034Z</time></trkpt><trkpt lat="44.899165" lon="9.7709439"><ele>134.0</ele><time>2026-05-01T08:47:39.019Z</time></trkpt><trkpt lat="44.8992271" lon="9.7710227"><ele>133.16666666666666</ele><time>2026-05-01T08:47:42.032Z</time></trkpt><trkpt lat="44.8992824" lon="9.7711022"><ele>132.33333333333331</ele><time>2026-05-01T08:47:45.033Z</time></trkpt><trkpt lat="44.8993528" lon="9.7711487"><ele>131.5</ele><time>2026-05-01T08:47:48.005Z</time></trkpt><trkpt lat="44.8994282" lon="9.7711128"><ele>130.66666666666666</ele><time>2026-05-01T08:47:51.028Z</time></trkpt><trkpt lat="44.8994978" lon="9.7711217"><ele>129.83333333333334</ele><time>2026-05-01T08:47:55.023Z</time></trkpt><trkpt lat="44.8995719" lon="9.7711489"><ele>129.0</ele><time>2026-05-01T08:48:00.019Z</time></trkpt><trkpt lat="44.899643" lon="9.7711483"><ele>129.0</ele><time>2026-05-01T08:48:04.03Z</time></trkpt><trkpt lat="44.8997242" lon="9.7711805"><ele>129.0</ele><time>2026-05-01T08:48:08.04Z</time></trkpt><trkpt lat="44.8997951" lon="9.7712427"><ele>129.0</ele><time>2026-05-01T08:48:13.029Z</time></trkpt><trkpt lat="44.8998496" lon="9.7713213"><ele>129.0</ele><time>2026-05-01T08:48:17.034Z</time></trkpt><trkpt lat="44.899921" lon="9.7713256"><ele>129.0</ele><time>2026-05-01T08:48:20.019Z</time></trkpt><trkpt lat="44.8999871" lon="9.7713341"><ele>129.0</ele><time>2026-05-01T08:48:23.026Z</time></trkpt><trkpt lat="44.9000634" lon="9.7713143"><ele>128.99999999999997</ele><time>2026-05-01T08:48:27.026Z</time></trkpt><trkpt lat="44.9001209" lon="9.7712568"><ele>129.0</ele><time>2026-05-01T08:48:30.008Z</time></trkpt><trkpt lat="44.9001601" lon="9.7711639"><ele>129.0</ele><time>2026-05-01T08:48:33.033Z</time></trkpt><trkpt lat="44.9002212" lon="9.7710835"><ele>129.0</ele><time>2026-05-01T08:48:36.034Z</time></trkpt><trkpt lat="44.9002606" lon="9.7709934"><ele>129.0</ele><time>2026-05-01T08:48:39.035Z</time></trkpt><trkpt lat="44.9003118" lon="9.7709356"><ele>128.99999999999997</ele><time>2026-05-01T08:48:42.016Z</time></trkpt><trkpt lat="44.900365" lon="9.7708608"><ele>129.0</ele><time>2026-05-01T08:48:45.037Z</time></trkpt><trkpt lat="44.9004187" lon="9.7707652"><ele>129.42857142857142</ele><time>2026-05-01T08:48:48.023Z</time></trkpt><trkpt lat="44.9004978" lon="9.7707536"><ele>129.85714285714286</ele><time>2026-05-01T08:48:51.024Z</time></trkpt><trkpt lat="44.9005646" lon="9.7707968"><ele>130.28571428571428</ele><time>2026-05-01T08:48:54.026Z</time></trkpt><trkpt lat="44.9006227" lon="9.7707134"><ele>130.71428571428572</ele><time>2026-05-01T08:48:57.028Z</time></trkpt><trkpt lat="44.9006626" lon="9.7706414"><ele>131.14285714285714</ele><time>2026-05-01T08:48:59.027Z</time></trkpt><trkpt lat="44.9007249" lon="9.7706861"><ele>131.57142857142856</ele><time>2026-05-01T08:49:01.033Z</time></trkpt><trkpt lat="44.9007879" lon="9.7706917"><ele>132.0</ele><time>2026-05-01T08:49:04.035Z</time></trkpt><trkpt lat="44.9008298" lon="9.770591"><ele>132.0</ele><time>2026-05-01T08:49:07.023Z</time></trkpt><trkpt lat="44.9008988" lon="9.7706285"><ele>132.0</ele><time>2026-05-01T08:49:10.029Z</time></trkpt><trkpt lat="44.9009657" lon="9.7707109"><ele>132.0</ele><time>2026-05-01T08:49:13.039Z</time></trkpt><trkpt lat="44.9010377" lon="9.7707588"><ele>132.0</ele><time>2026-05-01T08:49:16.022Z</time></trkpt><trkpt lat="44.9011224" lon="9.7707642"><ele>132.0</ele><time>2026-05-01T08:49:19.032Z</time></trkpt><trkpt lat="44.9011823" lon="9.7708504"><ele>132.0</ele><time>2026-05-01T08:49:22.029Z</time></trkpt><trkpt lat="44.9012193" lon="9.7709304"><ele>131.5</ele><time>2026-05-01T08:49:24.029Z</time></trkpt><trkpt lat="44.9012598" lon="9.7710385"><ele>131.0</ele><time>2026-05-01T08:49:27.029Z</time></trkpt><trkpt lat="44.9012732" lon="9.77113"><ele>130.5</ele><time>2026-05-01T08:49:31.015Z</time></trkpt><trkpt lat="44.901324" lon="9.7711882"><ele>130.0</ele><time>2026-05-01T08:49:35.04Z</time></trkpt><trkpt lat="44.9013315" lon="9.7712952"><ele>129.5</ele><time>2026-05-01T08:49:39.026Z</time></trkpt><trkpt lat="44.9012813" lon="9.7713816"><ele>129.0</ele><time>2026-05-01T08:49:42.027Z</time></trkpt><trkpt lat="44.9012313" lon="9.7714783"><ele>128.99999999999997</ele><time>2026-05-01T08:49:45.034Z</time></trkpt><trkpt lat="44.9011754" lon="9.7715464"><ele>129.0</ele><time>2026-05-01T08:49:48.009Z</time></trkpt><trkpt lat="44.901148" lon="9.7716323"><ele>129.0</ele><time>2026-05-01T08:49:52.028Z</time></trkpt><trkpt lat="44.9011125" lon="9.7717068"><ele>129.0</ele><time>2026-05-01T08:49:56.034Z</time></trkpt><trkpt lat="44.9011027" lon="9.7717956"><ele>129.0</ele><time>2026-05-01T08:50:03.028Z</time></trkpt><trkpt lat="44.9010606" lon="9.7718659"><ele>128.99999999999997</ele><time>2026-05-01T08:50:07.031Z</time></trkpt><trkpt lat="44.901028" lon="9.7719545"><ele>129.0</ele><time>2026-05-01T08:50:12.035Z</time></trkpt><trkpt lat="44.9009778" lon="9.7720433"><ele>128.99999999999997</ele><time>2026-05-01T08:50:16.003Z</time></trkpt><trkpt lat="44.9009201" lon="9.7720868"><ele>129.0</ele><time>2026-05-01T08:50:19.033Z</time></trkpt><trkpt lat="44.9008823" lon="9.7721614"><ele>129.0</ele><time>2026-05-01T08:50:22.029Z</time></trkpt><trkpt lat="44.9008393" lon="9.772254"><ele>129.0</ele><time>2026-05-01T08:50:25Z</time></trkpt><trkpt lat="44.9007894" lon="9.7723253"><ele>129.0</ele><time>2026-05-01T08:50:28.031Z</time></trkpt><trkpt lat="44.9007291" lon="9.77237"><ele>128.99999999999997</ele><time>2026-05-01T08:50:32.038Z</time></trkpt><trkpt lat="44.9006537" lon="9.7724246"><ele>129.0</ele><time>2026-05-01T08:50:36.028Z</time></trkpt><trkpt lat="44.9006328" lon="9.7725201"><ele>128.99999999999997</ele><time>2026-05-01T08:50:42.03Z</time></trkpt><trkpt lat="44.9006053" lon="9.7726108"><ele>129.0</ele><time>2026-05-01T08:50:45.026Z</time></trkpt><trkpt lat="44.900577" lon="9.772721"><ele>129.0</ele><time>2026-05-01T08:50:49.031Z</time></trkpt><trkpt lat="44.900562" lon="9.77282"><ele>129.0</ele><time>2026-05-01T08:50:52.028Z</time></trkpt><trkpt lat="44.9005566" lon="9.7729222"><ele>129.0</ele><time>2026-05-01T08:50:55.028Z</time></trkpt><trkpt lat="44.9005511" lon="9.7730205"><ele>128.99999999999997</ele><time>2026-05-01T08:50:58.026Z</time></trkpt><trkpt lat="44.9005777" lon="9.7731023"><ele>129.0</ele><time>2026-05-01T08:51:01.033Z</time></trkpt><trkpt lat="44.9006522" lon="9.7731565"><ele>128.83333333333334</ele><time>2026-05-01T08:51:04.043Z</time></trkpt><trkpt lat="44.9006845" lon="9.7732439"><ele>128.66666666666666</ele><time>2026-05-01T08:51:07.031Z</time></trkpt><trkpt lat="44.9006894" lon="9.7733543"><ele>128.5</ele><time>2026-05-01T08:51:10.008Z</time></trkpt><trkpt lat="44.9007286" lon="9.7734433"><ele>128.33333333333331</ele><time>2026-05-01T08:51:13.03Z</time></trkpt><trkpt lat="44.900795" lon="9.7734719"><ele>128.16666666666666</ele><time>2026-05-01T08:51:16.034Z</time></trkpt><trkpt lat="44.9008712" lon="9.773399"><ele>128.0</ele><time>2026-05-01T08:51:19.027Z</time></trkpt><trkpt lat="44.9009505" lon="9.7733863"><ele>128.0</ele><time>2026-05-01T08:51:22.031Z</time></trkpt><trkpt lat="44.9010201" lon="9.7733467"><ele>127.99999999999999</ele><time>2026-05-01T08:51:25.034Z</time></trkpt><trkpt lat="44.9010829" lon="9.7733945"><ele>128.0</ele><time>2026-05-01T08:51:28.029Z</time></trkpt><trkpt lat="44.9010752" lon="9.7735001"><ele>128.0</ele><time>2026-05-01T08:51:32.029Z</time></trkpt><trkpt lat="44.9010426" lon="9.7735879"><ele>127.99999999999999</ele><time>2026-05-01T08:51:35.042Z</time></trkpt><trkpt lat="44.9010273" lon="9.7736813"><ele>128.0</ele><time>2026-05-01T08:51:38.029Z</time></trkpt><trkpt lat="44.9010802" lon="9.773764"><ele>128.0</ele><time>2026-05-01T08:51:42.01Z</time></trkpt><trkpt lat="44.9011337" lon="9.7737005"><ele>127.99999999999999</ele><time>2026-05-01T08:51:45.026Z</time></trkpt><trkpt lat="44.9012133" lon="9.7736521"><ele>128.0</ele><time>2026-05-01T08:51:49.024Z</time></trkpt><trkpt lat="44.9012959" lon="9.7736412"><ele>128.0</ele><time>2026-05-01T08:51:52.032Z</time></trkpt><trkpt lat="44.9013434" lon="9.7737313"><ele>128.0</ele><time>2026-05-01T08:51:55.021Z</time></trkpt><trkpt lat="44.9014157" lon="9.7736655"><ele>127.99999999999999</ele><time>2026-05-01T08:51:58.031Z</time></trkpt><trkpt lat="44.9014808" lon="9.7736526"><ele>128.0</ele><time>2026-05-01T08:52:00.032Z</time></trkpt><trkpt lat="44.9015559" lon="9.7736367"><ele>128.0</ele><time>2026-05-01T08:52:03.027Z</time></trkpt><trkpt lat="44.9016169" lon="9.7735894"><ele>127.99999999999999</ele><time>2026-05-01T08:52:06.03Z</time></trkpt><trkpt lat="44.9016629" lon="9.7735102"><ele>128.0</ele><time>2026-05-01T08:52:09.031Z</time></trkpt><trkpt lat="44.9017222" lon="9.7734471"><ele>128.0</ele><time>2026-05-01T08:52:12.034Z</time></trkpt><trkpt lat="44.9017673" lon="9.7733787"><ele>127.99999999999999</ele><time>2026-05-01T08:52:14.005Z</time></trkpt><trkpt lat="44.9018002" lon="9.7732895"><ele>128.0</ele><time>2026-05-01T08:52:16.018Z</time></trkpt><trkpt lat="44.9018675" lon="9.7732173"><ele>128.0</ele><time>2026-05-01T08:52:19.03Z</time></trkpt><trkpt lat="44.9019236" lon="9.7731624"><ele>127.71428571428571</ele><time>2026-05-01T08:52:22.024Z</time></trkpt><trkpt lat="44.9019654" lon="9.7730937"><ele>127.42857142857142</ele><time>2026-05-01T08:52:25.026Z</time></trkpt><trkpt lat="44.9019977" lon="9.7729984"><ele>127.14285714285714</ele><time>2026-05-01T08:52:28.038Z</time></trkpt><trkpt lat="44.9020746" lon="9.7729483"><ele>126.85714285714286</ele><time>2026-05-01T08:52:32.033Z</time></trkpt><trkpt lat="44.9021384" lon="9.7729325"><ele>126.57142857142857</ele><time>2026-05-01T08:52:34.004Z</time></trkpt><trkpt lat="44.9021929" lon="9.7728812"><ele>126.28571428571428</ele><time>2026-05-01T08:52:36.046Z</time></trkpt><trkpt lat="44.902274" lon="9.7728651"><ele>126.0</ele><time>2026-05-01T08:52:39.032Z</time></trkpt><trkpt lat="44.902349" lon="9.7728758"><ele>126.0</ele><time>2026-05-01T08:52:42.034Z</time></trkpt><trkpt lat="44.9024194" lon="9.77282"><ele>126.0</ele><time>2026-05-01T08:53:00.044Z</time></trkpt><trkpt lat="44.9024694" lon="9.7727461"><ele>126.0</ele><time>2026-05-01T08:53:06.03Z</time></trkpt><trkpt lat="44.9025531" lon="9.7727107"><ele>126.0</ele><time>2026-05-01T08:53:10.025Z</time></trkpt><trkpt lat="44.9026418" lon="9.7727363"><ele>126.0</ele><time>2026-05-01T08:53:13.025Z</time></trkpt><trkpt lat="44.9027092" lon="9.7727347"><ele>126.0</ele><time>2026-05-01T08:53:15.024Z</time></trkpt><trkpt lat="44.9027681" lon="9.7726911"><ele>125.85714285714286</ele><time>2026-05-01T08:53:17.036Z</time></trkpt><trkpt lat="44.9028305" lon="9.772669"><ele>125.71428571428572</ele><time>2026-05-01T08:53:19.035Z</time></trkpt><trkpt lat="44.9028985" lon="9.7726513"><ele>125.57142857142857</ele><time>2026-05-01T08:53:21.022Z</time></trkpt><trkpt lat="44.902969" lon="9.7726356"><ele>125.42857142857143</ele><time>2026-05-01T08:53:23.02Z</time></trkpt><trkpt lat="44.9030415" lon="9.7726207"><ele>125.28571428571429</ele><time>2026-05-01T08:53:25.039Z</time></trkpt><trkpt lat="44.9031347" lon="9.772608"><ele>125.14285714285714</ele><time>2026-05-01T08:53:28.028Z</time></trkpt><trkpt lat="44.903199" lon="9.7726093"><ele>125.0</ele><time>2026-05-01T08:53:30.045Z</time></trkpt><trkpt lat="44.903261" lon="9.7726284"><ele>124.99999999999999</ele><time>2026-05-01T08:53:32.024Z</time></trkpt><trkpt lat="44.9033453" lon="9.772689"><ele>125.0</ele><time>2026-05-01T08:53:35.024Z</time></trkpt><trkpt lat="44.9034056" lon="9.7727382"><ele>125.0</ele><time>2026-05-01T08:53:37.03Z</time></trkpt><trkpt lat="44.9034558" lon="9.7728174"><ele>125.0</ele><time>2026-05-01T08:53:39.033Z</time></trkpt><trkpt lat="44.9034985" lon="9.7728898"><ele>124.99999999999999</ele><time>2026-05-01T08:53:41.032Z</time></trkpt><trkpt lat="44.903552" lon="9.7729466"><ele>125.0</ele><time>2026-05-01T08:53:43.032Z</time></trkpt><trkpt lat="44.9036228" lon="9.773002"><ele>124.99999999999999</ele><time>2026-05-01T08:53:46.024Z</time></trkpt><trkpt lat="44.9036934" lon="9.772981"><ele>125.0</ele><time>2026-05-01T08:53:49.027Z</time></trkpt><trkpt lat="44.9037563" lon="9.7729994"><ele>125.0</ele><time>2026-05-01T08:53:53.036Z</time></trkpt><trkpt lat="44.9038391" lon="9.7729694"><ele>125.0</ele><time>2026-05-01T08:53:56.031Z</time></trkpt><trkpt lat="44.9039096" lon="9.7729803"><ele>124.99999999999999</ele><time>2026-05-01T08:53:59.029Z</time></trkpt><trkpt lat="44.903995" lon="9.7730331"><ele>125.0</ele><time>2026-05-01T08:54:02.025Z</time></trkpt><trkpt lat="44.9040691" lon="9.7729834"><ele>124.99999999999999</ele><time>2026-05-01T08:54:05.028Z</time></trkpt><trkpt lat="44.9041437" lon="9.7730076"><ele>125.0</ele><time>2026-05-01T08:54:08.032Z</time></trkpt><trkpt lat="44.9042225" lon="9.7730595"><ele>125.0</ele><time>2026-05-01T08:54:11.027Z</time></trkpt><trkpt lat="44.9043018" lon="9.7731403"><ele>125.0</ele><time>2026-05-01T08:54:14.022Z</time></trkpt><trkpt lat="44.9043559" lon="9.7731924"><ele>124.99999999999999</ele><time>2026-05-01T08:54:16.029Z</time></trkpt><trkpt lat="44.9044179" lon="9.7732145"><ele>125.0</ele><time>2026-05-01T08:54:18.03Z</time></trkpt><trkpt lat="44.9044846" lon="9.7732469"><ele>124.83333333333333</ele><time>2026-05-01T08:54:20.033Z</time></trkpt><trkpt lat="44.9045607" lon="9.7732719"><ele>124.66666666666666</ele><time>2026-05-01T08:54:22.025Z</time></trkpt><trkpt lat="44.9046396" lon="9.7732901"><ele>124.5</ele><time>2026-05-01T08:54:24.035Z</time></trkpt><trkpt lat="44.9047279" lon="9.7733185"><ele>124.33333333333334</ele><time>2026-05-01T08:54:26.033Z</time></trkpt><trkpt lat="44.9047903" lon="9.7733454"><ele>124.16666666666667</ele><time>2026-05-01T08:54:28.029Z</time></trkpt><trkpt lat="44.9048551" lon="9.7733653"><ele>124.0</ele><time>2026-05-01T08:54:30.024Z</time></trkpt><trkpt lat="44.9049243" lon="9.7733856"><ele>124.0</ele><time>2026-05-01T08:54:32.03Z</time></trkpt><trkpt lat="44.9050037" lon="9.7734024"><ele>124.0</ele><time>2026-05-01T08:54:34.032Z</time></trkpt><trkpt lat="44.9051053" lon="9.7734287"><ele>124.0</ele><time>2026-05-01T08:54:36.028Z</time></trkpt><trkpt lat="44.9052035" lon="9.7734396"><ele>124.0</ele><time>2026-05-01T08:54:38.026Z</time></trkpt><trkpt lat="44.9053116" lon="9.7734532"><ele>124.0</ele><time>2026-05-01T08:54:40.029Z</time></trkpt><trkpt lat="44.9054058" lon="9.7734853"><ele>123.0</ele><time>2026-05-01T08:54:42.029Z</time></trkpt><trkpt lat="44.9055077" lon="9.7735278"><ele>122.0</ele><time>2026-05-01T08:54:44.035Z</time></trkpt><trkpt lat="44.9056082" lon="9.7735554"><ele>121.0</ele><time>2026-05-01T08:54:46.026Z</time></trkpt><trkpt lat="44.9056999" lon="9.7735571"><ele>120.0</ele><time>2026-05-01T08:54:48.033Z</time></trkpt><trkpt lat="44.9057769" lon="9.77358"><ele>119.0</ele><time>2026-05-01T08:54:50.026Z</time></trkpt><trkpt lat="44.9058519" lon="9.7736052"><ele>118.66666666666666</ele><time>2026-05-01T08:54:52.037Z</time></trkpt><trkpt lat="44.9059311" lon="9.7736397"><ele>118.33333333333333</ele><time>2026-05-01T08:54:54.029Z</time></trkpt><trkpt lat="44.9059966" lon="9.7736601"><ele>118.0</ele><time>2026-05-01T08:54:56.029Z</time></trkpt><trkpt lat="44.9060657" lon="9.7736318"><ele>117.66666666666666</ele><time>2026-05-01T08:54:58.043Z</time></trkpt><trkpt lat="44.9061468" lon="9.7736471"><ele>117.33333333333333</ele><time>2026-05-01T08:55:00.02Z</time></trkpt><trkpt lat="44.9062201" lon="9.7736695"><ele>117.0</ele><time>2026-05-01T08:55:02.029Z</time></trkpt><trkpt lat="44.906293" lon="9.7736902"><ele>117.0</ele><time>2026-05-01T08:55:04.03Z</time></trkpt><trkpt lat="44.9063744" lon="9.7737108"><ele>116.99999999999999</ele><time>2026-05-01T08:55:06.036Z</time></trkpt><trkpt lat="44.9064442" lon="9.7737462"><ele>116.99999999999999</ele><time>2026-05-01T08:55:08.03Z</time></trkpt><trkpt lat="44.906548" lon="9.7737752"><ele>117.0</ele><time>2026-05-01T08:55:10.034Z</time></trkpt><trkpt lat="44.9066474" lon="9.7738018"><ele>117.0</ele><time>2026-05-01T08:55:12.021Z</time></trkpt><trkpt lat="44.9067355" lon="9.7738318"><ele>117.5</ele><time>2026-05-01T08:55:14.021Z</time></trkpt><trkpt lat="44.9068278" lon="9.7738547"><ele>118.0</ele><time>2026-05-01T08:55:16.033Z</time></trkpt><trkpt lat="44.9068956" lon="9.7738591"><ele>118.5</ele><time>2026-05-01T08:55:18.041Z</time></trkpt><trkpt lat="44.9069531" lon="9.7737641"><ele>119.0</ele><time>2026-05-01T08:55:21.035Z</time></trkpt><trkpt lat="44.9069573" lon="9.7736662"><ele>119.5</ele><time>2026-05-01T08:55:23.025Z</time></trkpt><trkpt lat="44.9069454" lon="9.7735598"><ele>120.0</ele><time>2026-05-01T08:55:25.041Z</time></trkpt><trkpt lat="44.9068992" lon="9.7734453"><ele>120.0</ele><time>2026-05-01T08:55:27.036Z</time></trkpt><trkpt lat="44.9068634" lon="9.7733328"><ele>120.0</ele><time>2026-05-01T08:55:29.033Z</time></trkpt><trkpt lat="44.9068224" lon="9.7732353"><ele>120.0</ele><time>2026-05-01T08:55:31.024Z</time></trkpt><trkpt lat="44.9067988" lon="9.7731108"><ele>120.0</ele><time>2026-05-01T08:55:33.032Z</time></trkpt><trkpt lat="44.9067805" lon="9.7729951"><ele>120.0</ele><time>2026-05-01T08:55:35.031Z</time></trkpt><trkpt lat="44.9067612" lon="9.7728629"><ele>120.0</ele><time>2026-05-01T08:55:37.037Z</time></trkpt><trkpt lat="44.9067315" lon="9.7727301"><ele>120.4</ele><time>2026-05-01T08:55:39.033Z</time></trkpt><trkpt lat="44.9067013" lon="9.7725938"><ele>120.8</ele><time>2026-05-01T08:55:41.033Z</time></trkpt><trkpt lat="44.906661" lon="9.7724453"><ele>121.19999999999999</ele><time>2026-05-01T08:55:43.023Z</time></trkpt><trkpt lat="44.9066207" lon="9.7722877"><ele>121.6</ele><time>2026-05-01T08:55:45.029Z</time></trkpt><trkpt lat="44.9065923" lon="9.7721364"><ele>122.0</ele><time>2026-05-01T08:55:47.034Z</time></trkpt><trkpt lat="44.9065782" lon="9.7719949"><ele>122.19999999999999</ele><time>2026-05-01T08:55:49.018Z</time></trkpt><trkpt lat="44.9065818" lon="9.7718472"><ele>122.39999999999999</ele><time>2026-05-01T08:55:51.022Z</time></trkpt><trkpt lat="44.906588" lon="9.7717111"><ele>122.60000000000001</ele><time>2026-05-01T08:55:53.025Z</time></trkpt><trkpt lat="44.9066046" lon="9.7715765"><ele>122.80000000000001</ele><time>2026-05-01T08:55:55.035Z</time></trkpt><trkpt lat="44.9066243" lon="9.7714526"><ele>123.0</ele><time>2026-05-01T08:55:57.039Z</time></trkpt><trkpt lat="44.9066445" lon="9.7713454"><ele>123.0</ele><time>2026-05-01T08:55:59.036Z</time></trkpt><trkpt lat="44.906653" lon="9.771246"><ele>123.0</ele><time>2026-05-01T08:56:01.004Z</time></trkpt><trkpt lat="44.9066699" lon="9.7711577"><ele>123.0</ele><time>2026-05-01T08:56:45.996Z</time></trkpt><trkpt lat="44.9066876" lon="9.7710445"><ele>123.0</ele><time>2026-05-01T08:56:51.016Z</time></trkpt><trkpt lat="44.9067099" lon="9.7709283"><ele>123.0</ele><time>2026-05-01T08:56:54.034Z</time></trkpt><trkpt lat="44.9067288" lon="9.7708042"><ele>123.0</ele><time>2026-05-01T08:56:57.03Z</time></trkpt><trkpt lat="44.906748" lon="9.7706865"><ele>122.66666666666667</ele><time>2026-05-01T08:57:00.038Z</time></trkpt><trkpt lat="44.906767" lon="9.7705627"><ele>122.33333333333334</ele><time>2026-05-01T08:57:03.03Z</time></trkpt><trkpt lat="44.9067808" lon="9.7704446"><ele>122.0</ele><time>2026-05-01T08:57:06.044Z</time></trkpt><trkpt lat="44.9068273" lon="9.7703259"><ele>121.66666666666667</ele><time>2026-05-01T08:57:09.029Z</time></trkpt><trkpt lat="44.9068971" lon="9.7702869"><ele>121.33333333333334</ele><time>2026-05-01T08:57:11.022Z</time></trkpt><trkpt lat="44.9069878" lon="9.7702908"><ele>121.0</ele><time>2026-05-01T08:57:13.02Z</time></trkpt><trkpt lat="44.9070838" lon="9.7703192"><ele>121.0</ele><time>2026-05-01T08:57:15.023Z</time></trkpt><trkpt lat="44.9071829" lon="9.7703415"><ele>121.0</ele><time>2026-05-01T08:57:17.013Z</time></trkpt><trkpt lat="44.9072852" lon="9.7703736"><ele>121.0</ele><time>2026-05-01T08:57:19.02Z</time></trkpt><trkpt lat="44.9073913" lon="9.7703951"><ele>121.0</ele><time>2026-05-01T08:57:21.034Z</time></trkpt><trkpt lat="44.9075041" lon="9.7704288"><ele>121.0</ele><time>2026-05-01T08:57:23.037Z</time></trkpt><trkpt lat="44.907623" lon="9.7704591"><ele>121.25</ele><time>2026-05-01T08:57:25.029Z</time></trkpt><trkpt lat="44.907741" lon="9.7704926"><ele>121.5</ele><time>2026-05-01T08:57:27.031Z</time></trkpt><trkpt lat="44.9078583" lon="9.77052"><ele>121.75</ele><time>2026-05-01T08:57:29.03Z</time></trkpt><trkpt lat="44.9079705" lon="9.7705532"><ele>122.0</ele><time>2026-05-01T08:57:31.02Z</time></trkpt><trkpt lat="44.9080887" lon="9.7705777"><ele>122.0</ele><time>2026-05-01T08:57:33.029Z</time></trkpt><trkpt lat="44.9082047" lon="9.7706095"><ele>122.0</ele><time>2026-05-01T08:57:35.032Z</time></trkpt><trkpt lat="44.9083179" lon="9.7706492"><ele>122.0</ele><time>2026-05-01T08:57:37Z</time></trkpt><trkpt lat="44.9084351" lon="9.7706722"><ele>122.0</ele><time>2026-05-01T08:57:39.042Z</time></trkpt><trkpt lat="44.9085404" lon="9.7706981"><ele>122.25</ele><time>2026-05-01T08:57:41.037Z</time></trkpt><trkpt lat="44.9086518" lon="9.7707357"><ele>122.5</ele><time>2026-05-01T08:57:43.027Z</time></trkpt><trkpt lat="44.9087721" lon="9.7707668"><ele>122.75</ele><time>2026-05-01T08:57:45.03Z</time></trkpt><trkpt lat="44.9088894" lon="9.7707967"><ele>123.0</ele><time>2026-05-01T08:57:47.011Z</time></trkpt><trkpt lat="44.9090058" lon="9.7708298"><ele>123.0</ele><time>2026-05-01T08:57:49.038Z</time></trkpt><trkpt lat="44.9091271" lon="9.7708561"><ele>123.00000000000001</ele><time>2026-05-01T08:57:51.02Z</time></trkpt><trkpt lat="44.9091912" lon="9.7708714"><ele>123.00000000000001</ele><time>2026-05-01T08:57:52.022Z</time></trkpt><trkpt lat="44.9093176" lon="9.7709007"><ele>123.0</ele><time>2026-05-01T08:57:54.037Z</time></trkpt><trkpt lat="44.9094423" lon="9.7709288"><ele>123.0</ele><time>2026-05-01T08:57:56.01Z</time></trkpt><trkpt lat="44.9095091" lon="9.7709449"><ele>122.71428571428572</ele><time>2026-05-01T08:57:57.026Z</time></trkpt><trkpt lat="44.9095717" lon="9.7709631"><ele>122.42857142857143</ele><time>2026-05-01T08:57:58.038Z</time></trkpt><trkpt lat="44.9096363" lon="9.7709761"><ele>122.14285714285714</ele><time>2026-05-01T08:57:59.035Z</time></trkpt><trkpt lat="44.9097029" lon="9.7709947"><ele>121.85714285714286</ele><time>2026-05-01T08:58:00.044Z</time></trkpt><trkpt lat="44.9097733" lon="9.7710154"><ele>121.57142857142856</ele><time>2026-05-01T08:58:01.046Z</time></trkpt><trkpt lat="44.9098377" lon="9.7710347"><ele>121.28571428571428</ele><time>2026-05-01T08:58:02.032Z</time></trkpt><trkpt lat="44.9099038" lon="9.7710507"><ele>121.0</ele><time>2026-05-01T08:58:03.031Z</time></trkpt><trkpt lat="44.9100283" lon="9.7710811"><ele>120.28571428571428</ele><time>2026-05-01T08:58:05.014Z</time></trkpt><trkpt lat="44.9100928" lon="9.7710973"><ele>119.57142857142856</ele><time>2026-05-01T08:58:06.035Z</time></trkpt><trkpt lat="44.9101601" lon="9.7711177"><ele>118.85714285714286</ele><time>2026-05-01T08:58:07.032Z</time></trkpt><trkpt lat="44.9102229" lon="9.7711324"><ele>118.14285714285714</ele><time>2026-05-01T08:58:08.037Z</time></trkpt><trkpt lat="44.9102858" lon="9.771146"><ele>117.42857142857143</ele><time>2026-05-01T08:58:09.014Z</time></trkpt><trkpt lat="44.910349" lon="9.7711631"><ele>116.71428571428572</ele><time>2026-05-01T08:58:10.032Z</time></trkpt><trkpt lat="44.9104118" lon="9.7711792"><ele>116.00000000000001</ele><time>2026-05-01T08:58:11.031Z</time></trkpt><trkpt lat="44.9104744" lon="9.7711952"><ele>116.0</ele><time>2026-05-01T08:58:12.029Z</time></trkpt><trkpt lat="44.9105969" lon="9.7712265"><ele>116.0</ele><time>2026-05-01T08:58:14.035Z</time></trkpt><trkpt lat="44.9107194" lon="9.7712619"><ele>116.0</ele><time>2026-05-01T08:58:16.034Z</time></trkpt><trkpt lat="44.9108438" lon="9.771291"><ele>116.0</ele><time>2026-05-01T08:58:18.036Z</time></trkpt><trkpt lat="44.9109079" lon="9.7713046"><ele>116.0</ele><time>2026-05-01T08:58:19.04Z</time></trkpt><trkpt lat="44.9109702" lon="9.7713179"><ele>115.57142857142858</ele><time>2026-05-01T08:58:20.033Z</time></trkpt><trkpt lat="44.911032" lon="9.7713351"><ele>115.14285714285714</ele><time>2026-05-01T08:58:21.029Z</time></trkpt><trkpt lat="44.9110961" lon="9.7713521"><ele>114.71428571428572</ele><time>2026-05-01T08:58:22.032Z</time></trkpt><trkpt lat="44.9111595" lon="9.7713695"><ele>114.28571428571429</ele><time>2026-05-01T08:58:23.034Z</time></trkpt><trkpt lat="44.911224" lon="9.7713822"><ele>113.85714285714286</ele><time>2026-05-01T08:58:24.032Z</time></trkpt><trkpt lat="44.9112913" lon="9.7713993"><ele>113.42857142857143</ele><time>2026-05-01T08:58:25.04Z</time></trkpt><trkpt lat="44.9113551" lon="9.7714191"><ele>113.0</ele><time>2026-05-01T08:58:26.033Z</time></trkpt><trkpt lat="44.911422" lon="9.7714353"><ele>113.0</ele><time>2026-05-01T08:58:27.031Z</time></trkpt><trkpt lat="44.9114861" lon="9.7714495"><ele>113.00000000000001</ele><time>2026-05-01T08:58:28.039Z</time></trkpt><trkpt lat="44.9115523" lon="9.7714665"><ele>113.00000000000001</ele><time>2026-05-01T08:58:29.018Z</time></trkpt><trkpt lat="44.9116209" lon="9.7714782"><ele>113.0</ele><time>2026-05-01T08:58:30.033Z</time></trkpt><trkpt lat="44.9117456" lon="9.7715168"><ele>113.0</ele><time>2026-05-01T08:58:32.023Z</time></trkpt><trkpt lat="44.9118694" lon="9.7715511"><ele>112.49999999999999</ele><time>2026-05-01T08:58:34.031Z</time></trkpt><trkpt lat="44.911932" lon="9.7715673"><ele>112.0</ele><time>2026-05-01T08:58:35.03Z</time></trkpt><trkpt lat="44.9120549" lon="9.7715972"><ele>111.5</ele><time>2026-05-01T08:58:37.035Z</time></trkpt><trkpt lat="44.9121191" lon="9.7716169"><ele>111.0</ele><time>2026-05-01T08:58:38.025Z</time></trkpt><trkpt lat="44.9121811" lon="9.7716378"><ele>110.49999999999999</ele><time>2026-05-01T08:58:39.036Z</time></trkpt><trkpt lat="44.9122459" lon="9.7716505"><ele>110.0</ele><time>2026-05-01T08:58:40.033Z</time></trkpt><trkpt lat="44.9123706" lon="9.7716835"><ele>109.99999999999999</ele><time>2026-05-01T08:58:42.036Z</time></trkpt><trkpt lat="44.9124356" lon="9.7716956"><ele>110.0</ele><time>2026-05-01T08:58:43.033Z</time></trkpt><trkpt lat="44.9125021" lon="9.7717084"><ele>110.0</ele><time>2026-05-01T08:58:44.031Z</time></trkpt><trkpt lat="44.9125638" lon="9.7717278"><ele>110.0</ele><time>2026-05-01T08:58:45.033Z</time></trkpt><trkpt lat="44.9126259" lon="9.7717432"><ele>109.99999999999999</ele><time>2026-05-01T08:58:46.034Z</time></trkpt><trkpt lat="44.9127486" lon="9.7717756"><ele>110.0</ele><time>2026-05-01T08:58:48.027Z</time></trkpt><trkpt lat="44.9128175" lon="9.7717894"><ele>110.2</ele><time>2026-05-01T08:58:49.043Z</time></trkpt><trkpt lat="44.9129422" lon="9.7718261"><ele>110.4</ele><time>2026-05-01T08:58:51.035Z</time></trkpt><trkpt lat="44.9130062" lon="9.7718516"><ele>110.6</ele><time>2026-05-01T08:58:52.03Z</time></trkpt><trkpt lat="44.91307" lon="9.7718677"><ele>110.8</ele><time>2026-05-01T08:58:53.035Z</time></trkpt><trkpt lat="44.9131366" lon="9.7718784"><ele>111.0</ele><time>2026-05-01T08:58:54.029Z</time></trkpt><trkpt lat="44.9132607" lon="9.7719039"><ele>110.83333333333333</ele><time>2026-05-01T08:58:56.024Z</time></trkpt><trkpt lat="44.9133325" lon="9.7719199"><ele>110.66666666666666</ele><time>2026-05-01T08:58:57.037Z</time></trkpt><trkpt lat="44.9133972" lon="9.7719339"><ele>110.5</ele><time>2026-05-01T08:58:58.031Z</time></trkpt><trkpt lat="44.9134637" lon="9.771947"><ele>110.33333333333333</ele><time>2026-05-01T08:58:59.023Z</time></trkpt><trkpt lat="44.9135844" lon="9.7719833"><ele>110.16666666666666</ele><time>2026-05-01T08:59:01.021Z</time></trkpt><trkpt lat="44.9136477" lon="9.7720046"><ele>110.0</ele><time>2026-05-01T08:59:02.012Z</time></trkpt><trkpt lat="44.9137109" lon="9.7720246"><ele>109.99999999999999</ele><time>2026-05-01T08:59:03.043Z</time></trkpt><trkpt lat="44.9137775" lon="9.7720462"><ele>110.0</ele><time>2026-05-01T08:59:04.036Z</time></trkpt><trkpt lat="44.9138464" lon="9.7720596"><ele>110.0</ele><time>2026-05-01T08:59:05.026Z</time></trkpt><trkpt lat="44.9139133" lon="9.7720806"><ele>110.0</ele><time>2026-05-01T08:59:06.029Z</time></trkpt><trkpt lat="44.9139777" lon="9.7720936"><ele>110.0</ele><time>2026-05-01T08:59:07.03Z</time></trkpt><trkpt lat="44.9140443" lon="9.772105"><ele>109.99999999999999</ele><time>2026-05-01T08:59:08.029Z</time></trkpt><trkpt lat="44.9141109" lon="9.7721207"><ele>110.0</ele><time>2026-05-01T08:59:09.037Z</time></trkpt><trkpt lat="44.9141755" lon="9.7721411"><ele>110.14285714285714</ele><time>2026-05-01T08:59:10.023Z</time></trkpt><trkpt lat="44.9142389" lon="9.7721519"><ele>110.28571428571428</ele><time>2026-05-01T08:59:11.02Z</time></trkpt><trkpt lat="44.9143041" lon="9.772168"><ele>110.42857142857142</ele><time>2026-05-01T08:59:12.034Z</time></trkpt><trkpt lat="44.9143685" lon="9.7721841"><ele>110.57142857142857</ele><time>2026-05-01T08:59:13.033Z</time></trkpt><trkpt lat="44.91444" lon="9.7721968"><ele>110.71428571428572</ele><time>2026-05-01T08:59:14.035Z</time></trkpt><trkpt lat="44.9145027" lon="9.7722152"><ele>110.85714285714285</ele><time>2026-05-01T08:59:15.04Z</time></trkpt><trkpt lat="44.9145667" lon="9.7722292"><ele>111.0</ele><time>2026-05-01T08:59:16.035Z</time></trkpt><trkpt lat="44.9146299" lon="9.772244"><ele>111.0</ele><time>2026-05-01T08:59:17.034Z</time></trkpt><trkpt lat="44.9146937" lon="9.7722622"><ele>111.0</ele><time>2026-05-01T08:59:18.028Z</time></trkpt><trkpt lat="44.9147564" lon="9.7722738"><ele>111.0</ele><time>2026-05-01T08:59:19.034Z</time></trkpt><trkpt lat="44.9148212" lon="9.7722892"><ele>111.0</ele><time>2026-05-01T08:59:20.04Z</time></trkpt><trkpt lat="44.9148836" lon="9.7723092"><ele>111.0</ele><time>2026-05-01T08:59:21.036Z</time></trkpt><trkpt lat="44.9149485" lon="9.7723243"><ele>111.0</ele><time>2026-05-01T08:59:22.035Z</time></trkpt><trkpt lat="44.9150744" lon="9.7723598"><ele>111.0</ele><time>2026-05-01T08:59:24.031Z</time></trkpt><trkpt lat="44.9151398" lon="9.7723767"><ele>111.0</ele><time>2026-05-01T08:59:25.034Z</time></trkpt><trkpt lat="44.9152019" lon="9.7723947"><ele>111.0</ele><time>2026-05-01T08:59:26.038Z</time></trkpt><trkpt lat="44.9153259" lon="9.772428"><ele>111.0</ele><time>2026-05-01T08:59:28.043Z</time></trkpt><trkpt lat="44.9154464" lon="9.7724624"><ele>111.0</ele><time>2026-05-01T08:59:30.037Z</time></trkpt><trkpt lat="44.9155661" lon="9.7724885"><ele>111.0</ele><time>2026-05-01T08:59:32.036Z</time></trkpt><trkpt lat="44.915684" lon="9.7725182"><ele>111.0</ele><time>2026-05-01T08:59:34.041Z</time></trkpt><trkpt lat="44.9157463" lon="9.7725314"><ele>111.0</ele><time>2026-05-01T08:59:35.042Z</time></trkpt><trkpt lat="44.9158605" lon="9.7725612"><ele>111.0</ele><time>2026-05-01T08:59:37.038Z</time></trkpt><trkpt lat="44.9159802" lon="9.7725861"><ele>111.0</ele><time>2026-05-01T08:59:39.042Z</time></trkpt><trkpt lat="44.9160969" lon="9.7726135"><ele>110.8</ele><time>2026-05-01T08:59:41.041Z</time></trkpt><trkpt lat="44.9161608" lon="9.7726221"><ele>110.6</ele><time>2026-05-01T08:59:42.021Z</time></trkpt><trkpt lat="44.9162817" lon="9.7726555"><ele>110.4</ele><time>2026-05-01T08:59:44.028Z</time></trkpt><trkpt lat="44.9164046" lon="9.7726922"><ele>110.2</ele><time>2026-05-01T08:59:46.042Z</time></trkpt><trkpt lat="44.9165253" lon="9.7727135"><ele>110.0</ele><time>2026-05-01T08:59:48.036Z</time></trkpt><trkpt lat="44.9165881" lon="9.7727259"><ele>110.0</ele><time>2026-05-01T08:59:49.045Z</time></trkpt><trkpt lat="44.9167126" lon="9.7727637"><ele>110.0</ele><time>2026-05-01T08:59:51.032Z</time></trkpt><trkpt lat="44.9167744" lon="9.7727839"><ele>110.0</ele><time>2026-05-01T08:59:52.039Z</time></trkpt><trkpt lat="44.9168937" lon="9.7728163"><ele>110.0</ele><time>2026-05-01T08:59:54.033Z</time></trkpt><trkpt lat="44.9169575" lon="9.7728268"><ele>110.0</ele><time>2026-05-01T08:59:55.033Z</time></trkpt><trkpt lat="44.9170774" lon="9.772861"><ele>109.5</ele><time>2026-05-01T08:59:57.047Z</time></trkpt><trkpt lat="44.9171987" lon="9.772896"><ele>109.0</ele><time>2026-05-01T08:59:59.032Z</time></trkpt><trkpt lat="44.9173205" lon="9.7729237"><ele>108.5</ele><time>2026-05-01T09:00:01.034Z</time></trkpt><trkpt lat="44.9174407" lon="9.7729445"><ele>108.0</ele><time>2026-05-01T09:00:03.037Z</time></trkpt><trkpt lat="44.9175524" lon="9.7729811"><ele>108.0</ele><time>2026-05-01T09:00:05.033Z</time></trkpt><trkpt lat="44.9176659" lon="9.7730149"><ele>108.00000000000001</ele><time>2026-05-01T09:00:07.04Z</time></trkpt><trkpt lat="44.9177864" lon="9.7730325"><ele>108.00000000000001</ele><time>2026-05-01T09:00:09.039Z</time></trkpt><trkpt lat="44.9178957" lon="9.7730465"><ele>108.0</ele><time>2026-05-01T09:00:11.029Z</time></trkpt><trkpt lat="44.9179946" lon="9.7730776"><ele>108.0</ele><time>2026-05-01T09:00:13.044Z</time></trkpt><trkpt lat="44.9181069" lon="9.7731069"><ele>108.0</ele><time>2026-05-01T09:00:15.04Z</time></trkpt><trkpt lat="44.9182096" lon="9.7731486"><ele>108.00000000000001</ele><time>2026-05-01T09:00:17.033Z</time></trkpt><trkpt lat="44.9183117" lon="9.7731911"><ele>108.00000000000001</ele><time>2026-05-01T09:00:19.047Z</time></trkpt><trkpt lat="44.9183973" lon="9.7732336"><ele>108.0</ele><time>2026-05-01T09:00:21.035Z</time></trkpt><trkpt lat="44.918493" lon="9.7732443"><ele>108.0</ele><time>2026-05-01T09:00:23.033Z</time></trkpt><trkpt lat="44.9185753" lon="9.7732162"><ele>107.4</ele><time>2026-05-01T09:00:25.037Z</time></trkpt><trkpt lat="44.9186306" lon="9.7731205"><ele>106.80000000000001</ele><time>2026-05-01T09:00:27.03Z</time></trkpt><trkpt lat="44.9186799" lon="9.7730082"><ele>106.2</ele><time>2026-05-01T09:00:29.041Z</time></trkpt><trkpt lat="44.9187152" lon="9.7728725"><ele>105.6</ele><time>2026-05-01T09:00:31.038Z</time></trkpt><trkpt lat="44.9187403" lon="9.7727316"><ele>105.0</ele><time>2026-05-01T09:00:33.036Z</time></trkpt><trkpt lat="44.9187632" lon="9.7725984"><ele>105.0</ele><time>2026-05-01T09:00:35.034Z</time></trkpt><trkpt lat="44.9187919" lon="9.772445"><ele>105.0</ele><time>2026-05-01T09:00:37.028Z</time></trkpt><trkpt lat="44.9188058" lon="9.7722929"><ele>105.0</ele><time>2026-05-01T09:00:39.044Z</time></trkpt><trkpt lat="44.9188307" lon="9.7721432"><ele>105.0</ele><time>2026-05-01T09:00:41.021Z</time></trkpt><trkpt lat="44.9188519" lon="9.7719825"><ele>105.0</ele><time>2026-05-01T09:00:43.033Z</time></trkpt><trkpt lat="44.9188749" lon="9.7718283"><ele>105.2</ele><time>2026-05-01T09:00:45.019Z</time></trkpt><trkpt lat="44.9188991" lon="9.7716686"><ele>105.4</ele><time>2026-05-01T09:00:47.037Z</time></trkpt><trkpt lat="44.9189207" lon="9.771515"><ele>105.6</ele><time>2026-05-01T09:00:49.035Z</time></trkpt><trkpt lat="44.9189433" lon="9.771373"><ele>105.8</ele><time>2026-05-01T09:00:51.052Z</time></trkpt><trkpt lat="44.9189648" lon="9.7712397"><ele>106.0</ele><time>2026-05-01T09:00:53.04Z</time></trkpt><trkpt lat="44.9189896" lon="9.7711088"><ele>106.4</ele><time>2026-05-01T09:00:55.042Z</time></trkpt><trkpt lat="44.9190056" lon="9.7709794"><ele>106.8</ele><time>2026-05-01T09:00:57.035Z</time></trkpt><trkpt lat="44.9190676" lon="9.7708893"><ele>107.20000000000002</ele><time>2026-05-01T09:00:59.037Z</time></trkpt><trkpt lat="44.9191616" lon="9.7709273"><ele>107.60000000000001</ele><time>2026-05-01T09:01:01.034Z</time></trkpt><trkpt lat="44.9192585" lon="9.7709742"><ele>108.0</ele><time>2026-05-01T09:01:03.033Z</time></trkpt><trkpt lat="44.9193646" lon="9.7710014"><ele>108.4</ele><time>2026-05-01T09:01:05.018Z</time></trkpt><trkpt lat="44.9194756" lon="9.7710274"><ele>108.80000000000001</ele><time>2026-05-01T09:01:07.027Z</time></trkpt><trkpt lat="44.9195834" lon="9.7710582"><ele>109.2</ele><time>2026-05-01T09:01:09.031Z</time></trkpt><trkpt lat="44.9196939" lon="9.7710857"><ele>109.6</ele><time>2026-05-01T09:01:11.031Z</time></trkpt><trkpt lat="44.919797" lon="9.7711195"><ele>110.0</ele><time>2026-05-01T09:01:13.038Z</time></trkpt><trkpt lat="44.9199069" lon="9.771155"><ele>110.0</ele><time>2026-05-01T09:01:15.035Z</time></trkpt><trkpt lat="44.9200198" lon="9.7711821"><ele>110.0</ele><time>2026-05-01T09:01:17.032Z</time></trkpt><trkpt lat="44.9201326" lon="9.7712148"><ele>110.0</ele><time>2026-05-01T09:01:19.036Z</time></trkpt><trkpt lat="44.9202468" lon="9.7712429"><ele>110.0</ele><time>2026-05-01T09:01:21.032Z</time></trkpt><trkpt lat="44.9203501" lon="9.7712799"><ele>109.8</ele><time>2026-05-01T09:01:23.046Z</time></trkpt><trkpt lat="44.920456" lon="9.7713176"><ele>109.6</ele><time>2026-05-01T09:01:25.027Z</time></trkpt><trkpt lat="44.9205663" lon="9.7713429"><ele>109.4</ele><time>2026-05-01T09:01:27.029Z</time></trkpt><trkpt lat="44.920659" lon="9.7713656"><ele>109.2</ele><time>2026-05-01T09:01:29.019Z</time></trkpt><trkpt lat="44.9207686" lon="9.7714078"><ele>109.0</ele><time>2026-05-01T09:01:31.024Z</time></trkpt><trkpt lat="44.9208846" lon="9.771457"><ele>108.25</ele><time>2026-05-01T09:01:33.035Z</time></trkpt><trkpt lat="44.9210025" lon="9.7714982"><ele>107.5</ele><time>2026-05-01T09:01:35.028Z</time></trkpt><trkpt lat="44.9211229" lon="9.7715193"><ele>106.75</ele><time>2026-05-01T09:01:37.032Z</time></trkpt><trkpt lat="44.92124" lon="9.7715484"><ele>106.0</ele><time>2026-05-01T09:01:39.038Z</time></trkpt><trkpt lat="44.9213626" lon="9.7715775"><ele>106.0</ele><time>2026-05-01T09:01:41.039Z</time></trkpt><trkpt lat="44.9214803" lon="9.7716137"><ele>106.0</ele><time>2026-05-01T09:01:43.04Z</time></trkpt><trkpt lat="44.921543" lon="9.7716329"><ele>106.0</ele><time>2026-05-01T09:01:44.037Z</time></trkpt><trkpt lat="44.9216054" lon="9.7716481"><ele>106.0</ele><time>2026-05-01T09:01:45.041Z</time></trkpt><trkpt lat="44.9217295" lon="9.7716806"><ele>106.0</ele><time>2026-05-01T09:01:47.03Z</time></trkpt><trkpt lat="44.9218513" lon="9.7717204"><ele>106.0</ele><time>2026-05-01T09:01:49.047Z</time></trkpt><trkpt lat="44.9219716" lon="9.7717475"><ele>106.0</ele><time>2026-05-01T09:01:51.039Z</time></trkpt><trkpt lat="44.9220913" lon="9.771779"><ele>106.0</ele><time>2026-05-01T09:01:53.034Z</time></trkpt><trkpt lat="44.9222101" lon="9.7718013"><ele>106.0</ele><time>2026-05-01T09:01:55.044Z</time></trkpt><trkpt lat="44.922322" lon="9.7718194"><ele>106.0</ele><time>2026-05-01T09:01:57.047Z</time></trkpt><trkpt lat="44.9224372" lon="9.7718339"><ele>106.0</ele><time>2026-05-01T09:01:59.039Z</time></trkpt><trkpt lat="44.9225513" lon="9.7718458"><ele>106.0</ele><time>2026-05-01T09:02:01.044Z</time></trkpt><trkpt lat="44.9226698" lon="9.7718556"><ele>106.0</ele><time>2026-05-01T09:02:03.043Z</time></trkpt><trkpt lat="44.9227334" lon="9.7718632"><ele>106.0</ele><time>2026-05-01T09:02:04.042Z</time></trkpt><trkpt lat="44.9227974" lon="9.7718743"><ele>105.4</ele><time>2026-05-01T09:02:05.032Z</time></trkpt><trkpt lat="44.9228603" lon="9.7718885"><ele>104.8</ele><time>2026-05-01T09:02:06.026Z</time></trkpt><trkpt lat="44.9229231" lon="9.7719017"><ele>104.2</ele><time>2026-05-01T09:02:07.034Z</time></trkpt><trkpt lat="44.9230449" lon="9.771925"><ele>103.60000000000001</ele><time>2026-05-01T09:02:09.038Z</time></trkpt><trkpt lat="44.9231646" lon="9.7719587"><ele>103.0</ele><time>2026-05-01T09:02:11.015Z</time></trkpt><trkpt lat="44.923283" lon="9.7719845"><ele>102.25</ele><time>2026-05-01T09:02:13.029Z</time></trkpt><trkpt lat="44.9234072" lon="9.7720127"><ele>101.5</ele><time>2026-05-01T09:02:15.033Z</time></trkpt><trkpt lat="44.9235236" lon="9.7720394"><ele>100.75</ele><time>2026-05-01T09:02:17.037Z</time></trkpt><trkpt lat="44.9236432" lon="9.7720659"><ele>100.0</ele><time>2026-05-01T09:02:19.038Z</time></trkpt><trkpt lat="44.9237614" lon="9.7720919"><ele>100.0</ele><time>2026-05-01T09:02:21.036Z</time></trkpt><trkpt lat="44.9238753" lon="9.7721217"><ele>100.0</ele><time>2026-05-01T09:02:23.037Z</time></trkpt><trkpt lat="44.9239932" lon="9.7721481"><ele>100.0</ele><time>2026-05-01T09:02:25.028Z</time></trkpt><trkpt lat="44.9241104" lon="9.7721741"><ele>100.0</ele><time>2026-05-01T09:02:27.034Z</time></trkpt><trkpt lat="44.9242271" lon="9.7722087"><ele>100.5</ele><time>2026-05-01T09:02:29.033Z</time></trkpt><trkpt lat="44.9243465" lon="9.7722362"><ele>101.0</ele><time>2026-05-01T09:02:31.04Z</time></trkpt><trkpt lat="44.924468" lon="9.7722665"><ele>101.5</ele><time>2026-05-01T09:02:33.025Z</time></trkpt><trkpt lat="44.9245883" lon="9.7722957"><ele>102.0</ele><time>2026-05-01T09:02:35.034Z</time></trkpt><trkpt lat="44.9247115" lon="9.7723131"><ele>102.0</ele><time>2026-05-01T09:02:37.039Z</time></trkpt><trkpt lat="44.9248295" lon="9.7723397"><ele>102.0</ele><time>2026-05-01T09:02:39.049Z</time></trkpt><trkpt lat="44.9249515" lon="9.7723719"><ele>102.0</ele><time>2026-05-01T09:02:41.041Z</time></trkpt><trkpt lat="44.9250153" lon="9.7723819"><ele>102.0</ele><time>2026-05-01T09:02:42.028Z</time></trkpt><trkpt lat="44.9251377" lon="9.7724106"><ele>102.0</ele><time>2026-05-01T09:02:44.033Z</time></trkpt><trkpt lat="44.9252007" lon="9.7724207"><ele>102.16666666666667</ele><time>2026-05-01T09:02:45.037Z</time></trkpt><trkpt lat="44.9252643" lon="9.7724389"><ele>102.33333333333334</ele><time>2026-05-01T09:02:46.034Z</time></trkpt><trkpt lat="44.9253276" lon="9.7724543"><ele>102.5</ele><time>2026-05-01T09:02:47.024Z</time></trkpt><trkpt lat="44.9253903" lon="9.7724698"><ele>102.66666666666667</ele><time>2026-05-01T09:02:48.033Z</time></trkpt><trkpt lat="44.925455" lon="9.7724839"><ele>102.83333333333334</ele><time>2026-05-01T09:02:49.037Z</time></trkpt><trkpt lat="44.9255785" lon="9.7725113"><ele>103.0</ele><time>2026-05-01T09:02:51.029Z</time></trkpt><trkpt lat="44.9256959" lon="9.7725504"><ele>103.0</ele><time>2026-05-01T09:02:53.034Z</time></trkpt><trkpt lat="44.9258186" lon="9.7725789"><ele>103.0</ele><time>2026-05-01T09:02:55.033Z</time></trkpt><trkpt lat="44.9259381" lon="9.7726026"><ele>103.0</ele><time>2026-05-01T09:02:57.038Z</time></trkpt><trkpt lat="44.9260581" lon="9.7726281"><ele>103.0</ele><time>2026-05-01T09:02:59.031Z</time></trkpt><trkpt lat="44.9261777" lon="9.772653"><ele>102.75</ele><time>2026-05-01T09:03:01.037Z</time></trkpt><trkpt lat="44.9263018" lon="9.7726805"><ele>102.5</ele><time>2026-05-01T09:03:03.036Z</time></trkpt><trkpt lat="44.9264242" lon="9.7727065"><ele>102.25</ele><time>2026-05-01T09:03:05.035Z</time></trkpt><trkpt lat="44.9265446" lon="9.7727319"><ele>102.0</ele><time>2026-05-01T09:03:07.045Z</time></trkpt><trkpt lat="44.9266625" lon="9.7727653"><ele>101.6</ele><time>2026-05-01T09:03:09.02Z</time></trkpt><trkpt lat="44.9267253" lon="9.7727792"><ele>101.19999999999999</ele><time>2026-05-01T09:03:10.042Z</time></trkpt><trkpt lat="44.9268451" lon="9.7727995"><ele>100.8</ele><time>2026-05-01T09:03:12.034Z</time></trkpt><trkpt lat="44.9269635" lon="9.7728248"><ele>100.4</ele><time>2026-05-01T09:03:14.018Z</time></trkpt><trkpt lat="44.9270815" lon="9.7728543"><ele>100.0</ele><time>2026-05-01T09:03:16.035Z</time></trkpt><trkpt lat="44.9272019" lon="9.7728803"><ele>100.0</ele><time>2026-05-01T09:03:18.036Z</time></trkpt><trkpt lat="44.9273173" lon="9.7729089"><ele>100.0</ele><time>2026-05-01T09:03:20.031Z</time></trkpt><trkpt lat="44.9274404" lon="9.7729389"><ele>100.0</ele><time>2026-05-01T09:03:22.033Z</time></trkpt><trkpt lat="44.9275589" lon="9.7729595"><ele>100.0</ele><time>2026-05-01T09:03:24.036Z</time></trkpt><trkpt lat="44.9276708" lon="9.7729753"><ele>99.75</ele><time>2026-05-01T09:03:26.038Z</time></trkpt><trkpt lat="44.9277879" lon="9.7729935"><ele>99.5</ele><time>2026-05-01T09:03:28.03Z</time></trkpt><trkpt lat="44.927896" lon="9.7730184"><ele>99.25</ele><time>2026-05-01T09:03:30.036Z</time></trkpt><trkpt lat="44.9280037" lon="9.7730533"><ele>99.0</ele><time>2026-05-01T09:03:32.044Z</time></trkpt><trkpt lat="44.9281165" lon="9.7730874"><ele>99.0</ele><time>2026-05-01T09:03:34.038Z</time></trkpt><trkpt lat="44.9282328" lon="9.773109"><ele>99.0</ele><time>2026-05-01T09:03:36.038Z</time></trkpt><trkpt lat="44.9283587" lon="9.7731365"><ele>99.0</ele><time>2026-05-01T09:03:38.042Z</time></trkpt><trkpt lat="44.9284216" lon="9.773146"><ele>99.0</ele><time>2026-05-01T09:03:39.042Z</time></trkpt><trkpt lat="44.9285428" lon="9.7731637"><ele>99.0</ele><time>2026-05-01T09:03:41.035Z</time></trkpt><trkpt lat="44.9286614" lon="9.7731792"><ele>99.6</ele><time>2026-05-01T09:03:43.034Z</time></trkpt><trkpt lat="44.9287695" lon="9.7732087"><ele>100.2</ele><time>2026-05-01T09:03:45.04Z</time></trkpt><trkpt lat="44.9288757" lon="9.7732313"><ele>100.8</ele><time>2026-05-01T09:03:47.036Z</time></trkpt><trkpt lat="44.9289738" lon="9.7732449"><ele>101.39999999999999</ele><time>2026-05-01T09:03:49.036Z</time></trkpt><trkpt lat="44.9290852" lon="9.7732863"><ele>102.0</ele><time>2026-05-01T09:03:51.039Z</time></trkpt><trkpt lat="44.9291414" lon="9.7733329"><ele>102.0</ele><time>2026-05-01T09:03:52.046Z</time></trkpt><trkpt lat="44.9291955" lon="9.7733841"><ele>102.0</ele><time>2026-05-01T09:03:53.034Z</time></trkpt><trkpt lat="44.9292583" lon="9.7734373"><ele>102.0</ele><time>2026-05-01T09:03:54.038Z</time></trkpt><trkpt lat="44.9293205" lon="9.7734945"><ele>102.0</ele><time>2026-05-01T09:03:55.034Z</time></trkpt><trkpt lat="44.9293843" lon="9.7735444"><ele>102.0</ele><time>2026-05-01T09:03:56.033Z</time></trkpt><trkpt lat="44.9294489" lon="9.7735838"><ele>102.0</ele><time>2026-05-01T09:03:57.023Z</time></trkpt><trkpt lat="44.9295071" lon="9.7736241"><ele>102.0</ele><time>2026-05-01T09:03:58.045Z</time></trkpt><trkpt lat="44.9295632" lon="9.7736656"><ele>101.0</ele><time>2026-05-01T09:03:59.036Z</time></trkpt><trkpt lat="44.929673" lon="9.7737399"><ele>100.0</ele><time>2026-05-01T09:04:01.036Z</time></trkpt><trkpt lat="44.92979" lon="9.7737858"><ele>99.0</ele><time>2026-05-01T09:04:03.039Z</time></trkpt><trkpt lat="44.9299028" lon="9.773817"><ele>98.0</ele><time>2026-05-01T09:04:05.036Z</time></trkpt><trkpt lat="44.9300205" lon="9.7738435"><ele>97.75</ele><time>2026-05-01T09:04:07.034Z</time></trkpt><trkpt lat="44.9301288" lon="9.77387"><ele>97.5</ele><time>2026-05-01T09:04:09.037Z</time></trkpt><trkpt lat="44.9302394" lon="9.7738949"><ele>97.25</ele><time>2026-05-01T09:04:11.042Z</time></trkpt><trkpt lat="44.9303542" lon="9.773918"><ele>97.0</ele><time>2026-05-01T09:04:13.025Z</time></trkpt><trkpt lat="44.9304734" lon="9.7739453"><ele>97.0</ele><time>2026-05-01T09:04:15.024Z</time></trkpt><trkpt lat="44.9305922" lon="9.7739818"><ele>97.0</ele><time>2026-05-01T09:04:17.031Z</time></trkpt><trkpt lat="44.9307117" lon="9.7740068"><ele>97.0</ele><time>2026-05-01T09:04:19.037Z</time></trkpt><trkpt lat="44.9308292" lon="9.7740471"><ele>97.0</ele><time>2026-05-01T09:04:21.041Z</time></trkpt><trkpt lat="44.9309487" lon="9.7740757"><ele>96.75</ele><time>2026-05-01T09:04:23.032Z</time></trkpt><trkpt lat="44.931063" lon="9.7741084"><ele>96.5</ele><time>2026-05-01T09:04:25.037Z</time></trkpt><trkpt lat="44.9311788" lon="9.774151"><ele>96.25</ele><time>2026-05-01T09:04:27.04Z</time></trkpt><trkpt lat="44.931296" lon="9.7741837"><ele>96.0</ele><time>2026-05-01T09:04:29.033Z</time></trkpt><trkpt lat="44.9314155" lon="9.7742165"><ele>96.0</ele><time>2026-05-01T09:04:31.017Z</time></trkpt><trkpt lat="44.9315333" lon="9.7742432"><ele>96.0</ele><time>2026-05-01T09:04:33.04Z</time></trkpt><trkpt lat="44.9315978" lon="9.7742629"><ele>96.0</ele><time>2026-05-01T09:04:34.039Z</time></trkpt><trkpt lat="44.9317179" lon="9.7743057"><ele>96.0</ele><time>2026-05-01T09:04:36.034Z</time></trkpt><trkpt lat="44.9318408" lon="9.7743522"><ele>96.0</ele><time>2026-05-01T09:04:38.02Z</time></trkpt><trkpt lat="44.9319049" lon="9.7743767"><ele>96.0</ele><time>2026-05-01T09:04:39.031Z</time></trkpt><trkpt lat="44.9319699" lon="9.7743928"><ele>96.0</ele><time>2026-05-01T09:04:40.036Z</time></trkpt><trkpt lat="44.9320902" lon="9.7744247"><ele>96.0</ele><time>2026-05-01T09:04:42.036Z</time></trkpt><trkpt lat="44.9321533" lon="9.7744373"><ele>96.0</ele><time>2026-05-01T09:04:43.033Z</time></trkpt><trkpt lat="44.9322157" lon="9.7744561"><ele>96.0</ele><time>2026-05-01T09:04:44.036Z</time></trkpt><trkpt lat="44.9322807" lon="9.7744728"><ele>96.0</ele><time>2026-05-01T09:04:45.038Z</time></trkpt><trkpt lat="44.9324041" lon="9.7745013"><ele>96.0</ele><time>2026-05-01T09:04:47.021Z</time></trkpt><trkpt lat="44.9325286" lon="9.7745281"><ele>96.0</ele><time>2026-05-01T09:04:49.038Z</time></trkpt><trkpt lat="44.9325937" lon="9.7745369"><ele>96.0</ele><time>2026-05-01T09:04:50.024Z</time></trkpt><trkpt lat="44.9327194" lon="9.7745551"><ele>96.0</ele><time>2026-05-01T09:04:52.034Z</time></trkpt><trkpt lat="44.9328449" lon="9.7745722"><ele>96.0</ele><time>2026-05-01T09:04:54.031Z</time></trkpt><trkpt lat="44.9329081" lon="9.7745772"><ele>95.99999999999999</ele><time>2026-05-01T09:04:55.029Z</time></trkpt><trkpt lat="44.9329748" lon="9.7745811"><ele>96.0</ele><time>2026-05-01T09:04:56.039Z</time></trkpt><trkpt lat="44.9330394" lon="9.7745874"><ele>96.0</ele><time>2026-05-01T09:04:57.025Z</time></trkpt><trkpt lat="44.9331063" lon="9.7745943"><ele>96.0</ele><time>2026-05-01T09:04:58.026Z</time></trkpt><trkpt lat="44.9331705" lon="9.7745989"><ele>96.0</ele><time>2026-05-01T09:04:59.034Z</time></trkpt><trkpt lat="44.9332376" lon="9.7746068"><ele>95.99999999999999</ele><time>2026-05-01T09:05:00.019Z</time></trkpt><trkpt lat="44.9333041" lon="9.7746106"><ele>96.0</ele><time>2026-05-01T09:05:01.031Z</time></trkpt><trkpt lat="44.9334277" lon="9.774621"><ele>96.19999999999999</ele><time>2026-05-01T09:05:03.042Z</time></trkpt><trkpt lat="44.9335461" lon="9.7746305"><ele>96.39999999999999</ele><time>2026-05-01T09:05:05.023Z</time></trkpt><trkpt lat="44.9336592" lon="9.7746461"><ele>96.6</ele><time>2026-05-01T09:05:07.029Z</time></trkpt><trkpt lat="44.933759" lon="9.774651"><ele>96.8</ele><time>2026-05-01T09:05:09.039Z</time></trkpt><trkpt lat="44.9338594" lon="9.7746586"><ele>97.0</ele><time>2026-05-01T09:05:11.034Z</time></trkpt><trkpt lat="44.9339623" lon="9.7746774"><ele>97.0</ele><time>2026-05-01T09:05:13.046Z</time></trkpt><trkpt lat="44.9340612" lon="9.7746858"><ele>97.0</ele><time>2026-05-01T09:05:15.035Z</time></trkpt><trkpt lat="44.9341524" lon="9.7746971"><ele>97.0</ele><time>2026-05-01T09:05:17.038Z</time></trkpt><trkpt lat="44.9342434" lon="9.7747091"><ele>97.0</ele><time>2026-05-01T09:05:18.996Z</time></trkpt><trkpt lat="44.934342" lon="9.7747094"><ele>97.0</ele><time>2026-05-01T09:05:21.027Z</time></trkpt><trkpt lat="44.9344649" lon="9.7747259"><ele>96.25</ele><time>2026-05-01T09:05:23.029Z</time></trkpt><trkpt lat="44.9345893" lon="9.7747458"><ele>95.5</ele><time>2026-05-01T09:05:25.037Z</time></trkpt><trkpt lat="44.934708" lon="9.7747603"><ele>94.75</ele><time>2026-05-01T09:05:27.03Z</time></trkpt><trkpt lat="44.9348318" lon="9.7747756"><ele>94.0</ele><time>2026-05-01T09:05:29.039Z</time></trkpt><trkpt lat="44.9349501" lon="9.7747956"><ele>93.6</ele><time>2026-05-01T09:05:31.041Z</time></trkpt><trkpt lat="44.9350747" lon="9.7748117"><ele>93.2</ele><time>2026-05-01T09:05:33.03Z</time></trkpt><trkpt lat="44.9352009" lon="9.7748308"><ele>92.8</ele><time>2026-05-01T09:05:35.042Z</time></trkpt><trkpt lat="44.9352644" lon="9.7748386"><ele>92.39999999999999</ele><time>2026-05-01T09:05:36.033Z</time></trkpt><trkpt lat="44.9353885" lon="9.7748578"><ele>92.0</ele><time>2026-05-01T09:05:38.034Z</time></trkpt><trkpt lat="44.9354522" lon="9.7748675"><ele>92.0</ele><time>2026-05-01T09:05:39.026Z</time></trkpt><trkpt lat="44.9355152" lon="9.7748778"><ele>92.0</ele><time>2026-05-01T09:05:40.031Z</time></trkpt><trkpt lat="44.9356361" lon="9.774887"><ele>92.0</ele><time>2026-05-01T09:05:42.041Z</time></trkpt><trkpt lat="44.9357613" lon="9.7749048"><ele>92.0</ele><time>2026-05-01T09:05:44.01Z</time></trkpt><trkpt lat="44.9358859" lon="9.7749213"><ele>92.0</ele><time>2026-05-01T09:05:46.022Z</time></trkpt><trkpt lat="44.9360108" lon="9.7749451"><ele>92.0</ele><time>2026-05-01T09:05:48.039Z</time></trkpt><trkpt lat="44.9360757" lon="9.7749579"><ele>92.0</ele><time>2026-05-01T09:05:49.043Z</time></trkpt><trkpt lat="44.93614" lon="9.7749682"><ele>92.0</ele><time>2026-05-01T09:05:50.034Z</time></trkpt><trkpt lat="44.9362574" lon="9.7749902"><ele>92.0</ele><time>2026-05-01T09:05:52.028Z</time></trkpt><trkpt lat="44.9363794" lon="9.7750222"><ele>92.0</ele><time>2026-05-01T09:05:54.04Z</time></trkpt><trkpt lat="44.9365031" lon="9.7750533"><ele>92.0</ele><time>2026-05-01T09:05:56.033Z</time></trkpt><trkpt lat="44.936625" lon="9.7750803"><ele>92.0</ele><time>2026-05-01T09:05:58.06Z</time></trkpt><trkpt lat="44.9367437" lon="9.7751184"><ele>92.0</ele><time>2026-05-01T09:06:00.038Z</time></trkpt><trkpt lat="44.9368569" lon="9.7751525"><ele>92.0</ele><time>2026-05-01T09:06:02.029Z</time></trkpt><trkpt lat="44.9369715" lon="9.7751873"><ele>92.39999999999999</ele><time>2026-05-01T09:06:04.034Z</time></trkpt><trkpt lat="44.9370873" lon="9.7752238"><ele>92.8</ele><time>2026-05-01T09:06:06.041Z</time></trkpt><trkpt lat="44.9372022" lon="9.7752688"><ele>93.2</ele><time>2026-05-01T09:06:08.038Z</time></trkpt><trkpt lat="44.9373218" lon="9.7753162"><ele>93.6</ele><time>2026-05-01T09:06:10.031Z</time></trkpt><trkpt lat="44.9373856" lon="9.7753408"><ele>94.0</ele><time>2026-05-01T09:06:11.04Z</time></trkpt><trkpt lat="44.9375051" lon="9.7753869"><ele>94.0</ele><time>2026-05-01T09:06:13.049Z</time></trkpt><trkpt lat="44.9376212" lon="9.7754309"><ele>94.0</ele><time>2026-05-01T09:06:15.037Z</time></trkpt><trkpt lat="44.9377378" lon="9.7754817"><ele>94.0</ele><time>2026-05-01T09:06:17.035Z</time></trkpt><trkpt lat="44.9378568" lon="9.7755229"><ele>94.0</ele><time>2026-05-01T09:06:19.027Z</time></trkpt><trkpt lat="44.937968" lon="9.7755646"><ele>94.0</ele><time>2026-05-01T09:06:21.03Z</time></trkpt><trkpt lat="44.9380842" lon="9.7755943"><ele>94.0</ele><time>2026-05-01T09:06:23.037Z</time></trkpt><trkpt lat="44.9381467" lon="9.7756191"><ele>94.0</ele><time>2026-05-01T09:06:24.037Z</time></trkpt><trkpt lat="44.9382692" lon="9.7756585"><ele>94.0</ele><time>2026-05-01T09:06:26.032Z</time></trkpt><trkpt lat="44.9383884" lon="9.7756836"><ele>94.0</ele><time>2026-05-01T09:06:28.03Z</time></trkpt><trkpt lat="44.938452" lon="9.7756973"><ele>93.83333333333333</ele><time>2026-05-01T09:06:29.027Z</time></trkpt><trkpt lat="44.938516" lon="9.7757174"><ele>93.66666666666666</ele><time>2026-05-01T09:06:30.005Z</time></trkpt><trkpt lat="44.9385802" lon="9.7757356"><ele>93.5</ele><time>2026-05-01T09:06:31.04Z</time></trkpt><trkpt lat="44.9386993" lon="9.7757671"><ele>93.33333333333333</ele><time>2026-05-01T09:06:33.03Z</time></trkpt><trkpt lat="44.9387623" lon="9.7757818"><ele>93.16666666666667</ele><time>2026-05-01T09:06:34.038Z</time></trkpt><trkpt lat="44.9388244" lon="9.7757983"><ele>93.0</ele><time>2026-05-01T09:06:35.034Z</time></trkpt><trkpt lat="44.9389465" lon="9.7758317"><ele>93.0</ele><time>2026-05-01T09:06:37.032Z</time></trkpt><trkpt lat="44.9390652" lon="9.7758749"><ele>93.0</ele><time>2026-05-01T09:06:39.019Z</time></trkpt><trkpt lat="44.9391865" lon="9.775908"><ele>93.0</ele><time>2026-05-01T09:06:41.04Z</time></trkpt><trkpt lat="44.9393059" lon="9.7759363"><ele>93.0</ele><time>2026-05-01T09:06:43.042Z</time></trkpt><trkpt lat="44.9394273" lon="9.7759721"><ele>93.0</ele><time>2026-05-01T09:06:45.036Z</time></trkpt><trkpt lat="44.9395451" lon="9.7759997"><ele>93.0</ele><time>2026-05-01T09:06:47.033Z</time></trkpt><trkpt lat="44.9396679" lon="9.7760299"><ele>93.0</ele><time>2026-05-01T09:06:49.015Z</time></trkpt><trkpt lat="44.9397934" lon="9.7760498"><ele>93.0</ele><time>2026-05-01T09:06:51.034Z</time></trkpt><trkpt lat="44.9399189" lon="9.7760624"><ele>93.00000000000001</ele><time>2026-05-01T09:06:53.029Z</time></trkpt><trkpt lat="44.9399821" lon="9.7760672"><ele>93.0</ele><time>2026-05-01T09:06:54.033Z</time></trkpt><trkpt lat="44.9400468" lon="9.7760717"><ele>93.0</ele><time>2026-05-01T09:06:55.042Z</time></trkpt><trkpt lat="44.9401103" lon="9.7760728"><ele>93.0</ele><time>2026-05-01T09:06:56.037Z</time></trkpt><trkpt lat="44.9401755" lon="9.776076"><ele>93.0</ele><time>2026-05-01T09:06:57.04Z</time></trkpt><trkpt lat="44.9402989" lon="9.7760956"><ele>93.00000000000001</ele><time>2026-05-01T09:06:59.032Z</time></trkpt><trkpt lat="44.9403614" lon="9.7761091"><ele>93.0</ele><time>2026-05-01T09:07:00.016Z</time></trkpt><trkpt lat="44.9404852" lon="9.7761168"><ele>92.5</ele><time>2026-05-01T09:07:02.032Z</time></trkpt><trkpt lat="44.9405485" lon="9.7761251"><ele>92.0</ele><time>2026-05-01T09:07:03.04Z</time></trkpt><trkpt lat="44.9406105" lon="9.7761419"><ele>91.5</ele><time>2026-05-01T09:07:04.04Z</time></trkpt><trkpt lat="44.9406776" lon="9.7761646"><ele>91.0</ele><time>2026-05-01T09:07:05.028Z</time></trkpt><trkpt lat="44.940798" lon="9.7762214"><ele>90.5</ele><time>2026-05-01T09:07:07.034Z</time></trkpt><trkpt lat="44.9408592" lon="9.7762458"><ele>90.0</ele><time>2026-05-01T09:07:08.041Z</time></trkpt><trkpt lat="44.9409836" lon="9.7762893"><ele>89.8</ele><time>2026-05-01T09:07:10.031Z</time></trkpt><trkpt lat="44.9411028" lon="9.7763357"><ele>89.6</ele><time>2026-05-01T09:07:12.036Z</time></trkpt><trkpt lat="44.9411637" lon="9.7763594"><ele>89.4</ele><time>2026-05-01T09:07:13.038Z</time></trkpt><trkpt lat="44.9412867" lon="9.7763985"><ele>89.2</ele><time>2026-05-01T09:07:15.039Z</time></trkpt><trkpt lat="44.9414035" lon="9.776438"><ele>89.0</ele><time>2026-05-01T09:07:17.033Z</time></trkpt><trkpt lat="44.9415256" lon="9.7764762"><ele>88.99999999999999</ele><time>2026-05-01T09:07:19.033Z</time></trkpt><trkpt lat="44.9415895" lon="9.7764904"><ele>89.0</ele><time>2026-05-01T09:07:20.034Z</time></trkpt><trkpt lat="44.9416515" lon="9.7765089"><ele>89.0</ele><time>2026-05-01T09:07:21.034Z</time></trkpt><trkpt lat="44.9417158" lon="9.7765224"><ele>89.0</ele><time>2026-05-01T09:07:22.036Z</time></trkpt><trkpt lat="44.9417788" lon="9.7765364"><ele>89.0</ele><time>2026-05-01T09:07:23.024Z</time></trkpt><trkpt lat="44.9418428" lon="9.7765533"><ele>88.99999999999999</ele><time>2026-05-01T09:07:24.043Z</time></trkpt><trkpt lat="44.9419087" lon="9.776569"><ele>89.0</ele><time>2026-05-01T09:07:25.033Z</time></trkpt><trkpt lat="44.9419769" lon="9.7765789"><ele>88.85714285714285</ele><time>2026-05-01T09:07:26.038Z</time></trkpt><trkpt lat="44.9420404" lon="9.7765934"><ele>88.71428571428571</ele><time>2026-05-01T09:07:27.039Z</time></trkpt><trkpt lat="44.9421031" lon="9.7766032"><ele>88.57142857142857</ele><time>2026-05-01T09:07:28.031Z</time></trkpt><trkpt lat="44.9421687" lon="9.776614"><ele>88.42857142857142</ele><time>2026-05-01T09:07:29.029Z</time></trkpt><trkpt lat="44.942232" lon="9.7766235"><ele>88.28571428571428</ele><time>2026-05-01T09:07:30.007Z</time></trkpt><trkpt lat="44.9422973" lon="9.7766327"><ele>88.14285714285714</ele><time>2026-05-01T09:07:31.022Z</time></trkpt><trkpt lat="44.9423614" lon="9.7766422"><ele>88.0</ele><time>2026-05-01T09:07:32.036Z</time></trkpt><trkpt lat="44.9424276" lon="9.7766488"><ele>88.0</ele><time>2026-05-01T09:07:33.043Z</time></trkpt><trkpt lat="44.9424926" lon="9.7766607"><ele>88.0</ele><time>2026-05-01T09:07:34.04Z</time></trkpt><trkpt lat="44.9425624" lon="9.7766698"><ele>88.0</ele><time>2026-05-01T09:07:35.032Z</time></trkpt><trkpt lat="44.9426287" lon="9.7766848"><ele>88.0</ele><time>2026-05-01T09:07:36.025Z</time></trkpt><trkpt lat="44.9426909" lon="9.7767098"><ele>88.0</ele><time>2026-05-01T09:07:37.036Z</time></trkpt><trkpt lat="44.9427565" lon="9.7767312"><ele>88.0</ele><time>2026-05-01T09:07:38.032Z</time></trkpt><trkpt lat="44.9428234" lon="9.7767508"><ele>88.0</ele><time>2026-05-01T09:07:39.03Z</time></trkpt><trkpt lat="44.9428882" lon="9.7767747"><ele>88.14285714285714</ele><time>2026-05-01T09:07:40.031Z</time></trkpt><trkpt lat="44.9429569" lon="9.7767968"><ele>88.28571428571428</ele><time>2026-05-01T09:07:41.036Z</time></trkpt><trkpt lat="44.9430215" lon="9.7768109"><ele>88.42857142857142</ele><time>2026-05-01T09:07:42.032Z</time></trkpt><trkpt lat="44.9430877" lon="9.7768231"><ele>88.57142857142857</ele><time>2026-05-01T09:07:43.036Z</time></trkpt><trkpt lat="44.9431565" lon="9.7768256"><ele>88.71428571428571</ele><time>2026-05-01T09:07:44.039Z</time></trkpt><trkpt lat="44.9432287" lon="9.7768288"><ele>88.85714285714285</ele><time>2026-05-01T09:07:45.048Z</time></trkpt><trkpt lat="44.9432936" lon="9.7768344"><ele>89.0</ele><time>2026-05-01T09:07:46.038Z</time></trkpt><trkpt lat="44.9433591" lon="9.7768327"><ele>88.99999999999999</ele><time>2026-05-01T09:07:47.03Z</time></trkpt><trkpt lat="44.9434226" lon="9.7768363"><ele>89.0</ele><time>2026-05-01T09:07:48.028Z</time></trkpt><trkpt lat="44.9434907" lon="9.7768322"><ele>89.0</ele><time>2026-05-01T09:07:49.032Z</time></trkpt><trkpt lat="44.9435558" lon="9.776829"><ele>89.0</ele><time>2026-05-01T09:07:50.037Z</time></trkpt><trkpt lat="44.9436206" lon="9.7768317"><ele>89.0</ele><time>2026-05-01T09:07:51.036Z</time></trkpt><trkpt lat="44.9436864" lon="9.7768431"><ele>88.99999999999999</ele><time>2026-05-01T09:07:52.031Z</time></trkpt><trkpt lat="44.9437568" lon="9.7768591"><ele>89.0</ele><time>2026-05-01T09:07:53.033Z</time></trkpt><trkpt lat="44.9438225" lon="9.7768766"><ele>88.85714285714285</ele><time>2026-05-01T09:07:54.041Z</time></trkpt><trkpt lat="44.9438881" lon="9.7768985"><ele>88.71428571428571</ele><time>2026-05-01T09:07:55.039Z</time></trkpt><trkpt lat="44.9439509" lon="9.7769236"><ele>88.57142857142857</ele><time>2026-05-01T09:07:56.034Z</time></trkpt><trkpt lat="44.9440151" lon="9.7769537"><ele>88.42857142857142</ele><time>2026-05-01T09:07:57.038Z</time></trkpt><trkpt lat="44.9440762" lon="9.7769834"><ele>88.28571428571428</ele><time>2026-05-01T09:07:58.037Z</time></trkpt><trkpt lat="44.9441378" lon="9.7770127"><ele>88.14285714285714</ele><time>2026-05-01T09:07:59.038Z</time></trkpt><trkpt lat="44.9442021" lon="9.7770375"><ele>88.0</ele><time>2026-05-01T09:08:00.034Z</time></trkpt><trkpt lat="44.9443229" lon="9.7770907"><ele>88.0</ele><time>2026-05-01T09:08:02.029Z</time></trkpt><trkpt lat="44.9443853" lon="9.7771108"><ele>88.0</ele><time>2026-05-01T09:08:03.04Z</time></trkpt><trkpt lat="44.9444477" lon="9.7771239"><ele>88.0</ele><time>2026-05-01T09:08:04.01Z</time></trkpt><trkpt lat="44.9445717" lon="9.7771021"><ele>88.0</ele><time>2026-05-01T09:08:06.045Z</time></trkpt><trkpt lat="44.9446329" lon="9.7770809"><ele>88.0</ele><time>2026-05-01T09:08:07.033Z</time></trkpt><trkpt lat="44.9446966" lon="9.7770596"><ele>88.0</ele><time>2026-05-01T09:08:08.033Z</time></trkpt><trkpt lat="44.9447571" lon="9.7770332"><ele>88.0</ele><time>2026-05-01T09:08:09.038Z</time></trkpt><trkpt lat="44.9448205" lon="9.7770093"><ele>88.0</ele><time>2026-05-01T09:08:10.038Z</time></trkpt><trkpt lat="44.9448831" lon="9.7769879"><ele>88.0</ele><time>2026-05-01T09:08:11.029Z</time></trkpt><trkpt lat="44.9449463" lon="9.7769643"><ele>88.0</ele><time>2026-05-01T09:08:12.042Z</time></trkpt><trkpt lat="44.9450151" lon="9.7769462"><ele>88.0</ele><time>2026-05-01T09:08:13.039Z</time></trkpt><trkpt lat="44.9450835" lon="9.7769371"><ele>88.0</ele><time>2026-05-01T09:08:14.029Z</time></trkpt><trkpt lat="44.9451508" lon="9.7769308"><ele>88.0</ele><time>2026-05-01T09:08:15.048Z</time></trkpt><trkpt lat="44.9452182" lon="9.7769213"><ele>88.0</ele><time>2026-05-01T09:08:16.042Z</time></trkpt><trkpt lat="44.9452833" lon="9.7769162"><ele>88.0</ele><time>2026-05-01T09:08:17.041Z</time></trkpt><trkpt lat="44.9453484" lon="9.7769191"><ele>88.0</ele><time>2026-05-01T09:08:18.038Z</time></trkpt><trkpt lat="44.9454129" lon="9.7769342"><ele>88.0</ele><time>2026-05-01T09:08:19.045Z</time></trkpt><trkpt lat="44.9454814" lon="9.7769515"><ele>88.0</ele><time>2026-05-01T09:08:20.031Z</time></trkpt><trkpt lat="44.9455467" lon="9.7769647"><ele>88.0</ele><time>2026-05-01T09:08:21.031Z</time></trkpt><trkpt lat="44.9456095" lon="9.7769871"><ele>88.0</ele><time>2026-05-01T09:08:22.032Z</time></trkpt><trkpt lat="44.9457245" lon="9.7770536"><ele>88.0</ele><time>2026-05-01T09:08:24.044Z</time></trkpt><trkpt lat="44.9458392" lon="9.7771202"><ele>88.0</ele><time>2026-05-01T09:08:26.024Z</time></trkpt><trkpt lat="44.9459507" lon="9.7771875"><ele>88.0</ele><time>2026-05-01T09:08:28.031Z</time></trkpt><trkpt lat="44.9460544" lon="9.7772657"><ele>88.0</ele><time>2026-05-01T09:08:30.036Z</time></trkpt><trkpt lat="44.946165" lon="9.7773321"><ele>88.0</ele><time>2026-05-01T09:08:32.037Z</time></trkpt><trkpt lat="44.9462723" lon="9.7773973"><ele>88.0</ele><time>2026-05-01T09:08:34.02Z</time></trkpt><trkpt lat="44.946331" lon="9.7774317"><ele>88.0</ele><time>2026-05-01T09:08:35.036Z</time></trkpt><trkpt lat="44.9464472" lon="9.7775015"><ele>88.0</ele><time>2026-05-01T09:08:37.036Z</time></trkpt><trkpt lat="44.9465632" lon="9.7775538"><ele>88.0</ele><time>2026-05-01T09:08:39.045Z</time></trkpt><trkpt lat="44.9466769" lon="9.7776023"><ele>87.80000000000001</ele><time>2026-05-01T09:08:41.039Z</time></trkpt><trkpt lat="44.9467964" lon="9.7776537"><ele>87.6</ele><time>2026-05-01T09:08:43.044Z</time></trkpt><trkpt lat="44.946911" lon="9.777712"><ele>87.4</ele><time>2026-05-01T09:08:45.042Z</time></trkpt><trkpt lat="44.9469707" lon="9.7777405"><ele>87.19999999999999</ele><time>2026-05-01T09:08:46.038Z</time></trkpt><trkpt lat="44.947085" lon="9.7777941"><ele>87.0</ele><time>2026-05-01T09:08:48.034Z</time></trkpt><trkpt lat="44.9472013" lon="9.7778521"><ele>86.75</ele><time>2026-05-01T09:08:50.033Z</time></trkpt><trkpt lat="44.947314" lon="9.7779065"><ele>86.5</ele><time>2026-05-01T09:08:52.032Z</time></trkpt><trkpt lat="44.9474254" lon="9.7779568"><ele>86.25</ele><time>2026-05-01T09:08:54.041Z</time></trkpt><trkpt lat="44.9475308" lon="9.7780086"><ele>86.0</ele><time>2026-05-01T09:08:56.034Z</time></trkpt><trkpt lat="44.9476378" lon="9.7780605"><ele>85.6</ele><time>2026-05-01T09:08:58.039Z</time></trkpt><trkpt lat="44.9477468" lon="9.778125"><ele>85.19999999999999</ele><time>2026-05-01T09:09:00.021Z</time></trkpt><trkpt lat="44.947853" lon="9.7781713"><ele>84.80000000000001</ele><time>2026-05-01T09:09:02.034Z</time></trkpt><trkpt lat="44.9479509" lon="9.7782237"><ele>84.4</ele><time>2026-05-01T09:09:04.033Z</time></trkpt><trkpt lat="44.9480396" lon="9.7782741"><ele>84.0</ele><time>2026-05-01T09:09:06.032Z</time></trkpt><trkpt lat="44.9481252" lon="9.7783348"><ele>84.0</ele><time>2026-05-01T09:09:08.036Z</time></trkpt><trkpt lat="44.9481642" lon="9.7784525"><ele>84.0</ele><time>2026-05-01T09:09:10.037Z</time></trkpt><trkpt lat="44.9481562" lon="9.778585"><ele>84.0</ele><time>2026-05-01T09:09:12.038Z</time></trkpt><trkpt lat="44.9481289" lon="9.7787214"><ele>84.0</ele><time>2026-05-01T09:09:14.029Z</time></trkpt><trkpt lat="44.9481091" lon="9.7788617"><ele>84.0</ele><time>2026-05-01T09:09:16.029Z</time></trkpt><trkpt lat="44.9480923" lon="9.7790047"><ele>84.2</ele><time>2026-05-01T09:09:18.031Z</time></trkpt><trkpt lat="44.9480749" lon="9.7791516"><ele>84.4</ele><time>2026-05-01T09:09:20.036Z</time></trkpt><trkpt lat="44.9480606" lon="9.7793003"><ele>84.6</ele><time>2026-05-01T09:09:22.03Z</time></trkpt><trkpt lat="44.9480424" lon="9.7794399"><ele>84.8</ele><time>2026-05-01T09:09:24.044Z</time></trkpt><trkpt lat="44.9480265" lon="9.7795927"><ele>85.0</ele><time>2026-05-01T09:09:26.036Z</time></trkpt><trkpt lat="44.9480077" lon="9.7797458"><ele>85.0</ele><time>2026-05-01T09:09:28.031Z</time></trkpt><trkpt lat="44.9479883" lon="9.7799023"><ele>85.0</ele><time>2026-05-01T09:09:30.033Z</time></trkpt><trkpt lat="44.9479711" lon="9.7800619"><ele>85.0</ele><time>2026-05-01T09:09:32.034Z</time></trkpt><trkpt lat="44.9479537" lon="9.7802147"><ele>85.0</ele><time>2026-05-01T09:09:34.027Z</time></trkpt><trkpt lat="44.9479371" lon="9.7803691"><ele>85.0</ele><time>2026-05-01T09:09:36.052Z</time></trkpt><trkpt lat="44.9479129" lon="9.780523"><ele>84.6</ele><time>2026-05-01T09:09:38.025Z</time></trkpt><trkpt lat="44.9478913" lon="9.7806796"><ele>84.2</ele><time>2026-05-01T09:09:40.033Z</time></trkpt><trkpt lat="44.9478771" lon="9.7808317"><ele>83.80000000000001</ele><time>2026-05-01T09:09:42.036Z</time></trkpt><trkpt lat="44.9478592" lon="9.7809803"><ele>83.4</ele><time>2026-05-01T09:09:44.038Z</time></trkpt><trkpt lat="44.9478413" lon="9.7811338"><ele>83.0</ele><time>2026-05-01T09:09:46.036Z</time></trkpt><trkpt lat="44.947819" lon="9.7812895"><ele>83.0</ele><time>2026-05-01T09:09:48.04Z</time></trkpt><trkpt lat="44.9478038" lon="9.7814445"><ele>83.0</ele><time>2026-05-01T09:09:50.028Z</time></trkpt><trkpt lat="44.947785" lon="9.7815999"><ele>83.0</ele><time>2026-05-01T09:09:52.04Z</time></trkpt><trkpt lat="44.9477739" lon="9.7817512"><ele>83.0</ele><time>2026-05-01T09:09:54.044Z</time></trkpt><trkpt lat="44.9477602" lon="9.7818833"><ele>83.0</ele><time>2026-05-01T09:09:56.04Z</time></trkpt><trkpt lat="44.9477484" lon="9.7820181"><ele>83.2</ele><time>2026-05-01T09:09:58.034Z</time></trkpt><trkpt lat="44.9477533" lon="9.7821567"><ele>83.4</ele><time>2026-05-01T09:10:00.049Z</time></trkpt><trkpt lat="44.9478283" lon="9.7822353"><ele>83.60000000000001</ele><time>2026-05-01T09:10:02.043Z</time></trkpt><trkpt lat="44.9479226" lon="9.7822742"><ele>83.80000000000001</ele><time>2026-05-01T09:10:04.027Z</time></trkpt><trkpt lat="44.9480224" lon="9.782318"><ele>84.0</ele><time>2026-05-01T09:10:06.039Z</time></trkpt><trkpt lat="44.9481223" lon="9.7823568"><ele>84.0</ele><time>2026-05-01T09:10:08.037Z</time></trkpt><trkpt lat="44.9482198" lon="9.782394"><ele>84.0</ele><time>2026-05-01T09:10:10.048Z</time></trkpt><trkpt lat="44.9483155" lon="9.782426"><ele>84.0</ele><time>2026-05-01T09:10:12.041Z</time></trkpt><trkpt lat="44.9484137" lon="9.7824587"><ele>84.0</ele><time>2026-05-01T09:10:14.036Z</time></trkpt><trkpt lat="44.9485096" lon="9.7824977"><ele>84.0</ele><time>2026-05-01T09:10:16.036Z</time></trkpt><trkpt lat="44.9486031" lon="9.7825378"><ele>83.80000000000001</ele><time>2026-05-01T09:10:18.017Z</time></trkpt><trkpt lat="44.9486921" lon="9.7825734"><ele>83.60000000000001</ele><time>2026-05-01T09:10:20.025Z</time></trkpt><trkpt lat="44.9487833" lon="9.7825983"><ele>83.4</ele><time>2026-05-01T09:10:22.029Z</time></trkpt><trkpt lat="44.9488642" lon="9.7826327"><ele>83.2</ele><time>2026-05-01T09:10:24.029Z</time></trkpt><trkpt lat="44.948947" lon="9.7826696"><ele>83.0</ele><time>2026-05-01T09:10:26.031Z</time></trkpt><trkpt lat="44.9490372" lon="9.7827036"><ele>83.0</ele><time>2026-05-01T09:10:28.022Z</time></trkpt><trkpt lat="44.9491317" lon="9.78273"><ele>83.0</ele><time>2026-05-01T09:10:30.014Z</time></trkpt><trkpt lat="44.949225" lon="9.7827721"><ele>83.0</ele><time>2026-05-01T09:10:32.028Z</time></trkpt><trkpt lat="44.9493231" lon="9.7828169"><ele>83.0</ele><time>2026-05-01T09:10:34.032Z</time></trkpt><trkpt lat="44.9494183" lon="9.7828529"><ele>83.0</ele><time>2026-05-01T09:10:36.026Z</time></trkpt><trkpt lat="44.9495116" lon="9.7828939"><ele>83.0</ele><time>2026-05-01T09:10:38.044Z</time></trkpt><trkpt lat="44.9496059" lon="9.7829347"><ele>83.0</ele><time>2026-05-01T09:10:40.03Z</time></trkpt><trkpt lat="44.949699" lon="9.7829643"><ele>83.0</ele><time>2026-05-01T09:10:42.04Z</time></trkpt><trkpt lat="44.949788" lon="9.7829965"><ele>83.0</ele><time>2026-05-01T09:10:44.015Z</time></trkpt><trkpt lat="44.9498811" lon="9.7830276"><ele>83.0</ele><time>2026-05-01T09:10:46.029Z</time></trkpt><trkpt lat="44.9499741" lon="9.783058"><ele>83.0</ele><time>2026-05-01T09:10:48.031Z</time></trkpt><trkpt lat="44.9500655" lon="9.783092"><ele>83.0</ele><time>2026-05-01T09:10:50.026Z</time></trkpt><trkpt lat="44.9501516" lon="9.7831235"><ele>83.0</ele><time>2026-05-01T09:10:52.031Z</time></trkpt><trkpt lat="44.950233" lon="9.783155"><ele>83.0</ele><time>2026-05-01T09:10:54.031Z</time></trkpt><trkpt lat="44.9503221" lon="9.7831912"><ele>83.0</ele><time>2026-05-01T09:10:56.044Z</time></trkpt><trkpt lat="44.9504113" lon="9.7832216"><ele>83.0</ele><time>2026-05-01T09:10:58.036Z</time></trkpt><trkpt lat="44.9505052" lon="9.7832482"><ele>83.0</ele><time>2026-05-01T09:11:00.04Z</time></trkpt><trkpt lat="44.9506026" lon="9.7832638"><ele>83.0</ele><time>2026-05-01T09:11:02.033Z</time></trkpt><trkpt lat="44.9507054" lon="9.7832744"><ele>83.0</ele><time>2026-05-01T09:11:04.012Z</time></trkpt><trkpt lat="44.9508005" lon="9.783286"><ele>83.0</ele><time>2026-05-01T09:11:06.022Z</time></trkpt><trkpt lat="44.950895" lon="9.7832997"><ele>83.2</ele><time>2026-05-01T09:11:08.027Z</time></trkpt><trkpt lat="44.950983" lon="9.7833156"><ele>83.4</ele><time>2026-05-01T09:11:10.007Z</time></trkpt><trkpt lat="44.9510762" lon="9.7833231"><ele>83.60000000000001</ele><time>2026-05-01T09:11:12.017Z</time></trkpt><trkpt lat="44.9511739" lon="9.7833301"><ele>83.80000000000001</ele><time>2026-05-01T09:11:14.021Z</time></trkpt><trkpt lat="44.9512652" lon="9.783342"><ele>84.0</ele><time>2026-05-01T09:11:16.031Z</time></trkpt><trkpt lat="44.9513527" lon="9.7833422"><ele>84.0</ele><time>2026-05-01T09:11:18.044Z</time></trkpt><trkpt lat="44.9514414" lon="9.7833482"><ele>84.0</ele><time>2026-05-01T09:11:20.037Z</time></trkpt><trkpt lat="44.9515363" lon="9.7833635"><ele>84.0</ele><time>2026-05-01T09:11:22.036Z</time></trkpt><trkpt lat="44.9516355" lon="9.7833715"><ele>84.0</ele><time>2026-05-01T09:11:24.037Z</time></trkpt><trkpt lat="44.9517249" lon="9.7833702"><ele>84.0</ele><time>2026-05-01T09:11:26.032Z</time></trkpt><trkpt lat="44.9518292" lon="9.7833941"><ele>83.4</ele><time>2026-05-01T09:11:28.033Z</time></trkpt><trkpt lat="44.9519274" lon="9.7834204"><ele>82.80000000000001</ele><time>2026-05-01T09:11:30.036Z</time></trkpt><trkpt lat="44.9520282" lon="9.7834539"><ele>82.19999999999999</ele><time>2026-05-01T09:11:32.033Z</time></trkpt><trkpt lat="44.9521264" lon="9.7834715"><ele>81.6</ele><time>2026-05-01T09:11:34.025Z</time></trkpt><trkpt lat="44.9522221" lon="9.7834965"><ele>81.0</ele><time>2026-05-01T09:11:36.033Z</time></trkpt><trkpt lat="44.9523254" lon="9.7835178"><ele>81.0</ele><time>2026-05-01T09:11:38.03Z</time></trkpt><trkpt lat="44.9524245" lon="9.7835386"><ele>81.0</ele><time>2026-05-01T09:11:40.033Z</time></trkpt><trkpt lat="44.9525181" lon="9.7835597"><ele>81.0</ele><time>2026-05-01T09:11:42.03Z</time></trkpt><trkpt lat="44.9526095" lon="9.7835782"><ele>81.0</ele><time>2026-05-01T09:11:44.03Z</time></trkpt><trkpt lat="44.9526991" lon="9.7835981"><ele>81.0</ele><time>2026-05-01T09:11:46.025Z</time></trkpt><trkpt lat="44.9527873" lon="9.7836225"><ele>81.0</ele><time>2026-05-01T09:11:48.038Z</time></trkpt><trkpt lat="44.9528795" lon="9.7836423"><ele>81.0</ele><time>2026-05-01T09:11:50.032Z</time></trkpt><trkpt lat="44.9529763" lon="9.7836611"><ele>81.0</ele><time>2026-05-01T09:11:52.024Z</time></trkpt><trkpt lat="44.9530735" lon="9.7836857"><ele>81.0</ele><time>2026-05-01T09:11:54.035Z</time></trkpt><trkpt lat="44.9531705" lon="9.7837071"><ele>81.0</ele><time>2026-05-01T09:11:56.034Z</time></trkpt><trkpt lat="44.9532638" lon="9.7837284"><ele>81.0</ele><time>2026-05-01T09:11:58.031Z</time></trkpt><trkpt lat="44.9533613" lon="9.7837489"><ele>81.0</ele><time>2026-05-01T09:12:00.031Z</time></trkpt><trkpt lat="44.9534505" lon="9.7837624"><ele>81.0</ele><time>2026-05-01T09:12:02.037Z</time></trkpt><trkpt lat="44.9535247" lon="9.7837911"><ele>81.0</ele><time>2026-05-01T09:12:04.031Z</time></trkpt><trkpt lat="44.953594" lon="9.7838122"><ele>81.0</ele><time>2026-05-01T09:12:06.017Z</time></trkpt><trkpt lat="44.9536599" lon="9.7838181"><ele>81.0</ele><time>2026-05-01T09:12:08.028Z</time></trkpt><trkpt lat="44.953744" lon="9.7838293"><ele>81.0</ele><time>2026-05-01T09:12:10.024Z</time></trkpt><trkpt lat="44.9538367" lon="9.7838428"><ele>81.0</ele><time>2026-05-01T09:12:12.026Z</time></trkpt><trkpt lat="44.953926" lon="9.7838568"><ele>81.0</ele><time>2026-05-01T09:12:14.037Z</time></trkpt><trkpt lat="44.9540131" lon="9.7838768"><ele>81.0</ele><time>2026-05-01T09:12:16.028Z</time></trkpt><trkpt lat="44.9540983" lon="9.7838965"><ele>81.0</ele><time>2026-05-01T09:12:18.041Z</time></trkpt><trkpt lat="44.9541917" lon="9.7839215"><ele>81.0</ele><time>2026-05-01T09:12:20.038Z</time></trkpt><trkpt lat="44.9542868" lon="9.7839407"><ele>81.0</ele><time>2026-05-01T09:12:22.033Z</time></trkpt><trkpt lat="44.9543767" lon="9.783961"><ele>81.0</ele><time>2026-05-01T09:12:24.035Z</time></trkpt><trkpt lat="44.9544672" lon="9.7839802"><ele>81.0</ele><time>2026-05-01T09:12:26.037Z</time></trkpt><trkpt lat="44.9545637" lon="9.7839974"><ele>81.0</ele><time>2026-05-01T09:12:28.041Z</time></trkpt><trkpt lat="44.9546602" lon="9.7840211"><ele>81.0</ele><time>2026-05-01T09:12:30.035Z</time></trkpt><trkpt lat="44.9547417" lon="9.7840398"><ele>81.0</ele><time>2026-05-01T09:12:32.036Z</time></trkpt><trkpt lat="44.954818" lon="9.784053"><ele>81.0</ele><time>2026-05-01T09:12:34.028Z</time></trkpt><trkpt lat="44.9548963" lon="9.7840687"><ele>81.0</ele><time>2026-05-01T09:12:36.026Z</time></trkpt><trkpt lat="44.9549619" lon="9.7840891"><ele>81.0</ele><time>2026-05-01T09:12:38.032Z</time></trkpt><trkpt lat="44.955027" lon="9.7840532"><ele>81.0</ele><time>2026-05-01T09:12:41.027Z</time></trkpt><trkpt lat="44.9550523" lon="9.7839656"><ele>81.0</ele><time>2026-05-01T09:12:57.027Z</time></trkpt><trkpt lat="44.9550722" lon="9.7838507"><ele>81.0</ele><time>2026-05-01T09:13:00.999Z</time></trkpt><trkpt lat="44.9550949" lon="9.7837628"><ele>81.0</ele><time>2026-05-01T09:13:02.999Z</time></trkpt><trkpt lat="44.955127" lon="9.7836577"><ele>81.0</ele><time>2026-05-01T09:13:05Z</time></trkpt><trkpt lat="44.9551472" lon="9.7835281"><ele>81.0</ele><time>2026-05-01T09:13:06.994Z</time></trkpt><trkpt lat="44.9551675" lon="9.7834001"><ele>81.0</ele><time>2026-05-01T09:13:08.998Z</time></trkpt><trkpt lat="44.9551916" lon="9.7832897"><ele>81.0</ele><time>2026-05-01T09:13:11.008Z</time></trkpt><trkpt lat="44.95522" lon="9.7831561"><ele>81.0</ele><time>2026-05-01T09:13:13.028Z</time></trkpt><trkpt lat="44.9552419" lon="9.7830213"><ele>81.0</ele><time>2026-05-01T09:13:15.037Z</time></trkpt><trkpt lat="44.955269" lon="9.7828707"><ele>81.0</ele><time>2026-05-01T09:13:17.02Z</time></trkpt><trkpt lat="44.9552973" lon="9.7827234"><ele>81.0</ele><time>2026-05-01T09:13:19.01Z</time></trkpt><trkpt lat="44.9553318" lon="9.7825782"><ele>81.0</ele><time>2026-05-01T09:13:21.04Z</time></trkpt><trkpt lat="44.9553598" lon="9.7824436"><ele>81.0</ele><time>2026-05-01T09:13:23.012Z</time></trkpt><trkpt lat="44.9553869" lon="9.7823073"><ele>81.0</ele><time>2026-05-01T09:13:25.025Z</time></trkpt><trkpt lat="44.9554059" lon="9.7821656"><ele>81.0</ele><time>2026-05-01T09:13:27.038Z</time></trkpt><trkpt lat="44.9554351" lon="9.7820195"><ele>81.0</ele><time>2026-05-01T09:13:29.039Z</time></trkpt><trkpt lat="44.9554681" lon="9.7818538"><ele>81.0</ele><time>2026-05-01T09:13:31.017Z</time></trkpt><trkpt lat="44.955499" lon="9.7816962"><ele>81.0</ele><time>2026-05-01T09:13:33.046Z</time></trkpt><trkpt lat="44.9555212" lon="9.7815437"><ele>81.0</ele><time>2026-05-01T09:13:35.011Z</time></trkpt><trkpt lat="44.9555431" lon="9.7813964"><ele>81.0</ele><time>2026-05-01T09:13:37.037Z</time></trkpt><trkpt lat="44.9555678" lon="9.7812473"><ele>81.0</ele><time>2026-05-01T09:13:39.039Z</time></trkpt><trkpt lat="44.955589" lon="9.7810994"><ele>81.0</ele><time>2026-05-01T09:13:41.036Z</time></trkpt><trkpt lat="44.9556172" lon="9.7809482"><ele>81.19999999999999</ele><time>2026-05-01T09:13:43.02Z</time></trkpt><trkpt lat="44.95564" lon="9.7808053"><ele>81.39999999999999</ele><time>2026-05-01T09:13:45.034Z</time></trkpt><trkpt lat="44.9556674" lon="9.7806538"><ele>81.6</ele><time>2026-05-01T09:13:47.027Z</time></trkpt><trkpt lat="44.9556931" lon="9.7805048"><ele>81.8</ele><time>2026-05-01T09:13:49.034Z</time></trkpt><trkpt lat="44.9557344" lon="9.7803511"><ele>82.0</ele><time>2026-05-01T09:13:51.035Z</time></trkpt><trkpt lat="44.955792" lon="9.7802008"><ele>82.0</ele><time>2026-05-01T09:13:53.038Z</time></trkpt><trkpt lat="44.9558676" lon="9.7800743"><ele>82.0</ele><time>2026-05-01T09:13:55.034Z</time></trkpt><trkpt lat="44.9559639" lon="9.7799758"><ele>82.0</ele><time>2026-05-01T09:13:57.034Z</time></trkpt><trkpt lat="44.9560826" lon="9.7799458"><ele>82.0</ele><time>2026-05-01T09:13:59.032Z</time></trkpt><trkpt lat="44.9561937" lon="9.7799551"><ele>81.75</ele><time>2026-05-01T09:14:01.033Z</time></trkpt><trkpt lat="44.9563086" lon="9.779993"><ele>81.5</ele><time>2026-05-01T09:14:03.036Z</time></trkpt><trkpt lat="44.9564217" lon="9.7800295"><ele>81.25</ele><time>2026-05-01T09:14:05.027Z</time></trkpt><trkpt lat="44.9565367" lon="9.7800676"><ele>81.0</ele><time>2026-05-01T09:14:07.033Z</time></trkpt><trkpt lat="44.9566498" lon="9.7801069"><ele>81.0</ele><time>2026-05-01T09:14:09.038Z</time></trkpt><trkpt lat="44.9567633" lon="9.7801337"><ele>81.0</ele><time>2026-05-01T09:14:11.03Z</time></trkpt><trkpt lat="44.9568741" lon="9.7801479"><ele>81.0</ele><time>2026-05-01T09:14:13.04Z</time></trkpt><trkpt lat="44.9569854" lon="9.7801769"><ele>81.0</ele><time>2026-05-01T09:14:15.028Z</time></trkpt><trkpt lat="44.9571014" lon="9.7801993"><ele>81.0</ele><time>2026-05-01T09:14:17.037Z</time></trkpt><trkpt lat="44.9572211" lon="9.7802118"><ele>81.0</ele><time>2026-05-01T09:14:19.03Z</time></trkpt><trkpt lat="44.9573302" lon="9.7802451"><ele>81.0</ele><time>2026-05-01T09:14:21.033Z</time></trkpt><trkpt lat="44.9574433" lon="9.7802734"><ele>81.0</ele><time>2026-05-01T09:14:23.034Z</time></trkpt><trkpt lat="44.9575553" lon="9.7802989"><ele>80.6</ele><time>2026-05-01T09:14:25.035Z</time></trkpt><trkpt lat="44.9576642" lon="9.780324"><ele>80.19999999999999</ele><time>2026-05-01T09:14:27.023Z</time></trkpt><trkpt lat="44.9577747" lon="9.7803489"><ele>79.80000000000001</ele><time>2026-05-01T09:14:29.037Z</time></trkpt><trkpt lat="44.9578782" lon="9.7803821"><ele>79.4</ele><time>2026-05-01T09:14:31.006Z</time></trkpt><trkpt lat="44.9579871" lon="9.780411"><ele>79.0</ele><time>2026-05-01T09:14:33.01Z</time></trkpt><trkpt lat="44.9580917" lon="9.7804413"><ele>79.0</ele><time>2026-05-01T09:14:35.034Z</time></trkpt><trkpt lat="44.9582017" lon="9.7804676"><ele>79.0</ele><time>2026-05-01T09:14:37.032Z</time></trkpt><trkpt lat="44.9583124" lon="9.7804993"><ele>79.0</ele><time>2026-05-01T09:14:39.045Z</time></trkpt><trkpt lat="44.9584165" lon="9.7805344"><ele>79.0</ele><time>2026-05-01T09:14:41.02Z</time></trkpt><trkpt lat="44.9585273" lon="9.7805685"><ele>79.0</ele><time>2026-05-01T09:14:43.021Z</time></trkpt><trkpt lat="44.9586456" lon="9.7806004"><ele>78.75</ele><time>2026-05-01T09:14:45.034Z</time></trkpt><trkpt lat="44.9587597" lon="9.7806244"><ele>78.5</ele><time>2026-05-01T09:14:47.033Z</time></trkpt><trkpt lat="44.9588806" lon="9.7806554"><ele>78.25</ele><time>2026-05-01T09:14:49.046Z</time></trkpt><trkpt lat="44.9589998" lon="9.7806831"><ele>78.0</ele><time>2026-05-01T09:14:51.028Z</time></trkpt><trkpt lat="44.9591138" lon="9.7807179"><ele>78.5</ele><time>2026-05-01T09:14:53.032Z</time></trkpt><trkpt lat="44.9592293" lon="9.7807447"><ele>79.0</ele><time>2026-05-01T09:14:55.032Z</time></trkpt><trkpt lat="44.9593439" lon="9.7807653"><ele>79.5</ele><time>2026-05-01T09:14:57.041Z</time></trkpt><trkpt lat="44.9594593" lon="9.7807881"><ele>80.0</ele><time>2026-05-01T09:14:59.033Z</time></trkpt><trkpt lat="44.9595727" lon="9.7808191"><ele>80.0</ele><time>2026-05-01T09:15:01.025Z</time></trkpt><trkpt lat="44.9596881" lon="9.780852"><ele>80.0</ele><time>2026-05-01T09:15:03.039Z</time></trkpt><trkpt lat="44.9598089" lon="9.7808785"><ele>80.0</ele><time>2026-05-01T09:15:05.037Z</time></trkpt><trkpt lat="44.9599304" lon="9.7809068"><ele>80.0</ele><time>2026-05-01T09:15:07.036Z</time></trkpt><trkpt lat="44.9600472" lon="9.7809317"><ele>79.75</ele><time>2026-05-01T09:15:09.026Z</time></trkpt><trkpt lat="44.9601629" lon="9.7809665"><ele>79.5</ele><time>2026-05-01T09:15:11.037Z</time></trkpt><trkpt lat="44.9602808" lon="9.781002"><ele>79.25</ele><time>2026-05-01T09:15:13.035Z</time></trkpt><trkpt lat="44.9603953" lon="9.7810312"><ele>79.0</ele><time>2026-05-01T09:15:15.037Z</time></trkpt><trkpt lat="44.9605151" lon="9.7810654"><ele>78.8</ele><time>2026-05-01T09:15:17.037Z</time></trkpt><trkpt lat="44.9606372" lon="9.7810892"><ele>78.60000000000001</ele><time>2026-05-01T09:15:19.029Z</time></trkpt><trkpt lat="44.9607027" lon="9.7811014"><ele>78.4</ele><time>2026-05-01T09:15:20.032Z</time></trkpt><trkpt lat="44.9608208" lon="9.7811199"><ele>78.2</ele><time>2026-05-01T09:15:22.03Z</time></trkpt><trkpt lat="44.9609303" lon="9.7811354"><ele>78.0</ele><time>2026-05-01T09:15:24.04Z</time></trkpt><trkpt lat="44.9610367" lon="9.7811547"><ele>77.6</ele><time>2026-05-01T09:15:26.034Z</time></trkpt><trkpt lat="44.9611506" lon="9.7811768"><ele>77.19999999999999</ele><time>2026-05-01T09:15:28.03Z</time></trkpt><trkpt lat="44.9612133" lon="9.7811853"><ele>76.8</ele><time>2026-05-01T09:15:29.027Z</time></trkpt><trkpt lat="44.9613244" lon="9.7812088"><ele>76.39999999999999</ele><time>2026-05-01T09:15:31.021Z</time></trkpt><trkpt lat="44.9614365" lon="9.7812347"><ele>76.0</ele><time>2026-05-01T09:15:33.032Z</time></trkpt><trkpt lat="44.9615454" lon="9.7812583"><ele>76.0</ele><time>2026-05-01T09:15:35.02Z</time></trkpt><trkpt lat="44.9616525" lon="9.7812824"><ele>76.0</ele><time>2026-05-01T09:15:37.018Z</time></trkpt><trkpt lat="44.9617694" lon="9.7812988"><ele>76.0</ele><time>2026-05-01T09:15:39.036Z</time></trkpt><trkpt lat="44.9618836" lon="9.7813133"><ele>76.0</ele><time>2026-05-01T09:15:41.033Z</time></trkpt><trkpt lat="44.9619955" lon="9.7813393"><ele>76.0</ele><time>2026-05-01T09:15:43.04Z</time></trkpt><trkpt lat="44.9621073" lon="9.7813585"><ele>76.0</ele><time>2026-05-01T09:15:45.029Z</time></trkpt><trkpt lat="44.9622231" lon="9.7813847"><ele>76.0</ele><time>2026-05-01T09:15:47.032Z</time></trkpt><trkpt lat="44.9623275" lon="9.7814072"><ele>76.0</ele><time>2026-05-01T09:15:49.038Z</time></trkpt><trkpt lat="44.9624343" lon="9.7814223"><ele>76.0</ele><time>2026-05-01T09:15:51.035Z</time></trkpt><trkpt lat="44.9625463" lon="9.7814492"><ele>76.39999999999999</ele><time>2026-05-01T09:15:53.036Z</time></trkpt><trkpt lat="44.9626661" lon="9.7814735"><ele>76.8</ele><time>2026-05-01T09:15:55.026Z</time></trkpt><trkpt lat="44.9627815" lon="9.7815028"><ele>77.19999999999999</ele><time>2026-05-01T09:15:57.031Z</time></trkpt><trkpt lat="44.9628968" lon="9.7815231"><ele>77.6</ele><time>2026-05-01T09:15:59.044Z</time></trkpt><trkpt lat="44.9629595" lon="9.781537"><ele>78.0</ele><time>2026-05-01T09:16:00.036Z</time></trkpt><trkpt lat="44.9630748" lon="9.7815688"><ele>78.0</ele><time>2026-05-01T09:16:02.035Z</time></trkpt><trkpt lat="44.9631938" lon="9.7815942"><ele>78.0</ele><time>2026-05-01T09:16:04.037Z</time></trkpt><trkpt lat="44.963306" lon="9.7816178"><ele>78.0</ele><time>2026-05-01T09:16:06.034Z</time></trkpt><trkpt lat="44.9634183" lon="9.7816429"><ele>78.0</ele><time>2026-05-01T09:16:08.039Z</time></trkpt><trkpt lat="44.9635214" lon="9.7816644"><ele>77.6</ele><time>2026-05-01T09:16:10.028Z</time></trkpt><trkpt lat="44.963624" lon="9.7816748"><ele>77.19999999999999</ele><time>2026-05-01T09:16:12.035Z</time></trkpt><trkpt lat="44.9637329" lon="9.7816822"><ele>76.8</ele><time>2026-05-01T09:16:14.032Z</time></trkpt><trkpt lat="44.9638413" lon="9.7816976"><ele>76.39999999999999</ele><time>2026-05-01T09:16:16.032Z</time></trkpt><trkpt lat="44.9639513" lon="9.781722"><ele>76.0</ele><time>2026-05-01T09:16:18.026Z</time></trkpt><trkpt lat="44.964073" lon="9.7817464"><ele>76.0</ele><time>2026-05-01T09:16:20.016Z</time></trkpt><trkpt lat="44.9641359" lon="9.78176"><ele>76.0</ele><time>2026-05-01T09:16:21.03Z</time></trkpt><trkpt lat="44.9641991" lon="9.7817749"><ele>76.0</ele><time>2026-05-01T09:16:22.024Z</time></trkpt><trkpt lat="44.9643165" lon="9.7818056"><ele>76.0</ele><time>2026-05-01T09:16:24.036Z</time></trkpt><trkpt lat="44.9644276" lon="9.7818353"><ele>76.0</ele><time>2026-05-01T09:16:26.03Z</time></trkpt><trkpt lat="44.964543" lon="9.78186"><ele>76.5</ele><time>2026-05-01T09:16:28.031Z</time></trkpt><trkpt lat="44.9646565" lon="9.7818709"><ele>77.0</ele><time>2026-05-01T09:16:30.031Z</time></trkpt><trkpt lat="44.9647582" lon="9.7818899"><ele>77.5</ele><time>2026-05-01T09:16:32.035Z</time></trkpt><trkpt lat="44.9648707" lon="9.781903"><ele>78.0</ele><time>2026-05-01T09:16:34.031Z</time></trkpt><trkpt lat="44.9649934" lon="9.7819229"><ele>78.0</ele><time>2026-05-01T09:16:36.022Z</time></trkpt><trkpt lat="44.9651091" lon="9.7819487"><ele>78.0</ele><time>2026-05-01T09:16:38.04Z</time></trkpt><trkpt lat="44.965225" lon="9.7819732"><ele>78.0</ele><time>2026-05-01T09:16:40.027Z</time></trkpt><trkpt lat="44.965346" lon="9.781995"><ele>78.0</ele><time>2026-05-01T09:16:42.023Z</time></trkpt><trkpt lat="44.9654588" lon="9.782002"><ele>78.0</ele><time>2026-05-01T09:16:44.034Z</time></trkpt><trkpt lat="44.9655692" lon="9.7820268"><ele>78.0</ele><time>2026-05-01T09:16:46.045Z</time></trkpt><trkpt lat="44.96568" lon="9.7820412"><ele>78.0</ele><time>2026-05-01T09:16:48.043Z</time></trkpt><trkpt lat="44.9657873" lon="9.7820563"><ele>78.0</ele><time>2026-05-01T09:16:50.036Z</time></trkpt><trkpt lat="44.9658963" lon="9.782075"><ele>78.0</ele><time>2026-05-01T09:16:52.033Z</time></trkpt><trkpt lat="44.9660047" lon="9.782097"><ele>77.8</ele><time>2026-05-01T09:16:54.034Z</time></trkpt><trkpt lat="44.9661185" lon="9.7821221"><ele>77.6</ele><time>2026-05-01T09:16:56.036Z</time></trkpt><trkpt lat="44.9662203" lon="9.7821532"><ele>77.4</ele><time>2026-05-01T09:16:58.018Z</time></trkpt><trkpt lat="44.9663192" lon="9.7821805"><ele>77.2</ele><time>2026-05-01T09:17:00.047Z</time></trkpt><trkpt lat="44.9664057" lon="9.7821774"><ele>77.0</ele><time>2026-05-01T09:17:02.029Z</time></trkpt><trkpt lat="44.9664627" lon="9.7821219"><ele>77.0</ele><time>2026-05-01T09:17:04.036Z</time></trkpt><trkpt lat="44.9665166" lon="9.7820586"><ele>77.0</ele><time>2026-05-01T09:17:06.033Z</time></trkpt><trkpt lat="44.9665956" lon="9.78199"><ele>77.0</ele><time>2026-05-01T09:17:08.027Z</time></trkpt><trkpt lat="44.9666539" lon="9.7819025"><ele>77.0</ele><time>2026-05-01T09:17:10.025Z</time></trkpt><trkpt lat="44.9666924" lon="9.7817932"><ele>77.0</ele><time>2026-05-01T09:17:12.027Z</time></trkpt><trkpt lat="44.9667431" lon="9.7816725"><ele>77.0</ele><time>2026-05-01T09:17:14.035Z</time></trkpt><trkpt lat="44.9668471" lon="9.7816751"><ele>77.0</ele><time>2026-05-01T09:17:16.026Z</time></trkpt><trkpt lat="44.9669401" lon="9.7817405"><ele>77.0</ele><time>2026-05-01T09:17:18.036Z</time></trkpt><trkpt lat="44.9670472" lon="9.7817917"><ele>77.0</ele><time>2026-05-01T09:17:20.029Z</time></trkpt><trkpt lat="44.9671569" lon="9.7818494"><ele>77.0</ele><time>2026-05-01T09:17:22.036Z</time></trkpt><trkpt lat="44.9672711" lon="9.7818894"><ele>77.0</ele><time>2026-05-01T09:17:24.037Z</time></trkpt><trkpt lat="44.9673871" lon="9.7819377"><ele>77.0</ele><time>2026-05-01T09:17:26.024Z</time></trkpt><trkpt lat="44.9674874" lon="9.7819788"><ele>77.0</ele><time>2026-05-01T09:17:28.022Z</time></trkpt><trkpt lat="44.9675998" lon="9.7820287"><ele>77.0</ele><time>2026-05-01T09:17:30.036Z</time></trkpt><trkpt lat="44.9677074" lon="9.7820765"><ele>77.0</ele><time>2026-05-01T09:17:32.037Z</time></trkpt><trkpt lat="44.9678168" lon="9.7821406"><ele>77.0</ele><time>2026-05-01T09:17:34.03Z</time></trkpt><trkpt lat="44.9679261" lon="9.7822056"><ele>77.0</ele><time>2026-05-01T09:17:36.026Z</time></trkpt><trkpt lat="44.9680434" lon="9.7822564"><ele>77.0</ele><time>2026-05-01T09:17:38.032Z</time></trkpt><trkpt lat="44.9681572" lon="9.78231"><ele>77.0</ele><time>2026-05-01T09:17:40.004Z</time></trkpt><trkpt lat="44.9682714" lon="9.7823614"><ele>77.0</ele><time>2026-05-01T09:17:42.026Z</time></trkpt><trkpt lat="44.9683785" lon="9.7824133"><ele>77.0</ele><time>2026-05-01T09:17:44.027Z</time></trkpt><trkpt lat="44.9684869" lon="9.7824641"><ele>77.0</ele><time>2026-05-01T09:17:46.041Z</time></trkpt><trkpt lat="44.9685997" lon="9.7825172"><ele>77.25</ele><time>2026-05-01T09:17:48.046Z</time></trkpt><trkpt lat="44.9687047" lon="9.7825697"><ele>77.5</ele><time>2026-05-01T09:17:50.029Z</time></trkpt><trkpt lat="44.9688215" lon="9.7826261"><ele>77.75</ele><time>2026-05-01T09:17:52.033Z</time></trkpt><trkpt lat="44.9689379" lon="9.7826758"><ele>78.0</ele><time>2026-05-01T09:17:54.037Z</time></trkpt><trkpt lat="44.9690516" lon="9.7827281"><ele>78.0</ele><time>2026-05-01T09:17:56.035Z</time></trkpt><trkpt lat="44.9691615" lon="9.7827835"><ele>78.0</ele><time>2026-05-01T09:17:58.03Z</time></trkpt><trkpt lat="44.9692747" lon="9.782837"><ele>78.0</ele><time>2026-05-01T09:18:00.028Z</time></trkpt><trkpt lat="44.9693869" lon="9.7828804"><ele>78.0</ele><time>2026-05-01T09:18:02.028Z</time></trkpt><trkpt lat="44.9695045" lon="9.7829139"><ele>77.8</ele><time>2026-05-01T09:18:04.031Z</time></trkpt><trkpt lat="44.9696208" lon="9.7829406"><ele>77.6</ele><time>2026-05-01T09:18:06.004Z</time></trkpt><trkpt lat="44.9697435" lon="9.7829742"><ele>77.4</ele><time>2026-05-01T09:18:08.032Z</time></trkpt><trkpt lat="44.9698072" lon="9.7829882"><ele>77.2</ele><time>2026-05-01T09:18:09.032Z</time></trkpt><trkpt lat="44.9699325" lon="9.7830168"><ele>77.0</ele><time>2026-05-01T09:18:11.033Z</time></trkpt><trkpt lat="44.9699941" lon="9.7830356"><ele>76.4</ele><time>2026-05-01T09:18:12.02Z</time></trkpt><trkpt lat="44.9701087" lon="9.7830692"><ele>75.80000000000001</ele><time>2026-05-01T09:18:14.044Z</time></trkpt><trkpt lat="44.9702175" lon="9.783101"><ele>75.2</ele><time>2026-05-01T09:18:16.041Z</time></trkpt><trkpt lat="44.9703209" lon="9.7831384"><ele>74.60000000000001</ele><time>2026-05-01T09:18:18.04Z</time></trkpt><trkpt lat="44.9704213" lon="9.7831472"><ele>74.0</ele><time>2026-05-01T09:18:20.04Z</time></trkpt><trkpt lat="44.9705333" lon="9.7831587"><ele>74.0</ele><time>2026-05-01T09:18:22.04Z</time></trkpt><trkpt lat="44.9706364" lon="9.7831768"><ele>74.0</ele><time>2026-05-01T09:18:24.031Z</time></trkpt><trkpt lat="44.970732" lon="9.7831984"><ele>74.0</ele><time>2026-05-01T09:18:26.027Z</time></trkpt><trkpt lat="44.9708205" lon="9.7832237"><ele>74.0</ele><time>2026-05-01T09:18:28.044Z</time></trkpt><trkpt lat="44.9709143" lon="9.7832617"><ele>74.0</ele><time>2026-05-01T09:18:30.029Z</time></trkpt><trkpt lat="44.9710041" lon="9.7833224"><ele>73.60000000000001</ele><time>2026-05-01T09:18:32.036Z</time></trkpt><trkpt lat="44.9710938" lon="9.7833897"><ele>73.2</ele><time>2026-05-01T09:18:34.03Z</time></trkpt><trkpt lat="44.9711847" lon="9.7834555"><ele>72.80000000000001</ele><time>2026-05-01T09:18:36.025Z</time></trkpt><trkpt lat="44.9712786" lon="9.7835153"><ele>72.4</ele><time>2026-05-01T09:18:38.043Z</time></trkpt><trkpt lat="44.9713726" lon="9.7835764"><ele>72.0</ele><time>2026-05-01T09:18:40.033Z</time></trkpt><trkpt lat="44.9714708" lon="9.783632"><ele>72.0</ele><time>2026-05-01T09:18:42.042Z</time></trkpt><trkpt lat="44.9715678" lon="9.7836891"><ele>72.0</ele><time>2026-05-01T09:18:44.038Z</time></trkpt><trkpt lat="44.9716644" lon="9.7837305"><ele>72.0</ele><time>2026-05-01T09:18:46.032Z</time></trkpt><trkpt lat="44.9717672" lon="9.7837606"><ele>72.0</ele><time>2026-05-01T09:18:48.038Z</time></trkpt><trkpt lat="44.9718712" lon="9.7837889"><ele>72.0</ele><time>2026-05-01T09:18:50.032Z</time></trkpt><trkpt lat="44.9719856" lon="9.783817"><ele>71.8</ele><time>2026-05-01T09:18:52.035Z</time></trkpt><trkpt lat="44.9720826" lon="9.7838481"><ele>71.6</ele><time>2026-05-01T09:18:54.036Z</time></trkpt><trkpt lat="44.9721997" lon="9.7838867"><ele>71.39999999999999</ele><time>2026-05-01T09:18:56.017Z</time></trkpt><trkpt lat="44.972316" lon="9.7839212"><ele>71.2</ele><time>2026-05-01T09:18:58.05Z</time></trkpt><trkpt lat="44.972416" lon="9.7839546"><ele>71.0</ele><time>2026-05-01T09:19:00.033Z</time></trkpt><trkpt lat="44.9725209" lon="9.783985"><ele>70.8</ele><time>2026-05-01T09:19:02.044Z</time></trkpt><trkpt lat="44.972618" lon="9.784013"><ele>70.6</ele><time>2026-05-01T09:19:04.035Z</time></trkpt><trkpt lat="44.9727144" lon="9.7840496"><ele>70.4</ele><time>2026-05-01T09:19:06.038Z</time></trkpt><trkpt lat="44.9728199" lon="9.7840852"><ele>70.2</ele><time>2026-05-01T09:19:08.036Z</time></trkpt><trkpt lat="44.9729233" lon="9.784113"><ele>70.0</ele><time>2026-05-01T09:19:10.04Z</time></trkpt><trkpt lat="44.9730269" lon="9.7841465"><ele>70.0</ele><time>2026-05-01T09:19:12.03Z</time></trkpt><trkpt lat="44.9731359" lon="9.7841831"><ele>70.0</ele><time>2026-05-01T09:19:14.032Z</time></trkpt><trkpt lat="44.9732416" lon="9.7842287"><ele>70.0</ele><time>2026-05-01T09:19:16.027Z</time></trkpt><trkpt lat="44.9733458" lon="9.7842714"><ele>70.0</ele><time>2026-05-01T09:19:18.031Z</time></trkpt><trkpt lat="44.9734466" lon="9.7843091"><ele>70.0</ele><time>2026-05-01T09:19:20.014Z</time></trkpt><trkpt lat="44.9735462" lon="9.7843558"><ele>70.0</ele><time>2026-05-01T09:19:22.029Z</time></trkpt><trkpt lat="44.973657" lon="9.7844049"><ele>70.0</ele><time>2026-05-01T09:19:24.034Z</time></trkpt><trkpt lat="44.9737644" lon="9.78445"><ele>70.0</ele><time>2026-05-01T09:19:26.033Z</time></trkpt><trkpt lat="44.9738721" lon="9.7844894"><ele>70.0</ele><time>2026-05-01T09:19:28.038Z</time></trkpt><trkpt lat="44.9739775" lon="9.7845351"><ele>70.0</ele><time>2026-05-01T09:19:30.038Z</time></trkpt><trkpt lat="44.974088" lon="9.78458"><ele>70.0</ele><time>2026-05-01T09:19:32.032Z</time></trkpt><trkpt lat="44.9741941" lon="9.784636"><ele>70.0</ele><time>2026-05-01T09:19:34.028Z</time></trkpt><trkpt lat="44.9743075" lon="9.7846815"><ele>70.0</ele><time>2026-05-01T09:19:36.038Z</time></trkpt><trkpt lat="44.9744182" lon="9.7847304"><ele>69.8</ele><time>2026-05-01T09:19:38.038Z</time></trkpt><trkpt lat="44.9745212" lon="9.784779"><ele>69.6</ele><time>2026-05-01T09:19:40.038Z</time></trkpt><trkpt lat="44.9746196" lon="9.784828"><ele>69.4</ele><time>2026-05-01T09:19:42.041Z</time></trkpt><trkpt lat="44.9747249" lon="9.7848809"><ele>69.2</ele><time>2026-05-01T09:19:44.033Z</time></trkpt><trkpt lat="44.9748285" lon="9.7849331"><ele>69.0</ele><time>2026-05-01T09:19:46.039Z</time></trkpt><trkpt lat="44.9749483" lon="9.784982"><ele>69.0</ele><time>2026-05-01T09:19:48.04Z</time></trkpt><trkpt lat="44.9750634" lon="9.7850252"><ele>69.0</ele><time>2026-05-01T09:19:50.034Z</time></trkpt><trkpt lat="44.975173" lon="9.7850769"><ele>69.0</ele><time>2026-05-01T09:19:52.034Z</time></trkpt><trkpt lat="44.9752832" lon="9.7851284"><ele>69.0</ele><time>2026-05-01T09:19:54.042Z</time></trkpt><trkpt lat="44.9753883" lon="9.7851832"><ele>69.0</ele><time>2026-05-01T09:19:56.04Z</time></trkpt><trkpt lat="44.9754957" lon="9.7852378"><ele>69.0</ele><time>2026-05-01T09:19:58.041Z</time></trkpt><trkpt lat="44.9756064" lon="9.7852892"><ele>69.0</ele><time>2026-05-01T09:20:00.039Z</time></trkpt><trkpt lat="44.9757136" lon="9.7853359"><ele>69.0</ele><time>2026-05-01T09:20:02.033Z</time></trkpt><trkpt lat="44.9758238" lon="9.7853892"><ele>69.25</ele><time>2026-05-01T09:20:04.045Z</time></trkpt><trkpt lat="44.975933" lon="9.7854401"><ele>69.5</ele><time>2026-05-01T09:20:06.045Z</time></trkpt><trkpt lat="44.9760432" lon="9.7854935"><ele>69.75</ele><time>2026-05-01T09:20:08.039Z</time></trkpt><trkpt lat="44.9761521" lon="9.7855464"><ele>70.0</ele><time>2026-05-01T09:20:10.033Z</time></trkpt><trkpt lat="44.976262" lon="9.7856034"><ele>70.0</ele><time>2026-05-01T09:20:12.038Z</time></trkpt><trkpt lat="44.9763759" lon="9.785658"><ele>70.0</ele><time>2026-05-01T09:20:14.04Z</time></trkpt><trkpt lat="44.9764926" lon="9.7857141"><ele>70.0</ele><time>2026-05-01T09:20:16.038Z</time></trkpt><trkpt lat="44.9766064" lon="9.7857747"><ele>70.0</ele><time>2026-05-01T09:20:18.036Z</time></trkpt><trkpt lat="44.9767056" lon="9.7858535"><ele>70.0</ele><time>2026-05-01T09:20:20.036Z</time></trkpt><trkpt lat="44.9767547" lon="9.7859104"><ele>70.0</ele><time>2026-05-01T09:20:21.037Z</time></trkpt><trkpt lat="44.9768613" lon="9.7859765"><ele>70.0</ele><time>2026-05-01T09:20:23.025Z</time></trkpt><trkpt lat="44.9769697" lon="9.786034"><ele>70.0</ele><time>2026-05-01T09:20:25.036Z</time></trkpt><trkpt lat="44.9770736" lon="9.7860905"><ele>70.0</ele><time>2026-05-01T09:20:27.018Z</time></trkpt><trkpt lat="44.9771762" lon="9.7861429"><ele>69.8</ele><time>2026-05-01T09:20:29.043Z</time></trkpt><trkpt lat="44.9772799" lon="9.786188"><ele>69.6</ele><time>2026-05-01T09:20:31.019Z</time></trkpt><trkpt lat="44.9773795" lon="9.7862431"><ele>69.4</ele><time>2026-05-01T09:20:33.034Z</time></trkpt><trkpt lat="44.9774873" lon="9.7863006"><ele>69.2</ele><time>2026-05-01T09:20:35.034Z</time></trkpt><trkpt lat="44.9775942" lon="9.7863529"><ele>69.0</ele><time>2026-05-01T09:20:37.01Z</time></trkpt><trkpt lat="44.9776977" lon="9.7864045"><ele>69.5</ele><time>2026-05-01T09:20:39.038Z</time></trkpt><trkpt lat="44.9778076" lon="9.7864516"><ele>70.0</ele><time>2026-05-01T09:20:41.037Z</time></trkpt><trkpt lat="44.9779149" lon="9.7865074"><ele>70.5</ele><time>2026-05-01T09:20:43.038Z</time></trkpt><trkpt lat="44.9780197" lon="9.7865667"><ele>71.0</ele><time>2026-05-01T09:20:45.034Z</time></trkpt><trkpt lat="44.9781275" lon="9.7866288"><ele>71.0</ele><time>2026-05-01T09:20:47.033Z</time></trkpt><trkpt lat="44.9782376" lon="9.786686"><ele>71.0</ele><time>2026-05-01T09:20:49.026Z</time></trkpt><trkpt lat="44.9783425" lon="9.78674"><ele>71.0</ele><time>2026-05-01T09:20:51.029Z</time></trkpt><trkpt lat="44.9784467" lon="9.7867961"><ele>71.0</ele><time>2026-05-01T09:20:53.038Z</time></trkpt><trkpt lat="44.9785549" lon="9.7868531"><ele>70.5</ele><time>2026-05-01T09:20:55.046Z</time></trkpt><trkpt lat="44.9786614" lon="9.7869135"><ele>70.0</ele><time>2026-05-01T09:20:57.044Z</time></trkpt><trkpt lat="44.9787691" lon="9.7869698"><ele>69.5</ele><time>2026-05-01T09:20:59.064Z</time></trkpt><trkpt lat="44.9788796" lon="9.7870177"><ele>69.0</ele><time>2026-05-01T09:21:01.034Z</time></trkpt><trkpt lat="44.9789854" lon="9.7870756"><ele>69.0</ele><time>2026-05-01T09:21:03.034Z</time></trkpt><trkpt lat="44.9790982" lon="9.7871316"><ele>69.0</ele><time>2026-05-01T09:21:05.031Z</time></trkpt><trkpt lat="44.9792073" lon="9.7871864"><ele>69.0</ele><time>2026-05-01T09:21:07.043Z</time></trkpt><trkpt lat="44.9793124" lon="9.787248"><ele>69.0</ele><time>2026-05-01T09:21:09.035Z</time></trkpt><trkpt lat="44.9794179" lon="9.7872997"><ele>68.8</ele><time>2026-05-01T09:21:11.036Z</time></trkpt><trkpt lat="44.9795271" lon="9.7873198"><ele>68.60000000000001</ele><time>2026-05-01T09:21:13.034Z</time></trkpt><trkpt lat="44.9796263" lon="9.7872856"><ele>68.4</ele><time>2026-05-01T09:21:15.031Z</time></trkpt><trkpt lat="44.9797166" lon="9.787202"><ele>68.2</ele><time>2026-05-01T09:21:17.037Z</time></trkpt><trkpt lat="44.9797806" lon="9.7870854"><ele>68.0</ele><time>2026-05-01T09:21:19.037Z</time></trkpt><trkpt lat="44.9798526" lon="9.7870068"><ele>68.0</ele><time>2026-05-01T09:21:21.041Z</time></trkpt><trkpt lat="44.9799522" lon="9.7869598"><ele>68.0</ele><time>2026-05-01T09:21:23.034Z</time></trkpt><trkpt lat="44.9800537" lon="9.7869132"><ele>68.0</ele><time>2026-05-01T09:21:25.036Z</time></trkpt><trkpt lat="44.9801772" lon="9.7869014"><ele>68.0</ele><time>2026-05-01T09:21:27.046Z</time></trkpt><trkpt lat="44.9802812" lon="9.7869374"><ele>68.0</ele><time>2026-05-01T09:21:29.033Z</time></trkpt><trkpt lat="44.9803858" lon="9.7870103"><ele>67.6</ele><time>2026-05-01T09:21:31.031Z</time></trkpt><trkpt lat="44.9804825" lon="9.7870859"><ele>67.19999999999999</ele><time>2026-05-01T09:21:33.017Z</time></trkpt><trkpt lat="44.9805789" lon="9.787157"><ele>66.8</ele><time>2026-05-01T09:21:35.019Z</time></trkpt><trkpt lat="44.9806789" lon="9.7872401"><ele>66.39999999999999</ele><time>2026-05-01T09:21:37.024Z</time></trkpt><trkpt lat="44.980778" lon="9.7873182"><ele>66.0</ele><time>2026-05-01T09:21:39.043Z</time></trkpt><trkpt lat="44.9808842" lon="9.7873932"><ele>66.0</ele><time>2026-05-01T09:21:41.033Z</time></trkpt><trkpt lat="44.9809827" lon="9.7874704"><ele>66.0</ele><time>2026-05-01T09:21:43.045Z</time></trkpt><trkpt lat="44.9810835" lon="9.7875485"><ele>66.0</ele><time>2026-05-01T09:21:45.034Z</time></trkpt><trkpt lat="44.981186" lon="9.78763"><ele>66.0</ele><time>2026-05-01T09:21:47.036Z</time></trkpt><trkpt lat="44.9812879" lon="9.7877047"><ele>66.0</ele><time>2026-05-01T09:21:49.038Z</time></trkpt><trkpt lat="44.9813895" lon="9.7877881"><ele>66.0</ele><time>2026-05-01T09:21:51.031Z</time></trkpt><trkpt lat="44.9814915" lon="9.7878748"><ele>66.0</ele><time>2026-05-01T09:21:53.033Z</time></trkpt><trkpt lat="44.9815948" lon="9.7879497"><ele>66.0</ele><time>2026-05-01T09:21:55.04Z</time></trkpt><trkpt lat="44.9816948" lon="9.7880306"><ele>66.0</ele><time>2026-05-01T09:21:57.037Z</time></trkpt><trkpt lat="44.9817964" lon="9.7881109"><ele>66.0</ele><time>2026-05-01T09:21:59.038Z</time></trkpt><trkpt lat="44.9818961" lon="9.7881875"><ele>66.0</ele><time>2026-05-01T09:22:01.032Z</time></trkpt><trkpt lat="44.9819986" lon="9.7882626"><ele>66.0</ele><time>2026-05-01T09:22:03.036Z</time></trkpt><trkpt lat="44.982097" lon="9.7883455"><ele>66.0</ele><time>2026-05-01T09:22:05.035Z</time></trkpt><trkpt lat="44.9821996" lon="9.7884226"><ele>66.0</ele><time>2026-05-01T09:22:07.061Z</time></trkpt><trkpt lat="44.9822986" lon="9.7885001"><ele>66.0</ele><time>2026-05-01T09:22:09.03Z</time></trkpt><trkpt lat="44.9824024" lon="9.7885763"><ele>66.0</ele><time>2026-05-01T09:22:11.025Z</time></trkpt><trkpt lat="44.9825058" lon="9.788648"><ele>66.0</ele><time>2026-05-01T09:22:13.036Z</time></trkpt><trkpt lat="44.9826049" lon="9.7887227"><ele>66.0</ele><time>2026-05-01T09:22:15.037Z</time></trkpt><trkpt lat="44.9827055" lon="9.7887871"><ele>66.0</ele><time>2026-05-01T09:22:17.036Z</time></trkpt><trkpt lat="44.982814" lon="9.7888137"><ele>66.0</ele><time>2026-05-01T09:22:19.034Z</time></trkpt><trkpt lat="44.9829261" lon="9.7887725"><ele>66.0</ele><time>2026-05-01T09:22:21.035Z</time></trkpt><trkpt lat="44.9830241" lon="9.7886725"><ele>66.0</ele><time>2026-05-01T09:22:23.031Z</time></trkpt><trkpt lat="44.9831235" lon="9.7885842"><ele>66.0</ele><time>2026-05-01T09:22:25.051Z</time></trkpt><trkpt lat="44.9832262" lon="9.7885212"><ele>66.0</ele><time>2026-05-01T09:22:27.037Z</time></trkpt><trkpt lat="44.9833448" lon="9.788509"><ele>66.0</ele><time>2026-05-01T09:22:29.035Z</time></trkpt><trkpt lat="44.9834518" lon="9.7885366"><ele>65.8</ele><time>2026-05-01T09:22:31.036Z</time></trkpt><trkpt lat="44.983562" lon="9.788578"><ele>65.6</ele><time>2026-05-01T09:22:33.039Z</time></trkpt><trkpt lat="44.9836634" lon="9.7886158"><ele>65.4</ele><time>2026-05-01T09:22:35.042Z</time></trkpt><trkpt lat="44.9837681" lon="9.7886516"><ele>65.2</ele><time>2026-05-01T09:22:37.039Z</time></trkpt><trkpt lat="44.9838787" lon="9.7886879"><ele>65.0</ele><time>2026-05-01T09:22:39.035Z</time></trkpt><trkpt lat="44.9839847" lon="9.7887219"><ele>65.0</ele><time>2026-05-01T09:22:41.042Z</time></trkpt><trkpt lat="44.9840949" lon="9.7887609"><ele>65.0</ele><time>2026-05-01T09:22:43.034Z</time></trkpt><trkpt lat="44.9841973" lon="9.788799"><ele>65.0</ele><time>2026-05-01T09:22:45.033Z</time></trkpt><trkpt lat="44.9843041" lon="9.7888353"><ele>65.0</ele><time>2026-05-01T09:22:47.038Z</time></trkpt><trkpt lat="44.9844114" lon="9.7888686"><ele>65.0</ele><time>2026-05-01T09:22:49.037Z</time></trkpt><trkpt lat="44.9845182" lon="9.7889101"><ele>64.25</ele><time>2026-05-01T09:22:51.038Z</time></trkpt><trkpt lat="44.9846281" lon="9.7889481"><ele>63.5</ele><time>2026-05-01T09:22:53.041Z</time></trkpt><trkpt lat="44.9847394" lon="9.7889855"><ele>62.75</ele><time>2026-05-01T09:22:55.039Z</time></trkpt><trkpt lat="44.9848464" lon="9.7890243"><ele>62.0</ele><time>2026-05-01T09:22:57.047Z</time></trkpt><trkpt lat="44.9849561" lon="9.7890645"><ele>62.5</ele><time>2026-05-01T09:22:59.037Z</time></trkpt><trkpt lat="44.9850619" lon="9.7891043"><ele>63.0</ele><time>2026-05-01T09:23:01.035Z</time></trkpt><trkpt lat="44.9851732" lon="9.7891433"><ele>63.5</ele><time>2026-05-01T09:23:03.039Z</time></trkpt><trkpt lat="44.9852846" lon="9.7891752"><ele>64.0</ele><time>2026-05-01T09:23:05.039Z</time></trkpt><trkpt lat="44.985398" lon="9.7892145"><ele>64.0</ele><time>2026-05-01T09:23:07.038Z</time></trkpt><trkpt lat="44.9855087" lon="9.7892452"><ele>64.0</ele><time>2026-05-01T09:23:09.038Z</time></trkpt><trkpt lat="44.9856221" lon="9.789254"><ele>64.0</ele><time>2026-05-01T09:23:11.035Z</time></trkpt><trkpt lat="44.9857316" lon="9.7892234"><ele>64.0</ele><time>2026-05-01T09:23:13.038Z</time></trkpt><trkpt lat="44.9858415" lon="9.7891556"><ele>64.5</ele><time>2026-05-01T09:23:15.025Z</time></trkpt><trkpt lat="44.9859246" lon="9.7890448"><ele>65.0</ele><time>2026-05-01T09:23:17.042Z</time></trkpt><trkpt lat="44.9859822" lon="9.7889023"><ele>65.5</ele><time>2026-05-01T09:23:19.037Z</time></trkpt><trkpt lat="44.9860249" lon="9.7887492"><ele>66.0</ele><time>2026-05-01T09:23:21.036Z</time></trkpt><trkpt lat="44.9860501" lon="9.7885848"><ele>66.0</ele><time>2026-05-01T09:23:23.043Z</time></trkpt><trkpt lat="44.9860711" lon="9.7884215"><ele>66.0</ele><time>2026-05-01T09:23:25.039Z</time></trkpt><trkpt lat="44.9860987" lon="9.7882652"><ele>66.0</ele><time>2026-05-01T09:23:27.036Z</time></trkpt><trkpt lat="44.9861233" lon="9.7881105"><ele>66.0</ele><time>2026-05-01T09:23:29.04Z</time></trkpt><trkpt lat="44.9861482" lon="9.7879544"><ele>66.0</ele><time>2026-05-01T09:23:31.031Z</time></trkpt><trkpt lat="44.9861701" lon="9.7877907"><ele>66.0</ele><time>2026-05-01T09:23:33.04Z</time></trkpt><trkpt lat="44.9861975" lon="9.7876265"><ele>66.0</ele><time>2026-05-01T09:23:35.039Z</time></trkpt><trkpt lat="44.9862301" lon="9.7874669"><ele>66.0</ele><time>2026-05-01T09:23:37.037Z</time></trkpt><trkpt lat="44.9862809" lon="9.7873193"><ele>65.39999999999999</ele><time>2026-05-01T09:23:39.037Z</time></trkpt><trkpt lat="44.9863588" lon="9.7872117"><ele>64.8</ele><time>2026-05-01T09:23:41.042Z</time></trkpt><trkpt lat="44.9864636" lon="9.7871413"><ele>64.19999999999999</ele><time>2026-05-01T09:23:43.04Z</time></trkpt><trkpt lat="44.986528" lon="9.7871267"><ele>63.599999999999994</ele><time>2026-05-01T09:23:44.035Z</time></trkpt><trkpt lat="44.9866535" lon="9.7871271"><ele>63.0</ele><time>2026-05-01T09:23:46.036Z</time></trkpt><trkpt lat="44.9867646" lon="9.7871617"><ele>62.75</ele><time>2026-05-01T09:23:48.036Z</time></trkpt><trkpt lat="44.9868801" lon="9.7871959"><ele>62.5</ele><time>2026-05-01T09:23:50.031Z</time></trkpt><trkpt lat="44.9869955" lon="9.7872303"><ele>62.25</ele><time>2026-05-01T09:23:52.038Z</time></trkpt><trkpt lat="44.9871102" lon="9.7872715"><ele>62.0</ele><time>2026-05-01T09:23:54.036Z</time></trkpt><trkpt lat="44.9872239" lon="9.7873167"><ele>62.0</ele><time>2026-05-01T09:23:56.033Z</time></trkpt><trkpt lat="44.9873378" lon="9.7873559"><ele>62.0</ele><time>2026-05-01T09:23:58.035Z</time></trkpt><trkpt lat="44.9874497" lon="9.7873912"><ele>62.0</ele><time>2026-05-01T09:24:00.026Z</time></trkpt><trkpt lat="44.987569" lon="9.7874327"><ele>62.0</ele><time>2026-05-01T09:24:02.039Z</time></trkpt><trkpt lat="44.9876877" lon="9.7874706"><ele>62.0</ele><time>2026-05-01T09:24:04.031Z</time></trkpt><trkpt lat="44.9877966" lon="9.7875118"><ele>62.0</ele><time>2026-05-01T09:24:06.041Z</time></trkpt><trkpt lat="44.9879084" lon="9.7875525"><ele>62.0</ele><time>2026-05-01T09:24:08.032Z</time></trkpt><trkpt lat="44.9880229" lon="9.7876025"><ele>62.0</ele><time>2026-05-01T09:24:10.034Z</time></trkpt><trkpt lat="44.9881335" lon="9.7876363"><ele>62.0</ele><time>2026-05-01T09:24:12.044Z</time></trkpt><trkpt lat="44.988244" lon="9.7876805"><ele>62.0</ele><time>2026-05-01T09:24:14.039Z</time></trkpt><trkpt lat="44.9883534" lon="9.7877185"><ele>62.0</ele><time>2026-05-01T09:24:16.035Z</time></trkpt><trkpt lat="44.9884685" lon="9.7877546"><ele>62.0</ele><time>2026-05-01T09:24:18.039Z</time></trkpt><trkpt lat="44.9885789" lon="9.7877923"><ele>62.2</ele><time>2026-05-01T09:24:20.044Z</time></trkpt><trkpt lat="44.9886878" lon="9.7878414"><ele>62.400000000000006</ele><time>2026-05-01T09:24:22.036Z</time></trkpt><trkpt lat="44.9887989" lon="9.7878794"><ele>62.599999999999994</ele><time>2026-05-01T09:24:24.042Z</time></trkpt><trkpt lat="44.9889027" lon="9.7879178"><ele>62.8</ele><time>2026-05-01T09:24:26.032Z</time></trkpt><trkpt lat="44.989007" lon="9.7879402"><ele>63.0</ele><time>2026-05-01T09:24:28.037Z</time></trkpt><trkpt lat="44.9891189" lon="9.7879724"><ele>63.0</ele><time>2026-05-01T09:24:30.035Z</time></trkpt><trkpt lat="44.9892348" lon="9.7880093"><ele>63.0</ele><time>2026-05-01T09:24:32.038Z</time></trkpt><trkpt lat="44.9893451" lon="9.7880352"><ele>63.0</ele><time>2026-05-01T09:24:34.044Z</time></trkpt><trkpt lat="44.9894584" lon="9.7880668"><ele>63.0</ele><time>2026-05-01T09:24:36.039Z</time></trkpt><trkpt lat="44.9895651" lon="9.7880888"><ele>63.0</ele><time>2026-05-01T09:24:38.041Z</time></trkpt><trkpt lat="44.9896736" lon="9.7881174"><ele>63.0</ele><time>2026-05-01T09:24:40.028Z</time></trkpt><trkpt lat="44.9897851" lon="9.7881462"><ele>63.0</ele><time>2026-05-01T09:24:42.039Z</time></trkpt><trkpt lat="44.9898916" lon="9.7881704"><ele>63.0</ele><time>2026-05-01T09:24:44.04Z</time></trkpt><trkpt lat="44.9900063" lon="9.7881934"><ele>63.0</ele><time>2026-05-01T09:24:46.035Z</time></trkpt><trkpt lat="44.9901182" lon="9.7882243"><ele>63.5</ele><time>2026-05-01T09:24:48.04Z</time></trkpt><trkpt lat="44.9902337" lon="9.7882492"><ele>64.0</ele><time>2026-05-01T09:24:50.037Z</time></trkpt><trkpt lat="44.9903526" lon="9.7882679"><ele>64.5</ele><time>2026-05-01T09:24:52.044Z</time></trkpt><trkpt lat="44.9904634" lon="9.7882901"><ele>65.0</ele><time>2026-05-01T09:24:54.043Z</time></trkpt><trkpt lat="44.9905746" lon="9.7883082"><ele>65.0</ele><time>2026-05-01T09:24:56.041Z</time></trkpt><trkpt lat="44.9906938" lon="9.7883287"><ele>65.0</ele><time>2026-05-01T09:24:58.045Z</time></trkpt><trkpt lat="44.9908079" lon="9.7883547"><ele>65.0</ele><time>2026-05-01T09:25:00.043Z</time></trkpt><trkpt lat="44.9909283" lon="9.7883633"><ele>65.0</ele><time>2026-05-01T09:25:02.04Z</time></trkpt><trkpt lat="44.9909928" lon="9.7883724"><ele>65.0</ele><time>2026-05-01T09:25:03.026Z</time></trkpt><trkpt lat="44.9911091" lon="9.7883885"><ele>65.0</ele><time>2026-05-01T09:25:05.037Z</time></trkpt><trkpt lat="44.9912248" lon="9.7884222"><ele>65.0</ele><time>2026-05-01T09:25:07.045Z</time></trkpt><trkpt lat="44.9912906" lon="9.7884307"><ele>65.0</ele><time>2026-05-01T09:25:08.023Z</time></trkpt><trkpt lat="44.9914049" lon="9.7884526"><ele>65.0</ele><time>2026-05-01T09:25:10.034Z</time></trkpt><trkpt lat="44.9915235" lon="9.7884671"><ele>65.0</ele><time>2026-05-01T09:25:12.037Z</time></trkpt><trkpt lat="44.9916449" lon="9.7884884"><ele>64.75</ele><time>2026-05-01T09:25:14.043Z</time></trkpt><trkpt lat="44.9917651" lon="9.7885136"><ele>64.5</ele><time>2026-05-01T09:25:16.044Z</time></trkpt><trkpt lat="44.9918846" lon="9.788542"><ele>64.25</ele><time>2026-05-01T09:25:18.046Z</time></trkpt><trkpt lat="44.9919991" lon="9.7885641"><ele>64.0</ele><time>2026-05-01T09:25:20.042Z</time></trkpt><trkpt lat="44.9921104" lon="9.7885786"><ele>64.0</ele><time>2026-05-01T09:25:22.039Z</time></trkpt><trkpt lat="44.99222" lon="9.7886009"><ele>64.0</ele><time>2026-05-01T09:25:24.039Z</time></trkpt><trkpt lat="44.9923328" lon="9.7886283"><ele>64.0</ele><time>2026-05-01T09:25:26.036Z</time></trkpt><trkpt lat="44.9924493" lon="9.7886384"><ele>64.0</ele><time>2026-05-01T09:25:28.044Z</time></trkpt><trkpt lat="44.9925616" lon="9.788652"><ele>64.0</ele><time>2026-05-01T09:25:30.037Z</time></trkpt><trkpt lat="44.9926244" lon="9.7886606"><ele>64.0</ele><time>2026-05-01T09:25:31.032Z</time></trkpt><trkpt lat="44.9927401" lon="9.7886803"><ele>64.0</ele><time>2026-05-01T09:25:33.052Z</time></trkpt><trkpt lat="44.9928551" lon="9.7886881"><ele>64.0</ele><time>2026-05-01T09:25:35.044Z</time></trkpt><trkpt lat="44.9929618" lon="9.788699"><ele>64.0</ele><time>2026-05-01T09:25:37.045Z</time></trkpt><trkpt lat="44.9930667" lon="9.7887244"><ele>64.0</ele><time>2026-05-01T09:25:39.038Z</time></trkpt><trkpt lat="44.9931663" lon="9.788748"><ele>64.0</ele><time>2026-05-01T09:25:41.005Z</time></trkpt><trkpt lat="44.9932508" lon="9.7886961"><ele>64.0</ele><time>2026-05-01T09:25:43.028Z</time></trkpt><trkpt lat="44.9932908" lon="9.7885647"><ele>64.0</ele><time>2026-05-01T09:25:45.01Z</time></trkpt><trkpt lat="44.9932874" lon="9.7884023"><ele>64.0</ele><time>2026-05-01T09:25:47.004Z</time></trkpt><trkpt lat="44.9933298" lon="9.7882538"><ele>64.25</ele><time>2026-05-01T09:25:49.02Z</time></trkpt><trkpt lat="44.9933923" lon="9.7881248"><ele>64.5</ele><time>2026-05-01T09:25:51.037Z</time></trkpt><trkpt lat="44.9934655" lon="9.7880057"><ele>64.75</ele><time>2026-05-01T09:25:53.036Z</time></trkpt><trkpt lat="44.9935304" lon="9.7878776"><ele>65.0</ele><time>2026-05-01T09:25:55.035Z</time></trkpt><trkpt lat="44.9936073" lon="9.7877529"><ele>65.2</ele><time>2026-05-01T09:25:57.034Z</time></trkpt><trkpt lat="44.9936813" lon="9.7876185"><ele>65.4</ele><time>2026-05-01T09:25:59.033Z</time></trkpt><trkpt lat="44.9937222" lon="9.7875489"><ele>65.6</ele><time>2026-05-01T09:26:00.038Z</time></trkpt><trkpt lat="44.9937986" lon="9.7874262"><ele>65.8</ele><time>2026-05-01T09:26:02.031Z</time></trkpt><trkpt lat="44.9938659" lon="9.7873092"><ele>66.0</ele><time>2026-05-01T09:26:04.038Z</time></trkpt><trkpt lat="44.9939361" lon="9.7871847"><ele>66.0</ele><time>2026-05-01T09:26:06.037Z</time></trkpt><trkpt lat="44.9940138" lon="9.7870717"><ele>66.0</ele><time>2026-05-01T09:26:08.018Z</time></trkpt><trkpt lat="44.9940874" lon="9.7869452"><ele>66.0</ele><time>2026-05-01T09:26:10.032Z</time></trkpt><trkpt lat="44.9941577" lon="9.7868225"><ele>66.0</ele><time>2026-05-01T09:26:12.036Z</time></trkpt><trkpt lat="44.9942356" lon="9.7866949"><ele>66.39999999999999</ele><time>2026-05-01T09:26:14.039Z</time></trkpt><trkpt lat="44.9943161" lon="9.7865671"><ele>66.8</ele><time>2026-05-01T09:26:16.032Z</time></trkpt><trkpt lat="44.9943876" lon="9.7864501"><ele>67.19999999999999</ele><time>2026-05-01T09:26:18.034Z</time></trkpt><trkpt lat="44.9944539" lon="9.7863263"><ele>67.6</ele><time>2026-05-01T09:26:20.04Z</time></trkpt><trkpt lat="44.9945206" lon="9.7862136"><ele>68.0</ele><time>2026-05-01T09:26:22.048Z</time></trkpt><trkpt lat="44.9945943" lon="9.7861063"><ele>68.0</ele><time>2026-05-01T09:26:24.035Z</time></trkpt><trkpt lat="44.9946805" lon="9.7860144"><ele>68.0</ele><time>2026-05-01T09:26:26.033Z</time></trkpt><trkpt lat="44.994791" lon="9.7860175"><ele>68.0</ele><time>2026-05-01T09:26:28.025Z</time></trkpt><trkpt lat="44.9949006" lon="9.7860566"><ele>68.0</ele><time>2026-05-01T09:26:30.04Z</time></trkpt><trkpt lat="44.9950121" lon="9.7861093"><ele>68.0</ele><time>2026-05-01T09:26:32.042Z</time></trkpt><trkpt lat="44.995123" lon="9.7861579"><ele>67.8</ele><time>2026-05-01T09:26:34.034Z</time></trkpt><trkpt lat="44.9952229" lon="9.7862312"><ele>67.6</ele><time>2026-05-01T09:26:36.034Z</time></trkpt><trkpt lat="44.9953174" lon="9.7862883"><ele>67.4</ele><time>2026-05-01T09:26:38.015Z</time></trkpt><trkpt lat="44.9954263" lon="9.7863495"><ele>67.2</ele><time>2026-05-01T09:26:40.038Z</time></trkpt><trkpt lat="44.9955275" lon="9.7864146"><ele>67.0</ele><time>2026-05-01T09:26:42.034Z</time></trkpt><trkpt lat="44.995621" lon="9.7864864"><ele>67.0</ele><time>2026-05-01T09:26:44.038Z</time></trkpt><trkpt lat="44.9957137" lon="9.7865561"><ele>67.0</ele><time>2026-05-01T09:26:46.038Z</time></trkpt><trkpt lat="44.9958182" lon="9.7866298"><ele>67.0</ele><time>2026-05-01T09:26:48.038Z</time></trkpt><trkpt lat="44.9959181" lon="9.7867102"><ele>67.0</ele><time>2026-05-01T09:26:50.049Z</time></trkpt><trkpt lat="44.9960241" lon="9.7867974"><ele>66.8</ele><time>2026-05-01T09:26:52.039Z</time></trkpt><trkpt lat="44.996117" lon="9.7868764"><ele>66.6</ele><time>2026-05-01T09:26:54.05Z</time></trkpt><trkpt lat="44.9962083" lon="9.7869474"><ele>66.39999999999999</ele><time>2026-05-01T09:26:56.031Z</time></trkpt><trkpt lat="44.9962857" lon="9.7870318"><ele>66.2</ele><time>2026-05-01T09:26:58.038Z</time></trkpt><trkpt lat="44.9963497" lon="9.7871427"><ele>66.0</ele><time>2026-05-01T09:27:00.04Z</time></trkpt><trkpt lat="44.9964348" lon="9.787238"><ele>66.0</ele><time>2026-05-01T09:27:02.038Z</time></trkpt><trkpt lat="44.9965195" lon="9.7873204"><ele>66.0</ele><time>2026-05-01T09:27:04.049Z</time></trkpt><trkpt lat="44.9965867" lon="9.7874158"><ele>66.0</ele><time>2026-05-01T09:27:06.035Z</time></trkpt><trkpt lat="44.9966545" lon="9.7875094"><ele>66.0</ele><time>2026-05-01T09:27:08.04Z</time></trkpt><trkpt lat="44.9967308" lon="9.7875968"><ele>66.0</ele><time>2026-05-01T09:27:10.041Z</time></trkpt><trkpt lat="44.9967976" lon="9.7876934"><ele>66.16666666666667</ele><time>2026-05-01T09:27:12.034Z</time></trkpt><trkpt lat="44.9968708" lon="9.7877804"><ele>66.33333333333333</ele><time>2026-05-01T09:27:14.024Z</time></trkpt><trkpt lat="44.9969272" lon="9.7878638"><ele>66.5</ele><time>2026-05-01T09:27:16.037Z</time></trkpt><trkpt lat="44.9969949" lon="9.787935"><ele>66.66666666666666</ele><time>2026-05-01T09:27:18.041Z</time></trkpt><trkpt lat="44.9970425" lon="9.788015"><ele>66.83333333333333</ele><time>2026-05-01T09:27:20.045Z</time></trkpt><trkpt lat="44.9971065" lon="9.7880975"><ele>67.0</ele><time>2026-05-01T09:27:22.044Z</time></trkpt><trkpt lat="44.9971553" lon="9.7881762"><ele>67.0</ele><time>2026-05-01T09:27:24.039Z</time></trkpt><trkpt lat="44.9971904" lon="9.7882631"><ele>67.0</ele><time>2026-05-01T09:27:26.031Z</time></trkpt><trkpt lat="44.9971445" lon="9.7883668"><ele>67.0</ele><time>2026-05-01T09:27:29.031Z</time></trkpt><trkpt lat="44.9977549" lon="9.7881167"><ele>67.0</ele><time>2026-05-01T09:31:18.99Z</time></trkpt><trkpt lat="44.9976541" lon="9.7881562"><ele>67.0</ele><time>2026-05-01T09:31:21.996Z</time></trkpt><trkpt lat="44.9975568" lon="9.7881573"><ele>67.0</ele><time>2026-05-01T09:31:24.993Z</time></trkpt><trkpt lat="44.9974742" lon="9.7881072"><ele>67.0</ele><time>2026-05-01T09:31:30.99Z</time></trkpt><trkpt lat="44.9974083" lon="9.7880974"><ele>67.0</ele><time>2026-05-01T09:31:34.996Z</time></trkpt><trkpt lat="44.9973496" lon="9.7881642"><ele>67.0</ele><time>2026-05-01T09:31:39.997Z</time></trkpt><trkpt lat="44.9973105" lon="9.788254"><ele>67.0</ele><time>2026-05-01T09:31:42.993Z</time></trkpt><trkpt lat="44.9972682" lon="9.7883584"><ele>67.0</ele><time>2026-05-01T09:31:46.992Z</time></trkpt><trkpt lat="44.9972406" lon="9.7885156"><ele>67.0</ele><time>2026-05-01T09:31:50.991Z</time></trkpt><trkpt lat="44.9972141" lon="9.7886025"><ele>67.0</ele><time>2026-05-01T09:31:52.989Z</time></trkpt><trkpt lat="44.9971519" lon="9.7886785"><ele>67.0</ele><time>2026-05-01T09:31:55.993Z</time></trkpt><trkpt lat="44.9970858" lon="9.7886319"><ele>67.0</ele><time>2026-05-01T09:32:00.985Z</time></trkpt><trkpt lat="44.9972192" lon="9.7884408"><ele>67.0</ele><time>2026-05-01T09:33:28.991Z</time></trkpt><trkpt lat="44.9972986" lon="9.7883834"><ele>67.0</ele><time>2026-05-01T09:33:30.995Z</time></trkpt><trkpt lat="44.9972313" lon="9.7886324"><ele>67.0</ele><time>2026-05-01T09:34:29.99Z</time></trkpt><trkpt lat="44.997153" lon="9.7887668"><ele>67.0</ele><time>2026-05-01T09:34:31.989Z</time></trkpt><trkpt lat="44.9971042" lon="9.7888345"><ele>66.0</ele><time>2026-05-01T09:34:33.031Z</time></trkpt><trkpt lat="44.9970537" lon="9.7889073"><ele>66.0</ele><time>2026-05-01T09:34:34.001Z</time></trkpt><trkpt lat="44.997031" lon="9.7888046"><ele>66.0</ele><time>2026-05-01T09:34:37.997Z</time></trkpt></trkseg></trk></gpx>